<?xml version="1.0" encoding="UTF-8" standalone="no" ?>
<gpx xmlns="http://www.topografix.com/GPX/1/1" xmlns:xsi="http://www.w3.org/2001/XMLSchema-instance" xsi:schemaLocation="http://www.topografix.com/GPX/1/1 http://www.topografix.com/GPX/1/1/gpx.xsd" version="1.1" creator="VisuGPX - https://www.visugpx.com">
  <metadata>
    <name>Ariège 120km 3040D+</name>
  </metadata>
  <trk>
    <name><![CDATA[10213256-Autour de Seix 2]]></name>
    <trkseg>
      <trkpt lat="42.86984" lon="1.20475">
        <ele>510</ele>
        <time>2020-07-27T09:19:20Z</time>
      </trkpt>
      <trkpt lat="42.86834" lon="1.20815">
        <ele>508</ele>
        <time>2020-07-27T09:20:12Z</time>
      </trkpt>
      <trkpt lat="42.8683" lon="1.20828">
        <ele>509</ele>
        <time>2020-07-27T09:20:14Z</time>
      </trkpt>
      <trkpt lat="42.86821" lon="1.20825">
        <ele>509</ele>
        <time>2020-07-27T09:20:15Z</time>
      </trkpt>
      <trkpt lat="42.86814" lon="1.20831">
        <ele>510</ele>
        <time>2020-07-27T09:20:17Z</time>
      </trkpt>
      <trkpt lat="42.86798" lon="1.20818">
        <ele>510</ele>
        <time>2020-07-27T09:20:20Z</time>
      </trkpt>
      <trkpt lat="42.86778" lon="1.20794">
        <ele>510</ele>
        <time>2020-07-27T09:20:25Z</time>
      </trkpt>
      <trkpt lat="42.86567" lon="1.2052">
        <ele>509</ele>
        <time>2020-07-27T09:21:17Z</time>
      </trkpt>
      <trkpt lat="42.86495" lon="1.20443">
        <ele>511</ele>
        <time>2020-07-27T09:21:33Z</time>
      </trkpt>
      <trkpt lat="42.86432" lon="1.20351">
        <ele>511</ele>
        <time>2020-07-27T09:21:49Z</time>
      </trkpt>
      <trkpt lat="42.86404" lon="1.20303">
        <ele>511</ele>
        <time>2020-07-27T09:21:57Z</time>
      </trkpt>
      <trkpt lat="42.86382" lon="1.20258">
        <ele>511</ele>
        <time>2020-07-27T09:22:04Z</time>
      </trkpt>
      <trkpt lat="42.86355" lon="1.20193">
        <ele>512</ele>
        <time>2020-07-27T09:22:14Z</time>
      </trkpt>
      <trkpt lat="42.86334" lon="1.20147">
        <ele>512</ele>
        <time>2020-07-27T09:22:21Z</time>
      </trkpt>
      <trkpt lat="42.86292" lon="1.20093">
        <ele>513</ele>
        <time>2020-07-27T09:22:31Z</time>
      </trkpt>
      <trkpt lat="42.8625" lon="1.20047">
        <ele>512</ele>
        <time>2020-07-27T09:22:41Z</time>
      </trkpt>
      <trkpt lat="42.86128" lon="1.19924">
        <ele>513</ele>
        <time>2020-07-27T09:23:08Z</time>
      </trkpt>
      <trkpt lat="42.85993" lon="1.1982">
        <ele>523</ele>
        <time>2020-07-27T09:23:36Z</time>
      </trkpt>
      <trkpt lat="42.85962" lon="1.19803">
        <ele>526</ele>
        <time>2020-07-27T09:23:42Z</time>
      </trkpt>
      <trkpt lat="42.85928" lon="1.19787">
        <ele>527</ele>
        <time>2020-07-27T09:23:48Z</time>
      </trkpt>
      <trkpt lat="42.85898" lon="1.19777">
        <ele>527</ele>
        <time>2020-07-27T09:23:53Z</time>
      </trkpt>
      <trkpt lat="42.8585" lon="1.19765">
        <ele>527</ele>
        <time>2020-07-27T09:24:02Z</time>
      </trkpt>
      <trkpt lat="42.85718" lon="1.19706">
        <ele>536</ele>
        <time>2020-07-27T09:24:27Z</time>
      </trkpt>
      <trkpt lat="42.85699" lon="1.197">
        <ele>536</ele>
        <time>2020-07-27T09:24:30Z</time>
      </trkpt>
      <trkpt lat="42.85594" lon="1.19677">
        <ele>534</ele>
        <time>2020-07-27T09:24:49Z</time>
      </trkpt>
      <trkpt lat="42.85485" lon="1.19662">
        <ele>542</ele>
        <time>2020-07-27T09:25:09Z</time>
      </trkpt>
      <trkpt lat="42.85463" lon="1.19653">
        <ele>547</ele>
        <time>2020-07-27T09:25:13Z</time>
      </trkpt>
      <trkpt lat="42.85446" lon="1.19639">
        <ele>549</ele>
        <time>2020-07-27T09:25:16Z</time>
      </trkpt>
      <trkpt lat="42.85428" lon="1.19619">
        <ele>548</ele>
        <time>2020-07-27T09:25:20Z</time>
      </trkpt>
      <trkpt lat="42.85408" lon="1.19588">
        <ele>546</ele>
        <time>2020-07-27T09:25:26Z</time>
      </trkpt>
      <trkpt lat="42.85389" lon="1.19556">
        <ele>552</ele>
        <time>2020-07-27T09:25:31Z</time>
      </trkpt>
      <trkpt lat="42.85357" lon="1.19472">
        <ele>551</ele>
        <time>2020-07-27T09:25:44Z</time>
      </trkpt>
      <trkpt lat="42.85344" lon="1.19431">
        <ele>546</ele>
        <time>2020-07-27T09:25:49Z</time>
      </trkpt>
      <trkpt lat="42.85331" lon="1.19397">
        <ele>543</ele>
        <time>2020-07-27T09:25:54Z</time>
      </trkpt>
      <trkpt lat="42.85315" lon="1.19366">
        <ele>545</ele>
        <time>2020-07-27T09:25:59Z</time>
      </trkpt>
      <trkpt lat="42.85298" lon="1.19344">
        <ele>543</ele>
        <time>2020-07-27T09:26:04Z</time>
      </trkpt>
      <trkpt lat="42.85278" lon="1.19327">
        <ele>540</ele>
        <time>2020-07-27T09:26:08Z</time>
      </trkpt>
      <trkpt lat="42.85263" lon="1.19317">
        <ele>539</ele>
        <time>2020-07-27T09:26:11Z</time>
      </trkpt>
      <trkpt lat="42.85244" lon="1.19309">
        <ele>538</ele>
        <time>2020-07-27T09:26:14Z</time>
      </trkpt>
      <trkpt lat="42.85164" lon="1.19291">
        <ele>540</ele>
        <time>2020-07-27T09:26:29Z</time>
      </trkpt>
      <trkpt lat="42.85095" lon="1.19283">
        <ele>539</ele>
        <time>2020-07-27T09:26:41Z</time>
      </trkpt>
      <trkpt lat="42.85023" lon="1.19282">
        <ele>544</ele>
        <time>2020-07-27T09:26:54Z</time>
      </trkpt>
      <trkpt lat="42.8499" lon="1.19274">
        <ele>547</ele>
        <time>2020-07-27T09:27:00Z</time>
      </trkpt>
      <trkpt lat="42.84974" lon="1.19265">
        <ele>549</ele>
        <time>2020-07-27T09:27:03Z</time>
      </trkpt>
      <trkpt lat="42.8496" lon="1.19253">
        <ele>549</ele>
        <time>2020-07-27T09:27:06Z</time>
      </trkpt>
      <trkpt lat="42.8495" lon="1.19237">
        <ele>550</ele>
        <time>2020-07-27T09:27:08Z</time>
      </trkpt>
      <trkpt lat="42.84913" lon="1.19159">
        <ele>542</ele>
        <time>2020-07-27T09:27:21Z</time>
      </trkpt>
      <trkpt lat="42.84906" lon="1.19152">
        <ele>544</ele>
        <time>2020-07-27T09:27:22Z</time>
      </trkpt>
      <trkpt lat="42.849" lon="1.19148">
        <ele>545</ele>
        <time>2020-07-27T09:27:23Z</time>
      </trkpt>
      <trkpt lat="42.84888" lon="1.19148">
        <ele>545</ele>
        <time>2020-07-27T09:27:25Z</time>
      </trkpt>
      <trkpt lat="42.84872" lon="1.19157">
        <ele>543</ele>
        <time>2020-07-27T09:27:29Z</time>
      </trkpt>
      <trkpt lat="42.84759" lon="1.19254">
        <ele>548</ele>
        <time>2020-07-27T09:27:52Z</time>
      </trkpt>
      <trkpt lat="42.84742" lon="1.19266">
        <ele>554</ele>
        <time>2020-07-27T09:27:56Z</time>
      </trkpt>
      <trkpt lat="42.84727" lon="1.1927">
        <ele>557</ele>
        <time>2020-07-27T09:27:58Z</time>
      </trkpt>
      <trkpt lat="42.84712" lon="1.19271">
        <ele>558</ele>
        <time>2020-07-27T09:28:01Z</time>
      </trkpt>
      <trkpt lat="42.84689" lon="1.19268">
        <ele>557</ele>
        <time>2020-07-27T09:28:05Z</time>
      </trkpt>
      <trkpt lat="42.84678" lon="1.19264">
        <ele>555</ele>
        <time>2020-07-27T09:28:07Z</time>
      </trkpt>
      <trkpt lat="42.8462" lon="1.19227">
        <ele>550</ele>
        <time>2020-07-27T09:28:19Z</time>
      </trkpt>
      <trkpt lat="42.84601" lon="1.19217">
        <ele>549</ele>
        <time>2020-07-27T09:28:22Z</time>
      </trkpt>
      <trkpt lat="42.84567" lon="1.19208">
        <ele>549</ele>
        <time>2020-07-27T09:28:28Z</time>
      </trkpt>
      <trkpt lat="42.84533" lon="1.19202">
        <ele>548</ele>
        <time>2020-07-27T09:28:35Z</time>
      </trkpt>
      <trkpt lat="42.8451" lon="1.19201">
        <ele>548</ele>
        <time>2020-07-27T09:28:39Z</time>
      </trkpt>
      <trkpt lat="42.84456" lon="1.19205">
        <ele>549</ele>
        <time>2020-07-27T09:28:48Z</time>
      </trkpt>
      <trkpt lat="42.84437" lon="1.19201">
        <ele>548</ele>
        <time>2020-07-27T09:28:52Z</time>
      </trkpt>
      <trkpt lat="42.84362" lon="1.19162">
        <ele>547</ele>
        <time>2020-07-27T09:29:06Z</time>
      </trkpt>
      <trkpt lat="42.84332" lon="1.19143">
        <ele>549</ele>
        <time>2020-07-27T09:29:12Z</time>
      </trkpt>
      <trkpt lat="42.84294" lon="1.19109">
        <ele>547</ele>
        <time>2020-07-27T09:29:20Z</time>
      </trkpt>
      <trkpt lat="42.84287" lon="1.19105">
        <ele>547</ele>
        <time>2020-07-27T09:29:21Z</time>
      </trkpt>
      <trkpt lat="42.84279" lon="1.19104">
        <ele>547</ele>
        <time>2020-07-27T09:29:23Z</time>
      </trkpt>
      <trkpt lat="42.84266" lon="1.19106">
        <ele>548</ele>
        <time>2020-07-27T09:29:25Z</time>
      </trkpt>
      <trkpt lat="42.84246" lon="1.19116">
        <ele>550</ele>
        <time>2020-07-27T09:29:29Z</time>
      </trkpt>
      <trkpt lat="42.84235" lon="1.19125">
        <ele>554</ele>
        <time>2020-07-27T09:29:31Z</time>
      </trkpt>
      <trkpt lat="42.84224" lon="1.19143">
        <ele>556</ele>
        <time>2020-07-27T09:29:34Z</time>
      </trkpt>
      <trkpt lat="42.84175" lon="1.1928">
        <ele>563</ele>
        <time>2020-07-27T09:29:54Z</time>
      </trkpt>
      <trkpt lat="42.84163" lon="1.19307">
        <ele>565</ele>
        <time>2020-07-27T09:29:58Z</time>
      </trkpt>
      <trkpt lat="42.84146" lon="1.19334">
        <ele>566</ele>
        <time>2020-07-27T09:30:03Z</time>
      </trkpt>
      <trkpt lat="42.83971" lon="1.19557">
        <ele>565</ele>
        <time>2020-07-27T09:30:45Z</time>
      </trkpt>
      <trkpt lat="42.83944" lon="1.19588">
        <ele>563</ele>
        <time>2020-07-27T09:30:52Z</time>
      </trkpt>
      <trkpt lat="42.83922" lon="1.19618">
        <ele>561</ele>
        <time>2020-07-27T09:30:57Z</time>
      </trkpt>
      <trkpt lat="42.83914" lon="1.19642">
        <ele>560</ele>
        <time>2020-07-27T09:31:01Z</time>
      </trkpt>
      <trkpt lat="42.83892" lon="1.19739">
        <ele>564</ele>
        <time>2020-07-27T09:31:14Z</time>
      </trkpt>
      <trkpt lat="42.83878" lon="1.19794">
        <ele>566</ele>
        <time>2020-07-27T09:31:22Z</time>
      </trkpt>
      <trkpt lat="42.8387" lon="1.19814">
        <ele>565</ele>
        <time>2020-07-27T09:31:24Z</time>
      </trkpt>
      <trkpt lat="42.83856" lon="1.19839">
        <ele>565</ele>
        <time>2020-07-27T09:31:29Z</time>
      </trkpt>
      <trkpt lat="42.83842" lon="1.19844">
        <ele>565</ele>
        <time>2020-07-27T09:31:31Z</time>
      </trkpt>
      <trkpt lat="42.83807" lon="1.19831">
        <ele>563</ele>
        <time>2020-07-27T09:31:38Z</time>
      </trkpt>
      <trkpt lat="42.83771" lon="1.19809">
        <ele>570</ele>
        <time>2020-07-27T09:31:45Z</time>
      </trkpt>
      <trkpt lat="42.8376" lon="1.19806">
        <ele>572</ele>
        <time>2020-07-27T09:31:47Z</time>
      </trkpt>
      <trkpt lat="42.83746" lon="1.19806">
        <ele>573</ele>
        <time>2020-07-27T09:31:49Z</time>
      </trkpt>
      <trkpt lat="42.83631" lon="1.19831">
        <ele>584</ele>
        <time>2020-07-27T09:32:10Z</time>
      </trkpt>
      <trkpt lat="42.83615" lon="1.19832">
        <ele>589</ele>
        <time>2020-07-27T09:32:13Z</time>
      </trkpt>
      <trkpt lat="42.83602" lon="1.19827">
        <ele>592</ele>
        <time>2020-07-27T09:32:15Z</time>
      </trkpt>
      <trkpt lat="42.83583" lon="1.19809">
        <ele>594</ele>
        <time>2020-07-27T09:32:19Z</time>
      </trkpt>
      <trkpt lat="42.83577" lon="1.19795">
        <ele>593</ele>
        <time>2020-07-27T09:32:21Z</time>
      </trkpt>
      <trkpt lat="42.83573" lon="1.19773">
        <ele>589</ele>
        <time>2020-07-27T09:32:24Z</time>
      </trkpt>
      <trkpt lat="42.83572" lon="1.19753">
        <ele>584</ele>
        <time>2020-07-27T09:32:27Z</time>
      </trkpt>
      <trkpt lat="42.83579" lon="1.1966">
        <ele>575</ele>
        <time>2020-07-27T09:32:39Z</time>
      </trkpt>
      <trkpt lat="42.83579" lon="1.19642">
        <ele>574</ele>
        <time>2020-07-27T09:32:41Z</time>
      </trkpt>
      <trkpt lat="42.83574" lon="1.19626">
        <ele>574</ele>
        <time>2020-07-27T09:32:44Z</time>
      </trkpt>
      <trkpt lat="42.83568" lon="1.19613">
        <ele>573</ele>
        <time>2020-07-27T09:32:46Z</time>
      </trkpt>
      <trkpt lat="42.8356" lon="1.19607">
        <ele>572</ele>
        <time>2020-07-27T09:32:47Z</time>
      </trkpt>
      <trkpt lat="42.8355" lon="1.19607">
        <ele>572</ele>
        <time>2020-07-27T09:32:49Z</time>
      </trkpt>
      <trkpt lat="42.83499" lon="1.19616">
        <ele>570</ele>
        <time>2020-07-27T09:32:58Z</time>
      </trkpt>
      <trkpt lat="42.83485" lon="1.19621">
        <ele>573</ele>
        <time>2020-07-27T09:33:01Z</time>
      </trkpt>
      <trkpt lat="42.83474" lon="1.19633">
        <ele>575</ele>
        <time>2020-07-27T09:33:03Z</time>
      </trkpt>
      <trkpt lat="42.83466" lon="1.19647">
        <ele>574</ele>
        <time>2020-07-27T09:33:06Z</time>
      </trkpt>
      <trkpt lat="42.83446" lon="1.19706">
        <ele>576</ele>
        <time>2020-07-27T09:33:14Z</time>
      </trkpt>
      <trkpt lat="42.83432" lon="1.19738">
        <ele>575</ele>
        <time>2020-07-27T09:33:19Z</time>
      </trkpt>
      <trkpt lat="42.83417" lon="1.19766">
        <ele>578</ele>
        <time>2020-07-27T09:33:24Z</time>
      </trkpt>
      <trkpt lat="42.834" lon="1.19784">
        <ele>584</ele>
        <time>2020-07-27T09:33:27Z</time>
      </trkpt>
      <trkpt lat="42.83368" lon="1.19806">
        <ele>586</ele>
        <time>2020-07-27T09:33:34Z</time>
      </trkpt>
      <trkpt lat="42.83352" lon="1.19813">
        <ele>583</ele>
        <time>2020-07-27T09:33:37Z</time>
      </trkpt>
      <trkpt lat="42.83303" lon="1.19826">
        <ele>577</ele>
        <time>2020-07-27T09:33:46Z</time>
      </trkpt>
      <trkpt lat="42.83244" lon="1.19831">
        <ele>573</ele>
        <time>2020-07-27T09:33:56Z</time>
      </trkpt>
      <trkpt lat="42.83213" lon="1.19837">
        <ele>575</ele>
        <time>2020-07-27T09:34:02Z</time>
      </trkpt>
      <trkpt lat="42.83202" lon="1.19847">
        <ele>577</ele>
        <time>2020-07-27T09:34:04Z</time>
      </trkpt>
      <trkpt lat="42.83202" lon="1.19864">
        <ele>579</ele>
        <time>2020-07-27T09:34:06Z</time>
      </trkpt>
      <trkpt lat="42.83209" lon="1.19898">
        <ele>583</ele>
        <time>2020-07-27T09:34:11Z</time>
      </trkpt>
      <trkpt lat="42.83222" lon="1.19926">
        <ele>587</ele>
        <time>2020-07-27T09:34:15Z</time>
      </trkpt>
      <trkpt lat="42.83249" lon="1.19966">
        <ele>587</ele>
        <time>2020-07-27T09:34:22Z</time>
      </trkpt>
      <trkpt lat="42.83264" lon="1.19997">
        <ele>595</ele>
        <time>2020-07-27T09:34:27Z</time>
      </trkpt>
      <trkpt lat="42.83271" lon="1.20014">
        <ele>600</ele>
        <time>2020-07-27T09:34:30Z</time>
      </trkpt>
      <trkpt lat="42.83275" lon="1.20032">
        <ele>602</ele>
        <time>2020-07-27T09:34:32Z</time>
      </trkpt>
      <trkpt lat="42.83277" lon="1.2005">
        <ele>603</ele>
        <time>2020-07-27T09:34:35Z</time>
      </trkpt>
      <trkpt lat="42.83277" lon="1.20069">
        <ele>603</ele>
        <time>2020-07-27T09:34:37Z</time>
      </trkpt>
      <trkpt lat="42.83272" lon="1.20106">
        <ele>601</ele>
        <time>2020-07-27T09:34:42Z</time>
      </trkpt>
      <trkpt lat="42.83227" lon="1.20253">
        <ele>602</ele>
        <time>2020-07-27T09:35:03Z</time>
      </trkpt>
      <trkpt lat="42.8322" lon="1.20305">
        <ele>603</ele>
        <time>2020-07-27T09:35:10Z</time>
      </trkpt>
      <trkpt lat="42.83218" lon="1.20358">
        <ele>603</ele>
        <time>2020-07-27T09:35:17Z</time>
      </trkpt>
      <trkpt lat="42.83218" lon="1.20416">
        <ele>604</ele>
        <time>2020-07-27T09:35:24Z</time>
      </trkpt>
      <trkpt lat="42.83222" lon="1.20474">
        <ele>606</ele>
        <time>2020-07-27T09:35:32Z</time>
      </trkpt>
      <trkpt lat="42.8323" lon="1.20515">
        <ele>605</ele>
        <time>2020-07-27T09:35:37Z</time>
      </trkpt>
      <trkpt lat="42.83244" lon="1.20552">
        <ele>599</ele>
        <time>2020-07-27T09:35:43Z</time>
      </trkpt>
      <trkpt lat="42.83273" lon="1.20599">
        <ele>603</ele>
        <time>2020-07-27T09:35:51Z</time>
      </trkpt>
      <trkpt lat="42.83306" lon="1.2064">
        <ele>606</ele>
        <time>2020-07-27T09:35:59Z</time>
      </trkpt>
      <trkpt lat="42.83401" lon="1.20747">
        <ele>607</ele>
        <time>2020-07-27T09:36:21Z</time>
      </trkpt>
      <trkpt lat="42.8341" lon="1.2076">
        <ele>605</ele>
        <time>2020-07-27T09:36:23Z</time>
      </trkpt>
      <trkpt lat="42.83416" lon="1.20774">
        <ele>603</ele>
        <time>2020-07-27T09:36:25Z</time>
      </trkpt>
      <trkpt lat="42.83419" lon="1.20792">
        <ele>602</ele>
        <time>2020-07-27T09:36:27Z</time>
      </trkpt>
      <trkpt lat="42.8342" lon="1.20811">
        <ele>600</ele>
        <time>2020-07-27T09:36:30Z</time>
      </trkpt>
      <trkpt lat="42.83416" lon="1.20829">
        <ele>598</ele>
        <time>2020-07-27T09:36:32Z</time>
      </trkpt>
      <trkpt lat="42.83411" lon="1.20843">
        <ele>599</ele>
        <time>2020-07-27T09:36:34Z</time>
      </trkpt>
      <trkpt lat="42.834" lon="1.20859">
        <ele>601</ele>
        <time>2020-07-27T09:36:37Z</time>
      </trkpt>
      <trkpt lat="42.8333" lon="1.20932">
        <ele>599</ele>
        <time>2020-07-27T09:36:53Z</time>
      </trkpt>
      <trkpt lat="42.83303" lon="1.20964">
        <ele>610</ele>
        <time>2020-07-27T09:36:59Z</time>
      </trkpt>
      <trkpt lat="42.83281" lon="1.21044">
        <ele>606</ele>
        <time>2020-07-27T09:37:10Z</time>
      </trkpt>
      <trkpt lat="42.83271" lon="1.21108">
        <ele>599</ele>
        <time>2020-07-27T09:37:19Z</time>
      </trkpt>
      <trkpt lat="42.83269" lon="1.21176">
        <ele>596</ele>
        <time>2020-07-27T09:37:28Z</time>
      </trkpt>
      <trkpt lat="42.8327" lon="1.21325">
        <ele>605</ele>
        <time>2020-07-27T09:37:47Z</time>
      </trkpt>
      <trkpt lat="42.83266" lon="1.21339">
        <ele>605</ele>
        <time>2020-07-27T09:37:49Z</time>
      </trkpt>
      <trkpt lat="42.83241" lon="1.21368">
        <ele>603</ele>
        <time>2020-07-27T09:37:55Z</time>
      </trkpt>
      <trkpt lat="42.83229" lon="1.21389">
        <ele>608</ele>
        <time>2020-07-27T09:37:59Z</time>
      </trkpt>
      <trkpt lat="42.83189" lon="1.21484">
        <ele>618</ele>
        <time>2020-07-27T09:38:13Z</time>
      </trkpt>
      <trkpt lat="42.83179" lon="1.21531">
        <ele>624</ele>
        <time>2020-07-27T09:38:19Z</time>
      </trkpt>
      <trkpt lat="42.83177" lon="1.21557">
        <ele>627</ele>
        <time>2020-07-27T09:38:23Z</time>
      </trkpt>
      <trkpt lat="42.83179" lon="1.21605">
        <ele>631</ele>
        <time>2020-07-27T09:38:29Z</time>
      </trkpt>
      <trkpt lat="42.83197" lon="1.21667">
        <ele>628</ele>
        <time>2020-07-27T09:38:38Z</time>
      </trkpt>
      <trkpt lat="42.83204" lon="1.21688">
        <ele>625</ele>
        <time>2020-07-27T09:38:41Z</time>
      </trkpt>
      <trkpt lat="42.83208" lon="1.21704">
        <ele>623</ele>
        <time>2020-07-27T09:38:43Z</time>
      </trkpt>
      <trkpt lat="42.83208" lon="1.2172">
        <ele>623</ele>
        <time>2020-07-27T09:38:45Z</time>
      </trkpt>
      <trkpt lat="42.83207" lon="1.21735">
        <ele>623</ele>
        <time>2020-07-27T09:38:47Z</time>
      </trkpt>
      <trkpt lat="42.83202" lon="1.2175">
        <ele>623</ele>
        <time>2020-07-27T09:38:49Z</time>
      </trkpt>
      <trkpt lat="42.83194" lon="1.21765">
        <ele>624</ele>
        <time>2020-07-27T09:38:51Z</time>
      </trkpt>
      <trkpt lat="42.83172" lon="1.21794">
        <ele>623</ele>
        <time>2020-07-27T09:38:57Z</time>
      </trkpt>
      <trkpt lat="42.83164" lon="1.21811">
        <ele>622</ele>
        <time>2020-07-27T09:39:00Z</time>
      </trkpt>
      <trkpt lat="42.83158" lon="1.21831">
        <ele>622</ele>
        <time>2020-07-27T09:39:02Z</time>
      </trkpt>
      <trkpt lat="42.83149" lon="1.21881">
        <ele>619</ele>
        <time>2020-07-27T09:39:09Z</time>
      </trkpt>
      <trkpt lat="42.83144" lon="1.21898">
        <ele>617</ele>
        <time>2020-07-27T09:39:11Z</time>
      </trkpt>
      <trkpt lat="42.83136" lon="1.2191">
        <ele>617</ele>
        <time>2020-07-27T09:39:14Z</time>
      </trkpt>
      <trkpt lat="42.83126" lon="1.2192">
        <ele>617</ele>
        <time>2020-07-27T09:39:16Z</time>
      </trkpt>
      <trkpt lat="42.83113" lon="1.21925">
        <ele>620</ele>
        <time>2020-07-27T09:39:18Z</time>
      </trkpt>
      <trkpt lat="42.83099" lon="1.21925">
        <ele>622</ele>
        <time>2020-07-27T09:39:21Z</time>
      </trkpt>
      <trkpt lat="42.83074" lon="1.21917">
        <ele>631</ele>
        <time>2020-07-27T09:39:25Z</time>
      </trkpt>
      <trkpt lat="42.83062" lon="1.21916">
        <ele>638</ele>
        <time>2020-07-27T09:39:27Z</time>
      </trkpt>
      <trkpt lat="42.83048" lon="1.2192">
        <ele>645</ele>
        <time>2020-07-27T09:39:30Z</time>
      </trkpt>
      <trkpt lat="42.83039" lon="1.21932">
        <ele>646</ele>
        <time>2020-07-27T09:39:32Z</time>
      </trkpt>
      <trkpt lat="42.83028" lon="1.21951">
        <ele>646</ele>
        <time>2020-07-27T09:39:35Z</time>
      </trkpt>
      <trkpt lat="42.83019" lon="1.21977">
        <ele>641</ele>
        <time>2020-07-27T09:39:39Z</time>
      </trkpt>
      <trkpt lat="42.83011" lon="1.22073">
        <ele>629</ele>
        <time>2020-07-27T09:39:52Z</time>
      </trkpt>
      <trkpt lat="42.83005" lon="1.22198">
        <ele>624</ele>
        <time>2020-07-27T09:40:08Z</time>
      </trkpt>
      <trkpt lat="42.83002" lon="1.22217">
        <ele>624</ele>
        <time>2020-07-27T09:40:11Z</time>
      </trkpt>
      <trkpt lat="42.82974" lon="1.22282">
        <ele>636</ele>
        <time>2020-07-27T09:40:20Z</time>
      </trkpt>
      <trkpt lat="42.82968" lon="1.22309">
        <ele>638</ele>
        <time>2020-07-27T09:40:24Z</time>
      </trkpt>
      <trkpt lat="42.82982" lon="1.22479">
        <ele>636</ele>
        <time>2020-07-27T09:40:46Z</time>
      </trkpt>
      <trkpt lat="42.82983" lon="1.22516">
        <ele>638</ele>
        <time>2020-07-27T09:40:51Z</time>
      </trkpt>
      <trkpt lat="42.82981" lon="1.22536">
        <ele>639</ele>
        <time>2020-07-27T09:40:54Z</time>
      </trkpt>
      <trkpt lat="42.82976" lon="1.22558">
        <ele>640</ele>
        <time>2020-07-27T09:40:57Z</time>
      </trkpt>
      <trkpt lat="42.82968" lon="1.22582">
        <ele>640</ele>
        <time>2020-07-27T09:41:00Z</time>
      </trkpt>
      <trkpt lat="42.82958" lon="1.22601">
        <ele>640</ele>
        <time>2020-07-27T09:41:03Z</time>
      </trkpt>
      <trkpt lat="42.82933" lon="1.22632">
        <ele>637</ele>
        <time>2020-07-27T09:41:09Z</time>
      </trkpt>
      <trkpt lat="42.82926" lon="1.2264">
        <ele>635</ele>
        <time>2020-07-27T09:41:11Z</time>
      </trkpt>
      <trkpt lat="42.82866" lon="1.22749">
        <ele>638</ele>
        <time>2020-07-27T09:41:29Z</time>
      </trkpt>
      <trkpt lat="42.82843" lon="1.22785">
        <ele>638</ele>
        <time>2020-07-27T09:41:35Z</time>
      </trkpt>
      <trkpt lat="42.82807" lon="1.22809">
        <ele>639</ele>
        <time>2020-07-27T09:41:42Z</time>
      </trkpt>
      <trkpt lat="42.82794" lon="1.2282">
        <ele>640</ele>
        <time>2020-07-27T09:41:45Z</time>
      </trkpt>
      <trkpt lat="42.82781" lon="1.22835">
        <ele>640</ele>
        <time>2020-07-27T09:41:48Z</time>
      </trkpt>
      <trkpt lat="42.82767" lon="1.22881">
        <ele>640</ele>
        <time>2020-07-27T09:41:54Z</time>
      </trkpt>
      <trkpt lat="42.82751" lon="1.22969">
        <ele>639</ele>
        <time>2020-07-27T09:42:06Z</time>
      </trkpt>
      <trkpt lat="42.82745" lon="1.22992">
        <ele>640</ele>
        <time>2020-07-27T09:42:09Z</time>
      </trkpt>
      <trkpt lat="42.82737" lon="1.23009">
        <ele>643</ele>
        <time>2020-07-27T09:42:12Z</time>
      </trkpt>
      <trkpt lat="42.82726" lon="1.23027">
        <ele>646</ele>
        <time>2020-07-27T09:42:15Z</time>
      </trkpt>
      <trkpt lat="42.82715" lon="1.23041">
        <ele>648</ele>
        <time>2020-07-27T09:42:18Z</time>
      </trkpt>
      <trkpt lat="42.82702" lon="1.23052">
        <ele>648</ele>
        <time>2020-07-27T09:42:21Z</time>
      </trkpt>
      <trkpt lat="42.82672" lon="1.23072">
        <ele>647</ele>
        <time>2020-07-27T09:42:26Z</time>
      </trkpt>
      <trkpt lat="42.82661" lon="1.23083">
        <ele>647</ele>
        <time>2020-07-27T09:42:29Z</time>
      </trkpt>
      <trkpt lat="42.82649" lon="1.231">
        <ele>649</ele>
        <time>2020-07-27T09:42:32Z</time>
      </trkpt>
      <trkpt lat="42.82617" lon="1.23165">
        <ele>651</ele>
        <time>2020-07-27T09:42:42Z</time>
      </trkpt>
      <trkpt lat="42.82609" lon="1.23178">
        <ele>651</ele>
        <time>2020-07-27T09:42:44Z</time>
      </trkpt>
      <trkpt lat="42.826" lon="1.23187">
        <ele>651</ele>
        <time>2020-07-27T09:42:46Z</time>
      </trkpt>
      <trkpt lat="42.82578" lon="1.23202">
        <ele>649</ele>
        <time>2020-07-27T09:42:51Z</time>
      </trkpt>
      <trkpt lat="42.82565" lon="1.23205">
        <ele>649</ele>
        <time>2020-07-27T09:42:53Z</time>
      </trkpt>
      <trkpt lat="42.82525" lon="1.23201">
        <ele>651</ele>
        <time>2020-07-27T09:43:00Z</time>
      </trkpt>
      <trkpt lat="42.82515" lon="1.23203">
        <ele>651</ele>
        <time>2020-07-27T09:43:02Z</time>
      </trkpt>
      <trkpt lat="42.82505" lon="1.23209">
        <ele>651</ele>
        <time>2020-07-27T09:43:04Z</time>
      </trkpt>
      <trkpt lat="42.82494" lon="1.23222">
        <ele>650</ele>
        <time>2020-07-27T09:43:07Z</time>
      </trkpt>
      <trkpt lat="42.82446" lon="1.23321">
        <ele>648</ele>
        <time>2020-07-27T09:43:22Z</time>
      </trkpt>
      <trkpt lat="42.82408" lon="1.23393">
        <ele>649</ele>
        <time>2020-07-27T09:43:34Z</time>
      </trkpt>
      <trkpt lat="42.82383" lon="1.23434">
        <ele>653</ele>
        <time>2020-07-27T09:43:41Z</time>
      </trkpt>
      <trkpt lat="42.82354" lon="1.23474">
        <ele>654</ele>
        <time>2020-07-27T09:43:48Z</time>
      </trkpt>
      <trkpt lat="42.82281" lon="1.23538">
        <ele>658</ele>
        <time>2020-07-27T09:44:03Z</time>
      </trkpt>
      <trkpt lat="42.82226" lon="1.23596">
        <ele>660</ele>
        <time>2020-07-27T09:44:16Z</time>
      </trkpt>
      <trkpt lat="42.82136" lon="1.23798">
        <ele>656</ele>
        <time>2020-07-27T09:44:47Z</time>
      </trkpt>
      <trkpt lat="42.82084" lon="1.23924">
        <ele>654</ele>
        <time>2020-07-27T09:45:05Z</time>
      </trkpt>
      <trkpt lat="42.82055" lon="1.23985">
        <ele>657</ele>
        <time>2020-07-27T09:45:15Z</time>
      </trkpt>
      <trkpt lat="42.81995" lon="1.24068">
        <ele>658</ele>
        <time>2020-07-27T09:45:30Z</time>
      </trkpt>
      <trkpt lat="42.81829" lon="1.24259">
        <ele>664</ele>
        <time>2020-07-27T09:46:09Z</time>
      </trkpt>
      <trkpt lat="42.81738" lon="1.24401">
        <ele>669</ele>
        <time>2020-07-27T09:46:33Z</time>
      </trkpt>
      <trkpt lat="42.81672" lon="1.24508">
        <ele>674</ele>
        <time>2020-07-27T09:46:52Z</time>
      </trkpt>
      <trkpt lat="42.81645" lon="1.24566">
        <ele>674</ele>
        <time>2020-07-27T09:47:01Z</time>
      </trkpt>
      <trkpt lat="42.81628" lon="1.24631">
        <ele>673</ele>
        <time>2020-07-27T09:47:10Z</time>
      </trkpt>
      <trkpt lat="42.81596" lon="1.24799">
        <ele>671</ele>
        <time>2020-07-27T09:47:32Z</time>
      </trkpt>
      <trkpt lat="42.81587" lon="1.24831">
        <ele>670</ele>
        <time>2020-07-27T09:47:37Z</time>
      </trkpt>
      <trkpt lat="42.81572" lon="1.24849">
        <ele>671</ele>
        <time>2020-07-27T09:47:40Z</time>
      </trkpt>
      <trkpt lat="42.81546" lon="1.24869">
        <ele>675</ele>
        <time>2020-07-27T09:47:46Z</time>
      </trkpt>
      <trkpt lat="42.81521" lon="1.249">
        <ele>677</ele>
        <time>2020-07-27T09:47:52Z</time>
      </trkpt>
      <trkpt lat="42.8151" lon="1.24917">
        <ele>678</ele>
        <time>2020-07-27T09:47:55Z</time>
      </trkpt>
      <trkpt lat="42.81501" lon="1.24941">
        <ele>678</ele>
        <time>2020-07-27T09:47:58Z</time>
      </trkpt>
      <trkpt lat="42.81497" lon="1.2496">
        <ele>678</ele>
        <time>2020-07-27T09:48:01Z</time>
      </trkpt>
      <trkpt lat="42.81497" lon="1.25037">
        <ele>675</ele>
        <time>2020-07-27T09:48:11Z</time>
      </trkpt>
      <trkpt lat="42.81494" lon="1.25075">
        <ele>675</ele>
        <time>2020-07-27T09:48:16Z</time>
      </trkpt>
      <trkpt lat="42.81489" lon="1.25105">
        <ele>674</ele>
        <time>2020-07-27T09:48:20Z</time>
      </trkpt>
      <trkpt lat="42.8148" lon="1.25135">
        <ele>674</ele>
        <time>2020-07-27T09:48:24Z</time>
      </trkpt>
      <trkpt lat="42.81437" lon="1.25189">
        <ele>677</ele>
        <time>2020-07-27T09:48:34Z</time>
      </trkpt>
      <trkpt lat="42.81356" lon="1.25282">
        <ele>677</ele>
        <time>2020-07-27T09:48:53Z</time>
      </trkpt>
      <trkpt lat="42.81337" lon="1.25292">
        <ele>677</ele>
        <time>2020-07-27T09:48:57Z</time>
      </trkpt>
      <trkpt lat="42.81274" lon="1.25318">
        <ele>681</ele>
        <time>2020-07-27T09:49:09Z</time>
      </trkpt>
      <trkpt lat="42.81209" lon="1.25381">
        <ele>690</ele>
        <time>2020-07-27T09:49:23Z</time>
      </trkpt>
      <trkpt lat="42.81136" lon="1.25494">
        <ele>686</ele>
        <time>2020-07-27T09:49:42Z</time>
      </trkpt>
      <trkpt lat="42.81056" lon="1.2565">
        <ele>682</ele>
        <time>2020-07-27T09:50:07Z</time>
      </trkpt>
      <trkpt lat="42.81022" lon="1.25709">
        <ele>683</ele>
        <time>2020-07-27T09:50:17Z</time>
      </trkpt>
      <trkpt lat="42.8101" lon="1.25742">
        <ele>682</ele>
        <time>2020-07-27T09:50:22Z</time>
      </trkpt>
      <trkpt lat="42.80999" lon="1.25759">
        <ele>683</ele>
        <time>2020-07-27T09:50:25Z</time>
      </trkpt>
      <trkpt lat="42.8098" lon="1.2577">
        <ele>684</ele>
        <time>2020-07-27T09:50:28Z</time>
      </trkpt>
      <trkpt lat="42.80907" lon="1.25831">
        <ele>687</ele>
        <time>2020-07-27T09:50:44Z</time>
      </trkpt>
      <trkpt lat="42.80863" lon="1.25882">
        <ele>687</ele>
        <time>2020-07-27T09:50:54Z</time>
      </trkpt>
      <trkpt lat="42.80827" lon="1.25917">
        <ele>689</ele>
        <time>2020-07-27T09:51:02Z</time>
      </trkpt>
      <trkpt lat="42.80817" lon="1.25931">
        <ele>691</ele>
        <time>2020-07-27T09:51:04Z</time>
      </trkpt>
      <trkpt lat="42.80805" lon="1.25953">
        <ele>694</ele>
        <time>2020-07-27T09:51:08Z</time>
      </trkpt>
      <trkpt lat="42.8078" lon="1.26011">
        <ele>697</ele>
        <time>2020-07-27T09:51:17Z</time>
      </trkpt>
      <trkpt lat="42.80704" lon="1.26156">
        <ele>710</ele>
        <time>2020-07-27T09:51:40Z</time>
      </trkpt>
      <trkpt lat="42.8068" lon="1.26214">
        <ele>706</ele>
        <time>2020-07-27T09:51:49Z</time>
      </trkpt>
      <trkpt lat="42.80671" lon="1.2623">
        <ele>705</ele>
        <time>2020-07-27T09:51:51Z</time>
      </trkpt>
      <trkpt lat="42.80648" lon="1.26254">
        <ele>708</ele>
        <time>2020-07-27T09:51:57Z</time>
      </trkpt>
      <trkpt lat="42.80631" lon="1.26275">
        <ele>711</ele>
        <time>2020-07-27T09:52:01Z</time>
      </trkpt>
      <trkpt lat="42.80615" lon="1.26298">
        <ele>711</ele>
        <time>2020-07-27T09:52:05Z</time>
      </trkpt>
      <trkpt lat="42.80589" lon="1.26344">
        <ele>708</ele>
        <time>2020-07-27T09:52:12Z</time>
      </trkpt>
      <trkpt lat="42.80561" lon="1.26407">
        <ele>707</ele>
        <time>2020-07-27T09:52:22Z</time>
      </trkpt>
      <trkpt lat="42.80537" lon="1.26483">
        <ele>701</ele>
        <time>2020-07-27T09:52:33Z</time>
      </trkpt>
      <trkpt lat="42.80531" lon="1.26497">
        <ele>699</ele>
        <time>2020-07-27T09:52:35Z</time>
      </trkpt>
      <trkpt lat="42.80468" lon="1.26604">
        <ele>699</ele>
        <time>2020-07-27T09:52:53Z</time>
      </trkpt>
      <trkpt lat="42.80409" lon="1.26697">
        <ele>697</ele>
        <time>2020-07-27T09:53:09Z</time>
      </trkpt>
      <trkpt lat="42.80402" lon="1.26712">
        <ele>697</ele>
        <time>2020-07-27T09:53:11Z</time>
      </trkpt>
      <trkpt lat="42.80398" lon="1.26729">
        <ele>695</ele>
        <time>2020-07-27T09:53:13Z</time>
      </trkpt>
      <trkpt lat="42.80394" lon="1.26752">
        <ele>692</ele>
        <time>2020-07-27T09:53:17Z</time>
      </trkpt>
      <trkpt lat="42.80387" lon="1.26868">
        <ele>689</ele>
        <time>2020-07-27T09:53:32Z</time>
      </trkpt>
      <trkpt lat="42.80386" lon="1.26884">
        <ele>689</ele>
        <time>2020-07-27T09:53:34Z</time>
      </trkpt>
      <trkpt lat="42.80381" lon="1.269">
        <ele>690</ele>
        <time>2020-07-27T09:53:36Z</time>
      </trkpt>
      <trkpt lat="42.80337" lon="1.27009">
        <ele>693</ele>
        <time>2020-07-27T09:53:52Z</time>
      </trkpt>
      <trkpt lat="42.8033" lon="1.27022">
        <ele>693</ele>
        <time>2020-07-27T09:53:54Z</time>
      </trkpt>
      <trkpt lat="42.80277" lon="1.27071">
        <ele>695</ele>
        <time>2020-07-27T09:54:06Z</time>
      </trkpt>
      <trkpt lat="42.80268" lon="1.2708">
        <ele>695</ele>
        <time>2020-07-27T09:54:08Z</time>
      </trkpt>
      <trkpt lat="42.80263" lon="1.2709">
        <ele>695</ele>
        <time>2020-07-27T09:54:09Z</time>
      </trkpt>
      <trkpt lat="42.8026" lon="1.27104">
        <ele>696</ele>
        <time>2020-07-27T09:54:11Z</time>
      </trkpt>
      <trkpt lat="42.80256" lon="1.27182">
        <ele>700</ele>
        <time>2020-07-27T09:54:22Z</time>
      </trkpt>
      <trkpt lat="42.80254" lon="1.27209">
        <ele>703</ele>
        <time>2020-07-27T09:54:25Z</time>
      </trkpt>
      <trkpt lat="42.80249" lon="1.27231">
        <ele>705</ele>
        <time>2020-07-27T09:54:28Z</time>
      </trkpt>
      <trkpt lat="42.80242" lon="1.2725">
        <ele>707</ele>
        <time>2020-07-27T09:54:31Z</time>
      </trkpt>
      <trkpt lat="42.80203" lon="1.27325">
        <ele>719</ele>
        <time>2020-07-27T09:54:43Z</time>
      </trkpt>
      <trkpt lat="42.80172" lon="1.27359">
        <ele>719</ele>
        <time>2020-07-27T09:54:50Z</time>
      </trkpt>
      <trkpt lat="42.80169" lon="1.27368">
        <ele>720</ele>
        <time>2020-07-27T09:54:51Z</time>
      </trkpt>
      <trkpt lat="42.80169" lon="1.27377">
        <ele>721</ele>
        <time>2020-07-27T09:54:52Z</time>
      </trkpt>
      <trkpt lat="42.8017" lon="1.27385">
        <ele>723</ele>
        <time>2020-07-27T09:54:53Z</time>
      </trkpt>
      <trkpt lat="42.80173" lon="1.27392">
        <ele>725</ele>
        <time>2020-07-27T09:54:55Z</time>
      </trkpt>
      <trkpt lat="42.8018" lon="1.27396">
        <ele>727</ele>
        <time>2020-07-27T09:54:56Z</time>
      </trkpt>
      <trkpt lat="42.80186" lon="1.27395">
        <ele>729</ele>
        <time>2020-07-27T09:54:57Z</time>
      </trkpt>
      <trkpt lat="42.80192" lon="1.2739">
        <ele>729</ele>
        <time>2020-07-27T09:54:58Z</time>
      </trkpt>
      <trkpt lat="42.80208" lon="1.27365">
        <ele>728</ele>
        <time>2020-07-27T09:55:03Z</time>
      </trkpt>
      <trkpt lat="42.80228" lon="1.27344">
        <ele>727</ele>
        <time>2020-07-27T09:55:07Z</time>
      </trkpt>
      <trkpt lat="42.80455" lon="1.27206">
        <ele>750</ele>
        <time>2020-07-27T09:55:51Z</time>
      </trkpt>
      <trkpt lat="42.80603" lon="1.27125">
        <ele>763</ele>
        <time>2020-07-27T09:56:20Z</time>
      </trkpt>
      <trkpt lat="42.80638" lon="1.27095">
        <ele>763</ele>
        <time>2020-07-27T09:56:27Z</time>
      </trkpt>
      <trkpt lat="42.80672" lon="1.27063">
        <ele>764</ele>
        <time>2020-07-27T09:56:34Z</time>
      </trkpt>
      <trkpt lat="42.80723" lon="1.26999">
        <ele>768</ele>
        <time>2020-07-27T09:56:47Z</time>
      </trkpt>
      <trkpt lat="42.80728" lon="1.26997">
        <ele>770</ele>
        <time>2020-07-27T09:56:48Z</time>
      </trkpt>
      <trkpt lat="42.80731" lon="1.26999">
        <ele>771</ele>
        <time>2020-07-27T09:56:48Z</time>
      </trkpt>
      <trkpt lat="42.80732" lon="1.27006">
        <ele>774</ele>
        <time>2020-07-27T09:56:49Z</time>
      </trkpt>
      <trkpt lat="42.80668" lon="1.2711">
        <ele>779</ele>
        <time>2020-07-27T09:57:07Z</time>
      </trkpt>
      <trkpt lat="42.80558" lon="1.2725">
        <ele>799</ele>
        <time>2020-07-27T09:57:34Z</time>
      </trkpt>
      <trkpt lat="42.80489" lon="1.27333">
        <ele>805</ele>
        <time>2020-07-27T09:57:50Z</time>
      </trkpt>
      <trkpt lat="42.80402" lon="1.27458">
        <ele>813</ele>
        <time>2020-07-27T09:58:12Z</time>
      </trkpt>
      <trkpt lat="42.8037" lon="1.27507">
        <ele>815</ele>
        <time>2020-07-27T09:58:21Z</time>
      </trkpt>
      <trkpt lat="42.80354" lon="1.27538">
        <ele>815</ele>
        <time>2020-07-27T09:58:26Z</time>
      </trkpt>
      <trkpt lat="42.80346" lon="1.27562">
        <ele>816</ele>
        <time>2020-07-27T09:58:29Z</time>
      </trkpt>
      <trkpt lat="42.80341" lon="1.27591">
        <ele>819</ele>
        <time>2020-07-27T09:58:33Z</time>
      </trkpt>
      <trkpt lat="42.80332" lon="1.27659">
        <ele>825</ele>
        <time>2020-07-27T09:58:42Z</time>
      </trkpt>
      <trkpt lat="42.80307" lon="1.27731">
        <ele>835</ele>
        <time>2020-07-27T09:58:53Z</time>
      </trkpt>
      <trkpt lat="42.80307" lon="1.27744">
        <ele>837</ele>
        <time>2020-07-27T09:58:54Z</time>
      </trkpt>
      <trkpt lat="42.80311" lon="1.27751">
        <ele>839</ele>
        <time>2020-07-27T09:58:56Z</time>
      </trkpt>
      <trkpt lat="42.80318" lon="1.27754">
        <ele>841</ele>
        <time>2020-07-27T09:58:57Z</time>
      </trkpt>
      <trkpt lat="42.80338" lon="1.27735">
        <ele>842</ele>
        <time>2020-07-27T09:59:01Z</time>
      </trkpt>
      <trkpt lat="42.80356" lon="1.27707">
        <ele>845</ele>
        <time>2020-07-27T09:59:06Z</time>
      </trkpt>
      <trkpt lat="42.8039" lon="1.27643">
        <ele>849</ele>
        <time>2020-07-27T09:59:16Z</time>
      </trkpt>
      <trkpt lat="42.80411" lon="1.27609">
        <ele>851</ele>
        <time>2020-07-27T09:59:22Z</time>
      </trkpt>
      <trkpt lat="42.80437" lon="1.2756">
        <ele>854</ele>
        <time>2020-07-27T09:59:30Z</time>
      </trkpt>
      <trkpt lat="42.80463" lon="1.27521">
        <ele>856</ele>
        <time>2020-07-27T09:59:37Z</time>
      </trkpt>
      <trkpt lat="42.80511" lon="1.27464">
        <ele>858</ele>
        <time>2020-07-27T09:59:48Z</time>
      </trkpt>
      <trkpt lat="42.80517" lon="1.27461">
        <ele>859</ele>
        <time>2020-07-27T09:59:49Z</time>
      </trkpt>
      <trkpt lat="42.80523" lon="1.27463">
        <ele>863</ele>
        <time>2020-07-27T09:59:51Z</time>
      </trkpt>
      <trkpt lat="42.80525" lon="1.27471">
        <ele>867</ele>
        <time>2020-07-27T09:59:52Z</time>
      </trkpt>
      <trkpt lat="42.80511" lon="1.27496">
        <ele>869</ele>
        <time>2020-07-27T09:59:56Z</time>
      </trkpt>
      <trkpt lat="42.80475" lon="1.27546">
        <ele>869</ele>
        <time>2020-07-27T10:00:05Z</time>
      </trkpt>
      <trkpt lat="42.80463" lon="1.27572">
        <ele>871</ele>
        <time>2020-07-27T10:00:09Z</time>
      </trkpt>
      <trkpt lat="42.80442" lon="1.27634">
        <ele>875</ele>
        <time>2020-07-27T10:00:18Z</time>
      </trkpt>
      <trkpt lat="42.80428" lon="1.27709">
        <ele>883</ele>
        <time>2020-07-27T10:00:28Z</time>
      </trkpt>
      <trkpt lat="42.80418" lon="1.27791">
        <ele>894</ele>
        <time>2020-07-27T10:00:39Z</time>
      </trkpt>
      <trkpt lat="42.80402" lon="1.27825">
        <ele>893</ele>
        <time>2020-07-27T10:00:44Z</time>
      </trkpt>
      <trkpt lat="42.80383" lon="1.27847">
        <ele>890</ele>
        <time>2020-07-27T10:00:49Z</time>
      </trkpt>
      <trkpt lat="42.80377" lon="1.27861">
        <ele>890</ele>
        <time>2020-07-27T10:00:51Z</time>
      </trkpt>
      <trkpt lat="42.80375" lon="1.27893">
        <ele>896</ele>
        <time>2020-07-27T10:00:55Z</time>
      </trkpt>
      <trkpt lat="42.80375" lon="1.2791">
        <ele>900</ele>
        <time>2020-07-27T10:00:57Z</time>
      </trkpt>
      <trkpt lat="42.80372" lon="1.27925">
        <ele>902</ele>
        <time>2020-07-27T10:00:59Z</time>
      </trkpt>
      <trkpt lat="42.80358" lon="1.27954">
        <ele>903</ele>
        <time>2020-07-27T10:01:04Z</time>
      </trkpt>
      <trkpt lat="42.8034" lon="1.27996">
        <ele>905</ele>
        <time>2020-07-27T10:01:10Z</time>
      </trkpt>
      <trkpt lat="42.80313" lon="1.2808">
        <ele>912</ele>
        <time>2020-07-27T10:01:22Z</time>
      </trkpt>
      <trkpt lat="42.80309" lon="1.28112">
        <ele>916</ele>
        <time>2020-07-27T10:01:26Z</time>
      </trkpt>
      <trkpt lat="42.80301" lon="1.28262">
        <ele>932</ele>
        <time>2020-07-27T10:01:46Z</time>
      </trkpt>
      <trkpt lat="42.80295" lon="1.28302">
        <ele>934</ele>
        <time>2020-07-27T10:01:51Z</time>
      </trkpt>
      <trkpt lat="42.80286" lon="1.28341">
        <ele>935</ele>
        <time>2020-07-27T10:01:56Z</time>
      </trkpt>
      <trkpt lat="42.80259" lon="1.2842">
        <ele>932</ele>
        <time>2020-07-27T10:02:08Z</time>
      </trkpt>
      <trkpt lat="42.80206" lon="1.28599">
        <ele>942</ele>
        <time>2020-07-27T10:02:33Z</time>
      </trkpt>
      <trkpt lat="42.802" lon="1.28632">
        <ele>944</ele>
        <time>2020-07-27T10:02:37Z</time>
      </trkpt>
      <trkpt lat="42.80191" lon="1.28827">
        <ele>958</ele>
        <time>2020-07-27T10:03:03Z</time>
      </trkpt>
      <trkpt lat="42.80188" lon="1.28857">
        <ele>960</ele>
        <time>2020-07-27T10:03:07Z</time>
      </trkpt>
      <trkpt lat="42.80167" lon="1.28961">
        <ele>962</ele>
        <time>2020-07-27T10:03:21Z</time>
      </trkpt>
      <trkpt lat="42.80164" lon="1.28996">
        <ele>965</ele>
        <time>2020-07-27T10:03:26Z</time>
      </trkpt>
      <trkpt lat="42.80162" lon="1.2909">
        <ele>972</ele>
        <time>2020-07-27T10:03:38Z</time>
      </trkpt>
      <trkpt lat="42.80155" lon="1.29147">
        <ele>978</ele>
        <time>2020-07-27T10:03:45Z</time>
      </trkpt>
      <trkpt lat="42.80142" lon="1.29203">
        <ele>983</ele>
        <time>2020-07-27T10:03:53Z</time>
      </trkpt>
      <trkpt lat="42.80131" lon="1.29273">
        <ele>990</ele>
        <time>2020-07-27T10:04:02Z</time>
      </trkpt>
      <trkpt lat="42.80126" lon="1.29364">
        <ele>997</ele>
        <time>2020-07-27T10:04:14Z</time>
      </trkpt>
      <trkpt lat="42.80128" lon="1.2947">
        <ele>1009</ele>
        <time>2020-07-27T10:04:28Z</time>
      </trkpt>
      <trkpt lat="42.80132" lon="1.29506">
        <ele>1014</ele>
        <time>2020-07-27T10:04:33Z</time>
      </trkpt>
      <trkpt lat="42.80134" lon="1.29564">
        <ele>1021</ele>
        <time>2020-07-27T10:04:41Z</time>
      </trkpt>
      <trkpt lat="42.80126" lon="1.29653">
        <ele>1025</ele>
        <time>2020-07-27T10:04:52Z</time>
      </trkpt>
      <trkpt lat="42.8011" lon="1.29762">
        <ele>1026</ele>
        <time>2020-07-27T10:05:07Z</time>
      </trkpt>
      <trkpt lat="42.80092" lon="1.29934">
        <ele>1033</ele>
        <time>2020-07-27T10:05:29Z</time>
      </trkpt>
      <trkpt lat="42.80061" lon="1.3006">
        <ele>1042</ele>
        <time>2020-07-27T10:05:47Z</time>
      </trkpt>
      <trkpt lat="42.80027" lon="1.30163">
        <ele>1051</ele>
        <time>2020-07-27T10:06:02Z</time>
      </trkpt>
      <trkpt lat="42.80017" lon="1.30185">
        <ele>1052</ele>
        <time>2020-07-27T10:06:05Z</time>
      </trkpt>
      <trkpt lat="42.79983" lon="1.30243">
        <ele>1056</ele>
        <time>2020-07-27T10:06:15Z</time>
      </trkpt>
      <trkpt lat="42.7994" lon="1.30306">
        <ele>1061</ele>
        <time>2020-07-27T10:06:26Z</time>
      </trkpt>
      <trkpt lat="42.79927" lon="1.30329">
        <ele>1061</ele>
        <time>2020-07-27T10:06:30Z</time>
      </trkpt>
      <trkpt lat="42.79915" lon="1.30357">
        <ele>1064</ele>
        <time>2020-07-27T10:06:34Z</time>
      </trkpt>
      <trkpt lat="42.79904" lon="1.30389">
        <ele>1071</ele>
        <time>2020-07-27T10:06:38Z</time>
      </trkpt>
      <trkpt lat="42.79892" lon="1.30415">
        <ele>1075</ele>
        <time>2020-07-27T10:06:42Z</time>
      </trkpt>
      <trkpt lat="42.79869" lon="1.3045">
        <ele>1077</ele>
        <time>2020-07-27T10:06:49Z</time>
      </trkpt>
      <trkpt lat="42.79859" lon="1.30471">
        <ele>1078</ele>
        <time>2020-07-27T10:06:52Z</time>
      </trkpt>
      <trkpt lat="42.7983" lon="1.30554">
        <ele>1083</ele>
        <time>2020-07-27T10:07:04Z</time>
      </trkpt>
      <trkpt lat="42.79818" lon="1.3058">
        <ele>1087</ele>
        <time>2020-07-27T10:07:08Z</time>
      </trkpt>
      <trkpt lat="42.79765" lon="1.30684">
        <ele>1094</ele>
        <time>2020-07-27T10:07:24Z</time>
      </trkpt>
      <trkpt lat="42.7974" lon="1.30746">
        <ele>1100</ele>
        <time>2020-07-27T10:07:34Z</time>
      </trkpt>
      <trkpt lat="42.7973" lon="1.3076">
        <ele>1104</ele>
        <time>2020-07-27T10:07:36Z</time>
      </trkpt>
      <trkpt lat="42.79715" lon="1.30774">
        <ele>1106</ele>
        <time>2020-07-27T10:07:39Z</time>
      </trkpt>
      <trkpt lat="42.79706" lon="1.30786">
        <ele>1107</ele>
        <time>2020-07-27T10:07:42Z</time>
      </trkpt>
      <trkpt lat="42.79697" lon="1.30809">
        <ele>1109</ele>
        <time>2020-07-27T10:07:45Z</time>
      </trkpt>
      <trkpt lat="42.7963" lon="1.31064">
        <ele>1116</ele>
        <time>2020-07-27T10:08:20Z</time>
      </trkpt>
      <trkpt lat="42.79626" lon="1.31078">
        <ele>1116</ele>
        <time>2020-07-27T10:08:22Z</time>
      </trkpt>
      <trkpt lat="42.7962" lon="1.31092">
        <ele>1116</ele>
        <time>2020-07-27T10:08:25Z</time>
      </trkpt>
      <trkpt lat="42.79582" lon="1.31141">
        <ele>1110</ele>
        <time>2020-07-27T10:08:34Z</time>
      </trkpt>
      <trkpt lat="42.79569" lon="1.31165">
        <ele>1113</ele>
        <time>2020-07-27T10:08:38Z</time>
      </trkpt>
      <trkpt lat="42.79558" lon="1.31202">
        <ele>1117</ele>
        <time>2020-07-27T10:08:43Z</time>
      </trkpt>
      <trkpt lat="42.79555" lon="1.31229">
        <ele>1119</ele>
        <time>2020-07-27T10:08:47Z</time>
      </trkpt>
      <trkpt lat="42.7955" lon="1.31544">
        <ele>1111</ele>
        <time>2020-07-27T10:09:28Z</time>
      </trkpt>
      <trkpt lat="42.79546" lon="1.31563">
        <ele>1111</ele>
        <time>2020-07-27T10:09:30Z</time>
      </trkpt>
      <trkpt lat="42.7954" lon="1.3158">
        <ele>1110</ele>
        <time>2020-07-27T10:09:33Z</time>
      </trkpt>
      <trkpt lat="42.79512" lon="1.31633">
        <ele>1108</ele>
        <time>2020-07-27T10:09:41Z</time>
      </trkpt>
      <trkpt lat="42.79463" lon="1.3172">
        <ele>1102</ele>
        <time>2020-07-27T10:09:56Z</time>
      </trkpt>
      <trkpt lat="42.79429" lon="1.3177">
        <ele>1099</ele>
        <time>2020-07-27T10:10:04Z</time>
      </trkpt>
      <trkpt lat="42.79402" lon="1.31805">
        <ele>1096</ele>
        <time>2020-07-27T10:10:11Z</time>
      </trkpt>
      <trkpt lat="42.79388" lon="1.31822">
        <ele>1095</ele>
        <time>2020-07-27T10:10:14Z</time>
      </trkpt>
      <trkpt lat="42.79364" lon="1.31846">
        <ele>1092</ele>
        <time>2020-07-27T10:10:20Z</time>
      </trkpt>
      <trkpt lat="42.79295" lon="1.31887">
        <ele>1083</ele>
        <time>2020-07-27T10:10:33Z</time>
      </trkpt>
      <trkpt lat="42.79281" lon="1.31891">
        <ele>1081</ele>
        <time>2020-07-27T10:10:36Z</time>
      </trkpt>
      <trkpt lat="42.79256" lon="1.31891">
        <ele>1081</ele>
        <time>2020-07-27T10:10:40Z</time>
      </trkpt>
      <trkpt lat="42.79236" lon="1.31889">
        <ele>1083</ele>
        <time>2020-07-27T10:10:44Z</time>
      </trkpt>
      <trkpt lat="42.79214" lon="1.31892">
        <ele>1083</ele>
        <time>2020-07-27T10:10:48Z</time>
      </trkpt>
      <trkpt lat="42.7917" lon="1.31904">
        <ele>1079</ele>
        <time>2020-07-27T10:10:56Z</time>
      </trkpt>
      <trkpt lat="42.79149" lon="1.31913">
        <ele>1074</ele>
        <time>2020-07-27T10:10:59Z</time>
      </trkpt>
      <trkpt lat="42.7912" lon="1.31932">
        <ele>1063</ele>
        <time>2020-07-27T10:11:05Z</time>
      </trkpt>
      <trkpt lat="42.79117" lon="1.31938">
        <ele>1060</ele>
        <time>2020-07-27T10:11:06Z</time>
      </trkpt>
      <trkpt lat="42.79117" lon="1.31944">
        <ele>1057</ele>
        <time>2020-07-27T10:11:07Z</time>
      </trkpt>
      <trkpt lat="42.79119" lon="1.3195">
        <ele>1054</ele>
        <time>2020-07-27T10:11:08Z</time>
      </trkpt>
      <trkpt lat="42.79124" lon="1.31952">
        <ele>1054</ele>
        <time>2020-07-27T10:11:09Z</time>
      </trkpt>
      <trkpt lat="42.79131" lon="1.3195">
        <ele>1056</ele>
        <time>2020-07-27T10:11:10Z</time>
      </trkpt>
      <trkpt lat="42.79165" lon="1.31928">
        <ele>1069</ele>
        <time>2020-07-27T10:11:17Z</time>
      </trkpt>
      <trkpt lat="42.79189" lon="1.31923">
        <ele>1071</ele>
        <time>2020-07-27T10:11:21Z</time>
      </trkpt>
      <trkpt lat="42.79209" lon="1.31923">
        <ele>1070</ele>
        <time>2020-07-27T10:11:25Z</time>
      </trkpt>
      <trkpt lat="42.79221" lon="1.31924">
        <ele>1069</ele>
        <time>2020-07-27T10:11:27Z</time>
      </trkpt>
      <trkpt lat="42.79232" lon="1.31929">
        <ele>1067</ele>
        <time>2020-07-27T10:11:29Z</time>
      </trkpt>
      <trkpt lat="42.79266" lon="1.31953">
        <ele>1057</ele>
        <time>2020-07-27T10:11:36Z</time>
      </trkpt>
      <trkpt lat="42.79289" lon="1.31956">
        <ele>1055</ele>
        <time>2020-07-27T10:11:40Z</time>
      </trkpt>
      <trkpt lat="42.79345" lon="1.31955">
        <ele>1054</ele>
        <time>2020-07-27T10:11:50Z</time>
      </trkpt>
      <trkpt lat="42.7943" lon="1.31937">
        <ele>1049</ele>
        <time>2020-07-27T10:12:05Z</time>
      </trkpt>
      <trkpt lat="42.79454" lon="1.31923">
        <ele>1047</ele>
        <time>2020-07-27T10:12:10Z</time>
      </trkpt>
      <trkpt lat="42.79484" lon="1.31891">
        <ele>1049</ele>
        <time>2020-07-27T10:12:16Z</time>
      </trkpt>
      <trkpt lat="42.7949" lon="1.31891">
        <ele>1047</ele>
        <time>2020-07-27T10:12:17Z</time>
      </trkpt>
      <trkpt lat="42.79494" lon="1.31894">
        <ele>1045</ele>
        <time>2020-07-27T10:12:18Z</time>
      </trkpt>
      <trkpt lat="42.79495" lon="1.319">
        <ele>1043</ele>
        <time>2020-07-27T10:12:19Z</time>
      </trkpt>
      <trkpt lat="42.79494" lon="1.31907">
        <ele>1041</ele>
        <time>2020-07-27T10:12:20Z</time>
      </trkpt>
      <trkpt lat="42.79491" lon="1.31911">
        <ele>1040</ele>
        <time>2020-07-27T10:12:21Z</time>
      </trkpt>
      <trkpt lat="42.7944" lon="1.31955">
        <ele>1039</ele>
        <time>2020-07-27T10:12:32Z</time>
      </trkpt>
      <trkpt lat="42.79419" lon="1.31969">
        <ele>1039</ele>
        <time>2020-07-27T10:12:36Z</time>
      </trkpt>
      <trkpt lat="42.79361" lon="1.32002">
        <ele>1034</ele>
        <time>2020-07-27T10:12:47Z</time>
      </trkpt>
      <trkpt lat="42.79302" lon="1.32043">
        <ele>1020</ele>
        <time>2020-07-27T10:12:59Z</time>
      </trkpt>
      <trkpt lat="42.79289" lon="1.32048">
        <ele>1018</ele>
        <time>2020-07-27T10:13:01Z</time>
      </trkpt>
      <trkpt lat="42.79279" lon="1.32048">
        <ele>1018</ele>
        <time>2020-07-27T10:13:03Z</time>
      </trkpt>
      <trkpt lat="42.79237" lon="1.32031">
        <ele>1026</ele>
        <time>2020-07-27T10:13:11Z</time>
      </trkpt>
      <trkpt lat="42.79219" lon="1.32028">
        <ele>1028</ele>
        <time>2020-07-27T10:13:14Z</time>
      </trkpt>
      <trkpt lat="42.79182" lon="1.32041">
        <ele>1024</ele>
        <time>2020-07-27T10:13:21Z</time>
      </trkpt>
      <trkpt lat="42.79168" lon="1.32052">
        <ele>1021</ele>
        <time>2020-07-27T10:13:24Z</time>
      </trkpt>
      <trkpt lat="42.7913" lon="1.32105">
        <ele>995</ele>
        <time>2020-07-27T10:13:33Z</time>
      </trkpt>
      <trkpt lat="42.79123" lon="1.32111">
        <ele>992</ele>
        <time>2020-07-27T10:13:35Z</time>
      </trkpt>
      <trkpt lat="42.79114" lon="1.32113">
        <ele>990</ele>
        <time>2020-07-27T10:13:36Z</time>
      </trkpt>
      <trkpt lat="42.79107" lon="1.32108">
        <ele>991</ele>
        <time>2020-07-27T10:13:38Z</time>
      </trkpt>
      <trkpt lat="42.79099" lon="1.32097">
        <ele>992</ele>
        <time>2020-07-27T10:13:40Z</time>
      </trkpt>
      <trkpt lat="42.79082" lon="1.3204">
        <ele>1009</ele>
        <time>2020-07-27T10:13:48Z</time>
      </trkpt>
      <trkpt lat="42.79074" lon="1.32026">
        <ele>1013</ele>
        <time>2020-07-27T10:13:50Z</time>
      </trkpt>
      <trkpt lat="42.79064" lon="1.32011">
        <ele>1016</ele>
        <time>2020-07-27T10:13:53Z</time>
      </trkpt>
      <trkpt lat="42.79054" lon="1.32002">
        <ele>1017</ele>
        <time>2020-07-27T10:13:55Z</time>
      </trkpt>
      <trkpt lat="42.79043" lon="1.31996">
        <ele>1018</ele>
        <time>2020-07-27T10:13:57Z</time>
      </trkpt>
      <trkpt lat="42.79033" lon="1.31995">
        <ele>1016</ele>
        <time>2020-07-27T10:13:59Z</time>
      </trkpt>
      <trkpt lat="42.79015" lon="1.31998">
        <ele>1012</ele>
        <time>2020-07-27T10:14:02Z</time>
      </trkpt>
      <trkpt lat="42.78998" lon="1.32007">
        <ele>1008</ele>
        <time>2020-07-27T10:14:05Z</time>
      </trkpt>
      <trkpt lat="42.78993" lon="1.32015">
        <ele>1010</ele>
        <time>2020-07-27T10:14:07Z</time>
      </trkpt>
      <trkpt lat="42.78992" lon="1.32023">
        <ele>1009</ele>
        <time>2020-07-27T10:14:08Z</time>
      </trkpt>
      <trkpt lat="42.78994" lon="1.32038">
        <ele>1007</ele>
        <time>2020-07-27T10:14:10Z</time>
      </trkpt>
      <trkpt lat="42.79006" lon="1.32069">
        <ele>1002</ele>
        <time>2020-07-27T10:14:14Z</time>
      </trkpt>
      <trkpt lat="42.79007" lon="1.32089">
        <ele>1000</ele>
        <time>2020-07-27T10:14:17Z</time>
      </trkpt>
      <trkpt lat="42.79003" lon="1.32139">
        <ele>997</ele>
        <time>2020-07-27T10:14:23Z</time>
      </trkpt>
      <trkpt lat="42.78996" lon="1.32172">
        <ele>995</ele>
        <time>2020-07-27T10:14:28Z</time>
      </trkpt>
      <trkpt lat="42.78984" lon="1.32197">
        <ele>991</ele>
        <time>2020-07-27T10:14:32Z</time>
      </trkpt>
      <trkpt lat="42.78955" lon="1.32248">
        <ele>983</ele>
        <time>2020-07-27T10:14:40Z</time>
      </trkpt>
      <trkpt lat="42.78888" lon="1.32301">
        <ele>985</ele>
        <time>2020-07-27T10:14:54Z</time>
      </trkpt>
      <trkpt lat="42.78872" lon="1.32316">
        <ele>985</ele>
        <time>2020-07-27T10:14:57Z</time>
      </trkpt>
      <trkpt lat="42.78847" lon="1.32348">
        <ele>981</ele>
        <time>2020-07-27T10:15:04Z</time>
      </trkpt>
      <trkpt lat="42.78802" lon="1.32389">
        <ele>977</ele>
        <time>2020-07-27T10:15:13Z</time>
      </trkpt>
      <trkpt lat="42.7878" lon="1.32405">
        <ele>975</ele>
        <time>2020-07-27T10:15:18Z</time>
      </trkpt>
      <trkpt lat="42.78754" lon="1.32419">
        <ele>974</ele>
        <time>2020-07-27T10:15:23Z</time>
      </trkpt>
      <trkpt lat="42.78703" lon="1.32436">
        <ele>981</ele>
        <time>2020-07-27T10:15:32Z</time>
      </trkpt>
      <trkpt lat="42.78671" lon="1.32477">
        <ele>964</ele>
        <time>2020-07-27T10:15:40Z</time>
      </trkpt>
      <trkpt lat="42.78644" lon="1.32507">
        <ele>951</ele>
        <time>2020-07-27T10:15:46Z</time>
      </trkpt>
      <trkpt lat="42.78635" lon="1.32512">
        <ele>950</ele>
        <time>2020-07-27T10:15:48Z</time>
      </trkpt>
      <trkpt lat="42.78593" lon="1.32522">
        <ele>956</ele>
        <time>2020-07-27T10:15:55Z</time>
      </trkpt>
      <trkpt lat="42.78588" lon="1.32527">
        <ele>955</ele>
        <time>2020-07-27T10:15:56Z</time>
      </trkpt>
      <trkpt lat="42.78587" lon="1.32534">
        <ele>952</ele>
        <time>2020-07-27T10:15:57Z</time>
      </trkpt>
      <trkpt lat="42.78589" lon="1.32539">
        <ele>950</ele>
        <time>2020-07-27T10:15:58Z</time>
      </trkpt>
      <trkpt lat="42.78593" lon="1.32542">
        <ele>948</ele>
        <time>2020-07-27T10:15:59Z</time>
      </trkpt>
      <trkpt lat="42.78634" lon="1.32535">
        <ele>941</ele>
        <time>2020-07-27T10:16:06Z</time>
      </trkpt>
      <trkpt lat="42.78646" lon="1.32528">
        <ele>941</ele>
        <time>2020-07-27T10:16:09Z</time>
      </trkpt>
      <trkpt lat="42.78695" lon="1.32493">
        <ele>946</ele>
        <time>2020-07-27T10:16:18Z</time>
      </trkpt>
      <trkpt lat="42.78726" lon="1.32479">
        <ele>946</ele>
        <time>2020-07-27T10:16:24Z</time>
      </trkpt>
      <trkpt lat="42.78767" lon="1.32471">
        <ele>941</ele>
        <time>2020-07-27T10:16:32Z</time>
      </trkpt>
      <trkpt lat="42.78837" lon="1.32474">
        <ele>929</ele>
        <time>2020-07-27T10:16:44Z</time>
      </trkpt>
      <trkpt lat="42.78857" lon="1.32465">
        <ele>928</ele>
        <time>2020-07-27T10:16:48Z</time>
      </trkpt>
      <trkpt lat="42.78923" lon="1.32425">
        <ele>926</ele>
        <time>2020-07-27T10:17:01Z</time>
      </trkpt>
      <trkpt lat="42.78991" lon="1.32391">
        <ele>922</ele>
        <time>2020-07-27T10:17:13Z</time>
      </trkpt>
      <trkpt lat="42.79016" lon="1.32384">
        <ele>920</ele>
        <time>2020-07-27T10:17:18Z</time>
      </trkpt>
      <trkpt lat="42.79069" lon="1.32361">
        <ele>915</ele>
        <time>2020-07-27T10:17:28Z</time>
      </trkpt>
      <trkpt lat="42.79075" lon="1.32361">
        <ele>914</ele>
        <time>2020-07-27T10:17:29Z</time>
      </trkpt>
      <trkpt lat="42.79079" lon="1.32364">
        <ele>912</ele>
        <time>2020-07-27T10:17:30Z</time>
      </trkpt>
      <trkpt lat="42.7908" lon="1.3237">
        <ele>911</ele>
        <time>2020-07-27T10:17:31Z</time>
      </trkpt>
      <trkpt lat="42.79079" lon="1.32376">
        <ele>909</ele>
        <time>2020-07-27T10:17:31Z</time>
      </trkpt>
      <trkpt lat="42.79075" lon="1.32382">
        <ele>908</ele>
        <time>2020-07-27T10:17:32Z</time>
      </trkpt>
      <trkpt lat="42.79008" lon="1.32412">
        <ele>911</ele>
        <time>2020-07-27T10:17:45Z</time>
      </trkpt>
      <trkpt lat="42.78994" lon="1.32421">
        <ele>910</ele>
        <time>2020-07-27T10:17:48Z</time>
      </trkpt>
      <trkpt lat="42.78979" lon="1.32436">
        <ele>909</ele>
        <time>2020-07-27T10:17:51Z</time>
      </trkpt>
      <trkpt lat="42.78944" lon="1.32479">
        <ele>903</ele>
        <time>2020-07-27T10:17:59Z</time>
      </trkpt>
      <trkpt lat="42.7888" lon="1.32571">
        <ele>883</ele>
        <time>2020-07-27T10:18:16Z</time>
      </trkpt>
      <trkpt lat="42.78869" lon="1.32581">
        <ele>881</ele>
        <time>2020-07-27T10:18:18Z</time>
      </trkpt>
      <trkpt lat="42.78851" lon="1.32586">
        <ele>882</ele>
        <time>2020-07-27T10:18:22Z</time>
      </trkpt>
      <trkpt lat="42.78847" lon="1.3259">
        <ele>881</ele>
        <time>2020-07-27T10:18:23Z</time>
      </trkpt>
      <trkpt lat="42.7883" lon="1.32609">
        <ele>877</ele>
        <time>2020-07-27T10:18:26Z</time>
      </trkpt>
      <trkpt lat="42.78822" lon="1.32613">
        <ele>876</ele>
        <time>2020-07-27T10:18:28Z</time>
      </trkpt>
      <trkpt lat="42.78794" lon="1.32608">
        <ele>881</ele>
        <time>2020-07-27T10:18:33Z</time>
      </trkpt>
      <trkpt lat="42.78769" lon="1.32609">
        <ele>884</ele>
        <time>2020-07-27T10:18:37Z</time>
      </trkpt>
      <trkpt lat="42.78732" lon="1.32622">
        <ele>888</ele>
        <time>2020-07-27T10:18:44Z</time>
      </trkpt>
      <trkpt lat="42.78721" lon="1.32629">
        <ele>889</ele>
        <time>2020-07-27T10:18:46Z</time>
      </trkpt>
      <trkpt lat="42.78715" lon="1.32642">
        <ele>887</ele>
        <time>2020-07-27T10:18:48Z</time>
      </trkpt>
      <trkpt lat="42.78716" lon="1.32659">
        <ele>883</ele>
        <time>2020-07-27T10:18:51Z</time>
      </trkpt>
      <trkpt lat="42.78721" lon="1.32668">
        <ele>881</ele>
        <time>2020-07-27T10:18:52Z</time>
      </trkpt>
      <trkpt lat="42.78819" lon="1.32766">
        <ele>864</ele>
        <time>2020-07-27T10:19:14Z</time>
      </trkpt>
      <trkpt lat="42.7884" lon="1.32801">
        <ele>864</ele>
        <time>2020-07-27T10:19:20Z</time>
      </trkpt>
      <trkpt lat="42.78866" lon="1.3285">
        <ele>859</ele>
        <time>2020-07-27T10:19:28Z</time>
      </trkpt>
      <trkpt lat="42.78889" lon="1.32899">
        <ele>850</ele>
        <time>2020-07-27T10:19:35Z</time>
      </trkpt>
      <trkpt lat="42.78918" lon="1.32969">
        <ele>834</ele>
        <time>2020-07-27T10:19:46Z</time>
      </trkpt>
      <trkpt lat="42.78921" lon="1.32982">
        <ele>833</ele>
        <time>2020-07-27T10:19:47Z</time>
      </trkpt>
      <trkpt lat="42.78923" lon="1.33006">
        <ele>833</ele>
        <time>2020-07-27T10:19:51Z</time>
      </trkpt>
      <trkpt lat="42.7892" lon="1.33019">
        <ele>833</ele>
        <time>2020-07-27T10:19:52Z</time>
      </trkpt>
      <trkpt lat="42.78897" lon="1.33084">
        <ele>841</ele>
        <time>2020-07-27T10:20:02Z</time>
      </trkpt>
      <trkpt lat="42.78862" lon="1.33233">
        <ele>829</ele>
        <time>2020-07-27T10:20:22Z</time>
      </trkpt>
      <trkpt lat="42.78856" lon="1.33255">
        <ele>827</ele>
        <time>2020-07-27T10:20:25Z</time>
      </trkpt>
      <trkpt lat="42.78849" lon="1.33288">
        <ele>825</ele>
        <time>2020-07-27T10:20:30Z</time>
      </trkpt>
      <trkpt lat="42.78842" lon="1.33339">
        <ele>818</ele>
        <time>2020-07-27T10:20:37Z</time>
      </trkpt>
      <trkpt lat="42.78832" lon="1.33477">
        <ele>801</ele>
        <time>2020-07-27T10:20:55Z</time>
      </trkpt>
      <trkpt lat="42.78825" lon="1.33526">
        <ele>797</ele>
        <time>2020-07-27T10:21:01Z</time>
      </trkpt>
      <trkpt lat="42.78779" lon="1.33701">
        <ele>791</ele>
        <time>2020-07-27T10:21:25Z</time>
      </trkpt>
      <trkpt lat="42.78764" lon="1.33749">
        <ele>788</ele>
        <time>2020-07-27T10:21:32Z</time>
      </trkpt>
      <trkpt lat="42.78742" lon="1.33811">
        <ele>788</ele>
        <time>2020-07-27T10:21:41Z</time>
      </trkpt>
      <trkpt lat="42.78743" lon="1.33826">
        <ele>785</ele>
        <time>2020-07-27T10:21:43Z</time>
      </trkpt>
      <trkpt lat="42.78749" lon="1.33831">
        <ele>780</ele>
        <time>2020-07-27T10:21:44Z</time>
      </trkpt>
      <trkpt lat="42.78755" lon="1.33829">
        <ele>778</ele>
        <time>2020-07-27T10:21:46Z</time>
      </trkpt>
      <trkpt lat="42.78764" lon="1.33815">
        <ele>777</ele>
        <time>2020-07-27T10:21:48Z</time>
      </trkpt>
      <trkpt lat="42.78773" lon="1.33784">
        <ele>779</ele>
        <time>2020-07-27T10:21:52Z</time>
      </trkpt>
      <trkpt lat="42.78785" lon="1.33758">
        <ele>777</ele>
        <time>2020-07-27T10:21:56Z</time>
      </trkpt>
      <trkpt lat="42.788" lon="1.33732">
        <ele>775</ele>
        <time>2020-07-27T10:22:01Z</time>
      </trkpt>
      <trkpt lat="42.78833" lon="1.33686">
        <ele>765</ele>
        <time>2020-07-27T10:22:09Z</time>
      </trkpt>
      <trkpt lat="42.78935" lon="1.33594">
        <ele>749</ele>
        <time>2020-07-27T10:22:31Z</time>
      </trkpt>
      <trkpt lat="42.78942" lon="1.3359">
        <ele>748</ele>
        <time>2020-07-27T10:22:32Z</time>
      </trkpt>
      <trkpt lat="42.78949" lon="1.33589">
        <ele>748</ele>
        <time>2020-07-27T10:22:33Z</time>
      </trkpt>
      <trkpt lat="42.78957" lon="1.33591">
        <ele>747</ele>
        <time>2020-07-27T10:22:35Z</time>
      </trkpt>
      <trkpt lat="42.78976" lon="1.33607">
        <ele>745</ele>
        <time>2020-07-27T10:22:39Z</time>
      </trkpt>
      <trkpt lat="42.78991" lon="1.33628">
        <ele>744</ele>
        <time>2020-07-27T10:22:43Z</time>
      </trkpt>
      <trkpt lat="42.7899" lon="1.33633">
        <ele>745</ele>
        <time>2020-07-27T10:22:43Z</time>
      </trkpt>
      <trkpt lat="42.78991" lon="1.3364">
        <ele>745</ele>
        <time>2020-07-27T10:22:44Z</time>
      </trkpt>
      <trkpt lat="42.78979" lon="1.33644">
        <ele>746</ele>
        <time>2020-07-27T10:22:46Z</time>
      </trkpt>
      <trkpt lat="42.78959" lon="1.33669">
        <ele>747</ele>
        <time>2020-07-27T10:22:51Z</time>
      </trkpt>
      <trkpt lat="42.78929" lon="1.33717">
        <ele>749</ele>
        <time>2020-07-27T10:23:00Z</time>
      </trkpt>
      <trkpt lat="42.78917" lon="1.33759">
        <ele>749</ele>
        <time>2020-07-27T10:23:05Z</time>
      </trkpt>
      <trkpt lat="42.78898" lon="1.33833">
        <ele>749</ele>
        <time>2020-07-27T10:23:16Z</time>
      </trkpt>
      <trkpt lat="42.78892" lon="1.33885">
        <ele>750</ele>
        <time>2020-07-27T10:23:23Z</time>
      </trkpt>
      <trkpt lat="42.78892" lon="1.33912">
        <ele>751</ele>
        <time>2020-07-27T10:23:26Z</time>
      </trkpt>
      <trkpt lat="42.78902" lon="1.33956">
        <ele>753</ele>
        <time>2020-07-27T10:23:32Z</time>
      </trkpt>
      <trkpt lat="42.78903" lon="1.33971">
        <ele>753</ele>
        <time>2020-07-27T10:23:34Z</time>
      </trkpt>
      <trkpt lat="42.789" lon="1.34033">
        <ele>755</ele>
        <time>2020-07-27T10:23:42Z</time>
      </trkpt>
      <trkpt lat="42.78901" lon="1.34049">
        <ele>756</ele>
        <time>2020-07-27T10:23:44Z</time>
      </trkpt>
      <trkpt lat="42.78905" lon="1.34063">
        <ele>757</ele>
        <time>2020-07-27T10:23:46Z</time>
      </trkpt>
      <trkpt lat="42.78913" lon="1.3408">
        <ele>758</ele>
        <time>2020-07-27T10:23:49Z</time>
      </trkpt>
      <trkpt lat="42.78955" lon="1.34132">
        <ele>762</ele>
        <time>2020-07-27T10:23:59Z</time>
      </trkpt>
      <trkpt lat="42.78978" lon="1.34164">
        <ele>766</ele>
        <time>2020-07-27T10:24:05Z</time>
      </trkpt>
      <trkpt lat="42.78983" lon="1.34177">
        <ele>767</ele>
        <time>2020-07-27T10:24:07Z</time>
      </trkpt>
      <trkpt lat="42.78986" lon="1.34189">
        <ele>768</ele>
        <time>2020-07-27T10:24:08Z</time>
      </trkpt>
      <trkpt lat="42.78983" lon="1.34208">
        <ele>770</ele>
        <time>2020-07-27T10:24:11Z</time>
      </trkpt>
      <trkpt lat="42.78953" lon="1.34273">
        <ele>773</ele>
        <time>2020-07-27T10:24:21Z</time>
      </trkpt>
      <trkpt lat="42.78943" lon="1.34299">
        <ele>774</ele>
        <time>2020-07-27T10:24:25Z</time>
      </trkpt>
      <trkpt lat="42.78936" lon="1.34327">
        <ele>776</ele>
        <time>2020-07-27T10:24:29Z</time>
      </trkpt>
      <trkpt lat="42.78928" lon="1.34368">
        <ele>779</ele>
        <time>2020-07-27T10:24:34Z</time>
      </trkpt>
      <trkpt lat="42.78924" lon="1.34409">
        <ele>784</ele>
        <time>2020-07-27T10:24:40Z</time>
      </trkpt>
      <trkpt lat="42.78924" lon="1.34443">
        <ele>787</ele>
        <time>2020-07-27T10:24:44Z</time>
      </trkpt>
      <trkpt lat="42.78926" lon="1.34476">
        <ele>791</ele>
        <time>2020-07-27T10:24:48Z</time>
      </trkpt>
      <trkpt lat="42.78942" lon="1.34611">
        <ele>803</ele>
        <time>2020-07-27T10:25:06Z</time>
      </trkpt>
      <trkpt lat="42.78952" lon="1.34663">
        <ele>810</ele>
        <time>2020-07-27T10:25:13Z</time>
      </trkpt>
      <trkpt lat="42.78951" lon="1.34687">
        <ele>814</ele>
        <time>2020-07-27T10:25:16Z</time>
      </trkpt>
      <trkpt lat="42.78928" lon="1.34782">
        <ele>825</ele>
        <time>2020-07-27T10:25:29Z</time>
      </trkpt>
      <trkpt lat="42.78913" lon="1.34811">
        <ele>827</ele>
        <time>2020-07-27T10:25:34Z</time>
      </trkpt>
      <trkpt lat="42.78903" lon="1.34826">
        <ele>828</ele>
        <time>2020-07-27T10:25:37Z</time>
      </trkpt>
      <trkpt lat="42.78827" lon="1.349">
        <ele>833</ele>
        <time>2020-07-27T10:25:53Z</time>
      </trkpt>
      <trkpt lat="42.78807" lon="1.34929">
        <ele>836</ele>
        <time>2020-07-27T10:25:58Z</time>
      </trkpt>
      <trkpt lat="42.78778" lon="1.34991">
        <ele>842</ele>
        <time>2020-07-27T10:26:08Z</time>
      </trkpt>
      <trkpt lat="42.78773" lon="1.35013">
        <ele>844</ele>
        <time>2020-07-27T10:26:11Z</time>
      </trkpt>
      <trkpt lat="42.78768" lon="1.35118">
        <ele>855</ele>
        <time>2020-07-27T10:26:25Z</time>
      </trkpt>
      <trkpt lat="42.78761" lon="1.35148">
        <ele>857</ele>
        <time>2020-07-27T10:26:29Z</time>
      </trkpt>
      <trkpt lat="42.78724" lon="1.35207">
        <ele>861</ele>
        <time>2020-07-27T10:26:39Z</time>
      </trkpt>
      <trkpt lat="42.78697" lon="1.35268">
        <ele>868</ele>
        <time>2020-07-27T10:26:48Z</time>
      </trkpt>
      <trkpt lat="42.78686" lon="1.35306">
        <ele>874</ele>
        <time>2020-07-27T10:26:54Z</time>
      </trkpt>
      <trkpt lat="42.78657" lon="1.35363">
        <ele>880</ele>
        <time>2020-07-27T10:27:03Z</time>
      </trkpt>
      <trkpt lat="42.7861" lon="1.35424">
        <ele>883</ele>
        <time>2020-07-27T10:27:14Z</time>
      </trkpt>
      <trkpt lat="42.78588" lon="1.35463">
        <ele>886</ele>
        <time>2020-07-27T10:27:21Z</time>
      </trkpt>
      <trkpt lat="42.78554" lon="1.35537">
        <ele>894</ele>
        <time>2020-07-27T10:27:32Z</time>
      </trkpt>
      <trkpt lat="42.78532" lon="1.35594">
        <ele>901</ele>
        <time>2020-07-27T10:27:41Z</time>
      </trkpt>
      <trkpt lat="42.78514" lon="1.3563">
        <ele>905</ele>
        <time>2020-07-27T10:27:46Z</time>
      </trkpt>
      <trkpt lat="42.7847" lon="1.35706">
        <ele>910</ele>
        <time>2020-07-27T10:27:59Z</time>
      </trkpt>
      <trkpt lat="42.78453" lon="1.35743">
        <ele>913</ele>
        <time>2020-07-27T10:28:05Z</time>
      </trkpt>
      <trkpt lat="42.78411" lon="1.35852">
        <ele>920</ele>
        <time>2020-07-27T10:28:21Z</time>
      </trkpt>
      <trkpt lat="42.78407" lon="1.35889">
        <ele>924</ele>
        <time>2020-07-27T10:28:26Z</time>
      </trkpt>
      <trkpt lat="42.78408" lon="1.35913">
        <ele>927</ele>
        <time>2020-07-27T10:28:29Z</time>
      </trkpt>
      <trkpt lat="42.78416" lon="1.35938">
        <ele>931</ele>
        <time>2020-07-27T10:28:32Z</time>
      </trkpt>
      <trkpt lat="42.78431" lon="1.35967">
        <ele>937</ele>
        <time>2020-07-27T10:28:37Z</time>
      </trkpt>
      <trkpt lat="42.78436" lon="1.35998">
        <ele>940</ele>
        <time>2020-07-27T10:28:41Z</time>
      </trkpt>
      <trkpt lat="42.78426" lon="1.36082">
        <ele>949</ele>
        <time>2020-07-27T10:28:52Z</time>
      </trkpt>
      <trkpt lat="42.78411" lon="1.36152">
        <ele>955</ele>
        <time>2020-07-27T10:29:02Z</time>
      </trkpt>
      <trkpt lat="42.7841" lon="1.36176">
        <ele>957</ele>
        <time>2020-07-27T10:29:05Z</time>
      </trkpt>
      <trkpt lat="42.78421" lon="1.36278">
        <ele>970</ele>
        <time>2020-07-27T10:29:18Z</time>
      </trkpt>
      <trkpt lat="42.7842" lon="1.36298">
        <ele>971</ele>
        <time>2020-07-27T10:29:21Z</time>
      </trkpt>
      <trkpt lat="42.78407" lon="1.36347">
        <ele>971</ele>
        <time>2020-07-27T10:29:28Z</time>
      </trkpt>
      <trkpt lat="42.78403" lon="1.36375">
        <ele>973</ele>
        <time>2020-07-27T10:29:31Z</time>
      </trkpt>
      <trkpt lat="42.78405" lon="1.36426">
        <ele>980</ele>
        <time>2020-07-27T10:29:38Z</time>
      </trkpt>
      <trkpt lat="42.78413" lon="1.36527">
        <ele>994</ele>
        <time>2020-07-27T10:29:51Z</time>
      </trkpt>
      <trkpt lat="42.78411" lon="1.36564">
        <ele>998</ele>
        <time>2020-07-27T10:29:56Z</time>
      </trkpt>
      <trkpt lat="42.78394" lon="1.36681">
        <ele>1005</ele>
        <time>2020-07-27T10:30:12Z</time>
      </trkpt>
      <trkpt lat="42.78391" lon="1.36748">
        <ele>1012</ele>
        <time>2020-07-27T10:30:21Z</time>
      </trkpt>
      <trkpt lat="42.78381" lon="1.36832">
        <ele>1018</ele>
        <time>2020-07-27T10:30:32Z</time>
      </trkpt>
      <trkpt lat="42.78382" lon="1.36892">
        <ele>1025</ele>
        <time>2020-07-27T10:30:39Z</time>
      </trkpt>
      <trkpt lat="42.78373" lon="1.36958">
        <ele>1030</ele>
        <time>2020-07-27T10:30:48Z</time>
      </trkpt>
      <trkpt lat="42.78362" lon="1.37014">
        <ele>1034</ele>
        <time>2020-07-27T10:30:56Z</time>
      </trkpt>
      <trkpt lat="42.78351" lon="1.37052">
        <ele>1038</ele>
        <time>2020-07-27T10:31:01Z</time>
      </trkpt>
      <trkpt lat="42.78335" lon="1.37081">
        <ele>1036</ele>
        <time>2020-07-27T10:31:06Z</time>
      </trkpt>
      <trkpt lat="42.78313" lon="1.37108">
        <ele>1037</ele>
        <time>2020-07-27T10:31:11Z</time>
      </trkpt>
      <trkpt lat="42.78264" lon="1.37201">
        <ele>1043</ele>
        <time>2020-07-27T10:31:26Z</time>
      </trkpt>
      <trkpt lat="42.78225" lon="1.37281">
        <ele>1052</ele>
        <time>2020-07-27T10:31:39Z</time>
      </trkpt>
      <trkpt lat="42.7821" lon="1.37296">
        <ele>1054</ele>
        <time>2020-07-27T10:31:42Z</time>
      </trkpt>
      <trkpt lat="42.7817" lon="1.37307">
        <ele>1049</ele>
        <time>2020-07-27T10:31:49Z</time>
      </trkpt>
      <trkpt lat="42.78159" lon="1.37312">
        <ele>1048</ele>
        <time>2020-07-27T10:31:51Z</time>
      </trkpt>
      <trkpt lat="42.78146" lon="1.37322">
        <ele>1049</ele>
        <time>2020-07-27T10:31:54Z</time>
      </trkpt>
      <trkpt lat="42.78122" lon="1.37364">
        <ele>1057</ele>
        <time>2020-07-27T10:32:01Z</time>
      </trkpt>
      <trkpt lat="42.78102" lon="1.37393">
        <ele>1061</ele>
        <time>2020-07-27T10:32:06Z</time>
      </trkpt>
      <trkpt lat="42.78092" lon="1.37401">
        <ele>1061</ele>
        <time>2020-07-27T10:32:08Z</time>
      </trkpt>
      <trkpt lat="42.78083" lon="1.37402">
        <ele>1060</ele>
        <time>2020-07-27T10:32:10Z</time>
      </trkpt>
      <trkpt lat="42.78074" lon="1.374">
        <ele>1057</ele>
        <time>2020-07-27T10:32:11Z</time>
      </trkpt>
      <trkpt lat="42.78065" lon="1.37393">
        <ele>1053</ele>
        <time>2020-07-27T10:32:13Z</time>
      </trkpt>
      <trkpt lat="42.78059" lon="1.37391">
        <ele>1052</ele>
        <time>2020-07-27T10:32:14Z</time>
      </trkpt>
      <trkpt lat="42.78054" lon="1.37394">
        <ele>1051</ele>
        <time>2020-07-27T10:32:15Z</time>
      </trkpt>
      <trkpt lat="42.77991" lon="1.37535">
        <ele>1084</ele>
        <time>2020-07-27T10:32:37Z</time>
      </trkpt>
      <trkpt lat="42.77979" lon="1.3755">
        <ele>1088</ele>
        <time>2020-07-27T10:32:40Z</time>
      </trkpt>
      <trkpt lat="42.77953" lon="1.37567">
        <ele>1090</ele>
        <time>2020-07-27T10:32:45Z</time>
      </trkpt>
      <trkpt lat="42.77921" lon="1.37581">
        <ele>1086</ele>
        <time>2020-07-27T10:32:51Z</time>
      </trkpt>
      <trkpt lat="42.77877" lon="1.37581">
        <ele>1089</ele>
        <time>2020-07-27T10:32:59Z</time>
      </trkpt>
      <trkpt lat="42.77821" lon="1.37589">
        <ele>1097</ele>
        <time>2020-07-27T10:33:09Z</time>
      </trkpt>
      <trkpt lat="42.77788" lon="1.37602">
        <ele>1103</ele>
        <time>2020-07-27T10:33:15Z</time>
      </trkpt>
      <trkpt lat="42.77759" lon="1.37618">
        <ele>1108</ele>
        <time>2020-07-27T10:33:20Z</time>
      </trkpt>
      <trkpt lat="42.77737" lon="1.37641">
        <ele>1112</ele>
        <time>2020-07-27T10:33:25Z</time>
      </trkpt>
      <trkpt lat="42.77715" lon="1.37658">
        <ele>1112</ele>
        <time>2020-07-27T10:33:30Z</time>
      </trkpt>
      <trkpt lat="42.77682" lon="1.37668">
        <ele>1106</ele>
        <time>2020-07-27T10:33:36Z</time>
      </trkpt>
      <trkpt lat="42.77672" lon="1.37677">
        <ele>1107</ele>
        <time>2020-07-27T10:33:38Z</time>
      </trkpt>
      <trkpt lat="42.77665" lon="1.37694">
        <ele>1110</ele>
        <time>2020-07-27T10:33:40Z</time>
      </trkpt>
      <trkpt lat="42.77654" lon="1.37731">
        <ele>1118</ele>
        <time>2020-07-27T10:33:46Z</time>
      </trkpt>
      <trkpt lat="42.77644" lon="1.37755">
        <ele>1121</ele>
        <time>2020-07-27T10:33:49Z</time>
      </trkpt>
      <trkpt lat="42.77633" lon="1.37782">
        <ele>1123</ele>
        <time>2020-07-27T10:33:53Z</time>
      </trkpt>
      <trkpt lat="42.77605" lon="1.37837">
        <ele>1126</ele>
        <time>2020-07-27T10:34:02Z</time>
      </trkpt>
      <trkpt lat="42.77586" lon="1.37863">
        <ele>1128</ele>
        <time>2020-07-27T10:34:07Z</time>
      </trkpt>
      <trkpt lat="42.77544" lon="1.37904">
        <ele>1130</ele>
        <time>2020-07-27T10:34:16Z</time>
      </trkpt>
      <trkpt lat="42.77532" lon="1.37925">
        <ele>1132</ele>
        <time>2020-07-27T10:34:20Z</time>
      </trkpt>
      <trkpt lat="42.77515" lon="1.37978">
        <ele>1143</ele>
        <time>2020-07-27T10:34:27Z</time>
      </trkpt>
      <trkpt lat="42.77502" lon="1.38">
        <ele>1144</ele>
        <time>2020-07-27T10:34:31Z</time>
      </trkpt>
      <trkpt lat="42.77483" lon="1.38024">
        <ele>1151</ele>
        <time>2020-07-27T10:34:35Z</time>
      </trkpt>
      <trkpt lat="42.77462" lon="1.38038">
        <ele>1152</ele>
        <time>2020-07-27T10:34:40Z</time>
      </trkpt>
      <trkpt lat="42.77431" lon="1.38047">
        <ele>1148</ele>
        <time>2020-07-27T10:34:45Z</time>
      </trkpt>
      <trkpt lat="42.77421" lon="1.38052">
        <ele>1148</ele>
        <time>2020-07-27T10:34:47Z</time>
      </trkpt>
      <trkpt lat="42.77417" lon="1.38064">
        <ele>1151</ele>
        <time>2020-07-27T10:34:49Z</time>
      </trkpt>
      <trkpt lat="42.7742" lon="1.38071">
        <ele>1154</ele>
        <time>2020-07-27T10:34:50Z</time>
      </trkpt>
      <trkpt lat="42.77425" lon="1.38076">
        <ele>1158</ele>
        <time>2020-07-27T10:34:51Z</time>
      </trkpt>
      <trkpt lat="42.77437" lon="1.38076">
        <ele>1161</ele>
        <time>2020-07-27T10:34:53Z</time>
      </trkpt>
      <trkpt lat="42.77488" lon="1.38048">
        <ele>1163</ele>
        <time>2020-07-27T10:35:03Z</time>
      </trkpt>
      <trkpt lat="42.77512" lon="1.38032">
        <ele>1165</ele>
        <time>2020-07-27T10:35:08Z</time>
      </trkpt>
      <trkpt lat="42.77528" lon="1.38017">
        <ele>1165</ele>
        <time>2020-07-27T10:35:11Z</time>
      </trkpt>
      <trkpt lat="42.77568" lon="1.3795">
        <ele>1156</ele>
        <time>2020-07-27T10:35:22Z</time>
      </trkpt>
      <trkpt lat="42.77629" lon="1.37906">
        <ele>1168</ele>
        <time>2020-07-27T10:35:35Z</time>
      </trkpt>
      <trkpt lat="42.7765" lon="1.37889">
        <ele>1171</ele>
        <time>2020-07-27T10:35:39Z</time>
      </trkpt>
      <trkpt lat="42.77693" lon="1.37831">
        <ele>1164</ele>
        <time>2020-07-27T10:35:50Z</time>
      </trkpt>
      <trkpt lat="42.77712" lon="1.37792">
        <ele>1161</ele>
        <time>2020-07-27T10:35:56Z</time>
      </trkpt>
      <trkpt lat="42.77717" lon="1.37786">
        <ele>1161</ele>
        <time>2020-07-27T10:35:57Z</time>
      </trkpt>
      <trkpt lat="42.77724" lon="1.37784">
        <ele>1163</ele>
        <time>2020-07-27T10:35:58Z</time>
      </trkpt>
      <trkpt lat="42.77757" lon="1.37788">
        <ele>1179</ele>
        <time>2020-07-27T10:36:04Z</time>
      </trkpt>
      <trkpt lat="42.7777" lon="1.37782">
        <ele>1180</ele>
        <time>2020-07-27T10:36:07Z</time>
      </trkpt>
      <trkpt lat="42.77792" lon="1.37755">
        <ele>1172</ele>
        <time>2020-07-27T10:36:12Z</time>
      </trkpt>
      <trkpt lat="42.77806" lon="1.3775">
        <ele>1172</ele>
        <time>2020-07-27T10:36:15Z</time>
      </trkpt>
      <trkpt lat="42.77815" lon="1.37754">
        <ele>1176</ele>
        <time>2020-07-27T10:36:16Z</time>
      </trkpt>
      <trkpt lat="42.77833" lon="1.3777">
        <ele>1189</ele>
        <time>2020-07-27T10:36:20Z</time>
      </trkpt>
      <trkpt lat="42.77847" lon="1.37772">
        <ele>1192</ele>
        <time>2020-07-27T10:36:23Z</time>
      </trkpt>
      <trkpt lat="42.77892" lon="1.37756">
        <ele>1191</ele>
        <time>2020-07-27T10:36:31Z</time>
      </trkpt>
      <trkpt lat="42.77904" lon="1.37755">
        <ele>1192</ele>
        <time>2020-07-27T10:36:33Z</time>
      </trkpt>
      <trkpt lat="42.77911" lon="1.37759">
        <ele>1195</ele>
        <time>2020-07-27T10:36:34Z</time>
      </trkpt>
      <trkpt lat="42.77914" lon="1.37766">
        <ele>1199</ele>
        <time>2020-07-27T10:36:35Z</time>
      </trkpt>
      <trkpt lat="42.77913" lon="1.37777">
        <ele>1204</ele>
        <time>2020-07-27T10:36:37Z</time>
      </trkpt>
      <trkpt lat="42.77906" lon="1.37783">
        <ele>1206</ele>
        <time>2020-07-27T10:36:38Z</time>
      </trkpt>
      <trkpt lat="42.77896" lon="1.37779">
        <ele>1203</ele>
        <time>2020-07-27T10:36:40Z</time>
      </trkpt>
      <trkpt lat="42.77879" lon="1.37779">
        <ele>1201</ele>
        <time>2020-07-27T10:36:43Z</time>
      </trkpt>
      <trkpt lat="42.77864" lon="1.37785">
        <ele>1202</ele>
        <time>2020-07-27T10:36:46Z</time>
      </trkpt>
      <trkpt lat="42.77846" lon="1.37796">
        <ele>1205</ele>
        <time>2020-07-27T10:36:49Z</time>
      </trkpt>
      <trkpt lat="42.77807" lon="1.37811">
        <ele>1204</ele>
        <time>2020-07-27T10:36:57Z</time>
      </trkpt>
      <trkpt lat="42.77777" lon="1.37831">
        <ele>1204</ele>
        <time>2020-07-27T10:37:03Z</time>
      </trkpt>
      <trkpt lat="42.77762" lon="1.37833">
        <ele>1200</ele>
        <time>2020-07-27T10:37:05Z</time>
      </trkpt>
      <trkpt lat="42.77754" lon="1.37838">
        <ele>1200</ele>
        <time>2020-07-27T10:37:07Z</time>
      </trkpt>
      <trkpt lat="42.77752" lon="1.37848">
        <ele>1205</ele>
        <time>2020-07-27T10:37:08Z</time>
      </trkpt>
      <trkpt lat="42.77753" lon="1.37858">
        <ele>1211</ele>
        <time>2020-07-27T10:37:10Z</time>
      </trkpt>
      <trkpt lat="42.77761" lon="1.37862">
        <ele>1215</ele>
        <time>2020-07-27T10:37:11Z</time>
      </trkpt>
      <trkpt lat="42.77771" lon="1.37859">
        <ele>1217</ele>
        <time>2020-07-27T10:37:13Z</time>
      </trkpt>
      <trkpt lat="42.77822" lon="1.37833">
        <ele>1221</ele>
        <time>2020-07-27T10:37:23Z</time>
      </trkpt>
      <trkpt lat="42.77855" lon="1.37825">
        <ele>1222</ele>
        <time>2020-07-27T10:37:29Z</time>
      </trkpt>
      <trkpt lat="42.77875" lon="1.37827">
        <ele>1225</ele>
        <time>2020-07-27T10:37:32Z</time>
      </trkpt>
      <trkpt lat="42.77897" lon="1.37839">
        <ele>1233</ele>
        <time>2020-07-27T10:37:36Z</time>
      </trkpt>
      <trkpt lat="42.77911" lon="1.37837">
        <ele>1233</ele>
        <time>2020-07-27T10:37:39Z</time>
      </trkpt>
      <trkpt lat="42.77939" lon="1.37818">
        <ele>1227</ele>
        <time>2020-07-27T10:37:44Z</time>
      </trkpt>
      <trkpt lat="42.7796" lon="1.37809">
        <ele>1226</ele>
        <time>2020-07-27T10:37:48Z</time>
      </trkpt>
      <trkpt lat="42.77978" lon="1.3781">
        <ele>1228</ele>
        <time>2020-07-27T10:37:52Z</time>
      </trkpt>
      <trkpt lat="42.77987" lon="1.37815">
        <ele>1232</ele>
        <time>2020-07-27T10:37:53Z</time>
      </trkpt>
      <trkpt lat="42.7799" lon="1.37828">
        <ele>1239</ele>
        <time>2020-07-27T10:37:55Z</time>
      </trkpt>
      <trkpt lat="42.77986" lon="1.37836">
        <ele>1242</ele>
        <time>2020-07-27T10:37:56Z</time>
      </trkpt>
      <trkpt lat="42.77976" lon="1.3784">
        <ele>1243</ele>
        <time>2020-07-27T10:37:58Z</time>
      </trkpt>
      <trkpt lat="42.77949" lon="1.37837">
        <ele>1238</ele>
        <time>2020-07-27T10:38:03Z</time>
      </trkpt>
      <trkpt lat="42.77942" lon="1.37843">
        <ele>1239</ele>
        <time>2020-07-27T10:38:04Z</time>
      </trkpt>
      <trkpt lat="42.77922" lon="1.37877">
        <ele>1250</ele>
        <time>2020-07-27T10:38:10Z</time>
      </trkpt>
      <trkpt lat="42.7791" lon="1.37893">
        <ele>1255</ele>
        <time>2020-07-27T10:38:13Z</time>
      </trkpt>
      <trkpt lat="42.7789" lon="1.37906">
        <ele>1258</ele>
        <time>2020-07-27T10:38:17Z</time>
      </trkpt>
      <trkpt lat="42.77872" lon="1.37906">
        <ele>1257</ele>
        <time>2020-07-27T10:38:20Z</time>
      </trkpt>
      <trkpt lat="42.77847" lon="1.37894">
        <ele>1250</ele>
        <time>2020-07-27T10:38:25Z</time>
      </trkpt>
      <trkpt lat="42.77834" lon="1.3789">
        <ele>1247</ele>
        <time>2020-07-27T10:38:27Z</time>
      </trkpt>
      <trkpt lat="42.77828" lon="1.37893">
        <ele>1247</ele>
        <time>2020-07-27T10:38:28Z</time>
      </trkpt>
      <trkpt lat="42.77824" lon="1.37901">
        <ele>1249</ele>
        <time>2020-07-27T10:38:30Z</time>
      </trkpt>
      <trkpt lat="42.77826" lon="1.37911">
        <ele>1254</ele>
        <time>2020-07-27T10:38:31Z</time>
      </trkpt>
      <trkpt lat="42.77833" lon="1.3792">
        <ele>1259</ele>
        <time>2020-07-27T10:38:33Z</time>
      </trkpt>
      <trkpt lat="42.77846" lon="1.37923">
        <ele>1261</ele>
        <time>2020-07-27T10:38:35Z</time>
      </trkpt>
      <trkpt lat="42.77885" lon="1.37936">
        <ele>1270</ele>
        <time>2020-07-27T10:38:42Z</time>
      </trkpt>
      <trkpt lat="42.77901" lon="1.37938">
        <ele>1272</ele>
        <time>2020-07-27T10:38:45Z</time>
      </trkpt>
      <trkpt lat="42.77918" lon="1.37935">
        <ele>1272</ele>
        <time>2020-07-27T10:38:48Z</time>
      </trkpt>
      <trkpt lat="42.77938" lon="1.37926">
        <ele>1272</ele>
        <time>2020-07-27T10:38:52Z</time>
      </trkpt>
      <trkpt lat="42.77955" lon="1.37909">
        <ele>1268</ele>
        <time>2020-07-27T10:38:56Z</time>
      </trkpt>
      <trkpt lat="42.77974" lon="1.37887">
        <ele>1262</ele>
        <time>2020-07-27T10:39:00Z</time>
      </trkpt>
      <trkpt lat="42.77982" lon="1.37883">
        <ele>1261</ele>
        <time>2020-07-27T10:39:02Z</time>
      </trkpt>
      <trkpt lat="42.77993" lon="1.37883">
        <ele>1263</ele>
        <time>2020-07-27T10:39:04Z</time>
      </trkpt>
      <trkpt lat="42.78002" lon="1.37888">
        <ele>1266</ele>
        <time>2020-07-27T10:39:05Z</time>
      </trkpt>
      <trkpt lat="42.78019" lon="1.37916">
        <ele>1278</ele>
        <time>2020-07-27T10:39:10Z</time>
      </trkpt>
      <trkpt lat="42.78031" lon="1.37932">
        <ele>1285</ele>
        <time>2020-07-27T10:39:13Z</time>
      </trkpt>
      <trkpt lat="42.78041" lon="1.37936">
        <ele>1287</ele>
        <time>2020-07-27T10:39:15Z</time>
      </trkpt>
      <trkpt lat="42.78051" lon="1.37936">
        <ele>1288</ele>
        <time>2020-07-27T10:39:17Z</time>
      </trkpt>
      <trkpt lat="42.78114" lon="1.37898">
        <ele>1274</ele>
        <time>2020-07-27T10:39:29Z</time>
      </trkpt>
      <trkpt lat="42.78134" lon="1.37892">
        <ele>1274</ele>
        <time>2020-07-27T10:39:33Z</time>
      </trkpt>
      <trkpt lat="42.7815" lon="1.37894">
        <ele>1276</ele>
        <time>2020-07-27T10:39:35Z</time>
      </trkpt>
      <trkpt lat="42.78155" lon="1.37898">
        <ele>1277</ele>
        <time>2020-07-27T10:39:36Z</time>
      </trkpt>
      <trkpt lat="42.78157" lon="1.37907">
        <ele>1281</ele>
        <time>2020-07-27T10:39:38Z</time>
      </trkpt>
      <trkpt lat="42.78153" lon="1.37916">
        <ele>1284</ele>
        <time>2020-07-27T10:39:39Z</time>
      </trkpt>
      <trkpt lat="42.78147" lon="1.37918">
        <ele>1284</ele>
        <time>2020-07-27T10:39:40Z</time>
      </trkpt>
      <trkpt lat="42.78125" lon="1.37912">
        <ele>1280</ele>
        <time>2020-07-27T10:39:44Z</time>
      </trkpt>
      <trkpt lat="42.78111" lon="1.37916">
        <ele>1281</ele>
        <time>2020-07-27T10:39:47Z</time>
      </trkpt>
      <trkpt lat="42.78091" lon="1.37935">
        <ele>1289</ele>
        <time>2020-07-27T10:39:51Z</time>
      </trkpt>
      <trkpt lat="42.78067" lon="1.37966">
        <ele>1303</ele>
        <time>2020-07-27T10:39:57Z</time>
      </trkpt>
      <trkpt lat="42.78051" lon="1.37979">
        <ele>1308</ele>
        <time>2020-07-27T10:40:00Z</time>
      </trkpt>
      <trkpt lat="42.77981" lon="1.38011">
        <ele>1312</ele>
        <time>2020-07-27T10:40:13Z</time>
      </trkpt>
      <trkpt lat="42.7794" lon="1.38042">
        <ele>1319</ele>
        <time>2020-07-27T10:40:22Z</time>
      </trkpt>
      <trkpt lat="42.77888" lon="1.38067">
        <ele>1326</ele>
        <time>2020-07-27T10:40:32Z</time>
      </trkpt>
      <trkpt lat="42.77866" lon="1.38073">
        <ele>1328</ele>
        <time>2020-07-27T10:40:36Z</time>
      </trkpt>
      <trkpt lat="42.7784" lon="1.38071">
        <ele>1327</ele>
        <time>2020-07-27T10:40:40Z</time>
      </trkpt>
      <trkpt lat="42.77829" lon="1.38073">
        <ele>1327</ele>
        <time>2020-07-27T10:40:42Z</time>
      </trkpt>
      <trkpt lat="42.77825" lon="1.38078">
        <ele>1329</ele>
        <time>2020-07-27T10:40:43Z</time>
      </trkpt>
      <trkpt lat="42.77824" lon="1.38095">
        <ele>1338</ele>
        <time>2020-07-27T10:40:45Z</time>
      </trkpt>
      <trkpt lat="42.77834" lon="1.381">
        <ele>1342</ele>
        <time>2020-07-27T10:40:47Z</time>
      </trkpt>
      <trkpt lat="42.77875" lon="1.38093">
        <ele>1338</ele>
        <time>2020-07-27T10:40:55Z</time>
      </trkpt>
      <trkpt lat="42.77904" lon="1.38081">
        <ele>1333</ele>
        <time>2020-07-27T10:41:00Z</time>
      </trkpt>
      <trkpt lat="42.77912" lon="1.38082">
        <ele>1333</ele>
        <time>2020-07-27T10:41:01Z</time>
      </trkpt>
      <trkpt lat="42.77934" lon="1.38095">
        <ele>1342</ele>
        <time>2020-07-27T10:41:06Z</time>
      </trkpt>
      <trkpt lat="42.77947" lon="1.38096">
        <ele>1344</ele>
        <time>2020-07-27T10:41:08Z</time>
      </trkpt>
      <trkpt lat="42.7797" lon="1.38092">
        <ele>1345</ele>
        <time>2020-07-27T10:41:12Z</time>
      </trkpt>
      <trkpt lat="42.78023" lon="1.38069">
        <ele>1340</ele>
        <time>2020-07-27T10:41:22Z</time>
      </trkpt>
      <trkpt lat="42.7806" lon="1.38065">
        <ele>1342</ele>
        <time>2020-07-27T10:41:29Z</time>
      </trkpt>
      <trkpt lat="42.78079" lon="1.38069">
        <ele>1346</ele>
        <time>2020-07-27T10:41:32Z</time>
      </trkpt>
      <trkpt lat="42.78087" lon="1.3808">
        <ele>1349</ele>
        <time>2020-07-27T10:41:34Z</time>
      </trkpt>
      <trkpt lat="42.78092" lon="1.38097">
        <ele>1351</ele>
        <time>2020-07-27T10:41:36Z</time>
      </trkpt>
      <trkpt lat="42.78105" lon="1.38179">
        <ele>1364</ele>
        <time>2020-07-27T10:41:47Z</time>
      </trkpt>
      <trkpt lat="42.78104" lon="1.38199">
        <ele>1366</ele>
        <time>2020-07-27T10:41:50Z</time>
      </trkpt>
      <trkpt lat="42.78095" lon="1.38268">
        <ele>1375</ele>
        <time>2020-07-27T10:41:59Z</time>
      </trkpt>
      <trkpt lat="42.78095" lon="1.38293">
        <ele>1377</ele>
        <time>2020-07-27T10:42:02Z</time>
      </trkpt>
      <trkpt lat="42.78099" lon="1.38303">
        <ele>1378</ele>
        <time>2020-07-27T10:42:04Z</time>
      </trkpt>
      <trkpt lat="42.78105" lon="1.38308">
        <ele>1378</ele>
        <time>2020-07-27T10:42:05Z</time>
      </trkpt>
      <trkpt lat="42.78112" lon="1.38309">
        <ele>1378</ele>
        <time>2020-07-27T10:42:06Z</time>
      </trkpt>
      <trkpt lat="42.7813" lon="1.383">
        <ele>1376</ele>
        <time>2020-07-27T10:42:10Z</time>
      </trkpt>
      <trkpt lat="42.7815" lon="1.38295">
        <ele>1374</ele>
        <time>2020-07-27T10:42:13Z</time>
      </trkpt>
      <trkpt lat="42.78166" lon="1.38297">
        <ele>1373</ele>
        <time>2020-07-27T10:42:16Z</time>
      </trkpt>
      <trkpt lat="42.78181" lon="1.38311">
        <ele>1376</ele>
        <time>2020-07-27T10:42:20Z</time>
      </trkpt>
      <trkpt lat="42.7821" lon="1.38389">
        <ele>1388</ele>
        <time>2020-07-27T10:42:31Z</time>
      </trkpt>
      <trkpt lat="42.78235" lon="1.38437">
        <ele>1393</ele>
        <time>2020-07-27T10:42:39Z</time>
      </trkpt>
      <trkpt lat="42.78265" lon="1.38554">
        <ele>1396</ele>
        <time>2020-07-27T10:42:55Z</time>
      </trkpt>
      <trkpt lat="42.78277" lon="1.38582">
        <ele>1398</ele>
        <time>2020-07-27T10:42:59Z</time>
      </trkpt>
      <trkpt lat="42.78308" lon="1.38642">
        <ele>1401</ele>
        <time>2020-07-27T10:43:09Z</time>
      </trkpt>
      <trkpt lat="42.78332" lon="1.38696">
        <ele>1406</ele>
        <time>2020-07-27T10:43:17Z</time>
      </trkpt>
      <trkpt lat="42.78332" lon="1.38722">
        <ele>1407</ele>
        <time>2020-07-27T10:43:20Z</time>
      </trkpt>
      <trkpt lat="42.78302" lon="1.38814">
        <ele>1414</ele>
        <time>2020-07-27T10:43:33Z</time>
      </trkpt>
      <trkpt lat="42.78296" lon="1.38856">
        <ele>1417</ele>
        <time>2020-07-27T10:43:39Z</time>
      </trkpt>
      <trkpt lat="42.78303" lon="1.38914">
        <ele>1421</ele>
        <time>2020-07-27T10:43:47Z</time>
      </trkpt>
      <trkpt lat="42.78314" lon="1.38947">
        <ele>1424</ele>
        <time>2020-07-27T10:43:51Z</time>
      </trkpt>
      <trkpt lat="42.78328" lon="1.38967">
        <ele>1425</ele>
        <time>2020-07-27T10:43:55Z</time>
      </trkpt>
      <trkpt lat="42.78344" lon="1.38972">
        <ele>1430</ele>
        <time>2020-07-27T10:43:58Z</time>
      </trkpt>
      <trkpt lat="42.78356" lon="1.38966">
        <ele>1433</ele>
        <time>2020-07-27T10:44:00Z</time>
      </trkpt>
      <trkpt lat="42.7837" lon="1.38953">
        <ele>1436</ele>
        <time>2020-07-27T10:44:03Z</time>
      </trkpt>
      <trkpt lat="42.78381" lon="1.38933">
        <ele>1437</ele>
        <time>2020-07-27T10:44:07Z</time>
      </trkpt>
      <trkpt lat="42.78392" lon="1.38878">
        <ele>1430</ele>
        <time>2020-07-27T10:44:14Z</time>
      </trkpt>
      <trkpt lat="42.78399" lon="1.38858">
        <ele>1427</ele>
        <time>2020-07-27T10:44:17Z</time>
      </trkpt>
      <trkpt lat="42.78411" lon="1.38839">
        <ele>1425</ele>
        <time>2020-07-27T10:44:20Z</time>
      </trkpt>
      <trkpt lat="42.78435" lon="1.38808">
        <ele>1427</ele>
        <time>2020-07-27T10:44:26Z</time>
      </trkpt>
      <trkpt lat="42.7848" lon="1.38736">
        <ele>1429</ele>
        <time>2020-07-27T10:44:38Z</time>
      </trkpt>
      <trkpt lat="42.78487" lon="1.38715">
        <ele>1429</ele>
        <time>2020-07-27T10:44:41Z</time>
      </trkpt>
      <trkpt lat="42.7849" lon="1.38673">
        <ele>1425</ele>
        <time>2020-07-27T10:44:47Z</time>
      </trkpt>
      <trkpt lat="42.78496" lon="1.38641">
        <ele>1424</ele>
        <time>2020-07-27T10:44:51Z</time>
      </trkpt>
      <trkpt lat="42.78519" lon="1.38602">
        <ele>1429</ele>
        <time>2020-07-27T10:44:58Z</time>
      </trkpt>
      <trkpt lat="42.78537" lon="1.38554">
        <ele>1429</ele>
        <time>2020-07-27T10:45:05Z</time>
      </trkpt>
      <trkpt lat="42.78548" lon="1.38531">
        <ele>1429</ele>
        <time>2020-07-27T10:45:08Z</time>
      </trkpt>
      <trkpt lat="42.78586" lon="1.38486">
        <ele>1433</ele>
        <time>2020-07-27T10:45:17Z</time>
      </trkpt>
      <trkpt lat="42.78598" lon="1.38479">
        <ele>1433</ele>
        <time>2020-07-27T10:45:20Z</time>
      </trkpt>
      <trkpt lat="42.78613" lon="1.38477">
        <ele>1436</ele>
        <time>2020-07-27T10:45:22Z</time>
      </trkpt>
      <trkpt lat="42.78671" lon="1.38489">
        <ele>1452</ele>
        <time>2020-07-27T10:45:33Z</time>
      </trkpt>
      <trkpt lat="42.78694" lon="1.38486">
        <ele>1457</ele>
        <time>2020-07-27T10:45:37Z</time>
      </trkpt>
      <trkpt lat="42.78778" lon="1.38438">
        <ele>1461</ele>
        <time>2020-07-27T10:45:53Z</time>
      </trkpt>
      <trkpt lat="42.78825" lon="1.38409">
        <ele>1468</ele>
        <time>2020-07-27T10:46:02Z</time>
      </trkpt>
      <trkpt lat="42.78837" lon="1.38394">
        <ele>1467</ele>
        <time>2020-07-27T10:46:05Z</time>
      </trkpt>
      <trkpt lat="42.78863" lon="1.38347">
        <ele>1462</ele>
        <time>2020-07-27T10:46:13Z</time>
      </trkpt>
      <trkpt lat="42.7889" lon="1.3831">
        <ele>1465</ele>
        <time>2020-07-27T10:46:20Z</time>
      </trkpt>
      <trkpt lat="42.78912" lon="1.3829">
        <ele>1471</ele>
        <time>2020-07-27T10:46:24Z</time>
      </trkpt>
      <trkpt lat="42.78922" lon="1.38277">
        <ele>1474</ele>
        <time>2020-07-27T10:46:27Z</time>
      </trkpt>
      <trkpt lat="42.78949" lon="1.38225">
        <ele>1477</ele>
        <time>2020-07-27T10:46:35Z</time>
      </trkpt>
      <trkpt lat="42.78988" lon="1.3818">
        <ele>1488</ele>
        <time>2020-07-27T10:46:44Z</time>
      </trkpt>
      <trkpt lat="42.79003" lon="1.3815">
        <ele>1493</ele>
        <time>2020-07-27T10:46:49Z</time>
      </trkpt>
      <trkpt lat="42.79006" lon="1.38134">
        <ele>1495</ele>
        <time>2020-07-27T10:46:51Z</time>
      </trkpt>
      <trkpt lat="42.79006" lon="1.38118">
        <ele>1494</ele>
        <time>2020-07-27T10:46:53Z</time>
      </trkpt>
      <trkpt lat="42.78998" lon="1.38037">
        <ele>1486</ele>
        <time>2020-07-27T10:47:04Z</time>
      </trkpt>
      <trkpt lat="42.78998" lon="1.38016">
        <ele>1485</ele>
        <time>2020-07-27T10:47:07Z</time>
      </trkpt>
      <trkpt lat="42.79001" lon="1.38001">
        <ele>1487</ele>
        <time>2020-07-27T10:47:09Z</time>
      </trkpt>
      <trkpt lat="42.79008" lon="1.37994">
        <ele>1490</ele>
        <time>2020-07-27T10:47:10Z</time>
      </trkpt>
      <trkpt lat="42.79029" lon="1.37978">
        <ele>1499</ele>
        <time>2020-07-27T10:47:15Z</time>
      </trkpt>
      <trkpt lat="42.7904" lon="1.37961">
        <ele>1501</ele>
        <time>2020-07-27T10:47:17Z</time>
      </trkpt>
      <trkpt lat="42.79074" lon="1.37892">
        <ele>1500</ele>
        <time>2020-07-27T10:47:28Z</time>
      </trkpt>
      <trkpt lat="42.79091" lon="1.37873">
        <ele>1501</ele>
        <time>2020-07-27T10:47:32Z</time>
      </trkpt>
      <trkpt lat="42.79166" lon="1.37831">
        <ele>1515</ele>
        <time>2020-07-27T10:47:47Z</time>
      </trkpt>
      <trkpt lat="42.79213" lon="1.37792">
        <ele>1522</ele>
        <time>2020-07-27T10:47:56Z</time>
      </trkpt>
      <trkpt lat="42.79227" lon="1.37775">
        <ele>1523</ele>
        <time>2020-07-27T10:48:00Z</time>
      </trkpt>
      <trkpt lat="42.7924" lon="1.37739">
        <ele>1521</ele>
        <time>2020-07-27T10:48:05Z</time>
      </trkpt>
      <trkpt lat="42.79263" lon="1.37671">
        <ele>1526</ele>
        <time>2020-07-27T10:48:15Z</time>
      </trkpt>
      <trkpt lat="42.79279" lon="1.37599">
        <ele>1535</ele>
        <time>2020-07-27T10:48:25Z</time>
      </trkpt>
      <trkpt lat="42.79284" lon="1.37591">
        <ele>1536</ele>
        <time>2020-07-27T10:48:26Z</time>
      </trkpt>
      <trkpt lat="42.7929" lon="1.37591">
        <ele>1538</ele>
        <time>2020-07-27T10:48:27Z</time>
      </trkpt>
      <trkpt lat="42.79296" lon="1.37593">
        <ele>1539</ele>
        <time>2020-07-27T10:48:28Z</time>
      </trkpt>
      <trkpt lat="42.79297" lon="1.37602">
        <ele>1539</ele>
        <time>2020-07-27T10:48:29Z</time>
      </trkpt>
      <trkpt lat="42.79286" lon="1.37638">
        <ele>1535</ele>
        <time>2020-07-27T10:48:34Z</time>
      </trkpt>
      <trkpt lat="42.79269" lon="1.37722">
        <ele>1533</ele>
        <time>2020-07-27T10:48:46Z</time>
      </trkpt>
      <trkpt lat="42.79269" lon="1.37777">
        <ele>1542</ele>
        <time>2020-07-27T10:48:53Z</time>
      </trkpt>
      <trkpt lat="42.79267" lon="1.37789">
        <ele>1545</ele>
        <time>2020-07-27T10:48:55Z</time>
      </trkpt>
      <trkpt lat="42.79256" lon="1.37813">
        <ele>1547</ele>
        <time>2020-07-27T10:48:58Z</time>
      </trkpt>
      <trkpt lat="42.79254" lon="1.37824">
        <ele>1549</ele>
        <time>2020-07-27T10:49:00Z</time>
      </trkpt>
      <trkpt lat="42.79257" lon="1.37832">
        <ele>1552</ele>
        <time>2020-07-27T10:49:01Z</time>
      </trkpt>
      <trkpt lat="42.79262" lon="1.37833">
        <ele>1554</ele>
        <time>2020-07-27T10:49:02Z</time>
      </trkpt>
      <trkpt lat="42.79268" lon="1.37828">
        <ele>1555</ele>
        <time>2020-07-27T10:49:03Z</time>
      </trkpt>
      <trkpt lat="42.79272" lon="1.37822">
        <ele>1555</ele>
        <time>2020-07-27T10:49:04Z</time>
      </trkpt>
      <trkpt lat="42.79284" lon="1.37786">
        <ele>1551</ele>
        <time>2020-07-27T10:49:09Z</time>
      </trkpt>
      <trkpt lat="42.7929" lon="1.37757">
        <ele>1547</ele>
        <time>2020-07-27T10:49:13Z</time>
      </trkpt>
      <trkpt lat="42.79298" lon="1.37697">
        <ele>1543</ele>
        <time>2020-07-27T10:49:21Z</time>
      </trkpt>
      <trkpt lat="42.79306" lon="1.3768">
        <ele>1544</ele>
        <time>2020-07-27T10:49:24Z</time>
      </trkpt>
      <trkpt lat="42.79339" lon="1.37657">
        <ele>1555</ele>
        <time>2020-07-27T10:49:30Z</time>
      </trkpt>
      <trkpt lat="42.79353" lon="1.37638">
        <ele>1558</ele>
        <time>2020-07-27T10:49:34Z</time>
      </trkpt>
      <trkpt lat="42.79368" lon="1.37608">
        <ele>1561</ele>
        <time>2020-07-27T10:49:39Z</time>
      </trkpt>
      <trkpt lat="42.79382" lon="1.3756">
        <ele>1564</ele>
        <time>2020-07-27T10:49:45Z</time>
      </trkpt>
      <trkpt lat="42.7939" lon="1.37515">
        <ele>1568</ele>
        <time>2020-07-27T10:49:52Z</time>
      </trkpt>
      <trkpt lat="42.79392" lon="1.37501">
        <ele>1568</ele>
        <time>2020-07-27T10:49:53Z</time>
      </trkpt>
      <trkpt lat="42.79392" lon="1.37435">
        <ele>1568</ele>
        <time>2020-07-27T10:50:02Z</time>
      </trkpt>
      <trkpt lat="42.79397" lon="1.37416">
        <ele>1568</ele>
        <time>2020-07-27T10:50:05Z</time>
      </trkpt>
      <trkpt lat="42.79405" lon="1.37397">
        <ele>1566</ele>
        <time>2020-07-27T10:50:07Z</time>
      </trkpt>
      <trkpt lat="42.79417" lon="1.3738">
        <ele>1564</ele>
        <time>2020-07-27T10:50:11Z</time>
      </trkpt>
      <trkpt lat="42.79427" lon="1.37369">
        <ele>1565</ele>
        <time>2020-07-27T10:50:13Z</time>
      </trkpt>
      <trkpt lat="42.7944" lon="1.37361">
        <ele>1566</ele>
        <time>2020-07-27T10:50:15Z</time>
      </trkpt>
      <trkpt lat="42.79466" lon="1.37349">
        <ele>1566</ele>
        <time>2020-07-27T10:50:20Z</time>
      </trkpt>
      <trkpt lat="42.79491" lon="1.37341">
        <ele>1566</ele>
        <time>2020-07-27T10:50:25Z</time>
      </trkpt>
      <trkpt lat="42.79516" lon="1.37338">
        <ele>1567</ele>
        <time>2020-07-27T10:50:29Z</time>
      </trkpt>
      <trkpt lat="42.79524" lon="1.37335">
        <ele>1567</ele>
        <time>2020-07-27T10:50:31Z</time>
      </trkpt>
      <trkpt lat="42.79531" lon="1.37328">
        <ele>1566</ele>
        <time>2020-07-27T10:50:32Z</time>
      </trkpt>
      <trkpt lat="42.79534" lon="1.37317">
        <ele>1564</ele>
        <time>2020-07-27T10:50:34Z</time>
      </trkpt>
      <trkpt lat="42.79533" lon="1.37307">
        <ele>1562</ele>
        <time>2020-07-27T10:50:35Z</time>
      </trkpt>
      <trkpt lat="42.79527" lon="1.37298">
        <ele>1559</ele>
        <time>2020-07-27T10:50:37Z</time>
      </trkpt>
      <trkpt lat="42.79519" lon="1.37295">
        <ele>1558</ele>
        <time>2020-07-27T10:50:38Z</time>
      </trkpt>
      <trkpt lat="42.79497" lon="1.37295">
        <ele>1558</ele>
        <time>2020-07-27T10:50:42Z</time>
      </trkpt>
      <trkpt lat="42.79483" lon="1.37299">
        <ele>1560</ele>
        <time>2020-07-27T10:50:45Z</time>
      </trkpt>
      <trkpt lat="42.79468" lon="1.37295">
        <ele>1561</ele>
        <time>2020-07-27T10:50:47Z</time>
      </trkpt>
      <trkpt lat="42.7946" lon="1.37285">
        <ele>1562</ele>
        <time>2020-07-27T10:50:49Z</time>
      </trkpt>
      <trkpt lat="42.79456" lon="1.37271">
        <ele>1562</ele>
        <time>2020-07-27T10:50:51Z</time>
      </trkpt>
      <trkpt lat="42.79455" lon="1.37259">
        <ele>1562</ele>
        <time>2020-07-27T10:50:53Z</time>
      </trkpt>
      <trkpt lat="42.79458" lon="1.3723">
        <ele>1557</ele>
        <time>2020-07-27T10:50:57Z</time>
      </trkpt>
      <trkpt lat="42.79457" lon="1.37204">
        <ele>1553</ele>
        <time>2020-07-27T10:51:00Z</time>
      </trkpt>
      <trkpt lat="42.79451" lon="1.37147">
        <ele>1553</ele>
        <time>2020-07-27T10:51:08Z</time>
      </trkpt>
      <trkpt lat="42.79449" lon="1.37099">
        <ele>1561</ele>
        <time>2020-07-27T10:51:14Z</time>
      </trkpt>
      <trkpt lat="42.79463" lon="1.3703">
        <ele>1560</ele>
        <time>2020-07-27T10:51:23Z</time>
      </trkpt>
      <trkpt lat="42.79485" lon="1.36983">
        <ele>1563</ele>
        <time>2020-07-27T10:51:31Z</time>
      </trkpt>
      <trkpt lat="42.79499" lon="1.36966">
        <ele>1566</ele>
        <time>2020-07-27T10:51:34Z</time>
      </trkpt>
      <trkpt lat="42.79523" lon="1.36946">
        <ele>1560</ele>
        <time>2020-07-27T10:51:39Z</time>
      </trkpt>
      <trkpt lat="42.79544" lon="1.36938">
        <ele>1553</ele>
        <time>2020-07-27T10:51:43Z</time>
      </trkpt>
      <trkpt lat="42.79564" lon="1.36938">
        <ele>1544</ele>
        <time>2020-07-27T10:51:46Z</time>
      </trkpt>
      <trkpt lat="42.79611" lon="1.36933">
        <ele>1526</ele>
        <time>2020-07-27T10:51:55Z</time>
      </trkpt>
      <trkpt lat="42.79628" lon="1.36923">
        <ele>1523</ele>
        <time>2020-07-27T10:51:58Z</time>
      </trkpt>
      <trkpt lat="42.79651" lon="1.36905">
        <ele>1520</ele>
        <time>2020-07-27T10:52:03Z</time>
      </trkpt>
      <trkpt lat="42.79669" lon="1.36886">
        <ele>1518</ele>
        <time>2020-07-27T10:52:07Z</time>
      </trkpt>
      <trkpt lat="42.7968" lon="1.36861">
        <ele>1520</ele>
        <time>2020-07-27T10:52:11Z</time>
      </trkpt>
      <trkpt lat="42.79686" lon="1.36796">
        <ele>1535</ele>
        <time>2020-07-27T10:52:19Z</time>
      </trkpt>
      <trkpt lat="42.79692" lon="1.36776">
        <ele>1537</ele>
        <time>2020-07-27T10:52:22Z</time>
      </trkpt>
      <trkpt lat="42.79707" lon="1.36755">
        <ele>1534</ele>
        <time>2020-07-27T10:52:26Z</time>
      </trkpt>
      <trkpt lat="42.79726" lon="1.36749">
        <ele>1526</ele>
        <time>2020-07-27T10:52:29Z</time>
      </trkpt>
      <trkpt lat="42.79736" lon="1.36756">
        <ele>1519</ele>
        <time>2020-07-27T10:52:31Z</time>
      </trkpt>
      <trkpt lat="42.79762" lon="1.36787">
        <ele>1508</ele>
        <time>2020-07-27T10:52:37Z</time>
      </trkpt>
      <trkpt lat="42.79869" lon="1.36897">
        <ele>1499</ele>
        <time>2020-07-27T10:53:01Z</time>
      </trkpt>
      <trkpt lat="42.79891" lon="1.3691">
        <ele>1499</ele>
        <time>2020-07-27T10:53:05Z</time>
      </trkpt>
      <trkpt lat="42.79913" lon="1.36919">
        <ele>1499</ele>
        <time>2020-07-27T10:53:10Z</time>
      </trkpt>
      <trkpt lat="42.79932" lon="1.3692">
        <ele>1497</ele>
        <time>2020-07-27T10:53:13Z</time>
      </trkpt>
      <trkpt lat="42.79964" lon="1.36917">
        <ele>1493</ele>
        <time>2020-07-27T10:53:19Z</time>
      </trkpt>
      <trkpt lat="42.79972" lon="1.36921">
        <ele>1491</ele>
        <time>2020-07-27T10:53:20Z</time>
      </trkpt>
      <trkpt lat="42.79978" lon="1.36933">
        <ele>1486</ele>
        <time>2020-07-27T10:53:22Z</time>
      </trkpt>
      <trkpt lat="42.79977" lon="1.36942">
        <ele>1483</ele>
        <time>2020-07-27T10:53:23Z</time>
      </trkpt>
      <trkpt lat="42.79969" lon="1.36956">
        <ele>1479</ele>
        <time>2020-07-27T10:53:26Z</time>
      </trkpt>
      <trkpt lat="42.79918" lon="1.36979">
        <ele>1475</ele>
        <time>2020-07-27T10:53:35Z</time>
      </trkpt>
      <trkpt lat="42.79906" lon="1.36979">
        <ele>1474</ele>
        <time>2020-07-27T10:53:37Z</time>
      </trkpt>
      <trkpt lat="42.79894" lon="1.36975">
        <ele>1474</ele>
        <time>2020-07-27T10:53:39Z</time>
      </trkpt>
      <trkpt lat="42.79878" lon="1.36964">
        <ele>1477</ele>
        <time>2020-07-27T10:53:43Z</time>
      </trkpt>
      <trkpt lat="42.79848" lon="1.3695">
        <ele>1477</ele>
        <time>2020-07-27T10:53:48Z</time>
      </trkpt>
      <trkpt lat="42.7983" lon="1.36945">
        <ele>1477</ele>
        <time>2020-07-27T10:53:52Z</time>
      </trkpt>
      <trkpt lat="42.79817" lon="1.36946">
        <ele>1476</ele>
        <time>2020-07-27T10:53:54Z</time>
      </trkpt>
      <trkpt lat="42.79805" lon="1.36953">
        <ele>1474</ele>
        <time>2020-07-27T10:53:56Z</time>
      </trkpt>
      <trkpt lat="42.79796" lon="1.36967">
        <ele>1471</ele>
        <time>2020-07-27T10:53:59Z</time>
      </trkpt>
      <trkpt lat="42.79791" lon="1.36984">
        <ele>1467</ele>
        <time>2020-07-27T10:54:01Z</time>
      </trkpt>
      <trkpt lat="42.7979" lon="1.36998">
        <ele>1465</ele>
        <time>2020-07-27T10:54:03Z</time>
      </trkpt>
      <trkpt lat="42.79794" lon="1.37032">
        <ele>1460</ele>
        <time>2020-07-27T10:54:07Z</time>
      </trkpt>
      <trkpt lat="42.79795" lon="1.37069">
        <ele>1455</ele>
        <time>2020-07-27T10:54:12Z</time>
      </trkpt>
      <trkpt lat="42.79792" lon="1.37127">
        <ele>1451</ele>
        <time>2020-07-27T10:54:20Z</time>
      </trkpt>
      <trkpt lat="42.79795" lon="1.37166">
        <ele>1448</ele>
        <time>2020-07-27T10:54:25Z</time>
      </trkpt>
      <trkpt lat="42.79801" lon="1.372">
        <ele>1452</ele>
        <time>2020-07-27T10:54:29Z</time>
      </trkpt>
      <trkpt lat="42.79809" lon="1.3722">
        <ele>1453</ele>
        <time>2020-07-27T10:54:32Z</time>
      </trkpt>
      <trkpt lat="42.79819" lon="1.37234">
        <ele>1452</ele>
        <time>2020-07-27T10:54:35Z</time>
      </trkpt>
      <trkpt lat="42.79837" lon="1.37248">
        <ele>1448</ele>
        <time>2020-07-27T10:54:39Z</time>
      </trkpt>
      <trkpt lat="42.7986" lon="1.37258">
        <ele>1448</ele>
        <time>2020-07-27T10:54:43Z</time>
      </trkpt>
      <trkpt lat="42.79908" lon="1.3727">
        <ele>1444</ele>
        <time>2020-07-27T10:54:52Z</time>
      </trkpt>
      <trkpt lat="42.80059" lon="1.373">
        <ele>1423</ele>
        <time>2020-07-27T10:55:19Z</time>
      </trkpt>
      <trkpt lat="42.80092" lon="1.37312">
        <ele>1417</ele>
        <time>2020-07-27T10:55:25Z</time>
      </trkpt>
      <trkpt lat="42.80107" lon="1.3732">
        <ele>1414</ele>
        <time>2020-07-27T10:55:28Z</time>
      </trkpt>
      <trkpt lat="42.80139" lon="1.3735">
        <ele>1409</ele>
        <time>2020-07-27T10:55:35Z</time>
      </trkpt>
      <trkpt lat="42.8018" lon="1.37405">
        <ele>1402</ele>
        <time>2020-07-27T10:55:45Z</time>
      </trkpt>
      <trkpt lat="42.80232" lon="1.37483">
        <ele>1399</ele>
        <time>2020-07-27T10:55:59Z</time>
      </trkpt>
      <trkpt lat="42.80245" lon="1.37514">
        <ele>1397</ele>
        <time>2020-07-27T10:56:03Z</time>
      </trkpt>
      <trkpt lat="42.80263" lon="1.37568">
        <ele>1396</ele>
        <time>2020-07-27T10:56:11Z</time>
      </trkpt>
      <trkpt lat="42.80273" lon="1.37609">
        <ele>1399</ele>
        <time>2020-07-27T10:56:17Z</time>
      </trkpt>
      <trkpt lat="42.8028" lon="1.37621">
        <ele>1400</ele>
        <time>2020-07-27T10:56:19Z</time>
      </trkpt>
      <trkpt lat="42.80292" lon="1.37626">
        <ele>1399</ele>
        <time>2020-07-27T10:56:21Z</time>
      </trkpt>
      <trkpt lat="42.80304" lon="1.37622">
        <ele>1397</ele>
        <time>2020-07-27T10:56:23Z</time>
      </trkpt>
      <trkpt lat="42.80313" lon="1.37609">
        <ele>1394</ele>
        <time>2020-07-27T10:56:25Z</time>
      </trkpt>
      <trkpt lat="42.80352" lon="1.37509">
        <ele>1380</ele>
        <time>2020-07-27T10:56:40Z</time>
      </trkpt>
      <trkpt lat="42.80361" lon="1.37492">
        <ele>1378</ele>
        <time>2020-07-27T10:56:43Z</time>
      </trkpt>
      <trkpt lat="42.80371" lon="1.37484">
        <ele>1376</ele>
        <time>2020-07-27T10:56:45Z</time>
      </trkpt>
      <trkpt lat="42.80383" lon="1.37485">
        <ele>1376</ele>
        <time>2020-07-27T10:56:47Z</time>
      </trkpt>
      <trkpt lat="42.80425" lon="1.37517">
        <ele>1381</ele>
        <time>2020-07-27T10:56:56Z</time>
      </trkpt>
      <trkpt lat="42.80437" lon="1.37518">
        <ele>1380</ele>
        <time>2020-07-27T10:56:58Z</time>
      </trkpt>
      <trkpt lat="42.80446" lon="1.37514">
        <ele>1378</ele>
        <time>2020-07-27T10:57:00Z</time>
      </trkpt>
      <trkpt lat="42.80451" lon="1.37507">
        <ele>1376</ele>
        <time>2020-07-27T10:57:01Z</time>
      </trkpt>
      <trkpt lat="42.80451" lon="1.37499">
        <ele>1375</ele>
        <time>2020-07-27T10:57:02Z</time>
      </trkpt>
      <trkpt lat="42.80447" lon="1.37488">
        <ele>1373</ele>
        <time>2020-07-27T10:57:04Z</time>
      </trkpt>
      <trkpt lat="42.80387" lon="1.37427">
        <ele>1364</ele>
        <time>2020-07-27T10:57:17Z</time>
      </trkpt>
      <trkpt lat="42.80372" lon="1.3742">
        <ele>1363</ele>
        <time>2020-07-27T10:57:20Z</time>
      </trkpt>
      <trkpt lat="42.80324" lon="1.37411">
        <ele>1366</ele>
        <time>2020-07-27T10:57:28Z</time>
      </trkpt>
      <trkpt lat="42.80303" lon="1.37397">
        <ele>1369</ele>
        <time>2020-07-27T10:57:32Z</time>
      </trkpt>
      <trkpt lat="42.80258" lon="1.37358">
        <ele>1372</ele>
        <time>2020-07-27T10:57:42Z</time>
      </trkpt>
      <trkpt lat="42.80244" lon="1.37337">
        <ele>1371</ele>
        <time>2020-07-27T10:57:46Z</time>
      </trkpt>
      <trkpt lat="42.8024" lon="1.37308">
        <ele>1372</ele>
        <time>2020-07-27T10:57:49Z</time>
      </trkpt>
      <trkpt lat="42.80238" lon="1.37281">
        <ele>1372</ele>
        <time>2020-07-27T10:57:53Z</time>
      </trkpt>
      <trkpt lat="42.80246" lon="1.37256">
        <ele>1368</ele>
        <time>2020-07-27T10:57:57Z</time>
      </trkpt>
      <trkpt lat="42.80262" lon="1.37234">
        <ele>1365</ele>
        <time>2020-07-27T10:58:01Z</time>
      </trkpt>
      <trkpt lat="42.80316" lon="1.37194">
        <ele>1356</ele>
        <time>2020-07-27T10:58:12Z</time>
      </trkpt>
      <trkpt lat="42.80336" lon="1.37184">
        <ele>1352</ele>
        <time>2020-07-27T10:58:15Z</time>
      </trkpt>
      <trkpt lat="42.80369" lon="1.37179">
        <ele>1345</ele>
        <time>2020-07-27T10:58:21Z</time>
      </trkpt>
      <trkpt lat="42.80387" lon="1.3717">
        <ele>1342</ele>
        <time>2020-07-27T10:58:25Z</time>
      </trkpt>
      <trkpt lat="42.80401" lon="1.3716">
        <ele>1341</ele>
        <time>2020-07-27T10:58:27Z</time>
      </trkpt>
      <trkpt lat="42.8046" lon="1.3711">
        <ele>1344</ele>
        <time>2020-07-27T10:58:40Z</time>
      </trkpt>
      <trkpt lat="42.80475" lon="1.37101">
        <ele>1343</ele>
        <time>2020-07-27T10:58:43Z</time>
      </trkpt>
      <trkpt lat="42.80496" lon="1.37098">
        <ele>1339</ele>
        <time>2020-07-27T10:58:47Z</time>
      </trkpt>
      <trkpt lat="42.80515" lon="1.37106">
        <ele>1335</ele>
        <time>2020-07-27T10:58:50Z</time>
      </trkpt>
      <trkpt lat="42.80566" lon="1.37133">
        <ele>1326</ele>
        <time>2020-07-27T10:59:00Z</time>
      </trkpt>
      <trkpt lat="42.80579" lon="1.37134">
        <ele>1325</ele>
        <time>2020-07-27T10:59:02Z</time>
      </trkpt>
      <trkpt lat="42.80629" lon="1.37108">
        <ele>1326</ele>
        <time>2020-07-27T10:59:12Z</time>
      </trkpt>
      <trkpt lat="42.80682" lon="1.37109">
        <ele>1321</ele>
        <time>2020-07-27T10:59:21Z</time>
      </trkpt>
      <trkpt lat="42.80708" lon="1.37112">
        <ele>1319</ele>
        <time>2020-07-27T10:59:26Z</time>
      </trkpt>
      <trkpt lat="42.80774" lon="1.37129">
        <ele>1309</ele>
        <time>2020-07-27T10:59:38Z</time>
      </trkpt>
      <trkpt lat="42.80788" lon="1.37141">
        <ele>1304</ele>
        <time>2020-07-27T10:59:41Z</time>
      </trkpt>
      <trkpt lat="42.80791" lon="1.37153">
        <ele>1300</ele>
        <time>2020-07-27T10:59:42Z</time>
      </trkpt>
      <trkpt lat="42.80787" lon="1.37171">
        <ele>1296</ele>
        <time>2020-07-27T10:59:45Z</time>
      </trkpt>
      <trkpt lat="42.80757" lon="1.37192">
        <ele>1296</ele>
        <time>2020-07-27T10:59:51Z</time>
      </trkpt>
      <trkpt lat="42.80726" lon="1.3722">
        <ele>1295</ele>
        <time>2020-07-27T10:59:57Z</time>
      </trkpt>
      <trkpt lat="42.80718" lon="1.37232">
        <ele>1294</ele>
        <time>2020-07-27T10:59:59Z</time>
      </trkpt>
      <trkpt lat="42.80714" lon="1.37254">
        <ele>1292</ele>
        <time>2020-07-27T11:00:02Z</time>
      </trkpt>
      <trkpt lat="42.80712" lon="1.37286">
        <ele>1291</ele>
        <time>2020-07-27T11:00:07Z</time>
      </trkpt>
      <trkpt lat="42.80713" lon="1.37315">
        <ele>1290</ele>
        <time>2020-07-27T11:00:10Z</time>
      </trkpt>
      <trkpt lat="42.80717" lon="1.37339">
        <ele>1288</ele>
        <time>2020-07-27T11:00:14Z</time>
      </trkpt>
      <trkpt lat="42.80725" lon="1.37358">
        <ele>1286</ele>
        <time>2020-07-27T11:00:16Z</time>
      </trkpt>
      <trkpt lat="42.80739" lon="1.37375">
        <ele>1283</ele>
        <time>2020-07-27T11:00:20Z</time>
      </trkpt>
      <trkpt lat="42.80758" lon="1.37389">
        <ele>1280</ele>
        <time>2020-07-27T11:00:24Z</time>
      </trkpt>
      <trkpt lat="42.808" lon="1.37408">
        <ele>1275</ele>
        <time>2020-07-27T11:00:32Z</time>
      </trkpt>
      <trkpt lat="42.80835" lon="1.3742">
        <ele>1270</ele>
        <time>2020-07-27T11:00:38Z</time>
      </trkpt>
      <trkpt lat="42.8087" lon="1.37428">
        <ele>1269</ele>
        <time>2020-07-27T11:00:44Z</time>
      </trkpt>
      <trkpt lat="42.80908" lon="1.37446">
        <ele>1269</ele>
        <time>2020-07-27T11:00:51Z</time>
      </trkpt>
      <trkpt lat="42.80934" lon="1.37474">
        <ele>1272</ele>
        <time>2020-07-27T11:00:57Z</time>
      </trkpt>
      <trkpt lat="42.8095" lon="1.37508">
        <ele>1277</ele>
        <time>2020-07-27T11:01:03Z</time>
      </trkpt>
      <trkpt lat="42.80966" lon="1.37685">
        <ele>1275</ele>
        <time>2020-07-27T11:01:26Z</time>
      </trkpt>
      <trkpt lat="42.80962" lon="1.37704">
        <ele>1275</ele>
        <time>2020-07-27T11:01:28Z</time>
      </trkpt>
      <trkpt lat="42.80955" lon="1.37717">
        <ele>1276</ele>
        <time>2020-07-27T11:01:31Z</time>
      </trkpt>
      <trkpt lat="42.80933" lon="1.37745">
        <ele>1278</ele>
        <time>2020-07-27T11:01:36Z</time>
      </trkpt>
      <trkpt lat="42.8091" lon="1.37787">
        <ele>1279</ele>
        <time>2020-07-27T11:01:43Z</time>
      </trkpt>
      <trkpt lat="42.80889" lon="1.37834">
        <ele>1278</ele>
        <time>2020-07-27T11:01:50Z</time>
      </trkpt>
      <trkpt lat="42.80885" lon="1.37854">
        <ele>1279</ele>
        <time>2020-07-27T11:01:53Z</time>
      </trkpt>
      <trkpt lat="42.80883" lon="1.37884">
        <ele>1280</ele>
        <time>2020-07-27T11:01:57Z</time>
      </trkpt>
      <trkpt lat="42.80883" lon="1.37917">
        <ele>1281</ele>
        <time>2020-07-27T11:02:01Z</time>
      </trkpt>
      <trkpt lat="42.8089" lon="1.38013">
        <ele>1292</ele>
        <time>2020-07-27T11:02:13Z</time>
      </trkpt>
      <trkpt lat="42.8089" lon="1.3803">
        <ele>1294</ele>
        <time>2020-07-27T11:02:16Z</time>
      </trkpt>
      <trkpt lat="42.80887" lon="1.38047">
        <ele>1297</ele>
        <time>2020-07-27T11:02:18Z</time>
      </trkpt>
      <trkpt lat="42.80882" lon="1.38061">
        <ele>1299</ele>
        <time>2020-07-27T11:02:20Z</time>
      </trkpt>
      <trkpt lat="42.80855" lon="1.38105">
        <ele>1302</ele>
        <time>2020-07-27T11:02:27Z</time>
      </trkpt>
      <trkpt lat="42.80847" lon="1.38122">
        <ele>1302</ele>
        <time>2020-07-27T11:02:30Z</time>
      </trkpt>
      <trkpt lat="42.80838" lon="1.38157">
        <ele>1303</ele>
        <time>2020-07-27T11:02:35Z</time>
      </trkpt>
      <trkpt lat="42.80823" lon="1.3823">
        <ele>1303</ele>
        <time>2020-07-27T11:02:45Z</time>
      </trkpt>
      <trkpt lat="42.80819" lon="1.38268">
        <ele>1303</ele>
        <time>2020-07-27T11:02:50Z</time>
      </trkpt>
      <trkpt lat="42.80818" lon="1.38315">
        <ele>1301</ele>
        <time>2020-07-27T11:02:56Z</time>
      </trkpt>
      <trkpt lat="42.80824" lon="1.38336">
        <ele>1301</ele>
        <time>2020-07-27T11:02:59Z</time>
      </trkpt>
      <trkpt lat="42.80793" lon="1.3838">
        <ele>1299</ele>
        <time>2020-07-27T11:03:07Z</time>
      </trkpt>
      <trkpt lat="42.80779" lon="1.38397">
        <ele>1299</ele>
        <time>2020-07-27T11:03:10Z</time>
      </trkpt>
      <trkpt lat="42.80714" lon="1.38434">
        <ele>1309</ele>
        <time>2020-07-27T11:03:23Z</time>
      </trkpt>
      <trkpt lat="42.80702" lon="1.38452">
        <ele>1314</ele>
        <time>2020-07-27T11:03:26Z</time>
      </trkpt>
      <trkpt lat="42.80701" lon="1.38465">
        <ele>1317</ele>
        <time>2020-07-27T11:03:28Z</time>
      </trkpt>
      <trkpt lat="42.80707" lon="1.38478">
        <ele>1317</ele>
        <time>2020-07-27T11:03:30Z</time>
      </trkpt>
      <trkpt lat="42.80756" lon="1.38557">
        <ele>1313</ele>
        <time>2020-07-27T11:03:43Z</time>
      </trkpt>
      <trkpt lat="42.80758" lon="1.38572">
        <ele>1315</ele>
        <time>2020-07-27T11:03:45Z</time>
      </trkpt>
      <trkpt lat="42.80751" lon="1.38604">
        <ele>1321</ele>
        <time>2020-07-27T11:03:50Z</time>
      </trkpt>
      <trkpt lat="42.80754" lon="1.38624">
        <ele>1324</ele>
        <time>2020-07-27T11:03:52Z</time>
      </trkpt>
      <trkpt lat="42.80761" lon="1.38644">
        <ele>1327</ele>
        <time>2020-07-27T11:03:55Z</time>
      </trkpt>
      <trkpt lat="42.80779" lon="1.3867">
        <ele>1329</ele>
        <time>2020-07-27T11:04:00Z</time>
      </trkpt>
      <trkpt lat="42.80811" lon="1.38683">
        <ele>1324</ele>
        <time>2020-07-27T11:04:06Z</time>
      </trkpt>
      <trkpt lat="42.80824" lon="1.38695">
        <ele>1323</ele>
        <time>2020-07-27T11:04:08Z</time>
      </trkpt>
      <trkpt lat="42.80828" lon="1.38715">
        <ele>1324</ele>
        <time>2020-07-27T11:04:11Z</time>
      </trkpt>
      <trkpt lat="42.80824" lon="1.38742">
        <ele>1328</ele>
        <time>2020-07-27T11:04:15Z</time>
      </trkpt>
      <trkpt lat="42.808" lon="1.38781">
        <ele>1334</ele>
        <time>2020-07-27T11:04:21Z</time>
      </trkpt>
      <trkpt lat="42.80787" lon="1.38799">
        <ele>1337</ele>
        <time>2020-07-27T11:04:25Z</time>
      </trkpt>
      <trkpt lat="42.80777" lon="1.38823">
        <ele>1340</ele>
        <time>2020-07-27T11:04:28Z</time>
      </trkpt>
      <trkpt lat="42.80776" lon="1.38842">
        <ele>1340</ele>
        <time>2020-07-27T11:04:31Z</time>
      </trkpt>
      <trkpt lat="42.80769" lon="1.38861">
        <ele>1342</ele>
        <time>2020-07-27T11:04:34Z</time>
      </trkpt>
      <trkpt lat="42.80767" lon="1.38872">
        <ele>1343</ele>
        <time>2020-07-27T11:04:35Z</time>
      </trkpt>
      <trkpt lat="42.80751" lon="1.38895">
        <ele>1348</ele>
        <time>2020-07-27T11:04:39Z</time>
      </trkpt>
      <trkpt lat="42.80736" lon="1.38922">
        <ele>1355</ele>
        <time>2020-07-27T11:04:44Z</time>
      </trkpt>
      <trkpt lat="42.80727" lon="1.38944">
        <ele>1359</ele>
        <time>2020-07-27T11:04:47Z</time>
      </trkpt>
      <trkpt lat="42.80723" lon="1.3898">
        <ele>1362</ele>
        <time>2020-07-27T11:04:52Z</time>
      </trkpt>
      <trkpt lat="42.8072" lon="1.39042">
        <ele>1364</ele>
        <time>2020-07-27T11:05:00Z</time>
      </trkpt>
      <trkpt lat="42.80702" lon="1.39072">
        <ele>1376</ele>
        <time>2020-07-27T11:05:05Z</time>
      </trkpt>
      <trkpt lat="42.80689" lon="1.3911">
        <ele>1382</ele>
        <time>2020-07-27T11:05:10Z</time>
      </trkpt>
      <trkpt lat="42.80684" lon="1.39139">
        <ele>1382</ele>
        <time>2020-07-27T11:05:14Z</time>
      </trkpt>
      <trkpt lat="42.80683" lon="1.39164">
        <ele>1380</ele>
        <time>2020-07-27T11:05:17Z</time>
      </trkpt>
      <trkpt lat="42.80693" lon="1.39192">
        <ele>1377</ele>
        <time>2020-07-27T11:05:22Z</time>
      </trkpt>
      <trkpt lat="42.80709" lon="1.39216">
        <ele>1374</ele>
        <time>2020-07-27T11:05:26Z</time>
      </trkpt>
      <trkpt lat="42.80729" lon="1.3925">
        <ele>1374</ele>
        <time>2020-07-27T11:05:31Z</time>
      </trkpt>
      <trkpt lat="42.80752" lon="1.39272">
        <ele>1375</ele>
        <time>2020-07-27T11:05:36Z</time>
      </trkpt>
      <trkpt lat="42.80776" lon="1.39289">
        <ele>1377</ele>
        <time>2020-07-27T11:05:41Z</time>
      </trkpt>
      <trkpt lat="42.80794" lon="1.39305">
        <ele>1378</ele>
        <time>2020-07-27T11:05:45Z</time>
      </trkpt>
      <trkpt lat="42.80811" lon="1.39316">
        <ele>1379</ele>
        <time>2020-07-27T11:05:48Z</time>
      </trkpt>
      <trkpt lat="42.80827" lon="1.3932">
        <ele>1378</ele>
        <time>2020-07-27T11:05:51Z</time>
      </trkpt>
      <trkpt lat="42.8084" lon="1.39318">
        <ele>1378</ele>
        <time>2020-07-27T11:05:54Z</time>
      </trkpt>
      <trkpt lat="42.80848" lon="1.3931">
        <ele>1378</ele>
        <time>2020-07-27T11:05:55Z</time>
      </trkpt>
      <trkpt lat="42.80858" lon="1.39304">
        <ele>1378</ele>
        <time>2020-07-27T11:05:57Z</time>
      </trkpt>
      <trkpt lat="42.8088" lon="1.39298">
        <ele>1381</ele>
        <time>2020-07-27T11:06:01Z</time>
      </trkpt>
      <trkpt lat="42.80896" lon="1.39302">
        <ele>1384</ele>
        <time>2020-07-27T11:06:04Z</time>
      </trkpt>
      <trkpt lat="42.80908" lon="1.39302">
        <ele>1386</ele>
        <time>2020-07-27T11:06:06Z</time>
      </trkpt>
      <trkpt lat="42.80926" lon="1.39295">
        <ele>1389</ele>
        <time>2020-07-27T11:06:10Z</time>
      </trkpt>
      <trkpt lat="42.80954" lon="1.39264">
        <ele>1392</ele>
        <time>2020-07-27T11:06:16Z</time>
      </trkpt>
      <trkpt lat="42.80976" lon="1.39235">
        <ele>1393</ele>
        <time>2020-07-27T11:06:22Z</time>
      </trkpt>
      <trkpt lat="42.81009" lon="1.39177">
        <ele>1392</ele>
        <time>2020-07-27T11:06:31Z</time>
      </trkpt>
      <trkpt lat="42.8105" lon="1.39114">
        <ele>1389</ele>
        <time>2020-07-27T11:06:42Z</time>
      </trkpt>
      <trkpt lat="42.81063" lon="1.391">
        <ele>1390</ele>
        <time>2020-07-27T11:06:45Z</time>
      </trkpt>
      <trkpt lat="42.81097" lon="1.39069">
        <ele>1388</ele>
        <time>2020-07-27T11:06:52Z</time>
      </trkpt>
      <trkpt lat="42.81107" lon="1.39067">
        <ele>1386</ele>
        <time>2020-07-27T11:06:54Z</time>
      </trkpt>
      <trkpt lat="42.81119" lon="1.39072">
        <ele>1387</ele>
        <time>2020-07-27T11:06:56Z</time>
      </trkpt>
      <trkpt lat="42.81128" lon="1.39086">
        <ele>1390</ele>
        <time>2020-07-27T11:06:59Z</time>
      </trkpt>
      <trkpt lat="42.8113" lon="1.39112">
        <ele>1394</ele>
        <time>2020-07-27T11:07:02Z</time>
      </trkpt>
      <trkpt lat="42.81132" lon="1.39158">
        <ele>1401</ele>
        <time>2020-07-27T11:07:08Z</time>
      </trkpt>
      <trkpt lat="42.81136" lon="1.39189">
        <ele>1405</ele>
        <time>2020-07-27T11:07:12Z</time>
      </trkpt>
      <trkpt lat="42.81127" lon="1.39232">
        <ele>1412</ele>
        <time>2020-07-27T11:07:18Z</time>
      </trkpt>
      <trkpt lat="42.81127" lon="1.3925">
        <ele>1415</ele>
        <time>2020-07-27T11:07:21Z</time>
      </trkpt>
      <trkpt lat="42.81139" lon="1.39264">
        <ele>1416</ele>
        <time>2020-07-27T11:07:23Z</time>
      </trkpt>
      <trkpt lat="42.81148" lon="1.39269">
        <ele>1416</ele>
        <time>2020-07-27T11:07:25Z</time>
      </trkpt>
      <trkpt lat="42.81177" lon="1.39268">
        <ele>1414</ele>
        <time>2020-07-27T11:07:30Z</time>
      </trkpt>
      <trkpt lat="42.81186" lon="1.3927">
        <ele>1413</ele>
        <time>2020-07-27T11:07:32Z</time>
      </trkpt>
      <trkpt lat="42.81196" lon="1.39275">
        <ele>1412</ele>
        <time>2020-07-27T11:07:34Z</time>
      </trkpt>
      <trkpt lat="42.81214" lon="1.39295">
        <ele>1412</ele>
        <time>2020-07-27T11:07:38Z</time>
      </trkpt>
      <trkpt lat="42.81221" lon="1.39313">
        <ele>1414</ele>
        <time>2020-07-27T11:07:41Z</time>
      </trkpt>
      <trkpt lat="42.81226" lon="1.39332">
        <ele>1416</ele>
        <time>2020-07-27T11:07:43Z</time>
      </trkpt>
      <trkpt lat="42.81224" lon="1.39354">
        <ele>1416</ele>
        <time>2020-07-27T11:07:46Z</time>
      </trkpt>
      <trkpt lat="42.81212" lon="1.39372">
        <ele>1418</ele>
        <time>2020-07-27T11:07:49Z</time>
      </trkpt>
      <trkpt lat="42.81178" lon="1.39406">
        <ele>1421</ele>
        <time>2020-07-27T11:07:57Z</time>
      </trkpt>
      <trkpt lat="42.81154" lon="1.39422">
        <ele>1422</ele>
        <time>2020-07-27T11:08:02Z</time>
      </trkpt>
      <trkpt lat="42.81134" lon="1.3943">
        <ele>1421</ele>
        <time>2020-07-27T11:08:05Z</time>
      </trkpt>
      <trkpt lat="42.811" lon="1.39435">
        <ele>1423</ele>
        <time>2020-07-27T11:08:11Z</time>
      </trkpt>
      <trkpt lat="42.81092" lon="1.39441">
        <ele>1423</ele>
        <time>2020-07-27T11:08:13Z</time>
      </trkpt>
      <trkpt lat="42.81083" lon="1.39456">
        <ele>1423</ele>
        <time>2020-07-27T11:08:15Z</time>
      </trkpt>
      <trkpt lat="42.8107" lon="1.39486">
        <ele>1424</ele>
        <time>2020-07-27T11:08:20Z</time>
      </trkpt>
      <trkpt lat="42.81004" lon="1.39597">
        <ele>1427</ele>
        <time>2020-07-27T11:08:39Z</time>
      </trkpt>
      <trkpt lat="42.8097" lon="1.39679">
        <ele>1425</ele>
        <time>2020-07-27T11:08:51Z</time>
      </trkpt>
      <trkpt lat="42.80957" lon="1.39705">
        <ele>1426</ele>
        <time>2020-07-27T11:08:55Z</time>
      </trkpt>
      <trkpt lat="42.80928" lon="1.39746">
        <ele>1427</ele>
        <time>2020-07-27T11:09:03Z</time>
      </trkpt>
      <trkpt lat="42.80898" lon="1.39782">
        <ele>1427</ele>
        <time>2020-07-27T11:09:10Z</time>
      </trkpt>
      <trkpt lat="42.80863" lon="1.39815">
        <ele>1429</ele>
        <time>2020-07-27T11:09:17Z</time>
      </trkpt>
      <trkpt lat="42.80778" lon="1.39881">
        <ele>1427</ele>
        <time>2020-07-27T11:09:35Z</time>
      </trkpt>
      <trkpt lat="42.80759" lon="1.3989">
        <ele>1427</ele>
        <time>2020-07-27T11:09:38Z</time>
      </trkpt>
      <trkpt lat="42.80677" lon="1.39908">
        <ele>1428</ele>
        <time>2020-07-27T11:09:53Z</time>
      </trkpt>
      <trkpt lat="42.80657" lon="1.39903">
        <ele>1430</ele>
        <time>2020-07-27T11:09:57Z</time>
      </trkpt>
      <trkpt lat="42.80627" lon="1.39881">
        <ele>1436</ele>
        <time>2020-07-27T11:10:03Z</time>
      </trkpt>
      <trkpt lat="42.80607" lon="1.39876">
        <ele>1437</ele>
        <time>2020-07-27T11:10:06Z</time>
      </trkpt>
      <trkpt lat="42.80581" lon="1.39894">
        <ele>1437</ele>
        <time>2020-07-27T11:10:11Z</time>
      </trkpt>
      <trkpt lat="42.8055" lon="1.39954">
        <ele>1449</ele>
        <time>2020-07-27T11:10:21Z</time>
      </trkpt>
      <trkpt lat="42.8055" lon="1.40042">
        <ele>1454</ele>
        <time>2020-07-27T11:10:33Z</time>
      </trkpt>
      <trkpt lat="42.80557" lon="1.40121">
        <ele>1460</ele>
        <time>2020-07-27T11:10:43Z</time>
      </trkpt>
      <trkpt lat="42.80567" lon="1.40164">
        <ele>1460</ele>
        <time>2020-07-27T11:10:49Z</time>
      </trkpt>
      <trkpt lat="42.80578" lon="1.40202">
        <ele>1458</ele>
        <time>2020-07-27T11:10:54Z</time>
      </trkpt>
      <trkpt lat="42.80581" lon="1.40236">
        <ele>1459</ele>
        <time>2020-07-27T11:10:59Z</time>
      </trkpt>
      <trkpt lat="42.80574" lon="1.4036">
        <ele>1469</ele>
        <time>2020-07-27T11:11:15Z</time>
      </trkpt>
      <trkpt lat="42.80576" lon="1.40387">
        <ele>1469</ele>
        <time>2020-07-27T11:11:18Z</time>
      </trkpt>
      <trkpt lat="42.80588" lon="1.40426">
        <ele>1467</ele>
        <time>2020-07-27T11:11:24Z</time>
      </trkpt>
      <trkpt lat="42.8059" lon="1.40456">
        <ele>1468</ele>
        <time>2020-07-27T11:11:28Z</time>
      </trkpt>
      <trkpt lat="42.80588" lon="1.4048">
        <ele>1470</ele>
        <time>2020-07-27T11:11:31Z</time>
      </trkpt>
      <trkpt lat="42.80567" lon="1.40579">
        <ele>1480</ele>
        <time>2020-07-27T11:11:44Z</time>
      </trkpt>
      <trkpt lat="42.8056" lon="1.40619">
        <ele>1485</ele>
        <time>2020-07-27T11:11:50Z</time>
      </trkpt>
      <trkpt lat="42.80561" lon="1.40659">
        <ele>1488</ele>
        <time>2020-07-27T11:11:55Z</time>
      </trkpt>
      <trkpt lat="42.80572" lon="1.40699">
        <ele>1489</ele>
        <time>2020-07-27T11:12:01Z</time>
      </trkpt>
      <trkpt lat="42.80576" lon="1.40725">
        <ele>1490</ele>
        <time>2020-07-27T11:12:04Z</time>
      </trkpt>
      <trkpt lat="42.80584" lon="1.40743">
        <ele>1491</ele>
        <time>2020-07-27T11:12:07Z</time>
      </trkpt>
      <trkpt lat="42.806" lon="1.40769">
        <ele>1493</ele>
        <time>2020-07-27T11:12:11Z</time>
      </trkpt>
      <trkpt lat="42.80605" lon="1.40792">
        <ele>1494</ele>
        <time>2020-07-27T11:12:14Z</time>
      </trkpt>
      <trkpt lat="42.80594" lon="1.40892">
        <ele>1500</ele>
        <time>2020-07-27T11:12:28Z</time>
      </trkpt>
      <trkpt lat="42.80598" lon="1.40913">
        <ele>1502</ele>
        <time>2020-07-27T11:12:30Z</time>
      </trkpt>
      <trkpt lat="42.80605" lon="1.40933">
        <ele>1504</ele>
        <time>2020-07-27T11:12:33Z</time>
      </trkpt>
      <trkpt lat="42.80617" lon="1.40948">
        <ele>1506</ele>
        <time>2020-07-27T11:12:36Z</time>
      </trkpt>
      <trkpt lat="42.80651" lon="1.40972">
        <ele>1508</ele>
        <time>2020-07-27T11:12:43Z</time>
      </trkpt>
      <trkpt lat="42.80662" lon="1.40984">
        <ele>1509</ele>
        <time>2020-07-27T11:12:46Z</time>
      </trkpt>
      <trkpt lat="42.80669" lon="1.40999">
        <ele>1510</ele>
        <time>2020-07-27T11:12:48Z</time>
      </trkpt>
      <trkpt lat="42.8067" lon="1.41021">
        <ele>1512</ele>
        <time>2020-07-27T11:12:51Z</time>
      </trkpt>
      <trkpt lat="42.80666" lon="1.41045">
        <ele>1513</ele>
        <time>2020-07-27T11:12:54Z</time>
      </trkpt>
      <trkpt lat="42.80642" lon="1.41159">
        <ele>1518</ele>
        <time>2020-07-27T11:13:09Z</time>
      </trkpt>
      <trkpt lat="42.80638" lon="1.41191">
        <ele>1518</ele>
        <time>2020-07-27T11:13:14Z</time>
      </trkpt>
      <trkpt lat="42.80636" lon="1.41224">
        <ele>1517</ele>
        <time>2020-07-27T11:13:18Z</time>
      </trkpt>
      <trkpt lat="42.80638" lon="1.41275">
        <ele>1515</ele>
        <time>2020-07-27T11:13:25Z</time>
      </trkpt>
      <trkpt lat="42.80673" lon="1.41482">
        <ele>1503</ele>
        <time>2020-07-27T11:13:52Z</time>
      </trkpt>
      <trkpt lat="42.80686" lon="1.41527">
        <ele>1502</ele>
        <time>2020-07-27T11:13:59Z</time>
      </trkpt>
      <trkpt lat="42.80701" lon="1.41563">
        <ele>1503</ele>
        <time>2020-07-27T11:14:04Z</time>
      </trkpt>
      <trkpt lat="42.80707" lon="1.4161">
        <ele>1499</ele>
        <time>2020-07-27T11:14:10Z</time>
      </trkpt>
      <trkpt lat="42.80709" lon="1.41639">
        <ele>1496</ele>
        <time>2020-07-27T11:14:14Z</time>
      </trkpt>
      <trkpt lat="42.80716" lon="1.41662">
        <ele>1496</ele>
        <time>2020-07-27T11:14:17Z</time>
      </trkpt>
      <trkpt lat="42.80732" lon="1.41689">
        <ele>1500</ele>
        <time>2020-07-27T11:14:22Z</time>
      </trkpt>
      <trkpt lat="42.80739" lon="1.41706">
        <ele>1501</ele>
        <time>2020-07-27T11:14:24Z</time>
      </trkpt>
      <trkpt lat="42.80744" lon="1.4173">
        <ele>1499</ele>
        <time>2020-07-27T11:14:28Z</time>
      </trkpt>
      <trkpt lat="42.80745" lon="1.41763">
        <ele>1496</ele>
        <time>2020-07-27T11:14:32Z</time>
      </trkpt>
      <trkpt lat="42.80741" lon="1.41799">
        <ele>1493</ele>
        <time>2020-07-27T11:14:37Z</time>
      </trkpt>
      <trkpt lat="42.80739" lon="1.41839">
        <ele>1490</ele>
        <time>2020-07-27T11:14:42Z</time>
      </trkpt>
      <trkpt lat="42.80734" lon="1.4191">
        <ele>1486</ele>
        <time>2020-07-27T11:14:51Z</time>
      </trkpt>
      <trkpt lat="42.80733" lon="1.41969">
        <ele>1483</ele>
        <time>2020-07-27T11:14:59Z</time>
      </trkpt>
      <trkpt lat="42.80735" lon="1.42005">
        <ele>1480</ele>
        <time>2020-07-27T11:15:04Z</time>
      </trkpt>
      <trkpt lat="42.80733" lon="1.42014">
        <ele>1477</ele>
        <time>2020-07-27T11:15:05Z</time>
      </trkpt>
      <trkpt lat="42.80727" lon="1.42021">
        <ele>1472</ele>
        <time>2020-07-27T11:15:06Z</time>
      </trkpt>
      <trkpt lat="42.8072" lon="1.42022">
        <ele>1468</ele>
        <time>2020-07-27T11:15:08Z</time>
      </trkpt>
      <trkpt lat="42.80713" lon="1.42014">
        <ele>1467</ele>
        <time>2020-07-27T11:15:09Z</time>
      </trkpt>
      <trkpt lat="42.80712" lon="1.42001">
        <ele>1470</ele>
        <time>2020-07-27T11:15:11Z</time>
      </trkpt>
      <trkpt lat="42.80718" lon="1.41938">
        <ele>1477</ele>
        <time>2020-07-27T11:15:19Z</time>
      </trkpt>
      <trkpt lat="42.80711" lon="1.41888">
        <ele>1476</ele>
        <time>2020-07-27T11:15:26Z</time>
      </trkpt>
      <trkpt lat="42.80701" lon="1.41842">
        <ele>1472</ele>
        <time>2020-07-27T11:15:32Z</time>
      </trkpt>
      <trkpt lat="42.80696" lon="1.41806">
        <ele>1472</ele>
        <time>2020-07-27T11:15:37Z</time>
      </trkpt>
      <trkpt lat="42.8069" lon="1.41778">
        <ele>1472</ele>
        <time>2020-07-27T11:15:41Z</time>
      </trkpt>
      <trkpt lat="42.80669" lon="1.41726">
        <ele>1468</ele>
        <time>2020-07-27T11:15:48Z</time>
      </trkpt>
      <trkpt lat="42.80656" lon="1.41697">
        <ele>1466</ele>
        <time>2020-07-27T11:15:53Z</time>
      </trkpt>
      <trkpt lat="42.80637" lon="1.41661">
        <ele>1465</ele>
        <time>2020-07-27T11:15:59Z</time>
      </trkpt>
      <trkpt lat="42.80613" lon="1.41628">
        <ele>1462</ele>
        <time>2020-07-27T11:16:05Z</time>
      </trkpt>
      <trkpt lat="42.80582" lon="1.41597">
        <ele>1458</ele>
        <time>2020-07-27T11:16:12Z</time>
      </trkpt>
      <trkpt lat="42.80568" lon="1.41593">
        <ele>1456</ele>
        <time>2020-07-27T11:16:14Z</time>
      </trkpt>
      <trkpt lat="42.80552" lon="1.41593">
        <ele>1454</ele>
        <time>2020-07-27T11:16:17Z</time>
      </trkpt>
      <trkpt lat="42.80544" lon="1.41597">
        <ele>1453</ele>
        <time>2020-07-27T11:16:19Z</time>
      </trkpt>
      <trkpt lat="42.8054" lon="1.41611">
        <ele>1450</ele>
        <time>2020-07-27T11:16:20Z</time>
      </trkpt>
      <trkpt lat="42.80544" lon="1.41623">
        <ele>1449</ele>
        <time>2020-07-27T11:16:22Z</time>
      </trkpt>
      <trkpt lat="42.80551" lon="1.41631">
        <ele>1449</ele>
        <time>2020-07-27T11:16:24Z</time>
      </trkpt>
      <trkpt lat="42.80579" lon="1.41639">
        <ele>1451</ele>
        <time>2020-07-27T11:16:29Z</time>
      </trkpt>
      <trkpt lat="42.80593" lon="1.41649">
        <ele>1453</ele>
        <time>2020-07-27T11:16:32Z</time>
      </trkpt>
      <trkpt lat="42.80595" lon="1.4166">
        <ele>1452</ele>
        <time>2020-07-27T11:16:33Z</time>
      </trkpt>
      <trkpt lat="42.80598" lon="1.41677">
        <ele>1451</ele>
        <time>2020-07-27T11:16:35Z</time>
      </trkpt>
      <trkpt lat="42.80595" lon="1.41742">
        <ele>1441</ele>
        <time>2020-07-27T11:16:44Z</time>
      </trkpt>
      <trkpt lat="42.80587" lon="1.41858">
        <ele>1429</ele>
        <time>2020-07-27T11:16:59Z</time>
      </trkpt>
      <trkpt lat="42.80587" lon="1.41885">
        <ele>1428</ele>
        <time>2020-07-27T11:17:03Z</time>
      </trkpt>
      <trkpt lat="42.80593" lon="1.41915">
        <ele>1428</ele>
        <time>2020-07-27T11:17:07Z</time>
      </trkpt>
      <trkpt lat="42.8061" lon="1.4198">
        <ele>1427</ele>
        <time>2020-07-27T11:17:16Z</time>
      </trkpt>
      <trkpt lat="42.80614" lon="1.42012">
        <ele>1424</ele>
        <time>2020-07-27T11:17:20Z</time>
      </trkpt>
      <trkpt lat="42.8062" lon="1.42025">
        <ele>1424</ele>
        <time>2020-07-27T11:17:22Z</time>
      </trkpt>
      <trkpt lat="42.8064" lon="1.42036">
        <ele>1430</ele>
        <time>2020-07-27T11:17:26Z</time>
      </trkpt>
      <trkpt lat="42.80644" lon="1.42042">
        <ele>1430</ele>
        <time>2020-07-27T11:17:27Z</time>
      </trkpt>
      <trkpt lat="42.80646" lon="1.42052">
        <ele>1429</ele>
        <time>2020-07-27T11:17:28Z</time>
      </trkpt>
      <trkpt lat="42.80641" lon="1.42058">
        <ele>1426</ele>
        <time>2020-07-27T11:17:29Z</time>
      </trkpt>
      <trkpt lat="42.80608" lon="1.42051">
        <ele>1414</ele>
        <time>2020-07-27T11:17:35Z</time>
      </trkpt>
      <trkpt lat="42.806" lon="1.42047">
        <ele>1412</ele>
        <time>2020-07-27T11:17:37Z</time>
      </trkpt>
      <trkpt lat="42.80588" lon="1.42027">
        <ele>1411</ele>
        <time>2020-07-27T11:17:40Z</time>
      </trkpt>
      <trkpt lat="42.80581" lon="1.42019">
        <ele>1410</ele>
        <time>2020-07-27T11:17:42Z</time>
      </trkpt>
      <trkpt lat="42.80573" lon="1.42018">
        <ele>1410</ele>
        <time>2020-07-27T11:17:43Z</time>
      </trkpt>
      <trkpt lat="42.80567" lon="1.42023">
        <ele>1410</ele>
        <time>2020-07-27T11:17:45Z</time>
      </trkpt>
      <trkpt lat="42.80562" lon="1.42031">
        <ele>1409</ele>
        <time>2020-07-27T11:17:46Z</time>
      </trkpt>
      <trkpt lat="42.80559" lon="1.42042">
        <ele>1408</ele>
        <time>2020-07-27T11:17:47Z</time>
      </trkpt>
      <trkpt lat="42.80564" lon="1.42089">
        <ele>1402</ele>
        <time>2020-07-27T11:17:54Z</time>
      </trkpt>
      <trkpt lat="42.80564" lon="1.42116">
        <ele>1400</ele>
        <time>2020-07-27T11:17:57Z</time>
      </trkpt>
      <trkpt lat="42.80559" lon="1.42197">
        <ele>1394</ele>
        <time>2020-07-27T11:18:08Z</time>
      </trkpt>
      <trkpt lat="42.80558" lon="1.42229">
        <ele>1392</ele>
        <time>2020-07-27T11:18:12Z</time>
      </trkpt>
      <trkpt lat="42.80565" lon="1.42303">
        <ele>1383</ele>
        <time>2020-07-27T11:18:22Z</time>
      </trkpt>
      <trkpt lat="42.80564" lon="1.4232">
        <ele>1381</ele>
        <time>2020-07-27T11:18:24Z</time>
      </trkpt>
      <trkpt lat="42.8055" lon="1.42397">
        <ele>1373</ele>
        <time>2020-07-27T11:18:34Z</time>
      </trkpt>
      <trkpt lat="42.80545" lon="1.42413">
        <ele>1371</ele>
        <time>2020-07-27T11:18:37Z</time>
      </trkpt>
      <trkpt lat="42.80533" lon="1.42437">
        <ele>1367</ele>
        <time>2020-07-27T11:18:40Z</time>
      </trkpt>
      <trkpt lat="42.80522" lon="1.4247">
        <ele>1362</ele>
        <time>2020-07-27T11:18:45Z</time>
      </trkpt>
      <trkpt lat="42.80521" lon="1.42488">
        <ele>1358</ele>
        <time>2020-07-27T11:18:47Z</time>
      </trkpt>
      <trkpt lat="42.80523" lon="1.425">
        <ele>1356</ele>
        <time>2020-07-27T11:18:49Z</time>
      </trkpt>
      <trkpt lat="42.80531" lon="1.42508">
        <ele>1352</ele>
        <time>2020-07-27T11:18:51Z</time>
      </trkpt>
      <trkpt lat="42.80538" lon="1.4251">
        <ele>1350</ele>
        <time>2020-07-27T11:18:52Z</time>
      </trkpt>
      <trkpt lat="42.80545" lon="1.42509">
        <ele>1350</ele>
        <time>2020-07-27T11:18:53Z</time>
      </trkpt>
      <trkpt lat="42.80553" lon="1.42498">
        <ele>1352</ele>
        <time>2020-07-27T11:18:55Z</time>
      </trkpt>
      <trkpt lat="42.80571" lon="1.42451">
        <ele>1362</ele>
        <time>2020-07-27T11:19:02Z</time>
      </trkpt>
      <trkpt lat="42.80583" lon="1.42401">
        <ele>1371</ele>
        <time>2020-07-27T11:19:09Z</time>
      </trkpt>
      <trkpt lat="42.80591" lon="1.4238">
        <ele>1372</ele>
        <time>2020-07-27T11:19:12Z</time>
      </trkpt>
      <trkpt lat="42.80625" lon="1.42313">
        <ele>1376</ele>
        <time>2020-07-27T11:19:23Z</time>
      </trkpt>
      <trkpt lat="42.80631" lon="1.42307">
        <ele>1376</ele>
        <time>2020-07-27T11:19:24Z</time>
      </trkpt>
      <trkpt lat="42.80634" lon="1.42306">
        <ele>1376</ele>
        <time>2020-07-27T11:19:25Z</time>
      </trkpt>
      <trkpt lat="42.80639" lon="1.42308">
        <ele>1376</ele>
        <time>2020-07-27T11:19:26Z</time>
      </trkpt>
      <trkpt lat="42.80641" lon="1.42313">
        <ele>1375</ele>
        <time>2020-07-27T11:19:26Z</time>
      </trkpt>
      <trkpt lat="42.80639" lon="1.42323">
        <ele>1373</ele>
        <time>2020-07-27T11:19:28Z</time>
      </trkpt>
      <trkpt lat="42.8063" lon="1.42339">
        <ele>1372</ele>
        <time>2020-07-27T11:19:30Z</time>
      </trkpt>
      <trkpt lat="42.80614" lon="1.42387">
        <ele>1367</ele>
        <time>2020-07-27T11:19:37Z</time>
      </trkpt>
      <trkpt lat="42.80606" lon="1.42423">
        <ele>1363</ele>
        <time>2020-07-27T11:19:42Z</time>
      </trkpt>
      <trkpt lat="42.80593" lon="1.42455">
        <ele>1358</ele>
        <time>2020-07-27T11:19:47Z</time>
      </trkpt>
      <trkpt lat="42.80593" lon="1.4246">
        <ele>1357</ele>
        <time>2020-07-27T11:19:48Z</time>
      </trkpt>
      <trkpt lat="42.80594" lon="1.42463">
        <ele>1356</ele>
        <time>2020-07-27T11:19:48Z</time>
      </trkpt>
      <trkpt lat="42.80599" lon="1.42465">
        <ele>1354</ele>
        <time>2020-07-27T11:19:49Z</time>
      </trkpt>
      <trkpt lat="42.80601" lon="1.42464">
        <ele>1354</ele>
        <time>2020-07-27T11:19:49Z</time>
      </trkpt>
      <trkpt lat="42.80605" lon="1.42458">
        <ele>1355</ele>
        <time>2020-07-27T11:19:50Z</time>
      </trkpt>
      <trkpt lat="42.80614" lon="1.42434">
        <ele>1359</ele>
        <time>2020-07-27T11:19:54Z</time>
      </trkpt>
      <trkpt lat="42.80628" lon="1.42411">
        <ele>1360</ele>
        <time>2020-07-27T11:19:58Z</time>
      </trkpt>
      <trkpt lat="42.80647" lon="1.42399">
        <ele>1358</ele>
        <time>2020-07-27T11:20:02Z</time>
      </trkpt>
      <trkpt lat="42.80665" lon="1.42401">
        <ele>1354</ele>
        <time>2020-07-27T11:20:05Z</time>
      </trkpt>
      <trkpt lat="42.80677" lon="1.42412">
        <ele>1355</ele>
        <time>2020-07-27T11:20:07Z</time>
      </trkpt>
      <trkpt lat="42.80684" lon="1.42428">
        <ele>1354</ele>
        <time>2020-07-27T11:20:10Z</time>
      </trkpt>
      <trkpt lat="42.80687" lon="1.42447">
        <ele>1352</ele>
        <time>2020-07-27T11:20:12Z</time>
      </trkpt>
      <trkpt lat="42.80688" lon="1.42482">
        <ele>1347</ele>
        <time>2020-07-27T11:20:17Z</time>
      </trkpt>
      <trkpt lat="42.80685" lon="1.42532">
        <ele>1341</ele>
        <time>2020-07-27T11:20:23Z</time>
      </trkpt>
      <trkpt lat="42.80678" lon="1.42591">
        <ele>1334</ele>
        <time>2020-07-27T11:20:31Z</time>
      </trkpt>
      <trkpt lat="42.80675" lon="1.42612">
        <ele>1332</ele>
        <time>2020-07-27T11:20:34Z</time>
      </trkpt>
      <trkpt lat="42.8065" lon="1.42699">
        <ele>1319</ele>
        <time>2020-07-27T11:20:46Z</time>
      </trkpt>
      <trkpt lat="42.80646" lon="1.42726">
        <ele>1316</ele>
        <time>2020-07-27T11:20:50Z</time>
      </trkpt>
      <trkpt lat="42.80645" lon="1.42773">
        <ele>1312</ele>
        <time>2020-07-27T11:20:56Z</time>
      </trkpt>
      <trkpt lat="42.80649" lon="1.42799">
        <ele>1311</ele>
        <time>2020-07-27T11:20:59Z</time>
      </trkpt>
      <trkpt lat="42.80675" lon="1.42877">
        <ele>1310</ele>
        <time>2020-07-27T11:21:11Z</time>
      </trkpt>
      <trkpt lat="42.80688" lon="1.4291">
        <ele>1307</ele>
        <time>2020-07-27T11:21:16Z</time>
      </trkpt>
      <trkpt lat="42.80697" lon="1.42938">
        <ele>1303</ele>
        <time>2020-07-27T11:21:20Z</time>
      </trkpt>
      <trkpt lat="42.80709" lon="1.42986">
        <ele>1291</ele>
        <time>2020-07-27T11:21:26Z</time>
      </trkpt>
      <trkpt lat="42.80711" lon="1.42988">
        <ele>1291</ele>
        <time>2020-07-27T11:21:27Z</time>
      </trkpt>
      <trkpt lat="42.80732" lon="1.42994">
        <ele>1296</ele>
        <time>2020-07-27T11:21:30Z</time>
      </trkpt>
      <trkpt lat="42.80756" lon="1.42997">
        <ele>1301</ele>
        <time>2020-07-27T11:21:35Z</time>
      </trkpt>
      <trkpt lat="42.8077" lon="1.43002">
        <ele>1301</ele>
        <time>2020-07-27T11:21:37Z</time>
      </trkpt>
      <trkpt lat="42.80803" lon="1.43027">
        <ele>1296</ele>
        <time>2020-07-27T11:21:44Z</time>
      </trkpt>
      <trkpt lat="42.80821" lon="1.43037">
        <ele>1295</ele>
        <time>2020-07-27T11:21:47Z</time>
      </trkpt>
      <trkpt lat="42.80833" lon="1.43046">
        <ele>1293</ele>
        <time>2020-07-27T11:21:50Z</time>
      </trkpt>
      <trkpt lat="42.80842" lon="1.43065">
        <ele>1289</ele>
        <time>2020-07-27T11:21:53Z</time>
      </trkpt>
      <trkpt lat="42.8087" lon="1.43149">
        <ele>1281</ele>
        <time>2020-07-27T11:22:05Z</time>
      </trkpt>
      <trkpt lat="42.80873" lon="1.43162">
        <ele>1280</ele>
        <time>2020-07-27T11:22:07Z</time>
      </trkpt>
      <trkpt lat="42.80872" lon="1.43177">
        <ele>1278</ele>
        <time>2020-07-27T11:22:09Z</time>
      </trkpt>
      <trkpt lat="42.80863" lon="1.43229">
        <ele>1270</ele>
        <time>2020-07-27T11:22:16Z</time>
      </trkpt>
      <trkpt lat="42.80854" lon="1.43306">
        <ele>1269</ele>
        <time>2020-07-27T11:22:26Z</time>
      </trkpt>
      <trkpt lat="42.80843" lon="1.43324">
        <ele>1266</ele>
        <time>2020-07-27T11:22:29Z</time>
      </trkpt>
      <trkpt lat="42.80825" lon="1.43344">
        <ele>1263</ele>
        <time>2020-07-27T11:22:33Z</time>
      </trkpt>
      <trkpt lat="42.80805" lon="1.43355">
        <ele>1262</ele>
        <time>2020-07-27T11:22:37Z</time>
      </trkpt>
      <trkpt lat="42.80732" lon="1.43378">
        <ele>1249</ele>
        <time>2020-07-27T11:22:50Z</time>
      </trkpt>
      <trkpt lat="42.80718" lon="1.43392">
        <ele>1248</ele>
        <time>2020-07-27T11:22:53Z</time>
      </trkpt>
      <trkpt lat="42.80699" lon="1.43414">
        <ele>1247</ele>
        <time>2020-07-27T11:22:58Z</time>
      </trkpt>
      <trkpt lat="42.80678" lon="1.43434">
        <ele>1246</ele>
        <time>2020-07-27T11:23:02Z</time>
      </trkpt>
      <trkpt lat="42.80634" lon="1.43463">
        <ele>1240</ele>
        <time>2020-07-27T11:23:11Z</time>
      </trkpt>
      <trkpt lat="42.80617" lon="1.43486">
        <ele>1239</ele>
        <time>2020-07-27T11:23:15Z</time>
      </trkpt>
      <trkpt lat="42.80608" lon="1.43505">
        <ele>1239</ele>
        <time>2020-07-27T11:23:18Z</time>
      </trkpt>
      <trkpt lat="42.80577" lon="1.43545">
        <ele>1237</ele>
        <time>2020-07-27T11:23:26Z</time>
      </trkpt>
      <trkpt lat="42.80564" lon="1.43564">
        <ele>1236</ele>
        <time>2020-07-27T11:23:29Z</time>
      </trkpt>
      <trkpt lat="42.80544" lon="1.436">
        <ele>1235</ele>
        <time>2020-07-27T11:23:35Z</time>
      </trkpt>
      <trkpt lat="42.80524" lon="1.43616">
        <ele>1231</ele>
        <time>2020-07-27T11:23:39Z</time>
      </trkpt>
      <trkpt lat="42.80497" lon="1.43643">
        <ele>1225</ele>
        <time>2020-07-27T11:23:45Z</time>
      </trkpt>
      <trkpt lat="42.80458" lon="1.43695">
        <ele>1218</ele>
        <time>2020-07-27T11:23:55Z</time>
      </trkpt>
      <trkpt lat="42.80442" lon="1.43721">
        <ele>1216</ele>
        <time>2020-07-27T11:23:59Z</time>
      </trkpt>
      <trkpt lat="42.80425" lon="1.43801">
        <ele>1218</ele>
        <time>2020-07-27T11:24:10Z</time>
      </trkpt>
      <trkpt lat="42.80389" lon="1.43879">
        <ele>1211</ele>
        <time>2020-07-27T11:24:22Z</time>
      </trkpt>
      <trkpt lat="42.80373" lon="1.43904">
        <ele>1206</ele>
        <time>2020-07-27T11:24:26Z</time>
      </trkpt>
      <trkpt lat="42.80359" lon="1.43941">
        <ele>1202</ele>
        <time>2020-07-27T11:24:32Z</time>
      </trkpt>
      <trkpt lat="42.80351" lon="1.43971">
        <ele>1201</ele>
        <time>2020-07-27T11:24:36Z</time>
      </trkpt>
      <trkpt lat="42.80318" lon="1.44063">
        <ele>1190</ele>
        <time>2020-07-27T11:24:49Z</time>
      </trkpt>
      <trkpt lat="42.8031" lon="1.44093">
        <ele>1187</ele>
        <time>2020-07-27T11:24:54Z</time>
      </trkpt>
      <trkpt lat="42.8032" lon="1.44139">
        <ele>1194</ele>
        <time>2020-07-27T11:25:00Z</time>
      </trkpt>
      <trkpt lat="42.80319" lon="1.4416">
        <ele>1195</ele>
        <time>2020-07-27T11:25:03Z</time>
      </trkpt>
      <trkpt lat="42.80315" lon="1.44184">
        <ele>1194</ele>
        <time>2020-07-27T11:25:06Z</time>
      </trkpt>
      <trkpt lat="42.80316" lon="1.44198">
        <ele>1196</ele>
        <time>2020-07-27T11:25:08Z</time>
      </trkpt>
      <trkpt lat="42.8032" lon="1.44214">
        <ele>1199</ele>
        <time>2020-07-27T11:25:10Z</time>
      </trkpt>
      <trkpt lat="42.80316" lon="1.44247">
        <ele>1199</ele>
        <time>2020-07-27T11:25:14Z</time>
      </trkpt>
      <trkpt lat="42.80308" lon="1.44279">
        <ele>1198</ele>
        <time>2020-07-27T11:25:19Z</time>
      </trkpt>
      <trkpt lat="42.80287" lon="1.44326">
        <ele>1191</ele>
        <time>2020-07-27T11:25:26Z</time>
      </trkpt>
      <trkpt lat="42.80281" lon="1.44347">
        <ele>1191</ele>
        <time>2020-07-27T11:25:29Z</time>
      </trkpt>
      <trkpt lat="42.80265" lon="1.44381">
        <ele>1186</ele>
        <time>2020-07-27T11:25:34Z</time>
      </trkpt>
      <trkpt lat="42.80252" lon="1.44397">
        <ele>1181</ele>
        <time>2020-07-27T11:25:37Z</time>
      </trkpt>
      <trkpt lat="42.80221" lon="1.44459">
        <ele>1179</ele>
        <time>2020-07-27T11:25:47Z</time>
      </trkpt>
      <trkpt lat="42.802" lon="1.44506">
        <ele>1180</ele>
        <time>2020-07-27T11:25:54Z</time>
      </trkpt>
      <trkpt lat="42.80179" lon="1.44544">
        <ele>1178</ele>
        <time>2020-07-27T11:26:00Z</time>
      </trkpt>
      <trkpt lat="42.80138" lon="1.44599">
        <ele>1173</ele>
        <time>2020-07-27T11:26:11Z</time>
      </trkpt>
      <trkpt lat="42.8012" lon="1.44614">
        <ele>1168</ele>
        <time>2020-07-27T11:26:14Z</time>
      </trkpt>
      <trkpt lat="42.80095" lon="1.44627">
        <ele>1160</ele>
        <time>2020-07-27T11:26:19Z</time>
      </trkpt>
      <trkpt lat="42.80054" lon="1.44664">
        <ele>1156</ele>
        <time>2020-07-27T11:26:28Z</time>
      </trkpt>
      <trkpt lat="42.80037" lon="1.44672">
        <ele>1154</ele>
        <time>2020-07-27T11:26:31Z</time>
      </trkpt>
      <trkpt lat="42.80021" lon="1.44674">
        <ele>1150</ele>
        <time>2020-07-27T11:26:34Z</time>
      </trkpt>
      <trkpt lat="42.79989" lon="1.44674">
        <ele>1142</ele>
        <time>2020-07-27T11:26:40Z</time>
      </trkpt>
      <trkpt lat="42.79968" lon="1.44679">
        <ele>1139</ele>
        <time>2020-07-27T11:26:43Z</time>
      </trkpt>
      <trkpt lat="42.79949" lon="1.44688">
        <ele>1136</ele>
        <time>2020-07-27T11:26:47Z</time>
      </trkpt>
      <trkpt lat="42.79944" lon="1.44688">
        <ele>1135</ele>
        <time>2020-07-27T11:26:48Z</time>
      </trkpt>
      <trkpt lat="42.79938" lon="1.44683">
        <ele>1132</ele>
        <time>2020-07-27T11:26:49Z</time>
      </trkpt>
      <trkpt lat="42.79938" lon="1.44677">
        <ele>1131</ele>
        <time>2020-07-27T11:26:50Z</time>
      </trkpt>
      <trkpt lat="42.7994" lon="1.44668">
        <ele>1129</ele>
        <time>2020-07-27T11:26:51Z</time>
      </trkpt>
      <trkpt lat="42.79974" lon="1.44642">
        <ele>1132</ele>
        <time>2020-07-27T11:26:58Z</time>
      </trkpt>
      <trkpt lat="42.79998" lon="1.4462">
        <ele>1132</ele>
        <time>2020-07-27T11:27:03Z</time>
      </trkpt>
      <trkpt lat="42.80013" lon="1.44602">
        <ele>1132</ele>
        <time>2020-07-27T11:27:07Z</time>
      </trkpt>
      <trkpt lat="42.80027" lon="1.44581">
        <ele>1131</ele>
        <time>2020-07-27T11:27:10Z</time>
      </trkpt>
      <trkpt lat="42.80052" lon="1.44522">
        <ele>1128</ele>
        <time>2020-07-27T11:27:19Z</time>
      </trkpt>
      <trkpt lat="42.80097" lon="1.44443">
        <ele>1126</ele>
        <time>2020-07-27T11:27:32Z</time>
      </trkpt>
      <trkpt lat="42.80098" lon="1.44418">
        <ele>1122</ele>
        <time>2020-07-27T11:27:36Z</time>
      </trkpt>
      <trkpt lat="42.80096" lon="1.4437">
        <ele>1119</ele>
        <time>2020-07-27T11:27:42Z</time>
      </trkpt>
      <trkpt lat="42.80097" lon="1.44317">
        <ele>1116</ele>
        <time>2020-07-27T11:27:49Z</time>
      </trkpt>
      <trkpt lat="42.80115" lon="1.44256">
        <ele>1117</ele>
        <time>2020-07-27T11:27:57Z</time>
      </trkpt>
      <trkpt lat="42.80115" lon="1.44246">
        <ele>1116</ele>
        <time>2020-07-27T11:27:59Z</time>
      </trkpt>
      <trkpt lat="42.80108" lon="1.44234">
        <ele>1115</ele>
        <time>2020-07-27T11:28:01Z</time>
      </trkpt>
      <trkpt lat="42.80099" lon="1.44229">
        <ele>1113</ele>
        <time>2020-07-27T11:28:03Z</time>
      </trkpt>
      <trkpt lat="42.8009" lon="1.4423">
        <ele>1111</ele>
        <time>2020-07-27T11:28:04Z</time>
      </trkpt>
      <trkpt lat="42.80084" lon="1.44237">
        <ele>1110</ele>
        <time>2020-07-27T11:28:06Z</time>
      </trkpt>
      <trkpt lat="42.80076" lon="1.44252">
        <ele>1109</ele>
        <time>2020-07-27T11:28:08Z</time>
      </trkpt>
      <trkpt lat="42.80047" lon="1.44342">
        <ele>1108</ele>
        <time>2020-07-27T11:28:21Z</time>
      </trkpt>
      <trkpt lat="42.80027" lon="1.44394">
        <ele>1107</ele>
        <time>2020-07-27T11:28:28Z</time>
      </trkpt>
      <trkpt lat="42.8001" lon="1.44427">
        <ele>1107</ele>
        <time>2020-07-27T11:28:34Z</time>
      </trkpt>
      <trkpt lat="42.79965" lon="1.44464">
        <ele>1104</ele>
        <time>2020-07-27T11:28:43Z</time>
      </trkpt>
      <trkpt lat="42.79945" lon="1.44477">
        <ele>1103</ele>
        <time>2020-07-27T11:28:47Z</time>
      </trkpt>
      <trkpt lat="42.79908" lon="1.44491">
        <ele>1099</ele>
        <time>2020-07-27T11:28:54Z</time>
      </trkpt>
      <trkpt lat="42.79879" lon="1.44499">
        <ele>1095</ele>
        <time>2020-07-27T11:28:59Z</time>
      </trkpt>
      <trkpt lat="42.79843" lon="1.44515">
        <ele>1090</ele>
        <time>2020-07-27T11:29:06Z</time>
      </trkpt>
      <trkpt lat="42.7981" lon="1.44516">
        <ele>1085</ele>
        <time>2020-07-27T11:29:12Z</time>
      </trkpt>
      <trkpt lat="42.79768" lon="1.44546">
        <ele>1079</ele>
        <time>2020-07-27T11:29:20Z</time>
      </trkpt>
      <trkpt lat="42.79739" lon="1.44571">
        <ele>1076</ele>
        <time>2020-07-27T11:29:26Z</time>
      </trkpt>
      <trkpt lat="42.7967" lon="1.44663">
        <ele>1067</ele>
        <time>2020-07-27T11:29:43Z</time>
      </trkpt>
      <trkpt lat="42.79656" lon="1.44683">
        <ele>1065</ele>
        <time>2020-07-27T11:29:47Z</time>
      </trkpt>
      <trkpt lat="42.79642" lon="1.44714">
        <ele>1064</ele>
        <time>2020-07-27T11:29:52Z</time>
      </trkpt>
      <trkpt lat="42.79623" lon="1.44767">
        <ele>1064</ele>
        <time>2020-07-27T11:29:59Z</time>
      </trkpt>
      <trkpt lat="42.79611" lon="1.44785">
        <ele>1064</ele>
        <time>2020-07-27T11:30:03Z</time>
      </trkpt>
      <trkpt lat="42.79592" lon="1.44804">
        <ele>1063</ele>
        <time>2020-07-27T11:30:07Z</time>
      </trkpt>
      <trkpt lat="42.7957" lon="1.44818">
        <ele>1060</ele>
        <time>2020-07-27T11:30:11Z</time>
      </trkpt>
      <trkpt lat="42.79542" lon="1.44843">
        <ele>1057</ele>
        <time>2020-07-27T11:30:17Z</time>
      </trkpt>
      <trkpt lat="42.79521" lon="1.44865">
        <ele>1056</ele>
        <time>2020-07-27T11:30:22Z</time>
      </trkpt>
      <trkpt lat="42.79478" lon="1.44916">
        <ele>1052</ele>
        <time>2020-07-27T11:30:32Z</time>
      </trkpt>
      <trkpt lat="42.79444" lon="1.44949">
        <ele>1050</ele>
        <time>2020-07-27T11:30:39Z</time>
      </trkpt>
      <trkpt lat="42.79417" lon="1.44969">
        <ele>1044</ele>
        <time>2020-07-27T11:30:45Z</time>
      </trkpt>
      <trkpt lat="42.79373" lon="1.44997">
        <ele>1038</ele>
        <time>2020-07-27T11:30:54Z</time>
      </trkpt>
      <trkpt lat="42.79354" lon="1.45012">
        <ele>1036</ele>
        <time>2020-07-27T11:30:57Z</time>
      </trkpt>
      <trkpt lat="42.79329" lon="1.45055">
        <ele>1036</ele>
        <time>2020-07-27T11:31:05Z</time>
      </trkpt>
      <trkpt lat="42.79304" lon="1.45084">
        <ele>1033</ele>
        <time>2020-07-27T11:31:10Z</time>
      </trkpt>
      <trkpt lat="42.79237" lon="1.45147">
        <ele>1029</ele>
        <time>2020-07-27T11:31:25Z</time>
      </trkpt>
      <trkpt lat="42.79218" lon="1.45186">
        <ele>1032</ele>
        <time>2020-07-27T11:31:31Z</time>
      </trkpt>
      <trkpt lat="42.79203" lon="1.45207">
        <ele>1032</ele>
        <time>2020-07-27T11:31:35Z</time>
      </trkpt>
      <trkpt lat="42.7918" lon="1.45229">
        <ele>1028</ele>
        <time>2020-07-27T11:31:40Z</time>
      </trkpt>
      <trkpt lat="42.79124" lon="1.4526">
        <ele>1019</ele>
        <time>2020-07-27T11:31:51Z</time>
      </trkpt>
      <trkpt lat="42.79072" lon="1.45306">
        <ele>1013</ele>
        <time>2020-07-27T11:32:02Z</time>
      </trkpt>
      <trkpt lat="42.79046" lon="1.45332">
        <ele>1009</ele>
        <time>2020-07-27T11:32:07Z</time>
      </trkpt>
      <trkpt lat="42.79015" lon="1.45374">
        <ele>1006</ele>
        <time>2020-07-27T11:32:15Z</time>
      </trkpt>
      <trkpt lat="42.78991" lon="1.45401">
        <ele>1004</ele>
        <time>2020-07-27T11:32:21Z</time>
      </trkpt>
      <trkpt lat="42.78976" lon="1.45429">
        <ele>1003</ele>
        <time>2020-07-27T11:32:25Z</time>
      </trkpt>
      <trkpt lat="42.7896" lon="1.45499">
        <ele>1000</ele>
        <time>2020-07-27T11:32:35Z</time>
      </trkpt>
      <trkpt lat="42.78951" lon="1.4552">
        <ele>999</ele>
        <time>2020-07-27T11:32:38Z</time>
      </trkpt>
      <trkpt lat="42.78938" lon="1.45542">
        <ele>996</ele>
        <time>2020-07-27T11:32:42Z</time>
      </trkpt>
      <trkpt lat="42.7893" lon="1.45561">
        <ele>995</ele>
        <time>2020-07-27T11:32:45Z</time>
      </trkpt>
      <trkpt lat="42.78925" lon="1.4558">
        <ele>994</ele>
        <time>2020-07-27T11:32:47Z</time>
      </trkpt>
      <trkpt lat="42.78919" lon="1.4567">
        <ele>991</ele>
        <time>2020-07-27T11:32:59Z</time>
      </trkpt>
      <trkpt lat="42.7891" lon="1.45693">
        <ele>991</ele>
        <time>2020-07-27T11:33:02Z</time>
      </trkpt>
      <trkpt lat="42.78888" lon="1.45731">
        <ele>989</ele>
        <time>2020-07-27T11:33:09Z</time>
      </trkpt>
      <trkpt lat="42.78867" lon="1.45761">
        <ele>985</ele>
        <time>2020-07-27T11:33:14Z</time>
      </trkpt>
      <trkpt lat="42.7878" lon="1.45871">
        <ele>975</ele>
        <time>2020-07-27T11:33:35Z</time>
      </trkpt>
      <trkpt lat="42.78762" lon="1.45895">
        <ele>972</ele>
        <time>2020-07-27T11:33:40Z</time>
      </trkpt>
      <trkpt lat="42.78752" lon="1.45917">
        <ele>971</ele>
        <time>2020-07-27T11:33:43Z</time>
      </trkpt>
      <trkpt lat="42.78733" lon="1.46023">
        <ele>972</ele>
        <time>2020-07-27T11:33:57Z</time>
      </trkpt>
      <trkpt lat="42.78715" lon="1.46063">
        <ele>970</ele>
        <time>2020-07-27T11:34:03Z</time>
      </trkpt>
      <trkpt lat="42.78697" lon="1.46086">
        <ele>967</ele>
        <time>2020-07-27T11:34:08Z</time>
      </trkpt>
      <trkpt lat="42.78678" lon="1.46123">
        <ele>964</ele>
        <time>2020-07-27T11:34:14Z</time>
      </trkpt>
      <trkpt lat="42.78659" lon="1.46183">
        <ele>963</ele>
        <time>2020-07-27T11:34:22Z</time>
      </trkpt>
      <trkpt lat="42.7865" lon="1.46204">
        <ele>961</ele>
        <time>2020-07-27T11:34:25Z</time>
      </trkpt>
      <trkpt lat="42.78632" lon="1.46238">
        <ele>958</ele>
        <time>2020-07-27T11:34:31Z</time>
      </trkpt>
      <trkpt lat="42.78628" lon="1.46259">
        <ele>958</ele>
        <time>2020-07-27T11:34:34Z</time>
      </trkpt>
      <trkpt lat="42.78629" lon="1.46289">
        <ele>961</ele>
        <time>2020-07-27T11:34:38Z</time>
      </trkpt>
      <trkpt lat="42.78628" lon="1.46303">
        <ele>962</ele>
        <time>2020-07-27T11:34:40Z</time>
      </trkpt>
      <trkpt lat="42.78623" lon="1.46317">
        <ele>962</ele>
        <time>2020-07-27T11:34:42Z</time>
      </trkpt>
      <trkpt lat="42.78616" lon="1.46329">
        <ele>961</ele>
        <time>2020-07-27T11:34:44Z</time>
      </trkpt>
      <trkpt lat="42.78582" lon="1.4636">
        <ele>957</ele>
        <time>2020-07-27T11:34:51Z</time>
      </trkpt>
      <trkpt lat="42.78569" lon="1.46375">
        <ele>956</ele>
        <time>2020-07-27T11:34:54Z</time>
      </trkpt>
      <trkpt lat="42.78539" lon="1.46459">
        <ele>962</ele>
        <time>2020-07-27T11:35:06Z</time>
      </trkpt>
      <trkpt lat="42.78522" lon="1.46485">
        <ele>962</ele>
        <time>2020-07-27T11:35:11Z</time>
      </trkpt>
      <trkpt lat="42.78488" lon="1.46525">
        <ele>961</ele>
        <time>2020-07-27T11:35:19Z</time>
      </trkpt>
      <trkpt lat="42.78449" lon="1.46547">
        <ele>957</ele>
        <time>2020-07-27T11:35:26Z</time>
      </trkpt>
      <trkpt lat="42.78405" lon="1.46599">
        <ele>956</ele>
        <time>2020-07-27T11:35:36Z</time>
      </trkpt>
      <trkpt lat="42.78371" lon="1.46649">
        <ele>955</ele>
        <time>2020-07-27T11:35:45Z</time>
      </trkpt>
      <trkpt lat="42.78307" lon="1.46717">
        <ele>951</ele>
        <time>2020-07-27T11:36:00Z</time>
      </trkpt>
      <trkpt lat="42.78285" lon="1.46756">
        <ele>951</ele>
        <time>2020-07-27T11:36:06Z</time>
      </trkpt>
      <trkpt lat="42.78242" lon="1.46818">
        <ele>945</ele>
        <time>2020-07-27T11:36:17Z</time>
      </trkpt>
      <trkpt lat="42.78226" lon="1.46835">
        <ele>943</ele>
        <time>2020-07-27T11:36:21Z</time>
      </trkpt>
      <trkpt lat="42.78202" lon="1.46858">
        <ele>939</ele>
        <time>2020-07-27T11:36:26Z</time>
      </trkpt>
      <trkpt lat="42.78169" lon="1.46893">
        <ele>933</ele>
        <time>2020-07-27T11:36:34Z</time>
      </trkpt>
      <trkpt lat="42.78158" lon="1.46909">
        <ele>932</ele>
        <time>2020-07-27T11:36:37Z</time>
      </trkpt>
      <trkpt lat="42.78147" lon="1.46938">
        <ele>930</ele>
        <time>2020-07-27T11:36:41Z</time>
      </trkpt>
      <trkpt lat="42.78142" lon="1.46964">
        <ele>929</ele>
        <time>2020-07-27T11:36:44Z</time>
      </trkpt>
      <trkpt lat="42.78138" lon="1.47046">
        <ele>929</ele>
        <time>2020-07-27T11:36:55Z</time>
      </trkpt>
      <trkpt lat="42.78132" lon="1.47079">
        <ele>927</ele>
        <time>2020-07-27T11:36:59Z</time>
      </trkpt>
      <trkpt lat="42.78089" lon="1.47197">
        <ele>915</ele>
        <time>2020-07-27T11:37:17Z</time>
      </trkpt>
      <trkpt lat="42.78043" lon="1.47314">
        <ele>907</ele>
        <time>2020-07-27T11:37:34Z</time>
      </trkpt>
      <trkpt lat="42.78029" lon="1.47354">
        <ele>902</ele>
        <time>2020-07-27T11:37:40Z</time>
      </trkpt>
      <trkpt lat="42.78022" lon="1.47379">
        <ele>899</ele>
        <time>2020-07-27T11:37:43Z</time>
      </trkpt>
      <trkpt lat="42.78014" lon="1.4744">
        <ele>898</ele>
        <time>2020-07-27T11:37:51Z</time>
      </trkpt>
      <trkpt lat="42.78003" lon="1.47492">
        <ele>896</ele>
        <time>2020-07-27T11:37:58Z</time>
      </trkpt>
      <trkpt lat="42.77994" lon="1.47524">
        <ele>895</ele>
        <time>2020-07-27T11:38:03Z</time>
      </trkpt>
      <trkpt lat="42.77977" lon="1.47572">
        <ele>891</ele>
        <time>2020-07-27T11:38:10Z</time>
      </trkpt>
      <trkpt lat="42.77956" lon="1.47652">
        <ele>888</ele>
        <time>2020-07-27T11:38:21Z</time>
      </trkpt>
      <trkpt lat="42.77933" lon="1.47706">
        <ele>878</ele>
        <time>2020-07-27T11:38:29Z</time>
      </trkpt>
      <trkpt lat="42.77924" lon="1.4774">
        <ele>874</ele>
        <time>2020-07-27T11:38:34Z</time>
      </trkpt>
      <trkpt lat="42.77908" lon="1.4786">
        <ele>866</ele>
        <time>2020-07-27T11:38:50Z</time>
      </trkpt>
      <trkpt lat="42.77906" lon="1.47907">
        <ele>862</ele>
        <time>2020-07-27T11:38:56Z</time>
      </trkpt>
      <trkpt lat="42.77914" lon="1.47972">
        <ele>860</ele>
        <time>2020-07-27T11:39:05Z</time>
      </trkpt>
      <trkpt lat="42.77913" lon="1.47993">
        <ele>859</ele>
        <time>2020-07-27T11:39:07Z</time>
      </trkpt>
      <trkpt lat="42.77904" lon="1.48007">
        <ele>858</ele>
        <time>2020-07-27T11:39:10Z</time>
      </trkpt>
      <trkpt lat="42.77895" lon="1.48015">
        <ele>857</ele>
        <time>2020-07-27T11:39:12Z</time>
      </trkpt>
      <trkpt lat="42.77861" lon="1.48033">
        <ele>852</ele>
        <time>2020-07-27T11:39:18Z</time>
      </trkpt>
      <trkpt lat="42.77847" lon="1.48044">
        <ele>850</ele>
        <time>2020-07-27T11:39:21Z</time>
      </trkpt>
      <trkpt lat="42.77832" lon="1.48063">
        <ele>847</ele>
        <time>2020-07-27T11:39:25Z</time>
      </trkpt>
      <trkpt lat="42.77787" lon="1.48109">
        <ele>840</ele>
        <time>2020-07-27T11:39:35Z</time>
      </trkpt>
      <trkpt lat="42.77772" lon="1.48137">
        <ele>836</ele>
        <time>2020-07-27T11:39:39Z</time>
      </trkpt>
      <trkpt lat="42.7776" lon="1.48173">
        <ele>831</ele>
        <time>2020-07-27T11:39:44Z</time>
      </trkpt>
      <trkpt lat="42.7775" lon="1.48265">
        <ele>833</ele>
        <time>2020-07-27T11:39:56Z</time>
      </trkpt>
      <trkpt lat="42.77739" lon="1.4829">
        <ele>834</ele>
        <time>2020-07-27T11:40:00Z</time>
      </trkpt>
      <trkpt lat="42.77721" lon="1.4831">
        <ele>831</ele>
        <time>2020-07-27T11:40:04Z</time>
      </trkpt>
      <trkpt lat="42.777" lon="1.48321">
        <ele>826</ele>
        <time>2020-07-27T11:40:08Z</time>
      </trkpt>
      <trkpt lat="42.77669" lon="1.48341">
        <ele>817</ele>
        <time>2020-07-27T11:40:15Z</time>
      </trkpt>
      <trkpt lat="42.77635" lon="1.48385">
        <ele>819</ele>
        <time>2020-07-27T11:40:23Z</time>
      </trkpt>
      <trkpt lat="42.77613" lon="1.48422">
        <ele>814</ele>
        <time>2020-07-27T11:40:29Z</time>
      </trkpt>
      <trkpt lat="42.7759" lon="1.48447">
        <ele>811</ele>
        <time>2020-07-27T11:40:34Z</time>
      </trkpt>
      <trkpt lat="42.77553" lon="1.48503">
        <ele>808</ele>
        <time>2020-07-27T11:40:44Z</time>
      </trkpt>
      <trkpt lat="42.77535" lon="1.48526">
        <ele>807</ele>
        <time>2020-07-27T11:40:49Z</time>
      </trkpt>
      <trkpt lat="42.77498" lon="1.48554">
        <ele>800</ele>
        <time>2020-07-27T11:40:56Z</time>
      </trkpt>
      <trkpt lat="42.77456" lon="1.48603">
        <ele>792</ele>
        <time>2020-07-27T11:41:06Z</time>
      </trkpt>
      <trkpt lat="42.77441" lon="1.48629">
        <ele>789</ele>
        <time>2020-07-27T11:41:10Z</time>
      </trkpt>
      <trkpt lat="42.77432" lon="1.48657">
        <ele>787</ele>
        <time>2020-07-27T11:41:14Z</time>
      </trkpt>
      <trkpt lat="42.77422" lon="1.48706">
        <ele>785</ele>
        <time>2020-07-27T11:41:21Z</time>
      </trkpt>
      <trkpt lat="42.77415" lon="1.48727">
        <ele>783</ele>
        <time>2020-07-27T11:41:24Z</time>
      </trkpt>
      <trkpt lat="42.7739" lon="1.48767">
        <ele>781</ele>
        <time>2020-07-27T11:41:31Z</time>
      </trkpt>
      <trkpt lat="42.77373" lon="1.4879">
        <ele>778</ele>
        <time>2020-07-27T11:41:35Z</time>
      </trkpt>
      <trkpt lat="42.77361" lon="1.48811">
        <ele>776</ele>
        <time>2020-07-27T11:41:38Z</time>
      </trkpt>
      <trkpt lat="42.77337" lon="1.48872">
        <ele>768</ele>
        <time>2020-07-27T11:41:48Z</time>
      </trkpt>
      <trkpt lat="42.77281" lon="1.49004">
        <ele>758</ele>
        <time>2020-07-27T11:42:07Z</time>
      </trkpt>
      <trkpt lat="42.77272" lon="1.49031">
        <ele>757</ele>
        <time>2020-07-27T11:42:11Z</time>
      </trkpt>
      <trkpt lat="42.77258" lon="1.49082">
        <ele>756</ele>
        <time>2020-07-27T11:42:18Z</time>
      </trkpt>
      <trkpt lat="42.77256" lon="1.49098">
        <ele>754</ele>
        <time>2020-07-27T11:42:21Z</time>
      </trkpt>
      <trkpt lat="42.77257" lon="1.49114">
        <ele>754</ele>
        <time>2020-07-27T11:42:23Z</time>
      </trkpt>
      <trkpt lat="42.77261" lon="1.49134">
        <ele>755</ele>
        <time>2020-07-27T11:42:25Z</time>
      </trkpt>
      <trkpt lat="42.77262" lon="1.49151">
        <ele>755</ele>
        <time>2020-07-27T11:42:28Z</time>
      </trkpt>
      <trkpt lat="42.77261" lon="1.49168">
        <ele>754</ele>
        <time>2020-07-27T11:42:30Z</time>
      </trkpt>
      <trkpt lat="42.77254" lon="1.4921">
        <ele>751</ele>
        <time>2020-07-27T11:42:35Z</time>
      </trkpt>
      <trkpt lat="42.77252" lon="1.49215">
        <ele>750</ele>
        <time>2020-07-27T11:42:36Z</time>
      </trkpt>
      <trkpt lat="42.77247" lon="1.4922">
        <ele>748</ele>
        <time>2020-07-27T11:42:37Z</time>
      </trkpt>
      <trkpt lat="42.77241" lon="1.49217">
        <ele>747</ele>
        <time>2020-07-27T11:42:38Z</time>
      </trkpt>
      <trkpt lat="42.7724" lon="1.49213">
        <ele>746</ele>
        <time>2020-07-27T11:42:39Z</time>
      </trkpt>
      <trkpt lat="42.77241" lon="1.49193">
        <ele>746</ele>
        <time>2020-07-27T11:42:42Z</time>
      </trkpt>
      <trkpt lat="42.7724" lon="1.49185">
        <ele>746</ele>
        <time>2020-07-27T11:42:43Z</time>
      </trkpt>
      <trkpt lat="42.77232" lon="1.49171">
        <ele>744</ele>
        <time>2020-07-27T11:42:45Z</time>
      </trkpt>
      <trkpt lat="42.77216" lon="1.49157">
        <ele>742</ele>
        <time>2020-07-27T11:42:48Z</time>
      </trkpt>
      <trkpt lat="42.77208" lon="1.49152">
        <ele>740</ele>
        <time>2020-07-27T11:42:50Z</time>
      </trkpt>
      <trkpt lat="42.77185" lon="1.49151">
        <ele>736</ele>
        <time>2020-07-27T11:42:54Z</time>
      </trkpt>
      <trkpt lat="42.77169" lon="1.49157">
        <ele>732</ele>
        <time>2020-07-27T11:42:57Z</time>
      </trkpt>
      <trkpt lat="42.77164" lon="1.49162">
        <ele>731</ele>
        <time>2020-07-27T11:42:58Z</time>
      </trkpt>
      <trkpt lat="42.77153" lon="1.49192">
        <ele>731</ele>
        <time>2020-07-27T11:43:02Z</time>
      </trkpt>
      <trkpt lat="42.77144" lon="1.49229">
        <ele>730</ele>
        <time>2020-07-27T11:43:08Z</time>
      </trkpt>
      <trkpt lat="42.77134" lon="1.49249">
        <ele>729</ele>
        <time>2020-07-27T11:43:11Z</time>
      </trkpt>
      <trkpt lat="42.77126" lon="1.49261">
        <ele>729</ele>
        <time>2020-07-27T11:43:13Z</time>
      </trkpt>
      <trkpt lat="42.77073" lon="1.49302">
        <ele>724</ele>
        <time>2020-07-27T11:43:24Z</time>
      </trkpt>
      <trkpt lat="42.77041" lon="1.49346">
        <ele>722</ele>
        <time>2020-07-27T11:43:32Z</time>
      </trkpt>
      <trkpt lat="42.76967" lon="1.49364">
        <ele>720</ele>
        <time>2020-07-27T11:43:45Z</time>
      </trkpt>
      <trkpt lat="42.76954" lon="1.49392">
        <ele>719</ele>
        <time>2020-07-27T11:43:49Z</time>
      </trkpt>
      <trkpt lat="42.76949" lon="1.49414">
        <ele>719</ele>
        <time>2020-07-27T11:43:52Z</time>
      </trkpt>
      <trkpt lat="42.76932" lon="1.49509">
        <ele>717</ele>
        <time>2020-07-27T11:44:05Z</time>
      </trkpt>
      <trkpt lat="42.76918" lon="1.49563">
        <ele>715</ele>
        <time>2020-07-27T11:44:13Z</time>
      </trkpt>
      <trkpt lat="42.76919" lon="1.49577">
        <ele>715</ele>
        <time>2020-07-27T11:44:15Z</time>
      </trkpt>
      <trkpt lat="42.7693" lon="1.49626">
        <ele>715</ele>
        <time>2020-07-27T11:44:21Z</time>
      </trkpt>
      <trkpt lat="42.76931" lon="1.49644">
        <ele>715</ele>
        <time>2020-07-27T11:44:24Z</time>
      </trkpt>
      <trkpt lat="42.76919" lon="1.49724">
        <ele>714</ele>
        <time>2020-07-27T11:44:34Z</time>
      </trkpt>
      <trkpt lat="42.76914" lon="1.49742">
        <ele>714</ele>
        <time>2020-07-27T11:44:37Z</time>
      </trkpt>
      <trkpt lat="42.76864" lon="1.49868">
        <ele>713</ele>
        <time>2020-07-27T11:44:55Z</time>
      </trkpt>
      <trkpt lat="42.76853" lon="1.49905">
        <ele>713</ele>
        <time>2020-07-27T11:45:01Z</time>
      </trkpt>
      <trkpt lat="42.76831" lon="1.50008">
        <ele>712</ele>
        <time>2020-07-27T11:45:15Z</time>
      </trkpt>
      <trkpt lat="42.76824" lon="1.50032">
        <ele>713</ele>
        <time>2020-07-27T11:45:18Z</time>
      </trkpt>
      <trkpt lat="42.76819" lon="1.50041">
        <ele>714</ele>
        <time>2020-07-27T11:45:20Z</time>
      </trkpt>
      <trkpt lat="42.76814" lon="1.50043">
        <ele>715</ele>
        <time>2020-07-27T11:45:20Z</time>
      </trkpt>
      <trkpt lat="42.76789" lon="1.50046">
        <ele>722</ele>
        <time>2020-07-27T11:45:25Z</time>
      </trkpt>
      <trkpt lat="42.76785" lon="1.50048">
        <ele>723</ele>
        <time>2020-07-27T11:45:26Z</time>
      </trkpt>
      <trkpt lat="42.7678" lon="1.50055">
        <ele>724</ele>
        <time>2020-07-27T11:45:27Z</time>
      </trkpt>
      <trkpt lat="42.76769" lon="1.50097">
        <ele>724</ele>
        <time>2020-07-27T11:45:33Z</time>
      </trkpt>
      <trkpt lat="42.76768" lon="1.5012">
        <ele>725</ele>
        <time>2020-07-27T11:45:36Z</time>
      </trkpt>
      <trkpt lat="42.76771" lon="1.50145">
        <ele>725</ele>
        <time>2020-07-27T11:45:39Z</time>
      </trkpt>
      <trkpt lat="42.76777" lon="1.50167">
        <ele>724</ele>
        <time>2020-07-27T11:45:42Z</time>
      </trkpt>
      <trkpt lat="42.76785" lon="1.50193">
        <ele>724</ele>
        <time>2020-07-27T11:45:46Z</time>
      </trkpt>
      <trkpt lat="42.76797" lon="1.50219">
        <ele>722</ele>
        <time>2020-07-27T11:45:50Z</time>
      </trkpt>
      <trkpt lat="42.7682" lon="1.50255">
        <ele>716</ele>
        <time>2020-07-27T11:45:56Z</time>
      </trkpt>
      <trkpt lat="42.76852" lon="1.50295">
        <ele>714</ele>
        <time>2020-07-27T11:46:04Z</time>
      </trkpt>
      <trkpt lat="42.76962" lon="1.50408">
        <ele>704</ele>
        <time>2020-07-27T11:46:28Z</time>
      </trkpt>
      <trkpt lat="42.77058" lon="1.50512">
        <ele>701</ele>
        <time>2020-07-27T11:46:50Z</time>
      </trkpt>
      <trkpt lat="42.77074" lon="1.50532">
        <ele>701</ele>
        <time>2020-07-27T11:46:54Z</time>
      </trkpt>
      <trkpt lat="42.77087" lon="1.50551">
        <ele>701</ele>
        <time>2020-07-27T11:46:57Z</time>
      </trkpt>
      <trkpt lat="42.77098" lon="1.50575">
        <ele>701</ele>
        <time>2020-07-27T11:47:01Z</time>
      </trkpt>
      <trkpt lat="42.77113" lon="1.50614">
        <ele>702</ele>
        <time>2020-07-27T11:47:07Z</time>
      </trkpt>
      <trkpt lat="42.77284" lon="1.51122">
        <ele>712</ele>
        <time>2020-07-27T11:48:20Z</time>
      </trkpt>
      <trkpt lat="42.77291" lon="1.5114">
        <ele>713</ele>
        <time>2020-07-27T11:48:23Z</time>
      </trkpt>
      <trkpt lat="42.77299" lon="1.51155">
        <ele>713</ele>
        <time>2020-07-27T11:48:25Z</time>
      </trkpt>
      <trkpt lat="42.7734" lon="1.51221">
        <ele>708</ele>
        <time>2020-07-27T11:48:36Z</time>
      </trkpt>
      <trkpt lat="42.77431" lon="1.51327">
        <ele>702</ele>
        <time>2020-07-27T11:48:58Z</time>
      </trkpt>
      <trkpt lat="42.77449" lon="1.51357">
        <ele>703</ele>
        <time>2020-07-27T11:49:03Z</time>
      </trkpt>
      <trkpt lat="42.77465" lon="1.51392">
        <ele>703</ele>
        <time>2020-07-27T11:49:08Z</time>
      </trkpt>
      <trkpt lat="42.77472" lon="1.5142">
        <ele>704</ele>
        <time>2020-07-27T11:49:12Z</time>
      </trkpt>
      <trkpt lat="42.77477" lon="1.5145">
        <ele>703</ele>
        <time>2020-07-27T11:49:16Z</time>
      </trkpt>
      <trkpt lat="42.77483" lon="1.51548">
        <ele>699</ele>
        <time>2020-07-27T11:49:29Z</time>
      </trkpt>
      <trkpt lat="42.77493" lon="1.51756">
        <ele>695</ele>
        <time>2020-07-27T11:49:56Z</time>
      </trkpt>
      <trkpt lat="42.77507" lon="1.51878">
        <ele>700</ele>
        <time>2020-07-27T11:50:12Z</time>
      </trkpt>
      <trkpt lat="42.77518" lon="1.51925">
        <ele>702</ele>
        <time>2020-07-27T11:50:19Z</time>
      </trkpt>
      <trkpt lat="42.77529" lon="1.51966">
        <ele>703</ele>
        <time>2020-07-27T11:50:24Z</time>
      </trkpt>
      <trkpt lat="42.77548" lon="1.52002">
        <ele>699</ele>
        <time>2020-07-27T11:50:30Z</time>
      </trkpt>
      <trkpt lat="42.77588" lon="1.52071">
        <ele>694</ele>
        <time>2020-07-27T11:50:41Z</time>
      </trkpt>
      <trkpt lat="42.77606" lon="1.5211">
        <ele>695</ele>
        <time>2020-07-27T11:50:48Z</time>
      </trkpt>
      <trkpt lat="42.77707" lon="1.52351">
        <ele>685</ele>
        <time>2020-07-27T11:51:24Z</time>
      </trkpt>
      <trkpt lat="42.77894" lon="1.52874">
        <ele>690</ele>
        <time>2020-07-27T11:52:40Z</time>
      </trkpt>
      <trkpt lat="42.77915" lon="1.52946">
        <ele>686</ele>
        <time>2020-07-27T11:52:50Z</time>
      </trkpt>
      <trkpt lat="42.77928" lon="1.53016">
        <ele>688</ele>
        <time>2020-07-27T11:52:59Z</time>
      </trkpt>
      <trkpt lat="42.77964" lon="1.53218">
        <ele>690</ele>
        <time>2020-07-27T11:53:26Z</time>
      </trkpt>
      <trkpt lat="42.77985" lon="1.53381">
        <ele>686</ele>
        <time>2020-07-27T11:53:48Z</time>
      </trkpt>
      <trkpt lat="42.78003" lon="1.53476">
        <ele>684</ele>
        <time>2020-07-27T11:54:01Z</time>
      </trkpt>
      <trkpt lat="42.78051" lon="1.53672">
        <ele>684</ele>
        <time>2020-07-27T11:54:28Z</time>
      </trkpt>
      <trkpt lat="42.78069" lon="1.53722">
        <ele>681</ele>
        <time>2020-07-27T11:54:35Z</time>
      </trkpt>
      <trkpt lat="42.78117" lon="1.53837">
        <ele>678</ele>
        <time>2020-07-27T11:54:52Z</time>
      </trkpt>
      <trkpt lat="42.78138" lon="1.53904">
        <ele>679</ele>
        <time>2020-07-27T11:55:02Z</time>
      </trkpt>
      <trkpt lat="42.78156" lon="1.53999">
        <ele>677</ele>
        <time>2020-07-27T11:55:15Z</time>
      </trkpt>
      <trkpt lat="42.78163" lon="1.5409">
        <ele>680</ele>
        <time>2020-07-27T11:55:27Z</time>
      </trkpt>
      <trkpt lat="42.78169" lon="1.54121">
        <ele>683</ele>
        <time>2020-07-27T11:55:31Z</time>
      </trkpt>
      <trkpt lat="42.78176" lon="1.54139">
        <ele>684</ele>
        <time>2020-07-27T11:55:34Z</time>
      </trkpt>
      <trkpt lat="42.78208" lon="1.54206">
        <ele>682</ele>
        <time>2020-07-27T11:55:44Z</time>
      </trkpt>
      <trkpt lat="42.78228" lon="1.54257">
        <ele>678</ele>
        <time>2020-07-27T11:55:51Z</time>
      </trkpt>
      <trkpt lat="42.7827" lon="1.54393">
        <ele>678</ele>
        <time>2020-07-27T11:56:11Z</time>
      </trkpt>
      <trkpt lat="42.78283" lon="1.54421">
        <ele>677</ele>
        <time>2020-07-27T11:56:15Z</time>
      </trkpt>
      <trkpt lat="42.78319" lon="1.54487">
        <ele>669</ele>
        <time>2020-07-27T11:56:26Z</time>
      </trkpt>
      <trkpt lat="42.78349" lon="1.54565">
        <ele>660</ele>
        <time>2020-07-27T11:56:37Z</time>
      </trkpt>
      <trkpt lat="42.78371" lon="1.5461">
        <ele>658</ele>
        <time>2020-07-27T11:56:44Z</time>
      </trkpt>
      <trkpt lat="42.78399" lon="1.5466">
        <ele>655</ele>
        <time>2020-07-27T11:56:53Z</time>
      </trkpt>
      <trkpt lat="42.78413" lon="1.5469">
        <ele>653</ele>
        <time>2020-07-27T11:56:57Z</time>
      </trkpt>
      <trkpt lat="42.78434" lon="1.54742">
        <ele>654</ele>
        <time>2020-07-27T11:57:05Z</time>
      </trkpt>
      <trkpt lat="42.7844" lon="1.54767">
        <ele>654</ele>
        <time>2020-07-27T11:57:08Z</time>
      </trkpt>
      <trkpt lat="42.78446" lon="1.54799">
        <ele>653</ele>
        <time>2020-07-27T11:57:13Z</time>
      </trkpt>
      <trkpt lat="42.78446" lon="1.5483">
        <ele>653</ele>
        <time>2020-07-27T11:57:17Z</time>
      </trkpt>
      <trkpt lat="42.78384" lon="1.55644">
        <ele>647</ele>
        <time>2020-07-27T11:59:04Z</time>
      </trkpt>
      <trkpt lat="42.78383" lon="1.55674">
        <ele>646</ele>
        <time>2020-07-27T11:59:08Z</time>
      </trkpt>
      <trkpt lat="42.78386" lon="1.55705">
        <ele>644</ele>
        <time>2020-07-27T11:59:12Z</time>
      </trkpt>
      <trkpt lat="42.78393" lon="1.55741">
        <ele>642</ele>
        <time>2020-07-27T11:59:17Z</time>
      </trkpt>
      <trkpt lat="42.78411" lon="1.55821">
        <ele>640</ele>
        <time>2020-07-27T11:59:27Z</time>
      </trkpt>
      <trkpt lat="42.78413" lon="1.5584">
        <ele>639</ele>
        <time>2020-07-27T11:59:30Z</time>
      </trkpt>
      <trkpt lat="42.78405" lon="1.55936">
        <ele>639</ele>
        <time>2020-07-27T11:59:43Z</time>
      </trkpt>
      <trkpt lat="42.78405" lon="1.55965">
        <ele>637</ele>
        <time>2020-07-27T11:59:46Z</time>
      </trkpt>
      <trkpt lat="42.78408" lon="1.55983">
        <ele>636</ele>
        <time>2020-07-27T11:59:49Z</time>
      </trkpt>
      <trkpt lat="42.78415" lon="1.56001">
        <ele>634</ele>
        <time>2020-07-27T11:59:51Z</time>
      </trkpt>
      <trkpt lat="42.78422" lon="1.56013">
        <ele>634</ele>
        <time>2020-07-27T11:59:53Z</time>
      </trkpt>
      <trkpt lat="42.7843" lon="1.56022">
        <ele>635</ele>
        <time>2020-07-27T11:59:55Z</time>
      </trkpt>
      <trkpt lat="42.78441" lon="1.56031">
        <ele>635</ele>
        <time>2020-07-27T11:59:58Z</time>
      </trkpt>
      <trkpt lat="42.78462" lon="1.56042">
        <ele>635</ele>
        <time>2020-07-27T12:00:02Z</time>
      </trkpt>
      <trkpt lat="42.78496" lon="1.56057">
        <ele>634</ele>
        <time>2020-07-27T12:00:08Z</time>
      </trkpt>
      <trkpt lat="42.78512" lon="1.56068">
        <ele>634</ele>
        <time>2020-07-27T12:00:11Z</time>
      </trkpt>
      <trkpt lat="42.78522" lon="1.5608">
        <ele>634</ele>
        <time>2020-07-27T12:00:13Z</time>
      </trkpt>
      <trkpt lat="42.78621" lon="1.56285">
        <ele>632</ele>
        <time>2020-07-27T12:00:46Z</time>
      </trkpt>
      <trkpt lat="42.78804" lon="1.56674">
        <ele>625</ele>
        <time>2020-07-27T12:01:46Z</time>
      </trkpt>
      <trkpt lat="42.78935" lon="1.56958">
        <ele>611</ele>
        <time>2020-07-27T12:02:30Z</time>
      </trkpt>
      <trkpt lat="42.78947" lon="1.56996">
        <ele>611</ele>
        <time>2020-07-27T12:02:35Z</time>
      </trkpt>
      <trkpt lat="42.78971" lon="1.57134">
        <ele>612</ele>
        <time>2020-07-27T12:02:54Z</time>
      </trkpt>
      <trkpt lat="42.79" lon="1.57286">
        <ele>608</ele>
        <time>2020-07-27T12:03:14Z</time>
      </trkpt>
      <trkpt lat="42.7901" lon="1.57327">
        <ele>610</ele>
        <time>2020-07-27T12:03:20Z</time>
      </trkpt>
      <trkpt lat="42.79019" lon="1.57355">
        <ele>610</ele>
        <time>2020-07-27T12:03:24Z</time>
      </trkpt>
      <trkpt lat="42.7903" lon="1.57371">
        <ele>609</ele>
        <time>2020-07-27T12:03:27Z</time>
      </trkpt>
      <trkpt lat="42.7905" lon="1.57392">
        <ele>604</ele>
        <time>2020-07-27T12:03:31Z</time>
      </trkpt>
      <trkpt lat="42.79062" lon="1.57409">
        <ele>601</ele>
        <time>2020-07-27T12:03:34Z</time>
      </trkpt>
      <trkpt lat="42.79073" lon="1.57437">
        <ele>601</ele>
        <time>2020-07-27T12:03:38Z</time>
      </trkpt>
      <trkpt lat="42.79146" lon="1.57643">
        <ele>601</ele>
        <time>2020-07-27T12:04:08Z</time>
      </trkpt>
      <trkpt lat="42.79185" lon="1.57748">
        <ele>599</ele>
        <time>2020-07-27T12:04:24Z</time>
      </trkpt>
      <trkpt lat="42.79263" lon="1.57965">
        <ele>596</ele>
        <time>2020-07-27T12:04:55Z</time>
      </trkpt>
      <trkpt lat="42.7932" lon="1.5812">
        <ele>595</ele>
        <time>2020-07-27T12:05:18Z</time>
      </trkpt>
      <trkpt lat="42.79382" lon="1.58285">
        <ele>593</ele>
        <time>2020-07-27T12:05:42Z</time>
      </trkpt>
      <trkpt lat="42.7939" lon="1.58301">
        <ele>593</ele>
        <time>2020-07-27T12:05:44Z</time>
      </trkpt>
      <trkpt lat="42.79406" lon="1.5832">
        <ele>593</ele>
        <time>2020-07-27T12:05:48Z</time>
      </trkpt>
      <trkpt lat="42.79468" lon="1.58384">
        <ele>592</ele>
        <time>2020-07-27T12:06:02Z</time>
      </trkpt>
      <trkpt lat="42.79487" lon="1.5841">
        <ele>593</ele>
        <time>2020-07-27T12:06:07Z</time>
      </trkpt>
      <trkpt lat="42.79513" lon="1.58478">
        <ele>594</ele>
        <time>2020-07-27T12:06:17Z</time>
      </trkpt>
      <trkpt lat="42.79531" lon="1.58502">
        <ele>594</ele>
        <time>2020-07-27T12:06:21Z</time>
      </trkpt>
      <trkpt lat="42.79538" lon="1.58509">
        <ele>594</ele>
        <time>2020-07-27T12:06:23Z</time>
      </trkpt>
      <trkpt lat="42.79605" lon="1.58551">
        <ele>593</ele>
        <time>2020-07-27T12:06:36Z</time>
      </trkpt>
      <trkpt lat="42.79667" lon="1.58583">
        <ele>593</ele>
        <time>2020-07-27T12:06:48Z</time>
      </trkpt>
      <trkpt lat="42.79742" lon="1.5863">
        <ele>587</ele>
        <time>2020-07-27T12:07:03Z</time>
      </trkpt>
      <trkpt lat="42.79767" lon="1.58654">
        <ele>585</ele>
        <time>2020-07-27T12:07:08Z</time>
      </trkpt>
      <trkpt lat="42.79787" lon="1.58678">
        <ele>585</ele>
        <time>2020-07-27T12:07:13Z</time>
      </trkpt>
      <trkpt lat="42.79842" lon="1.58757">
        <ele>590</ele>
        <time>2020-07-27T12:07:27Z</time>
      </trkpt>
      <trkpt lat="42.79871" lon="1.58785">
        <ele>591</ele>
        <time>2020-07-27T12:07:33Z</time>
      </trkpt>
      <trkpt lat="42.7993" lon="1.58825">
        <ele>583</ele>
        <time>2020-07-27T12:07:45Z</time>
      </trkpt>
      <trkpt lat="42.79963" lon="1.58842">
        <ele>581</ele>
        <time>2020-07-27T12:07:51Z</time>
      </trkpt>
      <trkpt lat="42.80168" lon="1.58925">
        <ele>573</ele>
        <time>2020-07-27T12:08:29Z</time>
      </trkpt>
      <trkpt lat="42.80249" lon="1.58953">
        <ele>577</ele>
        <time>2020-07-27T12:08:44Z</time>
      </trkpt>
      <trkpt lat="42.8042" lon="1.59">
        <ele>577</ele>
        <time>2020-07-27T12:09:15Z</time>
      </trkpt>
      <trkpt lat="42.80448" lon="1.59012">
        <ele>576</ele>
        <time>2020-07-27T12:09:20Z</time>
      </trkpt>
      <trkpt lat="42.80547" lon="1.59071">
        <ele>571</ele>
        <time>2020-07-27T12:09:40Z</time>
      </trkpt>
      <trkpt lat="42.80565" lon="1.59079">
        <ele>569</ele>
        <time>2020-07-27T12:09:43Z</time>
      </trkpt>
      <trkpt lat="42.80611" lon="1.59091">
        <ele>566</ele>
        <time>2020-07-27T12:09:51Z</time>
      </trkpt>
      <trkpt lat="42.80635" lon="1.59093">
        <ele>565</ele>
        <time>2020-07-27T12:09:56Z</time>
      </trkpt>
      <trkpt lat="42.80663" lon="1.59093">
        <ele>563</ele>
        <time>2020-07-27T12:10:01Z</time>
      </trkpt>
      <trkpt lat="42.80694" lon="1.59087">
        <ele>562</ele>
        <time>2020-07-27T12:10:06Z</time>
      </trkpt>
      <trkpt lat="42.80738" lon="1.59067">
        <ele>561</ele>
        <time>2020-07-27T12:10:14Z</time>
      </trkpt>
      <trkpt lat="42.80792" lon="1.5902">
        <ele>558</ele>
        <time>2020-07-27T12:10:26Z</time>
      </trkpt>
      <trkpt lat="42.80809" lon="1.59014">
        <ele>559</ele>
        <time>2020-07-27T12:10:29Z</time>
      </trkpt>
      <trkpt lat="42.80826" lon="1.59014">
        <ele>559</ele>
        <time>2020-07-27T12:10:32Z</time>
      </trkpt>
      <trkpt lat="42.80949" lon="1.59071">
        <ele>558</ele>
        <time>2020-07-27T12:10:55Z</time>
      </trkpt>
      <trkpt lat="42.81016" lon="1.59095">
        <ele>555</ele>
        <time>2020-07-27T12:11:07Z</time>
      </trkpt>
      <trkpt lat="42.81472" lon="1.59165">
        <ele>551</ele>
        <time>2020-07-27T12:12:29Z</time>
      </trkpt>
      <trkpt lat="42.81531" lon="1.59169">
        <ele>550</ele>
        <time>2020-07-27T12:12:40Z</time>
      </trkpt>
      <trkpt lat="42.81696" lon="1.59162">
        <ele>546</ele>
        <time>2020-07-27T12:13:09Z</time>
      </trkpt>
      <trkpt lat="42.81766" lon="1.59155">
        <ele>550</ele>
        <time>2020-07-27T12:13:21Z</time>
      </trkpt>
      <trkpt lat="42.81806" lon="1.59146">
        <ele>553</ele>
        <time>2020-07-27T12:13:29Z</time>
      </trkpt>
      <trkpt lat="42.81956" lon="1.59088">
        <ele>551</ele>
        <time>2020-07-27T12:13:56Z</time>
      </trkpt>
      <trkpt lat="42.82104" lon="1.59037">
        <ele>553</ele>
        <time>2020-07-27T12:14:24Z</time>
      </trkpt>
      <trkpt lat="42.82133" lon="1.5903">
        <ele>552</ele>
        <time>2020-07-27T12:14:29Z</time>
      </trkpt>
      <trkpt lat="42.82157" lon="1.59029">
        <ele>553</ele>
        <time>2020-07-27T12:14:33Z</time>
      </trkpt>
      <trkpt lat="42.82187" lon="1.59031">
        <ele>553</ele>
        <time>2020-07-27T12:14:38Z</time>
      </trkpt>
      <trkpt lat="42.82256" lon="1.59041">
        <ele>553</ele>
        <time>2020-07-27T12:14:51Z</time>
      </trkpt>
      <trkpt lat="42.82283" lon="1.5905">
        <ele>552</ele>
        <time>2020-07-27T12:14:56Z</time>
      </trkpt>
      <trkpt lat="42.8232" lon="1.59068">
        <ele>549</ele>
        <time>2020-07-27T12:15:03Z</time>
      </trkpt>
      <trkpt lat="42.82402" lon="1.59115">
        <ele>549</ele>
        <time>2020-07-27T12:15:19Z</time>
      </trkpt>
      <trkpt lat="42.82425" lon="1.59121">
        <ele>547</ele>
        <time>2020-07-27T12:15:23Z</time>
      </trkpt>
      <trkpt lat="42.82474" lon="1.59127">
        <ele>543</ele>
        <time>2020-07-27T12:15:31Z</time>
      </trkpt>
      <trkpt lat="42.82619" lon="1.59138">
        <ele>537</ele>
        <time>2020-07-27T12:15:57Z</time>
      </trkpt>
      <trkpt lat="42.82696" lon="1.59147">
        <ele>537</ele>
        <time>2020-07-27T12:16:11Z</time>
      </trkpt>
      <trkpt lat="42.82738" lon="1.59148">
        <ele>538</ele>
        <time>2020-07-27T12:16:19Z</time>
      </trkpt>
      <trkpt lat="42.82776" lon="1.59146">
        <ele>538</ele>
        <time>2020-07-27T12:16:25Z</time>
      </trkpt>
      <trkpt lat="42.82811" lon="1.59141">
        <ele>538</ele>
        <time>2020-07-27T12:16:32Z</time>
      </trkpt>
      <trkpt lat="42.82846" lon="1.59134">
        <ele>537</ele>
        <time>2020-07-27T12:16:38Z</time>
      </trkpt>
      <trkpt lat="42.82892" lon="1.59119">
        <ele>533</ele>
        <time>2020-07-27T12:16:46Z</time>
      </trkpt>
      <trkpt lat="42.82911" lon="1.59116">
        <ele>533</ele>
        <time>2020-07-27T12:16:50Z</time>
      </trkpt>
      <trkpt lat="42.82933" lon="1.59118">
        <ele>532</ele>
        <time>2020-07-27T12:16:54Z</time>
      </trkpt>
      <trkpt lat="42.82955" lon="1.59126">
        <ele>532</ele>
        <time>2020-07-27T12:16:58Z</time>
      </trkpt>
      <trkpt lat="42.82976" lon="1.5914">
        <ele>531</ele>
        <time>2020-07-27T12:17:02Z</time>
      </trkpt>
      <trkpt lat="42.82996" lon="1.59159">
        <ele>529</ele>
        <time>2020-07-27T12:17:06Z</time>
      </trkpt>
      <trkpt lat="42.8301" lon="1.59181">
        <ele>531</ele>
        <time>2020-07-27T12:17:10Z</time>
      </trkpt>
      <trkpt lat="42.83062" lon="1.59293">
        <ele>537</ele>
        <time>2020-07-27T12:17:27Z</time>
      </trkpt>
      <trkpt lat="42.83071" lon="1.59305">
        <ele>535</ele>
        <time>2020-07-27T12:17:29Z</time>
      </trkpt>
      <trkpt lat="42.83085" lon="1.59316">
        <ele>532</ele>
        <time>2020-07-27T12:17:32Z</time>
      </trkpt>
      <trkpt lat="42.83128" lon="1.59336">
        <ele>526</ele>
        <time>2020-07-27T12:17:40Z</time>
      </trkpt>
      <trkpt lat="42.83147" lon="1.59348">
        <ele>524</ele>
        <time>2020-07-27T12:17:44Z</time>
      </trkpt>
      <trkpt lat="42.83164" lon="1.59363">
        <ele>523</ele>
        <time>2020-07-27T12:17:48Z</time>
      </trkpt>
      <trkpt lat="42.83218" lon="1.59434">
        <ele>523</ele>
        <time>2020-07-27T12:18:01Z</time>
      </trkpt>
      <trkpt lat="42.83234" lon="1.59461">
        <ele>522</ele>
        <time>2020-07-27T12:18:06Z</time>
      </trkpt>
      <trkpt lat="42.83276" lon="1.59541">
        <ele>528</ele>
        <time>2020-07-27T12:18:18Z</time>
      </trkpt>
      <trkpt lat="42.83281" lon="1.59553">
        <ele>529</ele>
        <time>2020-07-27T12:18:20Z</time>
      </trkpt>
      <trkpt lat="42.83291" lon="1.59588">
        <ele>533</ele>
        <time>2020-07-27T12:18:25Z</time>
      </trkpt>
      <trkpt lat="42.83322" lon="1.59633">
        <ele>522</ele>
        <time>2020-07-27T12:18:33Z</time>
      </trkpt>
      <trkpt lat="42.83329" lon="1.59651">
        <ele>520</ele>
        <time>2020-07-27T12:18:36Z</time>
      </trkpt>
      <trkpt lat="42.83345" lon="1.59717">
        <ele>519</ele>
        <time>2020-07-27T12:18:45Z</time>
      </trkpt>
      <trkpt lat="42.83364" lon="1.5981">
        <ele>514</ele>
        <time>2020-07-27T12:18:58Z</time>
      </trkpt>
      <trkpt lat="42.83371" lon="1.59836">
        <ele>513</ele>
        <time>2020-07-27T12:19:01Z</time>
      </trkpt>
      <trkpt lat="42.83381" lon="1.59865">
        <ele>511</ele>
        <time>2020-07-27T12:19:05Z</time>
      </trkpt>
      <trkpt lat="42.83471" lon="1.60048">
        <ele>504</ele>
        <time>2020-07-27T12:19:34Z</time>
      </trkpt>
      <trkpt lat="42.835" lon="1.60094">
        <ele>505</ele>
        <time>2020-07-27T12:19:42Z</time>
      </trkpt>
      <trkpt lat="42.83527" lon="1.60125">
        <ele>506</ele>
        <time>2020-07-27T12:19:48Z</time>
      </trkpt>
      <trkpt lat="42.83607" lon="1.60204">
        <ele>500</ele>
        <time>2020-07-27T12:20:06Z</time>
      </trkpt>
      <trkpt lat="42.83627" lon="1.6023">
        <ele>498</ele>
        <time>2020-07-27T12:20:11Z</time>
      </trkpt>
      <trkpt lat="42.83726" lon="1.60374">
        <ele>492</ele>
        <time>2020-07-27T12:20:37Z</time>
      </trkpt>
      <trkpt lat="42.83763" lon="1.6042">
        <ele>489</ele>
        <time>2020-07-27T12:20:45Z</time>
      </trkpt>
      <trkpt lat="42.83761" lon="1.60427">
        <ele>489</ele>
        <time>2020-07-27T12:20:46Z</time>
      </trkpt>
      <trkpt lat="42.83762" lon="1.60441">
        <ele>489</ele>
        <time>2020-07-27T12:20:48Z</time>
      </trkpt>
      <trkpt lat="42.83766" lon="1.60446">
        <ele>489</ele>
        <time>2020-07-27T12:20:49Z</time>
      </trkpt>
      <trkpt lat="42.83772" lon="1.60451">
        <ele>489</ele>
        <time>2020-07-27T12:20:50Z</time>
      </trkpt>
      <trkpt lat="42.83781" lon="1.6045">
        <ele>488</ele>
        <time>2020-07-27T12:20:52Z</time>
      </trkpt>
      <trkpt lat="42.83785" lon="1.60447">
        <ele>488</ele>
        <time>2020-07-27T12:20:53Z</time>
      </trkpt>
      <trkpt lat="42.83788" lon="1.60441">
        <ele>488</ele>
        <time>2020-07-27T12:20:54Z</time>
      </trkpt>
      <trkpt lat="42.8379" lon="1.60433">
        <ele>488</ele>
        <time>2020-07-27T12:20:55Z</time>
      </trkpt>
      <trkpt lat="42.83789" lon="1.60424">
        <ele>488</ele>
        <time>2020-07-27T12:20:56Z</time>
      </trkpt>
      <trkpt lat="42.83784" lon="1.60415">
        <ele>488</ele>
        <time>2020-07-27T12:20:58Z</time>
      </trkpt>
      <trkpt lat="42.838" lon="1.60385">
        <ele>488</ele>
        <time>2020-07-27T12:21:02Z</time>
      </trkpt>
      <trkpt lat="42.8389" lon="1.60293">
        <ele>485</ele>
        <time>2020-07-27T12:21:22Z</time>
      </trkpt>
      <trkpt lat="42.83922" lon="1.60281">
        <ele>485</ele>
        <time>2020-07-27T12:21:28Z</time>
      </trkpt>
      <trkpt lat="42.83966" lon="1.6027">
        <ele>484</ele>
        <time>2020-07-27T12:21:36Z</time>
      </trkpt>
      <trkpt lat="42.84063" lon="1.60255">
        <ele>482</ele>
        <time>2020-07-27T12:21:54Z</time>
      </trkpt>
      <trkpt lat="42.84315" lon="1.60206">
        <ele>480</ele>
        <time>2020-07-27T12:22:39Z</time>
      </trkpt>
      <trkpt lat="42.84356" lon="1.602">
        <ele>479</ele>
        <time>2020-07-27T12:22:46Z</time>
      </trkpt>
      <trkpt lat="42.84411" lon="1.60185">
        <ele>479</ele>
        <time>2020-07-27T12:22:56Z</time>
      </trkpt>
      <trkpt lat="42.84469" lon="1.60157">
        <ele>479</ele>
        <time>2020-07-27T12:23:07Z</time>
      </trkpt>
      <trkpt lat="42.84488" lon="1.60142">
        <ele>479</ele>
        <time>2020-07-27T12:23:11Z</time>
      </trkpt>
      <trkpt lat="42.84501" lon="1.60124">
        <ele>479</ele>
        <time>2020-07-27T12:23:14Z</time>
      </trkpt>
      <trkpt lat="42.84512" lon="1.60105">
        <ele>479</ele>
        <time>2020-07-27T12:23:18Z</time>
      </trkpt>
      <trkpt lat="42.84516" lon="1.60108">
        <ele>479</ele>
        <time>2020-07-27T12:23:18Z</time>
      </trkpt>
      <trkpt lat="42.84524" lon="1.60109">
        <ele>479</ele>
        <time>2020-07-27T12:23:20Z</time>
      </trkpt>
      <trkpt lat="42.84526" lon="1.60108">
        <ele>479</ele>
        <time>2020-07-27T12:23:20Z</time>
      </trkpt>
      <trkpt lat="42.8453" lon="1.60104">
        <ele>479</ele>
        <time>2020-07-27T12:23:21Z</time>
      </trkpt>
      <trkpt lat="42.84533" lon="1.60093">
        <ele>479</ele>
        <time>2020-07-27T12:23:23Z</time>
      </trkpt>
      <trkpt lat="42.84533" lon="1.60089">
        <ele>479</ele>
        <time>2020-07-27T12:23:23Z</time>
      </trkpt>
      <trkpt lat="42.8456" lon="1.60078">
        <ele>479</ele>
        <time>2020-07-27T12:23:28Z</time>
      </trkpt>
      <trkpt lat="42.84581" lon="1.60063">
        <ele>478</ele>
        <time>2020-07-27T12:23:32Z</time>
      </trkpt>
      <trkpt lat="42.84608" lon="1.60041">
        <ele>477</ele>
        <time>2020-07-27T12:23:38Z</time>
      </trkpt>
      <trkpt lat="42.84666" lon="1.60006">
        <ele>474</ele>
        <time>2020-07-27T12:23:49Z</time>
      </trkpt>
      <trkpt lat="42.84712" lon="1.5999">
        <ele>475</ele>
        <time>2020-07-27T12:23:58Z</time>
      </trkpt>
      <trkpt lat="42.84746" lon="1.59982">
        <ele>475</ele>
        <time>2020-07-27T12:24:04Z</time>
      </trkpt>
      <trkpt lat="42.84893" lon="1.59962">
        <ele>483</ele>
        <time>2020-07-27T12:24:30Z</time>
      </trkpt>
      <trkpt lat="42.84942" lon="1.59953">
        <ele>483</ele>
        <time>2020-07-27T12:24:39Z</time>
      </trkpt>
      <trkpt lat="42.84993" lon="1.59936">
        <ele>477</ele>
        <time>2020-07-27T12:24:48Z</time>
      </trkpt>
      <trkpt lat="42.85002" lon="1.5993">
        <ele>476</ele>
        <time>2020-07-27T12:24:50Z</time>
      </trkpt>
      <trkpt lat="42.85005" lon="1.59933">
        <ele>476</ele>
        <time>2020-07-27T12:24:51Z</time>
      </trkpt>
      <trkpt lat="42.85013" lon="1.59933">
        <ele>476</ele>
        <time>2020-07-27T12:24:52Z</time>
      </trkpt>
      <trkpt lat="42.85016" lon="1.5993">
        <ele>476</ele>
        <time>2020-07-27T12:24:53Z</time>
      </trkpt>
      <trkpt lat="42.85019" lon="1.59921">
        <ele>476</ele>
        <time>2020-07-27T12:24:54Z</time>
      </trkpt>
      <trkpt lat="42.85016" lon="1.59912">
        <ele>477</ele>
        <time>2020-07-27T12:24:55Z</time>
      </trkpt>
      <trkpt lat="42.85013" lon="1.59909">
        <ele>477</ele>
        <time>2020-07-27T12:24:56Z</time>
      </trkpt>
      <trkpt lat="42.85021" lon="1.59875">
        <ele>477</ele>
        <time>2020-07-27T12:25:01Z</time>
      </trkpt>
      <trkpt lat="42.85043" lon="1.59805">
        <ele>477</ele>
        <time>2020-07-27T12:25:11Z</time>
      </trkpt>
      <trkpt lat="42.85214" lon="1.59318">
        <ele>492</ele>
        <time>2020-07-27T12:26:21Z</time>
      </trkpt>
      <trkpt lat="42.85238" lon="1.59244">
        <ele>490</ele>
        <time>2020-07-27T12:26:32Z</time>
      </trkpt>
      <trkpt lat="42.85257" lon="1.59199">
        <ele>490</ele>
        <time>2020-07-27T12:26:38Z</time>
      </trkpt>
      <trkpt lat="42.85265" lon="1.59185">
        <ele>491</ele>
        <time>2020-07-27T12:26:41Z</time>
      </trkpt>
      <trkpt lat="42.85278" lon="1.59167">
        <ele>491</ele>
        <time>2020-07-27T12:26:44Z</time>
      </trkpt>
      <trkpt lat="42.85297" lon="1.59164">
        <ele>491</ele>
        <time>2020-07-27T12:26:47Z</time>
      </trkpt>
      <trkpt lat="42.85312" lon="1.59155">
        <ele>491</ele>
        <time>2020-07-27T12:26:50Z</time>
      </trkpt>
      <trkpt lat="42.85325" lon="1.59133">
        <ele>492</ele>
        <time>2020-07-27T12:26:54Z</time>
      </trkpt>
      <trkpt lat="42.8533" lon="1.59116">
        <ele>492</ele>
        <time>2020-07-27T12:26:56Z</time>
      </trkpt>
      <trkpt lat="42.85331" lon="1.59098">
        <ele>493</ele>
        <time>2020-07-27T12:26:59Z</time>
      </trkpt>
      <trkpt lat="42.8533" lon="1.59086">
        <ele>493</ele>
        <time>2020-07-27T12:27:00Z</time>
      </trkpt>
      <trkpt lat="42.85327" lon="1.59072">
        <ele>493</ele>
        <time>2020-07-27T12:27:02Z</time>
      </trkpt>
      <trkpt lat="42.85319" lon="1.59058">
        <ele>493</ele>
        <time>2020-07-27T12:27:05Z</time>
      </trkpt>
      <trkpt lat="42.85307" lon="1.59044">
        <ele>493</ele>
        <time>2020-07-27T12:27:07Z</time>
      </trkpt>
      <trkpt lat="42.85306" lon="1.59022">
        <ele>493</ele>
        <time>2020-07-27T12:27:10Z</time>
      </trkpt>
      <trkpt lat="42.85308" lon="1.59007">
        <ele>492</ele>
        <time>2020-07-27T12:27:12Z</time>
      </trkpt>
      <trkpt lat="42.85344" lon="1.58932">
        <ele>494</ele>
        <time>2020-07-27T12:27:24Z</time>
      </trkpt>
      <trkpt lat="42.85385" lon="1.58815">
        <ele>499</ele>
        <time>2020-07-27T12:27:41Z</time>
      </trkpt>
      <trkpt lat="42.85413" lon="1.58724">
        <ele>500</ele>
        <time>2020-07-27T12:27:54Z</time>
      </trkpt>
      <trkpt lat="42.85437" lon="1.58661">
        <ele>501</ele>
        <time>2020-07-27T12:28:03Z</time>
      </trkpt>
      <trkpt lat="42.85467" lon="1.58599">
        <ele>502</ele>
        <time>2020-07-27T12:28:13Z</time>
      </trkpt>
      <trkpt lat="42.8553" lon="1.58503">
        <ele>503</ele>
        <time>2020-07-27T12:28:29Z</time>
      </trkpt>
      <trkpt lat="42.85576" lon="1.58444">
        <ele>503</ele>
        <time>2020-07-27T12:28:41Z</time>
      </trkpt>
      <trkpt lat="42.85587" lon="1.58433">
        <ele>503</ele>
        <time>2020-07-27T12:28:43Z</time>
      </trkpt>
      <trkpt lat="42.85596" lon="1.58428">
        <ele>503</ele>
        <time>2020-07-27T12:28:45Z</time>
      </trkpt>
      <trkpt lat="42.85619" lon="1.5842">
        <ele>504</ele>
        <time>2020-07-27T12:28:49Z</time>
      </trkpt>
      <trkpt lat="42.85636" lon="1.58404">
        <ele>504</ele>
        <time>2020-07-27T12:28:53Z</time>
      </trkpt>
      <trkpt lat="42.85649" lon="1.58386">
        <ele>505</ele>
        <time>2020-07-27T12:28:56Z</time>
      </trkpt>
      <trkpt lat="42.85666" lon="1.58349">
        <ele>506</ele>
        <time>2020-07-27T12:29:02Z</time>
      </trkpt>
      <trkpt lat="42.85675" lon="1.58334">
        <ele>507</ele>
        <time>2020-07-27T12:29:04Z</time>
      </trkpt>
      <trkpt lat="42.85684" lon="1.58325">
        <ele>508</ele>
        <time>2020-07-27T12:29:06Z</time>
      </trkpt>
      <trkpt lat="42.85706" lon="1.58313">
        <ele>510</ele>
        <time>2020-07-27T12:29:10Z</time>
      </trkpt>
      <trkpt lat="42.85742" lon="1.58307">
        <ele>514</ele>
        <time>2020-07-27T12:29:17Z</time>
      </trkpt>
      <trkpt lat="42.85761" lon="1.58293">
        <ele>517</ele>
        <time>2020-07-27T12:29:21Z</time>
      </trkpt>
      <trkpt lat="42.85769" lon="1.58281">
        <ele>518</ele>
        <time>2020-07-27T12:29:23Z</time>
      </trkpt>
      <trkpt lat="42.85784" lon="1.58233">
        <ele>520</ele>
        <time>2020-07-27T12:29:30Z</time>
      </trkpt>
      <trkpt lat="42.85818" lon="1.58141">
        <ele>526</ele>
        <time>2020-07-27T12:29:43Z</time>
      </trkpt>
      <trkpt lat="42.85852" lon="1.58062">
        <ele>531</ele>
        <time>2020-07-27T12:29:55Z</time>
      </trkpt>
      <trkpt lat="42.85858" lon="1.5804">
        <ele>534</ele>
        <time>2020-07-27T12:29:58Z</time>
      </trkpt>
      <trkpt lat="42.85862" lon="1.58017">
        <ele>536</ele>
        <time>2020-07-27T12:30:01Z</time>
      </trkpt>
      <trkpt lat="42.85864" lon="1.57945">
        <ele>540</ele>
        <time>2020-07-27T12:30:11Z</time>
      </trkpt>
      <trkpt lat="42.85875" lon="1.57837">
        <ele>545</ele>
        <time>2020-07-27T12:30:25Z</time>
      </trkpt>
      <trkpt lat="42.85874" lon="1.57819">
        <ele>545</ele>
        <time>2020-07-27T12:30:27Z</time>
      </trkpt>
      <trkpt lat="42.85871" lon="1.57802">
        <ele>545</ele>
        <time>2020-07-27T12:30:29Z</time>
      </trkpt>
      <trkpt lat="42.85857" lon="1.5777">
        <ele>544</ele>
        <time>2020-07-27T12:30:34Z</time>
      </trkpt>
      <trkpt lat="42.85854" lon="1.57752">
        <ele>544</ele>
        <time>2020-07-27T12:30:37Z</time>
      </trkpt>
      <trkpt lat="42.85854" lon="1.57736">
        <ele>544</ele>
        <time>2020-07-27T12:30:39Z</time>
      </trkpt>
      <trkpt lat="42.85859" lon="1.57718">
        <ele>545</ele>
        <time>2020-07-27T12:30:41Z</time>
      </trkpt>
      <trkpt lat="42.8589" lon="1.57659">
        <ele>549</ele>
        <time>2020-07-27T12:30:51Z</time>
      </trkpt>
      <trkpt lat="42.85902" lon="1.5764">
        <ele>551</ele>
        <time>2020-07-27T12:30:54Z</time>
      </trkpt>
      <trkpt lat="42.85913" lon="1.57631">
        <ele>552</ele>
        <time>2020-07-27T12:30:56Z</time>
      </trkpt>
      <trkpt lat="42.85987" lon="1.57598">
        <ele>554</ele>
        <time>2020-07-27T12:31:10Z</time>
      </trkpt>
      <trkpt lat="42.86015" lon="1.57582">
        <ele>556</ele>
        <time>2020-07-27T12:31:16Z</time>
      </trkpt>
      <trkpt lat="42.86037" lon="1.57567">
        <ele>558</ele>
        <time>2020-07-27T12:31:20Z</time>
      </trkpt>
      <trkpt lat="42.8606" lon="1.57542">
        <ele>560</ele>
        <time>2020-07-27T12:31:25Z</time>
      </trkpt>
      <trkpt lat="42.8608" lon="1.57518">
        <ele>562</ele>
        <time>2020-07-27T12:31:30Z</time>
      </trkpt>
      <trkpt lat="42.86103" lon="1.57482">
        <ele>564</ele>
        <time>2020-07-27T12:31:36Z</time>
      </trkpt>
      <trkpt lat="42.8616" lon="1.57389">
        <ele>567</ele>
        <time>2020-07-27T12:31:52Z</time>
      </trkpt>
      <trkpt lat="42.86181" lon="1.57328">
        <ele>570</ele>
        <time>2020-07-27T12:32:01Z</time>
      </trkpt>
      <trkpt lat="42.86195" lon="1.57291">
        <ele>571</ele>
        <time>2020-07-27T12:32:06Z</time>
      </trkpt>
      <trkpt lat="42.86222" lon="1.5726">
        <ele>576</ele>
        <time>2020-07-27T12:32:13Z</time>
      </trkpt>
      <trkpt lat="42.86257" lon="1.57229">
        <ele>582</ele>
        <time>2020-07-27T12:32:20Z</time>
      </trkpt>
      <trkpt lat="42.86271" lon="1.57212">
        <ele>584</ele>
        <time>2020-07-27T12:32:23Z</time>
      </trkpt>
      <trkpt lat="42.86284" lon="1.57196">
        <ele>585</ele>
        <time>2020-07-27T12:32:26Z</time>
      </trkpt>
      <trkpt lat="42.86322" lon="1.57138">
        <ele>583</ele>
        <time>2020-07-27T12:32:37Z</time>
      </trkpt>
      <trkpt lat="42.86352" lon="1.57097">
        <ele>583</ele>
        <time>2020-07-27T12:32:44Z</time>
      </trkpt>
      <trkpt lat="42.86381" lon="1.57065">
        <ele>586</ele>
        <time>2020-07-27T12:32:51Z</time>
      </trkpt>
      <trkpt lat="42.86476" lon="1.56999">
        <ele>589</ele>
        <time>2020-07-27T12:33:10Z</time>
      </trkpt>
      <trkpt lat="42.86552" lon="1.56969">
        <ele>599</ele>
        <time>2020-07-27T12:33:24Z</time>
      </trkpt>
      <trkpt lat="42.86586" lon="1.56947">
        <ele>600</ele>
        <time>2020-07-27T12:33:30Z</time>
      </trkpt>
      <trkpt lat="42.86638" lon="1.56921">
        <ele>603</ele>
        <time>2020-07-27T12:33:40Z</time>
      </trkpt>
      <trkpt lat="42.86749" lon="1.56841">
        <ele>605</ele>
        <time>2020-07-27T12:34:03Z</time>
      </trkpt>
      <trkpt lat="42.86767" lon="1.56832">
        <ele>604</ele>
        <time>2020-07-27T12:34:06Z</time>
      </trkpt>
      <trkpt lat="42.86796" lon="1.56826">
        <ele>607</ele>
        <time>2020-07-27T12:34:11Z</time>
      </trkpt>
      <trkpt lat="42.86844" lon="1.56829">
        <ele>615</ele>
        <time>2020-07-27T12:34:20Z</time>
      </trkpt>
      <trkpt lat="42.86865" lon="1.56827">
        <ele>617</ele>
        <time>2020-07-27T12:34:24Z</time>
      </trkpt>
      <trkpt lat="42.86976" lon="1.56799">
        <ele>630</ele>
        <time>2020-07-27T12:34:44Z</time>
      </trkpt>
      <trkpt lat="42.86985" lon="1.56795">
        <ele>630</ele>
        <time>2020-07-27T12:34:45Z</time>
      </trkpt>
      <trkpt lat="42.8702" lon="1.56769">
        <ele>625</ele>
        <time>2020-07-27T12:34:52Z</time>
      </trkpt>
      <trkpt lat="42.87069" lon="1.56763">
        <ele>631</ele>
        <time>2020-07-27T12:35:01Z</time>
      </trkpt>
      <trkpt lat="42.8708" lon="1.56758">
        <ele>632</ele>
        <time>2020-07-27T12:35:03Z</time>
      </trkpt>
      <trkpt lat="42.87097" lon="1.56743">
        <ele>632</ele>
        <time>2020-07-27T12:35:07Z</time>
      </trkpt>
      <trkpt lat="42.87105" lon="1.56731">
        <ele>633</ele>
        <time>2020-07-27T12:35:09Z</time>
      </trkpt>
      <trkpt lat="42.87111" lon="1.56716">
        <ele>633</ele>
        <time>2020-07-27T12:35:11Z</time>
      </trkpt>
      <trkpt lat="42.87117" lon="1.56699">
        <ele>633</ele>
        <time>2020-07-27T12:35:14Z</time>
      </trkpt>
      <trkpt lat="42.87154" lon="1.56538">
        <ele>641</ele>
        <time>2020-07-27T12:35:36Z</time>
      </trkpt>
      <trkpt lat="42.87163" lon="1.5652">
        <ele>642</ele>
        <time>2020-07-27T12:35:38Z</time>
      </trkpt>
      <trkpt lat="42.87186" lon="1.56499">
        <ele>643</ele>
        <time>2020-07-27T12:35:43Z</time>
      </trkpt>
      <trkpt lat="42.87228" lon="1.56471">
        <ele>647</ele>
        <time>2020-07-27T12:35:52Z</time>
      </trkpt>
      <trkpt lat="42.87319" lon="1.56404">
        <ele>646</ele>
        <time>2020-07-27T12:36:10Z</time>
      </trkpt>
      <trkpt lat="42.87333" lon="1.56384">
        <ele>646</ele>
        <time>2020-07-27T12:36:14Z</time>
      </trkpt>
      <trkpt lat="42.87354" lon="1.56337">
        <ele>646</ele>
        <time>2020-07-27T12:36:21Z</time>
      </trkpt>
      <trkpt lat="42.87368" lon="1.56283">
        <ele>647</ele>
        <time>2020-07-27T12:36:28Z</time>
      </trkpt>
      <trkpt lat="42.87392" lon="1.5622">
        <ele>648</ele>
        <time>2020-07-27T12:36:38Z</time>
      </trkpt>
      <trkpt lat="42.87404" lon="1.56195">
        <ele>649</ele>
        <time>2020-07-27T12:36:42Z</time>
      </trkpt>
      <trkpt lat="42.87456" lon="1.56107">
        <ele>655</ele>
        <time>2020-07-27T12:36:56Z</time>
      </trkpt>
      <trkpt lat="42.87476" lon="1.56041">
        <ele>662</ele>
        <time>2020-07-27T12:37:06Z</time>
      </trkpt>
      <trkpt lat="42.87492" lon="1.55968">
        <ele>665</ele>
        <time>2020-07-27T12:37:16Z</time>
      </trkpt>
      <trkpt lat="42.87501" lon="1.55919">
        <ele>665</ele>
        <time>2020-07-27T12:37:22Z</time>
      </trkpt>
      <trkpt lat="42.87501" lon="1.55869">
        <ele>663</ele>
        <time>2020-07-27T12:37:29Z</time>
      </trkpt>
      <trkpt lat="42.8749" lon="1.55699">
        <ele>658</ele>
        <time>2020-07-27T12:37:51Z</time>
      </trkpt>
      <trkpt lat="42.87502" lon="1.55599">
        <ele>657</ele>
        <time>2020-07-27T12:38:04Z</time>
      </trkpt>
      <trkpt lat="42.87514" lon="1.55512">
        <ele>655</ele>
        <time>2020-07-27T12:38:16Z</time>
      </trkpt>
      <trkpt lat="42.87522" lon="1.55491">
        <ele>652</ele>
        <time>2020-07-27T12:38:19Z</time>
      </trkpt>
      <trkpt lat="42.8753" lon="1.5545">
        <ele>647</ele>
        <time>2020-07-27T12:38:24Z</time>
      </trkpt>
      <trkpt lat="42.87518" lon="1.55334">
        <ele>644</ele>
        <time>2020-07-27T12:38:40Z</time>
      </trkpt>
      <trkpt lat="42.87522" lon="1.55293">
        <ele>643</ele>
        <time>2020-07-27T12:38:45Z</time>
      </trkpt>
      <trkpt lat="42.87536" lon="1.55179">
        <ele>639</ele>
        <time>2020-07-27T12:39:00Z</time>
      </trkpt>
      <trkpt lat="42.87547" lon="1.5507">
        <ele>635</ele>
        <time>2020-07-27T12:39:14Z</time>
      </trkpt>
      <trkpt lat="42.87554" lon="1.55049">
        <ele>634</ele>
        <time>2020-07-27T12:39:17Z</time>
      </trkpt>
      <trkpt lat="42.87566" lon="1.55033">
        <ele>632</ele>
        <time>2020-07-27T12:39:20Z</time>
      </trkpt>
      <trkpt lat="42.87606" lon="1.55001">
        <ele>628</ele>
        <time>2020-07-27T12:39:29Z</time>
      </trkpt>
      <trkpt lat="42.87624" lon="1.54988">
        <ele>628</ele>
        <time>2020-07-27T12:39:32Z</time>
      </trkpt>
      <trkpt lat="42.87697" lon="1.54946">
        <ele>629</ele>
        <time>2020-07-27T12:39:46Z</time>
      </trkpt>
      <trkpt lat="42.87738" lon="1.54902">
        <ele>633</ele>
        <time>2020-07-27T12:39:56Z</time>
      </trkpt>
      <trkpt lat="42.87769" lon="1.5486">
        <ele>638</ele>
        <time>2020-07-27T12:40:03Z</time>
      </trkpt>
      <trkpt lat="42.87802" lon="1.54792">
        <ele>643</ele>
        <time>2020-07-27T12:40:14Z</time>
      </trkpt>
      <trkpt lat="42.87848" lon="1.5474">
        <ele>648</ele>
        <time>2020-07-27T12:40:25Z</time>
      </trkpt>
      <trkpt lat="42.87886" lon="1.5469">
        <ele>651</ele>
        <time>2020-07-27T12:40:34Z</time>
      </trkpt>
      <trkpt lat="42.87929" lon="1.54666">
        <ele>653</ele>
        <time>2020-07-27T12:40:42Z</time>
      </trkpt>
      <trkpt lat="42.87962" lon="1.54644">
        <ele>655</ele>
        <time>2020-07-27T12:40:49Z</time>
      </trkpt>
      <trkpt lat="42.87985" lon="1.5461">
        <ele>658</ele>
        <time>2020-07-27T12:40:55Z</time>
      </trkpt>
      <trkpt lat="42.87998" lon="1.54575">
        <ele>659</ele>
        <time>2020-07-27T12:41:00Z</time>
      </trkpt>
      <trkpt lat="42.88004" lon="1.54535">
        <ele>661</ele>
        <time>2020-07-27T12:41:05Z</time>
      </trkpt>
      <trkpt lat="42.88005" lon="1.54467">
        <ele>664</ele>
        <time>2020-07-27T12:41:14Z</time>
      </trkpt>
      <trkpt lat="42.87998" lon="1.5441">
        <ele>665</ele>
        <time>2020-07-27T12:41:22Z</time>
      </trkpt>
      <trkpt lat="42.87988" lon="1.54373">
        <ele>669</ele>
        <time>2020-07-27T12:41:27Z</time>
      </trkpt>
      <trkpt lat="42.87974" lon="1.54341">
        <ele>671</ele>
        <time>2020-07-27T12:41:32Z</time>
      </trkpt>
      <trkpt lat="42.87921" lon="1.54258">
        <ele>672</ele>
        <time>2020-07-27T12:41:46Z</time>
      </trkpt>
      <trkpt lat="42.87905" lon="1.54222">
        <ele>673</ele>
        <time>2020-07-27T12:41:52Z</time>
      </trkpt>
      <trkpt lat="42.8789" lon="1.54181">
        <ele>674</ele>
        <time>2020-07-27T12:41:58Z</time>
      </trkpt>
      <trkpt lat="42.87878" lon="1.54133">
        <ele>674</ele>
        <time>2020-07-27T12:42:04Z</time>
      </trkpt>
      <trkpt lat="42.87829" lon="1.53879">
        <ele>672</ele>
        <time>2020-07-27T12:42:38Z</time>
      </trkpt>
      <trkpt lat="42.87825" lon="1.53845">
        <ele>672</ele>
        <time>2020-07-27T12:42:43Z</time>
      </trkpt>
      <trkpt lat="42.87823" lon="1.53783">
        <ele>673</ele>
        <time>2020-07-27T12:42:51Z</time>
      </trkpt>
      <trkpt lat="42.87828" lon="1.53475">
        <ele>676</ele>
        <time>2020-07-27T12:43:31Z</time>
      </trkpt>
      <trkpt lat="42.87833" lon="1.53425">
        <ele>677</ele>
        <time>2020-07-27T12:43:38Z</time>
      </trkpt>
      <trkpt lat="42.87853" lon="1.53295">
        <ele>683</ele>
        <time>2020-07-27T12:43:55Z</time>
      </trkpt>
      <trkpt lat="42.8786" lon="1.53235">
        <ele>685</ele>
        <time>2020-07-27T12:44:03Z</time>
      </trkpt>
      <trkpt lat="42.87858" lon="1.5319">
        <ele>685</ele>
        <time>2020-07-27T12:44:09Z</time>
      </trkpt>
      <trkpt lat="42.87851" lon="1.53143">
        <ele>685</ele>
        <time>2020-07-27T12:44:15Z</time>
      </trkpt>
      <trkpt lat="42.87807" lon="1.52932">
        <ele>682</ele>
        <time>2020-07-27T12:44:44Z</time>
      </trkpt>
      <trkpt lat="42.87804" lon="1.52899">
        <ele>681</ele>
        <time>2020-07-27T12:44:48Z</time>
      </trkpt>
      <trkpt lat="42.87803" lon="1.52867">
        <ele>681</ele>
        <time>2020-07-27T12:44:52Z</time>
      </trkpt>
      <trkpt lat="42.8781" lon="1.5281">
        <ele>681</ele>
        <time>2020-07-27T12:45:00Z</time>
      </trkpt>
      <trkpt lat="42.87821" lon="1.5275">
        <ele>682</ele>
        <time>2020-07-27T12:45:08Z</time>
      </trkpt>
      <trkpt lat="42.87841" lon="1.52649">
        <ele>686</ele>
        <time>2020-07-27T12:45:21Z</time>
      </trkpt>
      <trkpt lat="42.87968" lon="1.51993">
        <ele>711</ele>
        <time>2020-07-27T12:46:50Z</time>
      </trkpt>
      <trkpt lat="42.87981" lon="1.51863">
        <ele>713</ele>
        <time>2020-07-27T12:47:07Z</time>
      </trkpt>
      <trkpt lat="42.87989" lon="1.51833">
        <ele>714</ele>
        <time>2020-07-27T12:47:11Z</time>
      </trkpt>
      <trkpt lat="42.87999" lon="1.51815">
        <ele>715</ele>
        <time>2020-07-27T12:47:14Z</time>
      </trkpt>
      <trkpt lat="42.88026" lon="1.51777">
        <ele>721</ele>
        <time>2020-07-27T12:47:21Z</time>
      </trkpt>
      <trkpt lat="42.88039" lon="1.51755">
        <ele>724</ele>
        <time>2020-07-27T12:47:25Z</time>
      </trkpt>
      <trkpt lat="42.88042" lon="1.51739">
        <ele>725</ele>
        <time>2020-07-27T12:47:27Z</time>
      </trkpt>
      <trkpt lat="42.88041" lon="1.5172">
        <ele>725</ele>
        <time>2020-07-27T12:47:29Z</time>
      </trkpt>
      <trkpt lat="42.88037" lon="1.51692">
        <ele>726</ele>
        <time>2020-07-27T12:47:33Z</time>
      </trkpt>
      <trkpt lat="42.88031" lon="1.51676">
        <ele>725</ele>
        <time>2020-07-27T12:47:35Z</time>
      </trkpt>
      <trkpt lat="42.88019" lon="1.51653">
        <ele>724</ele>
        <time>2020-07-27T12:47:39Z</time>
      </trkpt>
      <trkpt lat="42.88009" lon="1.51617">
        <ele>725</ele>
        <time>2020-07-27T12:47:44Z</time>
      </trkpt>
      <trkpt lat="42.88005" lon="1.5158">
        <ele>727</ele>
        <time>2020-07-27T12:47:49Z</time>
      </trkpt>
      <trkpt lat="42.88004" lon="1.51491">
        <ele>734</ele>
        <time>2020-07-27T12:48:01Z</time>
      </trkpt>
      <trkpt lat="42.88007" lon="1.51459">
        <ele>736</ele>
        <time>2020-07-27T12:48:05Z</time>
      </trkpt>
      <trkpt lat="42.88024" lon="1.51424">
        <ele>743</ele>
        <time>2020-07-27T12:48:10Z</time>
      </trkpt>
      <trkpt lat="42.88047" lon="1.51354">
        <ele>750</ele>
        <time>2020-07-27T12:48:20Z</time>
      </trkpt>
      <trkpt lat="42.88059" lon="1.51321">
        <ele>753</ele>
        <time>2020-07-27T12:48:25Z</time>
      </trkpt>
      <trkpt lat="42.88063" lon="1.51289">
        <ele>754</ele>
        <time>2020-07-27T12:48:29Z</time>
      </trkpt>
      <trkpt lat="42.88068" lon="1.51204">
        <ele>754</ele>
        <time>2020-07-27T12:48:40Z</time>
      </trkpt>
      <trkpt lat="42.88072" lon="1.51177">
        <ele>755</ele>
        <time>2020-07-27T12:48:44Z</time>
      </trkpt>
      <trkpt lat="42.88081" lon="1.51142">
        <ele>757</ele>
        <time>2020-07-27T12:48:49Z</time>
      </trkpt>
      <trkpt lat="42.88084" lon="1.51113">
        <ele>759</ele>
        <time>2020-07-27T12:48:53Z</time>
      </trkpt>
      <trkpt lat="42.8808" lon="1.51045">
        <ele>762</ele>
        <time>2020-07-27T12:49:02Z</time>
      </trkpt>
      <trkpt lat="42.88081" lon="1.51009">
        <ele>765</ele>
        <time>2020-07-27T12:49:06Z</time>
      </trkpt>
      <trkpt lat="42.8809" lon="1.50938">
        <ele>774</ele>
        <time>2020-07-27T12:49:16Z</time>
      </trkpt>
      <trkpt lat="42.88091" lon="1.50908">
        <ele>777</ele>
        <time>2020-07-27T12:49:20Z</time>
      </trkpt>
      <trkpt lat="42.88085" lon="1.50875">
        <ele>778</ele>
        <time>2020-07-27T12:49:24Z</time>
      </trkpt>
      <trkpt lat="42.8807" lon="1.50811">
        <ele>781</ele>
        <time>2020-07-27T12:49:33Z</time>
      </trkpt>
      <trkpt lat="42.88064" lon="1.50775">
        <ele>782</ele>
        <time>2020-07-27T12:49:38Z</time>
      </trkpt>
      <trkpt lat="42.88059" lon="1.50701">
        <ele>787</ele>
        <time>2020-07-27T12:49:47Z</time>
      </trkpt>
      <trkpt lat="42.88065" lon="1.50587">
        <ele>797</ele>
        <time>2020-07-27T12:50:02Z</time>
      </trkpt>
      <trkpt lat="42.88064" lon="1.50577">
        <ele>798</ele>
        <time>2020-07-27T12:50:03Z</time>
      </trkpt>
      <trkpt lat="42.88062" lon="1.50567">
        <ele>798</ele>
        <time>2020-07-27T12:50:05Z</time>
      </trkpt>
      <trkpt lat="42.88041" lon="1.50527">
        <ele>798</ele>
        <time>2020-07-27T12:50:11Z</time>
      </trkpt>
      <trkpt lat="42.8804" lon="1.50517">
        <ele>798</ele>
        <time>2020-07-27T12:50:13Z</time>
      </trkpt>
      <trkpt lat="42.88042" lon="1.50507">
        <ele>799</ele>
        <time>2020-07-27T12:50:14Z</time>
      </trkpt>
      <trkpt lat="42.88057" lon="1.50459">
        <ele>803</ele>
        <time>2020-07-27T12:50:21Z</time>
      </trkpt>
      <trkpt lat="42.88071" lon="1.5043">
        <ele>806</ele>
        <time>2020-07-27T12:50:25Z</time>
      </trkpt>
      <trkpt lat="42.88084" lon="1.50409">
        <ele>807</ele>
        <time>2020-07-27T12:50:29Z</time>
      </trkpt>
      <trkpt lat="42.88099" lon="1.50392">
        <ele>810</ele>
        <time>2020-07-27T12:50:32Z</time>
      </trkpt>
      <trkpt lat="42.88127" lon="1.50366">
        <ele>813</ele>
        <time>2020-07-27T12:50:38Z</time>
      </trkpt>
      <trkpt lat="42.88196" lon="1.50312">
        <ele>822</ele>
        <time>2020-07-27T12:50:52Z</time>
      </trkpt>
      <trkpt lat="42.88213" lon="1.50295">
        <ele>824</ele>
        <time>2020-07-27T12:50:56Z</time>
      </trkpt>
      <trkpt lat="42.88225" lon="1.50277">
        <ele>823</ele>
        <time>2020-07-27T12:50:59Z</time>
      </trkpt>
      <trkpt lat="42.88234" lon="1.50261">
        <ele>822</ele>
        <time>2020-07-27T12:51:02Z</time>
      </trkpt>
      <trkpt lat="42.88255" lon="1.50214">
        <ele>827</ele>
        <time>2020-07-27T12:51:09Z</time>
      </trkpt>
      <trkpt lat="42.88257" lon="1.50204">
        <ele>829</ele>
        <time>2020-07-27T12:51:11Z</time>
      </trkpt>
      <trkpt lat="42.88255" lon="1.50183">
        <ele>831</ele>
        <time>2020-07-27T12:51:13Z</time>
      </trkpt>
      <trkpt lat="42.88251" lon="1.50177">
        <ele>831</ele>
        <time>2020-07-27T12:51:14Z</time>
      </trkpt>
      <trkpt lat="42.88245" lon="1.50175">
        <ele>831</ele>
        <time>2020-07-27T12:51:15Z</time>
      </trkpt>
      <trkpt lat="42.88231" lon="1.50178">
        <ele>831</ele>
        <time>2020-07-27T12:51:18Z</time>
      </trkpt>
      <trkpt lat="42.88215" lon="1.50186">
        <ele>829</ele>
        <time>2020-07-27T12:51:21Z</time>
      </trkpt>
      <trkpt lat="42.88195" lon="1.50192">
        <ele>828</ele>
        <time>2020-07-27T12:51:25Z</time>
      </trkpt>
      <trkpt lat="42.88174" lon="1.50192">
        <ele>828</ele>
        <time>2020-07-27T12:51:28Z</time>
      </trkpt>
      <trkpt lat="42.88087" lon="1.50128">
        <ele>839</ele>
        <time>2020-07-27T12:51:46Z</time>
      </trkpt>
      <trkpt lat="42.88063" lon="1.50122">
        <ele>839</ele>
        <time>2020-07-27T12:51:50Z</time>
      </trkpt>
      <trkpt lat="42.88045" lon="1.50113">
        <ele>840</ele>
        <time>2020-07-27T12:51:54Z</time>
      </trkpt>
      <trkpt lat="42.88029" lon="1.50095">
        <ele>843</ele>
        <time>2020-07-27T12:51:57Z</time>
      </trkpt>
      <trkpt lat="42.87984" lon="1.50018">
        <ele>856</ele>
        <time>2020-07-27T12:52:10Z</time>
      </trkpt>
      <trkpt lat="42.87974" lon="1.49996">
        <ele>862</ele>
        <time>2020-07-27T12:52:14Z</time>
      </trkpt>
      <trkpt lat="42.87973" lon="1.49981">
        <ele>865</ele>
        <time>2020-07-27T12:52:16Z</time>
      </trkpt>
      <trkpt lat="42.87976" lon="1.49971">
        <ele>865</ele>
        <time>2020-07-27T12:52:17Z</time>
      </trkpt>
      <trkpt lat="42.87984" lon="1.49969">
        <ele>864</ele>
        <time>2020-07-27T12:52:18Z</time>
      </trkpt>
      <trkpt lat="42.88021" lon="1.50003">
        <ele>857</ele>
        <time>2020-07-27T12:52:26Z</time>
      </trkpt>
      <trkpt lat="42.8807" lon="1.50056">
        <ele>855</ele>
        <time>2020-07-27T12:52:38Z</time>
      </trkpt>
      <trkpt lat="42.88087" lon="1.5006">
        <ele>856</ele>
        <time>2020-07-27T12:52:41Z</time>
      </trkpt>
      <trkpt lat="42.88102" lon="1.50061">
        <ele>857</ele>
        <time>2020-07-27T12:52:43Z</time>
      </trkpt>
      <trkpt lat="42.88121" lon="1.50058">
        <ele>859</ele>
        <time>2020-07-27T12:52:47Z</time>
      </trkpt>
      <trkpt lat="42.8814" lon="1.50049">
        <ele>862</ele>
        <time>2020-07-27T12:52:50Z</time>
      </trkpt>
      <trkpt lat="42.88162" lon="1.5003">
        <ele>869</ele>
        <time>2020-07-27T12:52:55Z</time>
      </trkpt>
      <trkpt lat="42.88179" lon="1.50012">
        <ele>874</ele>
        <time>2020-07-27T12:52:59Z</time>
      </trkpt>
      <trkpt lat="42.88197" lon="1.49998">
        <ele>877</ele>
        <time>2020-07-27T12:53:02Z</time>
      </trkpt>
      <trkpt lat="42.8822" lon="1.49987">
        <ele>881</ele>
        <time>2020-07-27T12:53:07Z</time>
      </trkpt>
      <trkpt lat="42.88248" lon="1.49982">
        <ele>882</ele>
        <time>2020-07-27T12:53:12Z</time>
      </trkpt>
      <trkpt lat="42.88273" lon="1.49975">
        <ele>883</ele>
        <time>2020-07-27T12:53:16Z</time>
      </trkpt>
      <trkpt lat="42.88298" lon="1.49958">
        <ele>885</ele>
        <time>2020-07-27T12:53:21Z</time>
      </trkpt>
      <trkpt lat="42.88324" lon="1.49927">
        <ele>890</ele>
        <time>2020-07-27T12:53:27Z</time>
      </trkpt>
      <trkpt lat="42.88353" lon="1.49883">
        <ele>894</ele>
        <time>2020-07-27T12:53:35Z</time>
      </trkpt>
      <trkpt lat="42.88371" lon="1.49846">
        <ele>897</ele>
        <time>2020-07-27T12:53:41Z</time>
      </trkpt>
      <trkpt lat="42.88389" lon="1.49798">
        <ele>900</ele>
        <time>2020-07-27T12:53:48Z</time>
      </trkpt>
      <trkpt lat="42.884" lon="1.49743">
        <ele>904</ele>
        <time>2020-07-27T12:53:55Z</time>
      </trkpt>
      <trkpt lat="42.88404" lon="1.49709">
        <ele>906</ele>
        <time>2020-07-27T12:54:00Z</time>
      </trkpt>
      <trkpt lat="42.88402" lon="1.49692">
        <ele>908</ele>
        <time>2020-07-27T12:54:02Z</time>
      </trkpt>
      <trkpt lat="42.88395" lon="1.49667">
        <ele>913</ele>
        <time>2020-07-27T12:54:06Z</time>
      </trkpt>
      <trkpt lat="42.88378" lon="1.49633">
        <ele>919</ele>
        <time>2020-07-27T12:54:11Z</time>
      </trkpt>
      <trkpt lat="42.88358" lon="1.49608">
        <ele>923</ele>
        <time>2020-07-27T12:54:16Z</time>
      </trkpt>
      <trkpt lat="42.88352" lon="1.49592">
        <ele>924</ele>
        <time>2020-07-27T12:54:18Z</time>
      </trkpt>
      <trkpt lat="42.88352" lon="1.49585">
        <ele>923</ele>
        <time>2020-07-27T12:54:19Z</time>
      </trkpt>
      <trkpt lat="42.88363" lon="1.49569">
        <ele>922</ele>
        <time>2020-07-27T12:54:22Z</time>
      </trkpt>
      <trkpt lat="42.88371" lon="1.49566">
        <ele>921</ele>
        <time>2020-07-27T12:54:23Z</time>
      </trkpt>
      <trkpt lat="42.88397" lon="1.49567">
        <ele>918</ele>
        <time>2020-07-27T12:54:28Z</time>
      </trkpt>
      <trkpt lat="42.88453" lon="1.49558">
        <ele>919</ele>
        <time>2020-07-27T12:54:38Z</time>
      </trkpt>
      <trkpt lat="42.88507" lon="1.49552">
        <ele>924</ele>
        <time>2020-07-27T12:54:48Z</time>
      </trkpt>
      <trkpt lat="42.88517" lon="1.49555">
        <ele>926</ele>
        <time>2020-07-27T12:54:50Z</time>
      </trkpt>
      <trkpt lat="42.88527" lon="1.49561">
        <ele>926</ele>
        <time>2020-07-27T12:54:51Z</time>
      </trkpt>
      <trkpt lat="42.88553" lon="1.49589">
        <ele>928</ele>
        <time>2020-07-27T12:54:57Z</time>
      </trkpt>
      <trkpt lat="42.88562" lon="1.49596">
        <ele>930</ele>
        <time>2020-07-27T12:54:59Z</time>
      </trkpt>
      <trkpt lat="42.88571" lon="1.49596">
        <ele>931</ele>
        <time>2020-07-27T12:55:01Z</time>
      </trkpt>
      <trkpt lat="42.88583" lon="1.49589">
        <ele>934</ele>
        <time>2020-07-27T12:55:03Z</time>
      </trkpt>
      <trkpt lat="42.88607" lon="1.49525">
        <ele>943</ele>
        <time>2020-07-27T12:55:13Z</time>
      </trkpt>
      <trkpt lat="42.88614" lon="1.49515">
        <ele>945</ele>
        <time>2020-07-27T12:55:14Z</time>
      </trkpt>
      <trkpt lat="42.88648" lon="1.49491">
        <ele>947</ele>
        <time>2020-07-27T12:55:21Z</time>
      </trkpt>
      <trkpt lat="42.88657" lon="1.49478">
        <ele>948</ele>
        <time>2020-07-27T12:55:23Z</time>
      </trkpt>
      <trkpt lat="42.88689" lon="1.49417">
        <ele>951</ele>
        <time>2020-07-27T12:55:33Z</time>
      </trkpt>
      <trkpt lat="42.88693" lon="1.49406">
        <ele>952</ele>
        <time>2020-07-27T12:55:35Z</time>
      </trkpt>
      <trkpt lat="42.88697" lon="1.49383">
        <ele>953</ele>
        <time>2020-07-27T12:55:38Z</time>
      </trkpt>
      <trkpt lat="42.88699" lon="1.49359">
        <ele>954</ele>
        <time>2020-07-27T12:55:41Z</time>
      </trkpt>
      <trkpt lat="42.88702" lon="1.49339">
        <ele>955</ele>
        <time>2020-07-27T12:55:44Z</time>
      </trkpt>
      <trkpt lat="42.88738" lon="1.49262">
        <ele>962</ele>
        <time>2020-07-27T12:55:56Z</time>
      </trkpt>
      <trkpt lat="42.88743" lon="1.49235">
        <ele>963</ele>
        <time>2020-07-27T12:55:59Z</time>
      </trkpt>
      <trkpt lat="42.88741" lon="1.49183">
        <ele>963</ele>
        <time>2020-07-27T12:56:06Z</time>
      </trkpt>
      <trkpt lat="42.88749" lon="1.4912">
        <ele>965</ele>
        <time>2020-07-27T12:56:14Z</time>
      </trkpt>
      <trkpt lat="42.88749" lon="1.49094">
        <ele>966</ele>
        <time>2020-07-27T12:56:18Z</time>
      </trkpt>
      <trkpt lat="42.88741" lon="1.49054">
        <ele>965</ele>
        <time>2020-07-27T12:56:23Z</time>
      </trkpt>
      <trkpt lat="42.88741" lon="1.49008">
        <ele>968</ele>
        <time>2020-07-27T12:56:29Z</time>
      </trkpt>
      <trkpt lat="42.88772" lon="1.48885">
        <ele>974</ele>
        <time>2020-07-27T12:56:46Z</time>
      </trkpt>
      <trkpt lat="42.88777" lon="1.48877">
        <ele>975</ele>
        <time>2020-07-27T12:56:48Z</time>
      </trkpt>
      <trkpt lat="42.88824" lon="1.4883">
        <ele>983</ele>
        <time>2020-07-27T12:56:58Z</time>
      </trkpt>
      <trkpt lat="42.88843" lon="1.48806">
        <ele>987</ele>
        <time>2020-07-27T12:57:02Z</time>
      </trkpt>
      <trkpt lat="42.88883" lon="1.48747">
        <ele>993</ele>
        <time>2020-07-27T12:57:13Z</time>
      </trkpt>
      <trkpt lat="42.88899" lon="1.48726">
        <ele>996</ele>
        <time>2020-07-27T12:57:17Z</time>
      </trkpt>
      <trkpt lat="42.88904" lon="1.48718">
        <ele>997</ele>
        <time>2020-07-27T12:57:18Z</time>
      </trkpt>
      <trkpt lat="42.88907" lon="1.48705">
        <ele>997</ele>
        <time>2020-07-27T12:57:20Z</time>
      </trkpt>
      <trkpt lat="42.88909" lon="1.48691">
        <ele>997</ele>
        <time>2020-07-27T12:57:22Z</time>
      </trkpt>
      <trkpt lat="42.88908" lon="1.48663">
        <ele>995</ele>
        <time>2020-07-27T12:57:26Z</time>
      </trkpt>
      <trkpt lat="42.8891" lon="1.48644">
        <ele>995</ele>
        <time>2020-07-27T12:57:28Z</time>
      </trkpt>
      <trkpt lat="42.88913" lon="1.4863">
        <ele>996</ele>
        <time>2020-07-27T12:57:30Z</time>
      </trkpt>
      <trkpt lat="42.8892" lon="1.48619">
        <ele>998</ele>
        <time>2020-07-27T12:57:32Z</time>
      </trkpt>
      <trkpt lat="42.88953" lon="1.48579">
        <ele>1003</ele>
        <time>2020-07-27T12:57:40Z</time>
      </trkpt>
      <trkpt lat="42.88979" lon="1.48524">
        <ele>1005</ele>
        <time>2020-07-27T12:57:48Z</time>
      </trkpt>
      <trkpt lat="42.8899" lon="1.48511">
        <ele>1006</ele>
        <time>2020-07-27T12:57:51Z</time>
      </trkpt>
      <trkpt lat="42.88999" lon="1.48504">
        <ele>1007</ele>
        <time>2020-07-27T12:57:53Z</time>
      </trkpt>
      <trkpt lat="42.8901" lon="1.48501">
        <ele>1010</ele>
        <time>2020-07-27T12:57:55Z</time>
      </trkpt>
      <trkpt lat="42.89036" lon="1.48501">
        <ele>1017</ele>
        <time>2020-07-27T12:57:59Z</time>
      </trkpt>
      <trkpt lat="42.89041" lon="1.48497">
        <ele>1018</ele>
        <time>2020-07-27T12:58:00Z</time>
      </trkpt>
      <trkpt lat="42.89045" lon="1.48491">
        <ele>1019</ele>
        <time>2020-07-27T12:58:01Z</time>
      </trkpt>
      <trkpt lat="42.89048" lon="1.48482">
        <ele>1019</ele>
        <time>2020-07-27T12:58:03Z</time>
      </trkpt>
      <trkpt lat="42.89061" lon="1.48386">
        <ele>1021</ele>
        <time>2020-07-27T12:58:15Z</time>
      </trkpt>
      <trkpt lat="42.8906" lon="1.48334">
        <ele>1021</ele>
        <time>2020-07-27T12:58:22Z</time>
      </trkpt>
      <trkpt lat="42.89062" lon="1.48315">
        <ele>1022</ele>
        <time>2020-07-27T12:58:25Z</time>
      </trkpt>
      <trkpt lat="42.89069" lon="1.48282">
        <ele>1023</ele>
        <time>2020-07-27T12:58:29Z</time>
      </trkpt>
      <trkpt lat="42.89079" lon="1.48252">
        <ele>1026</ele>
        <time>2020-07-27T12:58:33Z</time>
      </trkpt>
      <trkpt lat="42.89092" lon="1.48225">
        <ele>1028</ele>
        <time>2020-07-27T12:58:38Z</time>
      </trkpt>
      <trkpt lat="42.89107" lon="1.48198">
        <ele>1030</ele>
        <time>2020-07-27T12:58:42Z</time>
      </trkpt>
      <trkpt lat="42.89118" lon="1.48183">
        <ele>1031</ele>
        <time>2020-07-27T12:58:45Z</time>
      </trkpt>
      <trkpt lat="42.8913" lon="1.48172">
        <ele>1033</ele>
        <time>2020-07-27T12:58:47Z</time>
      </trkpt>
      <trkpt lat="42.89146" lon="1.48164">
        <ele>1036</ele>
        <time>2020-07-27T12:58:50Z</time>
      </trkpt>
      <trkpt lat="42.89185" lon="1.48158">
        <ele>1043</ele>
        <time>2020-07-27T12:58:57Z</time>
      </trkpt>
      <trkpt lat="42.8919" lon="1.48156">
        <ele>1044</ele>
        <time>2020-07-27T12:58:58Z</time>
      </trkpt>
      <trkpt lat="42.89198" lon="1.48144">
        <ele>1045</ele>
        <time>2020-07-27T12:59:01Z</time>
      </trkpt>
      <trkpt lat="42.89222" lon="1.48092">
        <ele>1048</ele>
        <time>2020-07-27T12:59:09Z</time>
      </trkpt>
      <trkpt lat="42.89237" lon="1.48064">
        <ele>1049</ele>
        <time>2020-07-27T12:59:13Z</time>
      </trkpt>
      <trkpt lat="42.89257" lon="1.48033">
        <ele>1050</ele>
        <time>2020-07-27T12:59:18Z</time>
      </trkpt>
      <trkpt lat="42.89267" lon="1.48022">
        <ele>1051</ele>
        <time>2020-07-27T12:59:21Z</time>
      </trkpt>
      <trkpt lat="42.89287" lon="1.4801">
        <ele>1054</ele>
        <time>2020-07-27T12:59:25Z</time>
      </trkpt>
      <trkpt lat="42.89329" lon="1.47991">
        <ele>1061</ele>
        <time>2020-07-27T12:59:32Z</time>
      </trkpt>
      <trkpt lat="42.89342" lon="1.47982">
        <ele>1063</ele>
        <time>2020-07-27T12:59:35Z</time>
      </trkpt>
      <trkpt lat="42.89349" lon="1.47975">
        <ele>1065</ele>
        <time>2020-07-27T12:59:37Z</time>
      </trkpt>
      <trkpt lat="42.89354" lon="1.47964">
        <ele>1066</ele>
        <time>2020-07-27T12:59:38Z</time>
      </trkpt>
      <trkpt lat="42.89356" lon="1.47949">
        <ele>1066</ele>
        <time>2020-07-27T12:59:40Z</time>
      </trkpt>
      <trkpt lat="42.89354" lon="1.47885">
        <ele>1066</ele>
        <time>2020-07-27T12:59:49Z</time>
      </trkpt>
      <trkpt lat="42.89351" lon="1.47849">
        <ele>1067</ele>
        <time>2020-07-27T12:59:53Z</time>
      </trkpt>
      <trkpt lat="42.89352" lon="1.47817">
        <ele>1068</ele>
        <time>2020-07-27T12:59:58Z</time>
      </trkpt>
      <trkpt lat="42.8936" lon="1.4777">
        <ele>1072</ele>
        <time>2020-07-27T13:00:04Z</time>
      </trkpt>
      <trkpt lat="42.89376" lon="1.47632">
        <ele>1077</ele>
        <time>2020-07-27T13:00:22Z</time>
      </trkpt>
      <trkpt lat="42.89383" lon="1.4761">
        <ele>1079</ele>
        <time>2020-07-27T13:00:25Z</time>
      </trkpt>
      <trkpt lat="42.89396" lon="1.47592">
        <ele>1082</ele>
        <time>2020-07-27T13:00:28Z</time>
      </trkpt>
      <trkpt lat="42.89416" lon="1.47573">
        <ele>1086</ele>
        <time>2020-07-27T13:00:33Z</time>
      </trkpt>
      <trkpt lat="42.89456" lon="1.47546">
        <ele>1093</ele>
        <time>2020-07-27T13:00:41Z</time>
      </trkpt>
      <trkpt lat="42.89472" lon="1.4753">
        <ele>1096</ele>
        <time>2020-07-27T13:00:44Z</time>
      </trkpt>
      <trkpt lat="42.89475" lon="1.47522">
        <ele>1097</ele>
        <time>2020-07-27T13:00:45Z</time>
      </trkpt>
      <trkpt lat="42.89481" lon="1.47491">
        <ele>1097</ele>
        <time>2020-07-27T13:00:50Z</time>
      </trkpt>
      <trkpt lat="42.89489" lon="1.47458">
        <ele>1100</ele>
        <time>2020-07-27T13:00:54Z</time>
      </trkpt>
      <trkpt lat="42.89493" lon="1.47424">
        <ele>1101</ele>
        <time>2020-07-27T13:00:59Z</time>
      </trkpt>
      <trkpt lat="42.8949" lon="1.47387">
        <ele>1102</ele>
        <time>2020-07-27T13:01:03Z</time>
      </trkpt>
      <trkpt lat="42.8949" lon="1.47349">
        <ele>1105</ele>
        <time>2020-07-27T13:01:08Z</time>
      </trkpt>
      <trkpt lat="42.89492" lon="1.47315">
        <ele>1107</ele>
        <time>2020-07-27T13:01:13Z</time>
      </trkpt>
      <trkpt lat="42.89498" lon="1.47276">
        <ele>1109</ele>
        <time>2020-07-27T13:01:18Z</time>
      </trkpt>
      <trkpt lat="42.89556" lon="1.47147">
        <ele>1120</ele>
        <time>2020-07-27T13:01:38Z</time>
      </trkpt>
      <trkpt lat="42.89566" lon="1.47116">
        <ele>1123</ele>
        <time>2020-07-27T13:01:42Z</time>
      </trkpt>
      <trkpt lat="42.89568" lon="1.47084">
        <ele>1124</ele>
        <time>2020-07-27T13:01:46Z</time>
      </trkpt>
      <trkpt lat="42.89556" lon="1.46969">
        <ele>1125</ele>
        <time>2020-07-27T13:02:02Z</time>
      </trkpt>
      <trkpt lat="42.89554" lon="1.46893">
        <ele>1125</ele>
        <time>2020-07-27T13:02:11Z</time>
      </trkpt>
      <trkpt lat="42.89556" lon="1.46848">
        <ele>1126</ele>
        <time>2020-07-27T13:02:17Z</time>
      </trkpt>
      <trkpt lat="42.89562" lon="1.46822">
        <ele>1128</ele>
        <time>2020-07-27T13:02:21Z</time>
      </trkpt>
      <trkpt lat="42.89573" lon="1.46789">
        <ele>1130</ele>
        <time>2020-07-27T13:02:26Z</time>
      </trkpt>
      <trkpt lat="42.89589" lon="1.46758">
        <ele>1134</ele>
        <time>2020-07-27T13:02:31Z</time>
      </trkpt>
      <trkpt lat="42.89597" lon="1.46732">
        <ele>1137</ele>
        <time>2020-07-27T13:02:34Z</time>
      </trkpt>
      <trkpt lat="42.89601" lon="1.46653">
        <ele>1136</ele>
        <time>2020-07-27T13:02:45Z</time>
      </trkpt>
      <trkpt lat="42.89623" lon="1.46535">
        <ele>1140</ele>
        <time>2020-07-27T13:03:00Z</time>
      </trkpt>
      <trkpt lat="42.89634" lon="1.4649">
        <ele>1142</ele>
        <time>2020-07-27T13:03:07Z</time>
      </trkpt>
      <trkpt lat="42.8965" lon="1.46452">
        <ele>1143</ele>
        <time>2020-07-27T13:03:12Z</time>
      </trkpt>
      <trkpt lat="42.89674" lon="1.46417">
        <ele>1146</ele>
        <time>2020-07-27T13:03:19Z</time>
      </trkpt>
      <trkpt lat="42.8968" lon="1.46403">
        <ele>1147</ele>
        <time>2020-07-27T13:03:21Z</time>
      </trkpt>
      <trkpt lat="42.89692" lon="1.46343">
        <ele>1148</ele>
        <time>2020-07-27T13:03:29Z</time>
      </trkpt>
      <trkpt lat="42.89706" lon="1.4629">
        <ele>1153</ele>
        <time>2020-07-27T13:03:36Z</time>
      </trkpt>
      <trkpt lat="42.89705" lon="1.46273">
        <ele>1154</ele>
        <time>2020-07-27T13:03:38Z</time>
      </trkpt>
      <trkpt lat="42.89701" lon="1.46256">
        <ele>1153</ele>
        <time>2020-07-27T13:03:41Z</time>
      </trkpt>
      <trkpt lat="42.89693" lon="1.46234">
        <ele>1152</ele>
        <time>2020-07-27T13:03:44Z</time>
      </trkpt>
      <trkpt lat="42.89682" lon="1.46215">
        <ele>1150</ele>
        <time>2020-07-27T13:03:47Z</time>
      </trkpt>
      <trkpt lat="42.89676" lon="1.462">
        <ele>1149</ele>
        <time>2020-07-27T13:03:49Z</time>
      </trkpt>
      <trkpt lat="42.89675" lon="1.46189">
        <ele>1150</ele>
        <time>2020-07-27T13:03:51Z</time>
      </trkpt>
      <trkpt lat="42.89678" lon="1.4618">
        <ele>1152</ele>
        <time>2020-07-27T13:03:52Z</time>
      </trkpt>
      <trkpt lat="42.89684" lon="1.46173">
        <ele>1155</ele>
        <time>2020-07-27T13:03:53Z</time>
      </trkpt>
      <trkpt lat="42.89693" lon="1.46172">
        <ele>1158</ele>
        <time>2020-07-27T13:03:55Z</time>
      </trkpt>
      <trkpt lat="42.89701" lon="1.46176">
        <ele>1160</ele>
        <time>2020-07-27T13:03:57Z</time>
      </trkpt>
      <trkpt lat="42.8971" lon="1.46192">
        <ele>1162</ele>
        <time>2020-07-27T13:03:59Z</time>
      </trkpt>
      <trkpt lat="42.89714" lon="1.46213">
        <ele>1161</ele>
        <time>2020-07-27T13:04:02Z</time>
      </trkpt>
      <trkpt lat="42.89722" lon="1.46291">
        <ele>1159</ele>
        <time>2020-07-27T13:04:12Z</time>
      </trkpt>
      <trkpt lat="42.89722" lon="1.46323">
        <ele>1157</ele>
        <time>2020-07-27T13:04:16Z</time>
      </trkpt>
      <trkpt lat="42.89713" lon="1.46392">
        <ele>1157</ele>
        <time>2020-07-27T13:04:26Z</time>
      </trkpt>
      <trkpt lat="42.89705" lon="1.46428">
        <ele>1157</ele>
        <time>2020-07-27T13:04:30Z</time>
      </trkpt>
      <trkpt lat="42.89683" lon="1.46495">
        <ele>1157</ele>
        <time>2020-07-27T13:04:40Z</time>
      </trkpt>
      <trkpt lat="42.89678" lon="1.46529">
        <ele>1159</ele>
        <time>2020-07-27T13:04:45Z</time>
      </trkpt>
      <trkpt lat="42.89676" lon="1.46644">
        <ele>1167</ele>
        <time>2020-07-27T13:05:00Z</time>
      </trkpt>
      <trkpt lat="42.89665" lon="1.46735">
        <ele>1168</ele>
        <time>2020-07-27T13:05:12Z</time>
      </trkpt>
      <trkpt lat="42.89651" lon="1.46827">
        <ele>1164</ele>
        <time>2020-07-27T13:05:24Z</time>
      </trkpt>
      <trkpt lat="42.89651" lon="1.46837">
        <ele>1164</ele>
        <time>2020-07-27T13:05:25Z</time>
      </trkpt>
      <trkpt lat="42.89653" lon="1.46845">
        <ele>1164</ele>
        <time>2020-07-27T13:05:26Z</time>
      </trkpt>
      <trkpt lat="42.89673" lon="1.46871">
        <ele>1171</ele>
        <time>2020-07-27T13:05:31Z</time>
      </trkpt>
      <trkpt lat="42.89688" lon="1.4691">
        <ele>1174</ele>
        <time>2020-07-27T13:05:37Z</time>
      </trkpt>
      <trkpt lat="42.89693" lon="1.46919">
        <ele>1175</ele>
        <time>2020-07-27T13:05:38Z</time>
      </trkpt>
      <trkpt lat="42.89699" lon="1.46922">
        <ele>1177</ele>
        <time>2020-07-27T13:05:39Z</time>
      </trkpt>
      <trkpt lat="42.89705" lon="1.46922">
        <ele>1179</ele>
        <time>2020-07-27T13:05:41Z</time>
      </trkpt>
      <trkpt lat="42.89717" lon="1.46918">
        <ele>1181</ele>
        <time>2020-07-27T13:05:43Z</time>
      </trkpt>
      <trkpt lat="42.89725" lon="1.4691">
        <ele>1183</ele>
        <time>2020-07-27T13:05:45Z</time>
      </trkpt>
      <trkpt lat="42.89734" lon="1.46893">
        <ele>1185</ele>
        <time>2020-07-27T13:05:47Z</time>
      </trkpt>
      <trkpt lat="42.89734" lon="1.46885">
        <ele>1185</ele>
        <time>2020-07-27T13:05:48Z</time>
      </trkpt>
      <trkpt lat="42.89732" lon="1.46876">
        <ele>1185</ele>
        <time>2020-07-27T13:05:50Z</time>
      </trkpt>
      <trkpt lat="42.89724" lon="1.46861">
        <ele>1183</ele>
        <time>2020-07-27T13:05:52Z</time>
      </trkpt>
      <trkpt lat="42.89708" lon="1.46844">
        <ele>1180</ele>
        <time>2020-07-27T13:05:56Z</time>
      </trkpt>
      <trkpt lat="42.89701" lon="1.46841">
        <ele>1178</ele>
        <time>2020-07-27T13:05:57Z</time>
      </trkpt>
      <trkpt lat="42.8968" lon="1.46839">
        <ele>1173</ele>
        <time>2020-07-27T13:06:01Z</time>
      </trkpt>
      <trkpt lat="42.89674" lon="1.46836">
        <ele>1172</ele>
        <time>2020-07-27T13:06:02Z</time>
      </trkpt>
      <trkpt lat="42.89671" lon="1.46831">
        <ele>1171</ele>
        <time>2020-07-27T13:06:03Z</time>
      </trkpt>
      <trkpt lat="42.8967" lon="1.46824">
        <ele>1171</ele>
        <time>2020-07-27T13:06:04Z</time>
      </trkpt>
      <trkpt lat="42.89671" lon="1.46813">
        <ele>1171</ele>
        <time>2020-07-27T13:06:05Z</time>
      </trkpt>
      <trkpt lat="42.89684" lon="1.46761">
        <ele>1177</ele>
        <time>2020-07-27T13:06:12Z</time>
      </trkpt>
      <trkpt lat="42.89711" lon="1.46682">
        <ele>1186</ele>
        <time>2020-07-27T13:06:23Z</time>
      </trkpt>
      <trkpt lat="42.89735" lon="1.46606">
        <ele>1190</ele>
        <time>2020-07-27T13:06:34Z</time>
      </trkpt>
      <trkpt lat="42.89748" lon="1.46573">
        <ele>1191</ele>
        <time>2020-07-27T13:06:39Z</time>
      </trkpt>
      <trkpt lat="42.89828" lon="1.46413">
        <ele>1199</ele>
        <time>2020-07-27T13:07:04Z</time>
      </trkpt>
      <trkpt lat="42.89855" lon="1.46367">
        <ele>1207</ele>
        <time>2020-07-27T13:07:12Z</time>
      </trkpt>
      <trkpt lat="42.89858" lon="1.46351">
        <ele>1207</ele>
        <time>2020-07-27T13:07:14Z</time>
      </trkpt>
      <trkpt lat="42.89858" lon="1.46333">
        <ele>1206</ele>
        <time>2020-07-27T13:07:17Z</time>
      </trkpt>
      <trkpt lat="42.89854" lon="1.46311">
        <ele>1208</ele>
        <time>2020-07-27T13:07:20Z</time>
      </trkpt>
      <trkpt lat="42.89833" lon="1.46249">
        <ele>1206</ele>
        <time>2020-07-27T13:07:28Z</time>
      </trkpt>
      <trkpt lat="42.89825" lon="1.46217">
        <ele>1207</ele>
        <time>2020-07-27T13:07:33Z</time>
      </trkpt>
      <trkpt lat="42.89814" lon="1.4619">
        <ele>1206</ele>
        <time>2020-07-27T13:07:37Z</time>
      </trkpt>
      <trkpt lat="42.89805" lon="1.46158">
        <ele>1205</ele>
        <time>2020-07-27T13:07:41Z</time>
      </trkpt>
      <trkpt lat="42.89794" lon="1.46104">
        <ele>1201</ele>
        <time>2020-07-27T13:07:49Z</time>
      </trkpt>
      <trkpt lat="42.89794" lon="1.46086">
        <ele>1201</ele>
        <time>2020-07-27T13:07:51Z</time>
      </trkpt>
      <trkpt lat="42.89799" lon="1.4607">
        <ele>1202</ele>
        <time>2020-07-27T13:07:53Z</time>
      </trkpt>
      <trkpt lat="42.89809" lon="1.46059">
        <ele>1206</ele>
        <time>2020-07-27T13:07:56Z</time>
      </trkpt>
      <trkpt lat="42.89833" lon="1.4605">
        <ele>1215</ele>
        <time>2020-07-27T13:08:00Z</time>
      </trkpt>
      <trkpt lat="42.89845" lon="1.46042">
        <ele>1218</ele>
        <time>2020-07-27T13:08:02Z</time>
      </trkpt>
      <trkpt lat="42.89848" lon="1.46031">
        <ele>1219</ele>
        <time>2020-07-27T13:08:04Z</time>
      </trkpt>
      <trkpt lat="42.89846" lon="1.4602">
        <ele>1218</ele>
        <time>2020-07-27T13:08:05Z</time>
      </trkpt>
      <trkpt lat="42.89843" lon="1.46012">
        <ele>1217</ele>
        <time>2020-07-27T13:08:07Z</time>
      </trkpt>
      <trkpt lat="42.89832" lon="1.46001">
        <ele>1213</ele>
        <time>2020-07-27T13:08:09Z</time>
      </trkpt>
      <trkpt lat="42.89823" lon="1.45989">
        <ele>1209</ele>
        <time>2020-07-27T13:08:11Z</time>
      </trkpt>
      <trkpt lat="42.89818" lon="1.45972">
        <ele>1205</ele>
        <time>2020-07-27T13:08:14Z</time>
      </trkpt>
      <trkpt lat="42.8982" lon="1.45951">
        <ele>1205</ele>
        <time>2020-07-27T13:08:16Z</time>
      </trkpt>
      <trkpt lat="42.89824" lon="1.45938">
        <ele>1205</ele>
        <time>2020-07-27T13:08:18Z</time>
      </trkpt>
      <trkpt lat="42.89832" lon="1.45929">
        <ele>1208</ele>
        <time>2020-07-27T13:08:20Z</time>
      </trkpt>
      <trkpt lat="42.89852" lon="1.45926">
        <ele>1213</ele>
        <time>2020-07-27T13:08:24Z</time>
      </trkpt>
      <trkpt lat="42.89865" lon="1.45926">
        <ele>1217</ele>
        <time>2020-07-27T13:08:26Z</time>
      </trkpt>
      <trkpt lat="42.89879" lon="1.45922">
        <ele>1221</ele>
        <time>2020-07-27T13:08:28Z</time>
      </trkpt>
      <trkpt lat="42.89888" lon="1.45915">
        <ele>1223</ele>
        <time>2020-07-27T13:08:30Z</time>
      </trkpt>
      <trkpt lat="42.89897" lon="1.459">
        <ele>1226</ele>
        <time>2020-07-27T13:08:33Z</time>
      </trkpt>
      <trkpt lat="42.89903" lon="1.45883">
        <ele>1229</ele>
        <time>2020-07-27T13:08:35Z</time>
      </trkpt>
      <trkpt lat="42.89904" lon="1.45863">
        <ele>1229</ele>
        <time>2020-07-27T13:08:38Z</time>
      </trkpt>
      <trkpt lat="42.89902" lon="1.45844">
        <ele>1229</ele>
        <time>2020-07-27T13:08:40Z</time>
      </trkpt>
      <trkpt lat="42.89895" lon="1.45832">
        <ele>1227</ele>
        <time>2020-07-27T13:08:42Z</time>
      </trkpt>
      <trkpt lat="42.89868" lon="1.45817">
        <ele>1220</ele>
        <time>2020-07-27T13:08:48Z</time>
      </trkpt>
      <trkpt lat="42.8986" lon="1.45808">
        <ele>1218</ele>
        <time>2020-07-27T13:08:49Z</time>
      </trkpt>
      <trkpt lat="42.89856" lon="1.45796">
        <ele>1218</ele>
        <time>2020-07-27T13:08:51Z</time>
      </trkpt>
      <trkpt lat="42.89858" lon="1.45783">
        <ele>1220</ele>
        <time>2020-07-27T13:08:53Z</time>
      </trkpt>
      <trkpt lat="42.8987" lon="1.45741">
        <ele>1229</ele>
        <time>2020-07-27T13:08:59Z</time>
      </trkpt>
      <trkpt lat="42.89895" lon="1.45674">
        <ele>1238</ele>
        <time>2020-07-27T13:09:09Z</time>
      </trkpt>
      <trkpt lat="42.89908" lon="1.45643">
        <ele>1241</ele>
        <time>2020-07-27T13:09:13Z</time>
      </trkpt>
      <trkpt lat="42.89915" lon="1.45615">
        <ele>1242</ele>
        <time>2020-07-27T13:09:17Z</time>
      </trkpt>
      <trkpt lat="42.8992" lon="1.45543">
        <ele>1243</ele>
        <time>2020-07-27T13:09:27Z</time>
      </trkpt>
      <trkpt lat="42.89924" lon="1.4541">
        <ele>1247</ele>
        <time>2020-07-27T13:09:44Z</time>
      </trkpt>
      <trkpt lat="42.89921" lon="1.45391">
        <ele>1247</ele>
        <time>2020-07-27T13:09:46Z</time>
      </trkpt>
      <trkpt lat="42.89907" lon="1.4534">
        <ele>1248</ele>
        <time>2020-07-27T13:09:53Z</time>
      </trkpt>
      <trkpt lat="42.89902" lon="1.45314">
        <ele>1249</ele>
        <time>2020-07-27T13:09:57Z</time>
      </trkpt>
      <trkpt lat="42.89901" lon="1.45297">
        <ele>1250</ele>
        <time>2020-07-27T13:09:59Z</time>
      </trkpt>
      <trkpt lat="42.89905" lon="1.45285">
        <ele>1249</ele>
        <time>2020-07-27T13:10:01Z</time>
      </trkpt>
      <trkpt lat="42.8991" lon="1.45275">
        <ele>1249</ele>
        <time>2020-07-27T13:10:03Z</time>
      </trkpt>
      <trkpt lat="42.89923" lon="1.45263">
        <ele>1249</ele>
        <time>2020-07-27T13:10:05Z</time>
      </trkpt>
      <trkpt lat="42.89943" lon="1.45257">
        <ele>1253</ele>
        <time>2020-07-27T13:10:09Z</time>
      </trkpt>
      <trkpt lat="42.89961" lon="1.45249">
        <ele>1256</ele>
        <time>2020-07-27T13:10:12Z</time>
      </trkpt>
      <trkpt lat="42.8997" lon="1.4523">
        <ele>1256</ele>
        <time>2020-07-27T13:10:15Z</time>
      </trkpt>
      <trkpt lat="42.89984" lon="1.45156">
        <ele>1252</ele>
        <time>2020-07-27T13:10:25Z</time>
      </trkpt>
      <trkpt lat="42.89999" lon="1.4509">
        <ele>1248</ele>
        <time>2020-07-27T13:10:34Z</time>
      </trkpt>
      <trkpt lat="42.90033" lon="1.44988">
        <ele>1243</ele>
        <time>2020-07-27T13:10:49Z</time>
      </trkpt>
      <trkpt lat="42.90056" lon="1.4493">
        <ele>1243</ele>
        <time>2020-07-27T13:10:57Z</time>
      </trkpt>
      <trkpt lat="42.90059" lon="1.44918">
        <ele>1243</ele>
        <time>2020-07-27T13:10:59Z</time>
      </trkpt>
      <trkpt lat="42.9006" lon="1.44905">
        <ele>1242</ele>
        <time>2020-07-27T13:11:01Z</time>
      </trkpt>
      <trkpt lat="42.90051" lon="1.44848">
        <ele>1234</ele>
        <time>2020-07-27T13:11:08Z</time>
      </trkpt>
      <trkpt lat="42.90054" lon="1.44818">
        <ele>1233</ele>
        <time>2020-07-27T13:11:12Z</time>
      </trkpt>
      <trkpt lat="42.90061" lon="1.44784">
        <ele>1232</ele>
        <time>2020-07-27T13:11:17Z</time>
      </trkpt>
      <trkpt lat="42.90072" lon="1.4475">
        <ele>1234</ele>
        <time>2020-07-27T13:11:22Z</time>
      </trkpt>
      <trkpt lat="42.90102" lon="1.44681">
        <ele>1230</ele>
        <time>2020-07-27T13:11:32Z</time>
      </trkpt>
      <trkpt lat="42.9014" lon="1.44583">
        <ele>1224</ele>
        <time>2020-07-27T13:11:47Z</time>
      </trkpt>
      <trkpt lat="42.90149" lon="1.44566">
        <ele>1223</ele>
        <time>2020-07-27T13:11:49Z</time>
      </trkpt>
      <trkpt lat="42.90158" lon="1.44553">
        <ele>1222</ele>
        <time>2020-07-27T13:11:52Z</time>
      </trkpt>
      <trkpt lat="42.90176" lon="1.4454">
        <ele>1221</ele>
        <time>2020-07-27T13:11:55Z</time>
      </trkpt>
      <trkpt lat="42.90192" lon="1.44535">
        <ele>1220</ele>
        <time>2020-07-27T13:11:58Z</time>
      </trkpt>
      <trkpt lat="42.90243" lon="1.44527">
        <ele>1216</ele>
        <time>2020-07-27T13:12:07Z</time>
      </trkpt>
      <trkpt lat="42.90272" lon="1.44525">
        <ele>1216</ele>
        <time>2020-07-27T13:12:13Z</time>
      </trkpt>
      <trkpt lat="42.90304" lon="1.44528">
        <ele>1217</ele>
        <time>2020-07-27T13:12:18Z</time>
      </trkpt>
      <trkpt lat="42.90336" lon="1.44542">
        <ele>1220</ele>
        <time>2020-07-27T13:12:24Z</time>
      </trkpt>
      <trkpt lat="42.90342" lon="1.4454">
        <ele>1222</ele>
        <time>2020-07-27T13:12:25Z</time>
      </trkpt>
      <trkpt lat="42.90348" lon="1.44536">
        <ele>1223</ele>
        <time>2020-07-27T13:12:27Z</time>
      </trkpt>
      <trkpt lat="42.90351" lon="1.44528">
        <ele>1224</ele>
        <time>2020-07-27T13:12:28Z</time>
      </trkpt>
      <trkpt lat="42.90353" lon="1.44517">
        <ele>1223</ele>
        <time>2020-07-27T13:12:29Z</time>
      </trkpt>
      <trkpt lat="42.90354" lon="1.44501">
        <ele>1223</ele>
        <time>2020-07-27T13:12:31Z</time>
      </trkpt>
      <trkpt lat="42.90349" lon="1.44472">
        <ele>1222</ele>
        <time>2020-07-27T13:12:35Z</time>
      </trkpt>
      <trkpt lat="42.90344" lon="1.44458">
        <ele>1221</ele>
        <time>2020-07-27T13:12:37Z</time>
      </trkpt>
      <trkpt lat="42.90314" lon="1.444">
        <ele>1213</ele>
        <time>2020-07-27T13:12:46Z</time>
      </trkpt>
      <trkpt lat="42.90288" lon="1.44334">
        <ele>1205</ele>
        <time>2020-07-27T13:12:56Z</time>
      </trkpt>
      <trkpt lat="42.9028" lon="1.44301">
        <ele>1201</ele>
        <time>2020-07-27T13:13:01Z</time>
      </trkpt>
      <trkpt lat="42.90267" lon="1.44234">
        <ele>1195</ele>
        <time>2020-07-27T13:13:10Z</time>
      </trkpt>
      <trkpt lat="42.90267" lon="1.44199">
        <ele>1194</ele>
        <time>2020-07-27T13:13:14Z</time>
      </trkpt>
      <trkpt lat="42.90277" lon="1.44126">
        <ele>1191</ele>
        <time>2020-07-27T13:13:24Z</time>
      </trkpt>
      <trkpt lat="42.90283" lon="1.44094">
        <ele>1188</ele>
        <time>2020-07-27T13:13:28Z</time>
      </trkpt>
      <trkpt lat="42.90292" lon="1.44069">
        <ele>1186</ele>
        <time>2020-07-27T13:13:32Z</time>
      </trkpt>
      <trkpt lat="42.90301" lon="1.44054">
        <ele>1184</ele>
        <time>2020-07-27T13:13:35Z</time>
      </trkpt>
      <trkpt lat="42.90316" lon="1.4404">
        <ele>1184</ele>
        <time>2020-07-27T13:13:38Z</time>
      </trkpt>
      <trkpt lat="42.90327" lon="1.44035">
        <ele>1186</ele>
        <time>2020-07-27T13:13:40Z</time>
      </trkpt>
      <trkpt lat="42.90337" lon="1.44035">
        <ele>1188</ele>
        <time>2020-07-27T13:13:42Z</time>
      </trkpt>
      <trkpt lat="42.90343" lon="1.44037">
        <ele>1189</ele>
        <time>2020-07-27T13:13:43Z</time>
      </trkpt>
      <trkpt lat="42.90349" lon="1.44044">
        <ele>1192</ele>
        <time>2020-07-27T13:13:44Z</time>
      </trkpt>
      <trkpt lat="42.90358" lon="1.44066">
        <ele>1197</ele>
        <time>2020-07-27T13:13:47Z</time>
      </trkpt>
      <trkpt lat="42.90363" lon="1.44076">
        <ele>1200</ele>
        <time>2020-07-27T13:13:49Z</time>
      </trkpt>
      <trkpt lat="42.90371" lon="1.44078">
        <ele>1201</ele>
        <time>2020-07-27T13:13:50Z</time>
      </trkpt>
      <trkpt lat="42.9038" lon="1.44077">
        <ele>1202</ele>
        <time>2020-07-27T13:13:52Z</time>
      </trkpt>
      <trkpt lat="42.90385" lon="1.44072">
        <ele>1202</ele>
        <time>2020-07-27T13:13:53Z</time>
      </trkpt>
      <trkpt lat="42.90403" lon="1.44029">
        <ele>1198</ele>
        <time>2020-07-27T13:14:00Z</time>
      </trkpt>
      <trkpt lat="42.90407" lon="1.44015">
        <ele>1196</ele>
        <time>2020-07-27T13:14:02Z</time>
      </trkpt>
      <trkpt lat="42.90408" lon="1.44">
        <ele>1194</ele>
        <time>2020-07-27T13:14:03Z</time>
      </trkpt>
      <trkpt lat="42.90405" lon="1.43969">
        <ele>1191</ele>
        <time>2020-07-27T13:14:08Z</time>
      </trkpt>
      <trkpt lat="42.90387" lon="1.43899">
        <ele>1179</ele>
        <time>2020-07-27T13:14:17Z</time>
      </trkpt>
      <trkpt lat="42.90384" lon="1.43882">
        <ele>1177</ele>
        <time>2020-07-27T13:14:20Z</time>
      </trkpt>
      <trkpt lat="42.90384" lon="1.43871">
        <ele>1176</ele>
        <time>2020-07-27T13:14:21Z</time>
      </trkpt>
      <trkpt lat="42.90387" lon="1.43859">
        <ele>1176</ele>
        <time>2020-07-27T13:14:23Z</time>
      </trkpt>
      <trkpt lat="42.90393" lon="1.43849">
        <ele>1176</ele>
        <time>2020-07-27T13:14:24Z</time>
      </trkpt>
      <trkpt lat="42.90403" lon="1.43837">
        <ele>1177</ele>
        <time>2020-07-27T13:14:27Z</time>
      </trkpt>
      <trkpt lat="42.9042" lon="1.43826">
        <ele>1178</ele>
        <time>2020-07-27T13:14:30Z</time>
      </trkpt>
      <trkpt lat="42.90484" lon="1.43823">
        <ele>1184</ele>
        <time>2020-07-27T13:14:41Z</time>
      </trkpt>
      <trkpt lat="42.90502" lon="1.43818">
        <ele>1185</ele>
        <time>2020-07-27T13:14:45Z</time>
      </trkpt>
      <trkpt lat="42.90516" lon="1.43803">
        <ele>1187</ele>
        <time>2020-07-27T13:14:48Z</time>
      </trkpt>
      <trkpt lat="42.9052" lon="1.43793">
        <ele>1187</ele>
        <time>2020-07-27T13:14:49Z</time>
      </trkpt>
      <trkpt lat="42.90521" lon="1.4378">
        <ele>1185</ele>
        <time>2020-07-27T13:14:51Z</time>
      </trkpt>
      <trkpt lat="42.90521" lon="1.43766">
        <ele>1183</ele>
        <time>2020-07-27T13:14:53Z</time>
      </trkpt>
      <trkpt lat="42.90518" lon="1.43751">
        <ele>1180</ele>
        <time>2020-07-27T13:14:55Z</time>
      </trkpt>
      <trkpt lat="42.90518" lon="1.43724">
        <ele>1180</ele>
        <time>2020-07-27T13:14:58Z</time>
      </trkpt>
      <trkpt lat="42.90525" lon="1.43691">
        <ele>1183</ele>
        <time>2020-07-27T13:15:03Z</time>
      </trkpt>
      <trkpt lat="42.90525" lon="1.43681">
        <ele>1183</ele>
        <time>2020-07-27T13:15:04Z</time>
      </trkpt>
      <trkpt lat="42.9052" lon="1.43664">
        <ele>1181</ele>
        <time>2020-07-27T13:15:07Z</time>
      </trkpt>
      <trkpt lat="42.90516" lon="1.43656">
        <ele>1181</ele>
        <time>2020-07-27T13:15:08Z</time>
      </trkpt>
      <trkpt lat="42.9051" lon="1.4365">
        <ele>1180</ele>
        <time>2020-07-27T13:15:09Z</time>
      </trkpt>
      <trkpt lat="42.90483" lon="1.43634">
        <ele>1174</ele>
        <time>2020-07-27T13:15:14Z</time>
      </trkpt>
      <trkpt lat="42.90476" lon="1.43617">
        <ele>1174</ele>
        <time>2020-07-27T13:15:17Z</time>
      </trkpt>
      <trkpt lat="42.9047" lon="1.43596">
        <ele>1176</ele>
        <time>2020-07-27T13:15:20Z</time>
      </trkpt>
      <trkpt lat="42.90461" lon="1.43578">
        <ele>1175</ele>
        <time>2020-07-27T13:15:23Z</time>
      </trkpt>
      <trkpt lat="42.9043" lon="1.43546">
        <ele>1167</ele>
        <time>2020-07-27T13:15:30Z</time>
      </trkpt>
      <trkpt lat="42.90411" lon="1.43523">
        <ele>1162</ele>
        <time>2020-07-27T13:15:34Z</time>
      </trkpt>
      <trkpt lat="42.90405" lon="1.43508">
        <ele>1161</ele>
        <time>2020-07-27T13:15:36Z</time>
      </trkpt>
      <trkpt lat="42.90403" lon="1.43491">
        <ele>1160</ele>
        <time>2020-07-27T13:15:39Z</time>
      </trkpt>
      <trkpt lat="42.90404" lon="1.43473">
        <ele>1159</ele>
        <time>2020-07-27T13:15:41Z</time>
      </trkpt>
      <trkpt lat="42.90409" lon="1.43448">
        <ele>1159</ele>
        <time>2020-07-27T13:15:44Z</time>
      </trkpt>
      <trkpt lat="42.90416" lon="1.43425">
        <ele>1160</ele>
        <time>2020-07-27T13:15:48Z</time>
      </trkpt>
      <trkpt lat="42.90431" lon="1.43401">
        <ele>1161</ele>
        <time>2020-07-27T13:15:52Z</time>
      </trkpt>
      <trkpt lat="42.90459" lon="1.43365">
        <ele>1161</ele>
        <time>2020-07-27T13:15:59Z</time>
      </trkpt>
      <trkpt lat="42.90484" lon="1.43322">
        <ele>1158</ele>
        <time>2020-07-27T13:16:06Z</time>
      </trkpt>
      <trkpt lat="42.9051" lon="1.43301">
        <ele>1162</ele>
        <time>2020-07-27T13:16:11Z</time>
      </trkpt>
      <trkpt lat="42.90549" lon="1.43285">
        <ele>1175</ele>
        <time>2020-07-27T13:16:18Z</time>
      </trkpt>
      <trkpt lat="42.90553" lon="1.43272">
        <ele>1175</ele>
        <time>2020-07-27T13:16:20Z</time>
      </trkpt>
      <trkpt lat="42.90551" lon="1.43255">
        <ele>1172</ele>
        <time>2020-07-27T13:16:22Z</time>
      </trkpt>
      <trkpt lat="42.90533" lon="1.43218">
        <ele>1167</ele>
        <time>2020-07-27T13:16:28Z</time>
      </trkpt>
      <trkpt lat="42.90515" lon="1.43191">
        <ele>1162</ele>
        <time>2020-07-27T13:16:33Z</time>
      </trkpt>
      <trkpt lat="42.90492" lon="1.43166">
        <ele>1155</ele>
        <time>2020-07-27T13:16:38Z</time>
      </trkpt>
      <trkpt lat="42.90452" lon="1.43131">
        <ele>1141</ele>
        <time>2020-07-27T13:16:47Z</time>
      </trkpt>
      <trkpt lat="42.90448" lon="1.43122">
        <ele>1140</ele>
        <time>2020-07-27T13:16:48Z</time>
      </trkpt>
      <trkpt lat="42.90447" lon="1.4311">
        <ele>1140</ele>
        <time>2020-07-27T13:16:50Z</time>
      </trkpt>
      <trkpt lat="42.90449" lon="1.43096">
        <ele>1143</ele>
        <time>2020-07-27T13:16:51Z</time>
      </trkpt>
      <trkpt lat="42.90457" lon="1.4306">
        <ele>1143</ele>
        <time>2020-07-27T13:16:56Z</time>
      </trkpt>
      <trkpt lat="42.90469" lon="1.43022">
        <ele>1142</ele>
        <time>2020-07-27T13:17:02Z</time>
      </trkpt>
      <trkpt lat="42.90502" lon="1.42978">
        <ele>1144</ele>
        <time>2020-07-27T13:17:10Z</time>
      </trkpt>
      <trkpt lat="42.90527" lon="1.42951">
        <ele>1141</ele>
        <time>2020-07-27T13:17:16Z</time>
      </trkpt>
      <trkpt lat="42.9058" lon="1.42929">
        <ele>1145</ele>
        <time>2020-07-27T13:17:25Z</time>
      </trkpt>
      <trkpt lat="42.90635" lon="1.42901">
        <ele>1148</ele>
        <time>2020-07-27T13:17:36Z</time>
      </trkpt>
      <trkpt lat="42.90644" lon="1.42895">
        <ele>1149</ele>
        <time>2020-07-27T13:17:38Z</time>
      </trkpt>
      <trkpt lat="42.90653" lon="1.4288">
        <ele>1150</ele>
        <time>2020-07-27T13:17:40Z</time>
      </trkpt>
      <trkpt lat="42.90656" lon="1.42863">
        <ele>1149</ele>
        <time>2020-07-27T13:17:43Z</time>
      </trkpt>
      <trkpt lat="42.90653" lon="1.42843">
        <ele>1146</ele>
        <time>2020-07-27T13:17:45Z</time>
      </trkpt>
      <trkpt lat="42.90645" lon="1.42822">
        <ele>1144</ele>
        <time>2020-07-27T13:17:48Z</time>
      </trkpt>
      <trkpt lat="42.90617" lon="1.42805">
        <ele>1138</ele>
        <time>2020-07-27T13:17:54Z</time>
      </trkpt>
      <trkpt lat="42.90611" lon="1.42793">
        <ele>1137</ele>
        <time>2020-07-27T13:17:56Z</time>
      </trkpt>
      <trkpt lat="42.90601" lon="1.42686">
        <ele>1130</ele>
        <time>2020-07-27T13:18:10Z</time>
      </trkpt>
      <trkpt lat="42.90601" lon="1.42663">
        <ele>1128</ele>
        <time>2020-07-27T13:18:13Z</time>
      </trkpt>
      <trkpt lat="42.90606" lon="1.42648">
        <ele>1127</ele>
        <time>2020-07-27T13:18:15Z</time>
      </trkpt>
      <trkpt lat="42.90614" lon="1.42632">
        <ele>1126</ele>
        <time>2020-07-27T13:18:17Z</time>
      </trkpt>
      <trkpt lat="42.90683" lon="1.42558">
        <ele>1124</ele>
        <time>2020-07-27T13:18:33Z</time>
      </trkpt>
      <trkpt lat="42.90707" lon="1.42544">
        <ele>1124</ele>
        <time>2020-07-27T13:18:38Z</time>
      </trkpt>
      <trkpt lat="42.90734" lon="1.42531">
        <ele>1125</ele>
        <time>2020-07-27T13:18:43Z</time>
      </trkpt>
      <trkpt lat="42.9076" lon="1.42524">
        <ele>1129</ele>
        <time>2020-07-27T13:18:47Z</time>
      </trkpt>
      <trkpt lat="42.90769" lon="1.42514">
        <ele>1128</ele>
        <time>2020-07-27T13:18:49Z</time>
      </trkpt>
      <trkpt lat="42.90779" lon="1.425">
        <ele>1127</ele>
        <time>2020-07-27T13:18:52Z</time>
      </trkpt>
      <trkpt lat="42.90781" lon="1.42488">
        <ele>1128</ele>
        <time>2020-07-27T13:18:54Z</time>
      </trkpt>
      <trkpt lat="42.90781" lon="1.42469">
        <ele>1128</ele>
        <time>2020-07-27T13:18:56Z</time>
      </trkpt>
      <trkpt lat="42.90779" lon="1.42439">
        <ele>1126</ele>
        <time>2020-07-27T13:19:00Z</time>
      </trkpt>
      <trkpt lat="42.90767" lon="1.42401">
        <ele>1123</ele>
        <time>2020-07-27T13:19:05Z</time>
      </trkpt>
      <trkpt lat="42.90753" lon="1.42367">
        <ele>1124</ele>
        <time>2020-07-27T13:19:10Z</time>
      </trkpt>
      <trkpt lat="42.90745" lon="1.42357">
        <ele>1123</ele>
        <time>2020-07-27T13:19:12Z</time>
      </trkpt>
      <trkpt lat="42.90715" lon="1.42332">
        <ele>1118</ele>
        <time>2020-07-27T13:19:19Z</time>
      </trkpt>
      <trkpt lat="42.90699" lon="1.42323">
        <ele>1114</ele>
        <time>2020-07-27T13:19:22Z</time>
      </trkpt>
      <trkpt lat="42.90668" lon="1.42321">
        <ele>1104</ele>
        <time>2020-07-27T13:19:27Z</time>
      </trkpt>
      <trkpt lat="42.90651" lon="1.42316">
        <ele>1098</ele>
        <time>2020-07-27T13:19:30Z</time>
      </trkpt>
      <trkpt lat="42.90638" lon="1.42304">
        <ele>1095</ele>
        <time>2020-07-27T13:19:33Z</time>
      </trkpt>
      <trkpt lat="42.90627" lon="1.42287">
        <ele>1094</ele>
        <time>2020-07-27T13:19:36Z</time>
      </trkpt>
      <trkpt lat="42.90622" lon="1.4227">
        <ele>1094</ele>
        <time>2020-07-27T13:19:38Z</time>
      </trkpt>
      <trkpt lat="42.90621" lon="1.42243">
        <ele>1096</ele>
        <time>2020-07-27T13:19:42Z</time>
      </trkpt>
      <trkpt lat="42.90629" lon="1.42173">
        <ele>1097</ele>
        <time>2020-07-27T13:19:51Z</time>
      </trkpt>
      <trkpt lat="42.90637" lon="1.42123">
        <ele>1093</ele>
        <time>2020-07-27T13:19:58Z</time>
      </trkpt>
      <trkpt lat="42.90641" lon="1.42113">
        <ele>1093</ele>
        <time>2020-07-27T13:19:59Z</time>
      </trkpt>
      <trkpt lat="42.90645" lon="1.42105">
        <ele>1094</ele>
        <time>2020-07-27T13:20:01Z</time>
      </trkpt>
      <trkpt lat="42.90652" lon="1.421">
        <ele>1096</ele>
        <time>2020-07-27T13:20:02Z</time>
      </trkpt>
      <trkpt lat="42.90668" lon="1.42093">
        <ele>1103</ele>
        <time>2020-07-27T13:20:05Z</time>
      </trkpt>
      <trkpt lat="42.90678" lon="1.42081">
        <ele>1105</ele>
        <time>2020-07-27T13:20:07Z</time>
      </trkpt>
      <trkpt lat="42.90685" lon="1.42054">
        <ele>1102</ele>
        <time>2020-07-27T13:20:11Z</time>
      </trkpt>
      <trkpt lat="42.907" lon="1.42038">
        <ele>1106</ele>
        <time>2020-07-27T13:20:15Z</time>
      </trkpt>
      <trkpt lat="42.90705" lon="1.42029">
        <ele>1107</ele>
        <time>2020-07-27T13:20:16Z</time>
      </trkpt>
      <trkpt lat="42.90706" lon="1.42018">
        <ele>1105</ele>
        <time>2020-07-27T13:20:17Z</time>
      </trkpt>
      <trkpt lat="42.90701" lon="1.42001">
        <ele>1099</ele>
        <time>2020-07-27T13:20:20Z</time>
      </trkpt>
      <trkpt lat="42.90694" lon="1.4199">
        <ele>1094</ele>
        <time>2020-07-27T13:20:22Z</time>
      </trkpt>
      <trkpt lat="42.90693" lon="1.41978">
        <ele>1094</ele>
        <time>2020-07-27T13:20:23Z</time>
      </trkpt>
      <trkpt lat="42.90697" lon="1.41956">
        <ele>1095</ele>
        <time>2020-07-27T13:20:26Z</time>
      </trkpt>
      <trkpt lat="42.90697" lon="1.41932">
        <ele>1094</ele>
        <time>2020-07-27T13:20:29Z</time>
      </trkpt>
      <trkpt lat="42.90692" lon="1.41918">
        <ele>1091</ele>
        <time>2020-07-27T13:20:31Z</time>
      </trkpt>
      <trkpt lat="42.9067" lon="1.41891">
        <ele>1079</ele>
        <time>2020-07-27T13:20:37Z</time>
      </trkpt>
      <trkpt lat="42.90666" lon="1.41883">
        <ele>1077</ele>
        <time>2020-07-27T13:20:38Z</time>
      </trkpt>
      <trkpt lat="42.90666" lon="1.41867">
        <ele>1076</ele>
        <time>2020-07-27T13:20:40Z</time>
      </trkpt>
      <trkpt lat="42.90674" lon="1.41834">
        <ele>1079</ele>
        <time>2020-07-27T13:20:45Z</time>
      </trkpt>
      <trkpt lat="42.90695" lon="1.41769">
        <ele>1075</ele>
        <time>2020-07-27T13:20:54Z</time>
      </trkpt>
      <trkpt lat="42.90719" lon="1.41705">
        <ele>1068</ele>
        <time>2020-07-27T13:21:03Z</time>
      </trkpt>
      <trkpt lat="42.90734" lon="1.41679">
        <ele>1066</ele>
        <time>2020-07-27T13:21:08Z</time>
      </trkpt>
      <trkpt lat="42.90745" lon="1.41667">
        <ele>1066</ele>
        <time>2020-07-27T13:21:10Z</time>
      </trkpt>
      <trkpt lat="42.9076" lon="1.41658">
        <ele>1071</ele>
        <time>2020-07-27T13:21:13Z</time>
      </trkpt>
      <trkpt lat="42.90792" lon="1.41651">
        <ele>1081</ele>
        <time>2020-07-27T13:21:19Z</time>
      </trkpt>
      <trkpt lat="42.90798" lon="1.4164">
        <ele>1083</ele>
        <time>2020-07-27T13:21:21Z</time>
      </trkpt>
      <trkpt lat="42.90795" lon="1.41626">
        <ele>1083</ele>
        <time>2020-07-27T13:21:22Z</time>
      </trkpt>
      <trkpt lat="42.90788" lon="1.41614">
        <ele>1082</ele>
        <time>2020-07-27T13:21:24Z</time>
      </trkpt>
      <trkpt lat="42.90759" lon="1.41592">
        <ele>1071</ele>
        <time>2020-07-27T13:21:30Z</time>
      </trkpt>
      <trkpt lat="42.90742" lon="1.41568">
        <ele>1070</ele>
        <time>2020-07-27T13:21:35Z</time>
      </trkpt>
      <trkpt lat="42.90718" lon="1.41552">
        <ele>1064</ele>
        <time>2020-07-27T13:21:39Z</time>
      </trkpt>
      <trkpt lat="42.90701" lon="1.41537">
        <ele>1061</ele>
        <time>2020-07-27T13:21:43Z</time>
      </trkpt>
      <trkpt lat="42.90686" lon="1.41505">
        <ele>1063</ele>
        <time>2020-07-27T13:21:48Z</time>
      </trkpt>
      <trkpt lat="42.9067" lon="1.41486">
        <ele>1059</ele>
        <time>2020-07-27T13:21:52Z</time>
      </trkpt>
      <trkpt lat="42.90657" lon="1.41466">
        <ele>1057</ele>
        <time>2020-07-27T13:21:55Z</time>
      </trkpt>
      <trkpt lat="42.90645" lon="1.41441">
        <ele>1056</ele>
        <time>2020-07-27T13:21:59Z</time>
      </trkpt>
      <trkpt lat="42.90628" lon="1.41422">
        <ele>1051</ele>
        <time>2020-07-27T13:22:03Z</time>
      </trkpt>
      <trkpt lat="42.90624" lon="1.41408">
        <ele>1050</ele>
        <time>2020-07-27T13:22:05Z</time>
      </trkpt>
      <trkpt lat="42.90624" lon="1.4139">
        <ele>1049</ele>
        <time>2020-07-27T13:22:07Z</time>
      </trkpt>
      <trkpt lat="42.9064" lon="1.41269">
        <ele>1046</ele>
        <time>2020-07-27T13:22:23Z</time>
      </trkpt>
      <trkpt lat="42.90646" lon="1.41239">
        <ele>1043</ele>
        <time>2020-07-27T13:22:27Z</time>
      </trkpt>
      <trkpt lat="42.90663" lon="1.41201">
        <ele>1042</ele>
        <time>2020-07-27T13:22:33Z</time>
      </trkpt>
      <trkpt lat="42.90682" lon="1.41168">
        <ele>1044</ele>
        <time>2020-07-27T13:22:39Z</time>
      </trkpt>
      <trkpt lat="42.90695" lon="1.41152">
        <ele>1048</ele>
        <time>2020-07-27T13:22:42Z</time>
      </trkpt>
      <trkpt lat="42.90699" lon="1.4114">
        <ele>1049</ele>
        <time>2020-07-27T13:22:44Z</time>
      </trkpt>
      <trkpt lat="42.90699" lon="1.4113">
        <ele>1048</ele>
        <time>2020-07-27T13:22:45Z</time>
      </trkpt>
      <trkpt lat="42.90696" lon="1.41114">
        <ele>1044</ele>
        <time>2020-07-27T13:22:47Z</time>
      </trkpt>
      <trkpt lat="42.90684" lon="1.41068">
        <ele>1032</ele>
        <time>2020-07-27T13:22:53Z</time>
      </trkpt>
      <trkpt lat="42.90681" lon="1.41049">
        <ele>1030</ele>
        <time>2020-07-27T13:22:56Z</time>
      </trkpt>
      <trkpt lat="42.90681" lon="1.41028">
        <ele>1029</ele>
        <time>2020-07-27T13:22:59Z</time>
      </trkpt>
      <trkpt lat="42.90683" lon="1.41013">
        <ele>1029</ele>
        <time>2020-07-27T13:23:01Z</time>
      </trkpt>
      <trkpt lat="42.907" lon="1.40962">
        <ele>1036</ele>
        <time>2020-07-27T13:23:08Z</time>
      </trkpt>
      <trkpt lat="42.90703" lon="1.40945">
        <ele>1038</ele>
        <time>2020-07-27T13:23:10Z</time>
      </trkpt>
      <trkpt lat="42.90701" lon="1.40929">
        <ele>1037</ele>
        <time>2020-07-27T13:23:12Z</time>
      </trkpt>
      <trkpt lat="42.90696" lon="1.40916">
        <ele>1035</ele>
        <time>2020-07-27T13:23:14Z</time>
      </trkpt>
      <trkpt lat="42.90682" lon="1.40896">
        <ele>1030</ele>
        <time>2020-07-27T13:23:18Z</time>
      </trkpt>
      <trkpt lat="42.90674" lon="1.40879">
        <ele>1027</ele>
        <time>2020-07-27T13:23:20Z</time>
      </trkpt>
      <trkpt lat="42.90671" lon="1.40859">
        <ele>1026</ele>
        <time>2020-07-27T13:23:23Z</time>
      </trkpt>
      <trkpt lat="42.9067" lon="1.40834">
        <ele>1027</ele>
        <time>2020-07-27T13:23:26Z</time>
      </trkpt>
      <trkpt lat="42.90673" lon="1.40773">
        <ele>1023</ele>
        <time>2020-07-27T13:23:34Z</time>
      </trkpt>
      <trkpt lat="42.90677" lon="1.40737">
        <ele>1022</ele>
        <time>2020-07-27T13:23:39Z</time>
      </trkpt>
      <trkpt lat="42.90693" lon="1.40674">
        <ele>1024</ele>
        <time>2020-07-27T13:23:48Z</time>
      </trkpt>
      <trkpt lat="42.90698" lon="1.40644">
        <ele>1024</ele>
        <time>2020-07-27T13:23:52Z</time>
      </trkpt>
      <trkpt lat="42.907" lon="1.40605">
        <ele>1021</ele>
        <time>2020-07-27T13:23:57Z</time>
      </trkpt>
      <trkpt lat="42.90699" lon="1.4054">
        <ele>1014</ele>
        <time>2020-07-27T13:24:05Z</time>
      </trkpt>
      <trkpt lat="42.90701" lon="1.40508">
        <ele>1012</ele>
        <time>2020-07-27T13:24:10Z</time>
      </trkpt>
      <trkpt lat="42.90704" lon="1.40488">
        <ele>1010</ele>
        <time>2020-07-27T13:24:12Z</time>
      </trkpt>
      <trkpt lat="42.90711" lon="1.40467">
        <ele>1009</ele>
        <time>2020-07-27T13:24:15Z</time>
      </trkpt>
      <trkpt lat="42.90746" lon="1.40415">
        <ele>1011</ele>
        <time>2020-07-27T13:24:24Z</time>
      </trkpt>
      <trkpt lat="42.90753" lon="1.40398">
        <ele>1012</ele>
        <time>2020-07-27T13:24:27Z</time>
      </trkpt>
      <trkpt lat="42.90757" lon="1.40373">
        <ele>1012</ele>
        <time>2020-07-27T13:24:30Z</time>
      </trkpt>
      <trkpt lat="42.90759" lon="1.40336">
        <ele>1010</ele>
        <time>2020-07-27T13:24:35Z</time>
      </trkpt>
      <trkpt lat="42.90756" lon="1.40318">
        <ele>1009</ele>
        <time>2020-07-27T13:24:38Z</time>
      </trkpt>
      <trkpt lat="42.9075" lon="1.4025">
        <ele>1009</ele>
        <time>2020-07-27T13:24:46Z</time>
      </trkpt>
      <trkpt lat="42.90742" lon="1.40229">
        <ele>1010</ele>
        <time>2020-07-27T13:24:50Z</time>
      </trkpt>
      <trkpt lat="42.90714" lon="1.40181">
        <ele>1006</ele>
        <time>2020-07-27T13:24:58Z</time>
      </trkpt>
      <trkpt lat="42.90704" lon="1.40157">
        <ele>1004</ele>
        <time>2020-07-27T13:25:01Z</time>
      </trkpt>
      <trkpt lat="42.90691" lon="1.40094">
        <ele>1001</ele>
        <time>2020-07-27T13:25:10Z</time>
      </trkpt>
      <trkpt lat="42.9068" lon="1.40059">
        <ele>997</ele>
        <time>2020-07-27T13:25:15Z</time>
      </trkpt>
      <trkpt lat="42.90675" lon="1.40037">
        <ele>995</ele>
        <time>2020-07-27T13:25:18Z</time>
      </trkpt>
      <trkpt lat="42.90673" lon="1.39977">
        <ele>994</ele>
        <time>2020-07-27T13:25:25Z</time>
      </trkpt>
      <trkpt lat="42.9068" lon="1.39889">
        <ele>989</ele>
        <time>2020-07-27T13:25:37Z</time>
      </trkpt>
      <trkpt lat="42.90688" lon="1.39854">
        <ele>987</ele>
        <time>2020-07-27T13:25:42Z</time>
      </trkpt>
      <trkpt lat="42.90696" lon="1.39831">
        <ele>987</ele>
        <time>2020-07-27T13:25:45Z</time>
      </trkpt>
      <trkpt lat="42.90725" lon="1.39772">
        <ele>992</ele>
        <time>2020-07-27T13:25:54Z</time>
      </trkpt>
      <trkpt lat="42.90731" lon="1.39749">
        <ele>992</ele>
        <time>2020-07-27T13:25:58Z</time>
      </trkpt>
      <trkpt lat="42.90732" lon="1.39726">
        <ele>990</ele>
        <time>2020-07-27T13:26:01Z</time>
      </trkpt>
      <trkpt lat="42.90732" lon="1.39692">
        <ele>987</ele>
        <time>2020-07-27T13:26:05Z</time>
      </trkpt>
      <trkpt lat="42.90717" lon="1.39619">
        <ele>973</ele>
        <time>2020-07-27T13:26:15Z</time>
      </trkpt>
      <trkpt lat="42.90717" lon="1.39592">
        <ele>970</ele>
        <time>2020-07-27T13:26:18Z</time>
      </trkpt>
      <trkpt lat="42.90732" lon="1.39564">
        <ele>974</ele>
        <time>2020-07-27T13:26:23Z</time>
      </trkpt>
      <trkpt lat="42.90755" lon="1.39537">
        <ele>983</ele>
        <time>2020-07-27T13:26:28Z</time>
      </trkpt>
      <trkpt lat="42.90757" lon="1.39527">
        <ele>984</ele>
        <time>2020-07-27T13:26:30Z</time>
      </trkpt>
      <trkpt lat="42.90755" lon="1.39512">
        <ele>982</ele>
        <time>2020-07-27T13:26:32Z</time>
      </trkpt>
      <trkpt lat="42.90734" lon="1.3946">
        <ele>973</ele>
        <time>2020-07-27T13:26:39Z</time>
      </trkpt>
      <trkpt lat="42.90708" lon="1.39409">
        <ele>963</ele>
        <time>2020-07-27T13:26:47Z</time>
      </trkpt>
      <trkpt lat="42.90704" lon="1.39385">
        <ele>961</ele>
        <time>2020-07-27T13:26:51Z</time>
      </trkpt>
      <trkpt lat="42.90707" lon="1.39358">
        <ele>962</ele>
        <time>2020-07-27T13:26:54Z</time>
      </trkpt>
      <trkpt lat="42.90722" lon="1.39313">
        <ele>970</ele>
        <time>2020-07-27T13:27:01Z</time>
      </trkpt>
      <trkpt lat="42.90723" lon="1.39301">
        <ele>971</ele>
        <time>2020-07-27T13:27:02Z</time>
      </trkpt>
      <trkpt lat="42.9072" lon="1.39287">
        <ele>971</ele>
        <time>2020-07-27T13:27:04Z</time>
      </trkpt>
      <trkpt lat="42.90714" lon="1.39275">
        <ele>970</ele>
        <time>2020-07-27T13:27:06Z</time>
      </trkpt>
      <trkpt lat="42.90686" lon="1.39234">
        <ele>961</ele>
        <time>2020-07-27T13:27:13Z</time>
      </trkpt>
      <trkpt lat="42.90671" lon="1.39203">
        <ele>957</ele>
        <time>2020-07-27T13:27:18Z</time>
      </trkpt>
      <trkpt lat="42.90662" lon="1.39179">
        <ele>957</ele>
        <time>2020-07-27T13:27:22Z</time>
      </trkpt>
      <trkpt lat="42.90645" lon="1.39102">
        <ele>957</ele>
        <time>2020-07-27T13:27:32Z</time>
      </trkpt>
      <trkpt lat="42.9064" lon="1.39062">
        <ele>957</ele>
        <time>2020-07-27T13:27:37Z</time>
      </trkpt>
      <trkpt lat="42.90642" lon="1.39047">
        <ele>956</ele>
        <time>2020-07-27T13:27:39Z</time>
      </trkpt>
      <trkpt lat="42.9065" lon="1.39018">
        <ele>955</ele>
        <time>2020-07-27T13:27:43Z</time>
      </trkpt>
      <trkpt lat="42.9069" lon="1.38932">
        <ele>951</ele>
        <time>2020-07-27T13:27:57Z</time>
      </trkpt>
      <trkpt lat="42.90747" lon="1.38793">
        <ele>936</ele>
        <time>2020-07-27T13:28:18Z</time>
      </trkpt>
      <trkpt lat="42.9077" lon="1.38756">
        <ele>930</ele>
        <time>2020-07-27T13:28:24Z</time>
      </trkpt>
      <trkpt lat="42.90786" lon="1.38738">
        <ele>927</ele>
        <time>2020-07-27T13:28:28Z</time>
      </trkpt>
      <trkpt lat="42.90798" lon="1.38731">
        <ele>927</ele>
        <time>2020-07-27T13:28:30Z</time>
      </trkpt>
      <trkpt lat="42.90815" lon="1.38729">
        <ele>929</ele>
        <time>2020-07-27T13:28:33Z</time>
      </trkpt>
      <trkpt lat="42.90837" lon="1.38736">
        <ele>936</ele>
        <time>2020-07-27T13:28:37Z</time>
      </trkpt>
      <trkpt lat="42.9086" lon="1.38749">
        <ele>945</ele>
        <time>2020-07-27T13:28:41Z</time>
      </trkpt>
      <trkpt lat="42.9087" lon="1.38746">
        <ele>947</ele>
        <time>2020-07-27T13:28:43Z</time>
      </trkpt>
      <trkpt lat="42.90874" lon="1.38738">
        <ele>945</ele>
        <time>2020-07-27T13:28:44Z</time>
      </trkpt>
      <trkpt lat="42.90875" lon="1.38728">
        <ele>943</ele>
        <time>2020-07-27T13:28:46Z</time>
      </trkpt>
      <trkpt lat="42.90871" lon="1.38713">
        <ele>937</ele>
        <time>2020-07-27T13:28:48Z</time>
      </trkpt>
      <trkpt lat="42.90857" lon="1.38687">
        <ele>926</ele>
        <time>2020-07-27T13:28:52Z</time>
      </trkpt>
      <trkpt lat="42.90851" lon="1.38664">
        <ele>918</ele>
        <time>2020-07-27T13:28:55Z</time>
      </trkpt>
      <trkpt lat="42.9085" lon="1.38654">
        <ele>916</ele>
        <time>2020-07-27T13:28:57Z</time>
      </trkpt>
      <trkpt lat="42.90855" lon="1.38639">
        <ele>915</ele>
        <time>2020-07-27T13:28:59Z</time>
      </trkpt>
      <trkpt lat="42.90876" lon="1.38607">
        <ele>916</ele>
        <time>2020-07-27T13:29:04Z</time>
      </trkpt>
      <trkpt lat="42.90881" lon="1.38603">
        <ele>917</ele>
        <time>2020-07-27T13:29:05Z</time>
      </trkpt>
      <trkpt lat="42.90903" lon="1.38592">
        <ele>921</ele>
        <time>2020-07-27T13:29:09Z</time>
      </trkpt>
      <trkpt lat="42.90908" lon="1.38581">
        <ele>921</ele>
        <time>2020-07-27T13:29:11Z</time>
      </trkpt>
      <trkpt lat="42.90908" lon="1.38568">
        <ele>921</ele>
        <time>2020-07-27T13:29:13Z</time>
      </trkpt>
      <trkpt lat="42.90903" lon="1.38555">
        <ele>920</ele>
        <time>2020-07-27T13:29:15Z</time>
      </trkpt>
      <trkpt lat="42.90896" lon="1.38545">
        <ele>918</ele>
        <time>2020-07-27T13:29:17Z</time>
      </trkpt>
      <trkpt lat="42.90886" lon="1.38537">
        <ele>916</ele>
        <time>2020-07-27T13:29:19Z</time>
      </trkpt>
      <trkpt lat="42.90859" lon="1.38526">
        <ele>909</ele>
        <time>2020-07-27T13:29:24Z</time>
      </trkpt>
      <trkpt lat="42.9085" lon="1.38516">
        <ele>907</ele>
        <time>2020-07-27T13:29:26Z</time>
      </trkpt>
      <trkpt lat="42.90846" lon="1.38501">
        <ele>906</ele>
        <time>2020-07-27T13:29:28Z</time>
      </trkpt>
      <trkpt lat="42.90849" lon="1.38475">
        <ele>903</ele>
        <time>2020-07-27T13:29:31Z</time>
      </trkpt>
      <trkpt lat="42.90853" lon="1.38461">
        <ele>902</ele>
        <time>2020-07-27T13:29:33Z</time>
      </trkpt>
      <trkpt lat="42.9086" lon="1.3845">
        <ele>902</ele>
        <time>2020-07-27T13:29:35Z</time>
      </trkpt>
      <trkpt lat="42.90899" lon="1.3841">
        <ele>903</ele>
        <time>2020-07-27T13:29:44Z</time>
      </trkpt>
      <trkpt lat="42.90922" lon="1.38372">
        <ele>900</ele>
        <time>2020-07-27T13:29:50Z</time>
      </trkpt>
      <trkpt lat="42.90951" lon="1.38338">
        <ele>901</ele>
        <time>2020-07-27T13:29:57Z</time>
      </trkpt>
      <trkpt lat="42.90961" lon="1.38325">
        <ele>902</ele>
        <time>2020-07-27T13:29:59Z</time>
      </trkpt>
      <trkpt lat="42.90963" lon="1.38313">
        <ele>902</ele>
        <time>2020-07-27T13:30:01Z</time>
      </trkpt>
      <trkpt lat="42.90962" lon="1.38302">
        <ele>902</ele>
        <time>2020-07-27T13:30:02Z</time>
      </trkpt>
      <trkpt lat="42.9096" lon="1.38292">
        <ele>901</ele>
        <time>2020-07-27T13:30:04Z</time>
      </trkpt>
      <trkpt lat="42.90938" lon="1.38238">
        <ele>891</ele>
        <time>2020-07-27T13:30:12Z</time>
      </trkpt>
      <trkpt lat="42.90939" lon="1.38226">
        <ele>891</ele>
        <time>2020-07-27T13:30:13Z</time>
      </trkpt>
      <trkpt lat="42.9095" lon="1.38156">
        <ele>892</ele>
        <time>2020-07-27T13:30:23Z</time>
      </trkpt>
      <trkpt lat="42.90947" lon="1.38131">
        <ele>892</ele>
        <time>2020-07-27T13:30:26Z</time>
      </trkpt>
      <trkpt lat="42.9094" lon="1.38113">
        <ele>892</ele>
        <time>2020-07-27T13:30:29Z</time>
      </trkpt>
      <trkpt lat="42.90927" lon="1.38107">
        <ele>890</ele>
        <time>2020-07-27T13:30:31Z</time>
      </trkpt>
      <trkpt lat="42.9088" lon="1.38104">
        <ele>883</ele>
        <time>2020-07-27T13:30:40Z</time>
      </trkpt>
      <trkpt lat="42.90826" lon="1.38086">
        <ele>877</ele>
        <time>2020-07-27T13:30:49Z</time>
      </trkpt>
      <trkpt lat="42.9076" lon="1.38079">
        <ele>870</ele>
        <time>2020-07-27T13:31:01Z</time>
      </trkpt>
      <trkpt lat="42.90741" lon="1.38066">
        <ele>868</ele>
        <time>2020-07-27T13:31:05Z</time>
      </trkpt>
      <trkpt lat="42.9073" lon="1.38055">
        <ele>866</ele>
        <time>2020-07-27T13:31:07Z</time>
      </trkpt>
      <trkpt lat="42.90719" lon="1.38042">
        <ele>865</ele>
        <time>2020-07-27T13:31:10Z</time>
      </trkpt>
      <trkpt lat="42.90714" lon="1.38026">
        <ele>865</ele>
        <time>2020-07-27T13:31:12Z</time>
      </trkpt>
      <trkpt lat="42.90713" lon="1.38009">
        <ele>866</ele>
        <time>2020-07-27T13:31:15Z</time>
      </trkpt>
      <trkpt lat="42.90718" lon="1.37939">
        <ele>862</ele>
        <time>2020-07-27T13:31:24Z</time>
      </trkpt>
      <trkpt lat="42.90727" lon="1.37907">
        <ele>861</ele>
        <time>2020-07-27T13:31:28Z</time>
      </trkpt>
      <trkpt lat="42.9074" lon="1.3787">
        <ele>860</ele>
        <time>2020-07-27T13:31:34Z</time>
      </trkpt>
      <trkpt lat="42.90755" lon="1.37846">
        <ele>861</ele>
        <time>2020-07-27T13:31:38Z</time>
      </trkpt>
      <trkpt lat="42.90783" lon="1.37806">
        <ele>868</ele>
        <time>2020-07-27T13:31:45Z</time>
      </trkpt>
      <trkpt lat="42.90787" lon="1.37793">
        <ele>870</ele>
        <time>2020-07-27T13:31:47Z</time>
      </trkpt>
      <trkpt lat="42.90786" lon="1.37785">
        <ele>870</ele>
        <time>2020-07-27T13:31:48Z</time>
      </trkpt>
      <trkpt lat="42.90781" lon="1.37776">
        <ele>869</ele>
        <time>2020-07-27T13:31:49Z</time>
      </trkpt>
      <trkpt lat="42.9077" lon="1.37766">
        <ele>866</ele>
        <time>2020-07-27T13:31:52Z</time>
      </trkpt>
      <trkpt lat="42.90718" lon="1.3773">
        <ele>851</ele>
        <time>2020-07-27T13:32:02Z</time>
      </trkpt>
      <trkpt lat="42.90707" lon="1.37718">
        <ele>849</ele>
        <time>2020-07-27T13:32:04Z</time>
      </trkpt>
      <trkpt lat="42.90703" lon="1.37707">
        <ele>848</ele>
        <time>2020-07-27T13:32:06Z</time>
      </trkpt>
      <trkpt lat="42.90704" lon="1.37691">
        <ele>848</ele>
        <time>2020-07-27T13:32:08Z</time>
      </trkpt>
      <trkpt lat="42.90713" lon="1.37654">
        <ele>849</ele>
        <time>2020-07-27T13:32:13Z</time>
      </trkpt>
      <trkpt lat="42.90721" lon="1.37608">
        <ele>845</ele>
        <time>2020-07-27T13:32:19Z</time>
      </trkpt>
      <trkpt lat="42.90721" lon="1.37571">
        <ele>842</ele>
        <time>2020-07-27T13:32:24Z</time>
      </trkpt>
      <trkpt lat="42.90725" lon="1.37552">
        <ele>843</ele>
        <time>2020-07-27T13:32:27Z</time>
      </trkpt>
      <trkpt lat="42.90748" lon="1.37514">
        <ele>849</ele>
        <time>2020-07-27T13:32:33Z</time>
      </trkpt>
      <trkpt lat="42.90749" lon="1.37502">
        <ele>849</ele>
        <time>2020-07-27T13:32:35Z</time>
      </trkpt>
      <trkpt lat="42.90744" lon="1.37492">
        <ele>849</ele>
        <time>2020-07-27T13:32:36Z</time>
      </trkpt>
      <trkpt lat="42.90738" lon="1.37488">
        <ele>848</ele>
        <time>2020-07-27T13:32:38Z</time>
      </trkpt>
      <trkpt lat="42.90635" lon="1.3745">
        <ele>831</ele>
        <time>2020-07-27T13:32:57Z</time>
      </trkpt>
      <trkpt lat="42.90621" lon="1.3744">
        <ele>829</ele>
        <time>2020-07-27T13:32:59Z</time>
      </trkpt>
      <trkpt lat="42.90613" lon="1.3742">
        <ele>829</ele>
        <time>2020-07-27T13:33:02Z</time>
      </trkpt>
      <trkpt lat="42.90608" lon="1.37383">
        <ele>826</ele>
        <time>2020-07-27T13:33:07Z</time>
      </trkpt>
      <trkpt lat="42.90607" lon="1.3734">
        <ele>823</ele>
        <time>2020-07-27T13:33:13Z</time>
      </trkpt>
      <trkpt lat="42.90609" lon="1.37317">
        <ele>821</ele>
        <time>2020-07-27T13:33:16Z</time>
      </trkpt>
      <trkpt lat="42.90614" lon="1.37297">
        <ele>819</ele>
        <time>2020-07-27T13:33:19Z</time>
      </trkpt>
      <trkpt lat="42.90625" lon="1.37271">
        <ele>818</ele>
        <time>2020-07-27T13:33:22Z</time>
      </trkpt>
      <trkpt lat="42.90648" lon="1.37241">
        <ele>819</ele>
        <time>2020-07-27T13:33:28Z</time>
      </trkpt>
      <trkpt lat="42.90683" lon="1.37208">
        <ele>821</ele>
        <time>2020-07-27T13:33:36Z</time>
      </trkpt>
      <trkpt lat="42.90706" lon="1.372">
        <ele>825</ele>
        <time>2020-07-27T13:33:40Z</time>
      </trkpt>
      <trkpt lat="42.90711" lon="1.37196">
        <ele>826</ele>
        <time>2020-07-27T13:33:41Z</time>
      </trkpt>
      <trkpt lat="42.90712" lon="1.37189">
        <ele>825</ele>
        <time>2020-07-27T13:33:42Z</time>
      </trkpt>
      <trkpt lat="42.90709" lon="1.37171">
        <ele>821</ele>
        <time>2020-07-27T13:33:44Z</time>
      </trkpt>
      <trkpt lat="42.90702" lon="1.37149">
        <ele>817</ele>
        <time>2020-07-27T13:33:47Z</time>
      </trkpt>
      <trkpt lat="42.90704" lon="1.37126">
        <ele>816</ele>
        <time>2020-07-27T13:33:50Z</time>
      </trkpt>
      <trkpt lat="42.90712" lon="1.37106">
        <ele>816</ele>
        <time>2020-07-27T13:33:53Z</time>
      </trkpt>
      <trkpt lat="42.9072" lon="1.37096">
        <ele>817</ele>
        <time>2020-07-27T13:33:55Z</time>
      </trkpt>
      <trkpt lat="42.90759" lon="1.37081">
        <ele>823</ele>
        <time>2020-07-27T13:34:03Z</time>
      </trkpt>
      <trkpt lat="42.90768" lon="1.3707">
        <ele>828</ele>
        <time>2020-07-27T13:34:05Z</time>
      </trkpt>
      <trkpt lat="42.90771" lon="1.37061">
        <ele>830</ele>
        <time>2020-07-27T13:34:06Z</time>
      </trkpt>
      <trkpt lat="42.9077" lon="1.37051">
        <ele>832</ele>
        <time>2020-07-27T13:34:07Z</time>
      </trkpt>
      <trkpt lat="42.90767" lon="1.37043">
        <ele>833</ele>
        <time>2020-07-27T13:34:08Z</time>
      </trkpt>
      <trkpt lat="42.90757" lon="1.37037">
        <ele>833</ele>
        <time>2020-07-27T13:34:10Z</time>
      </trkpt>
      <trkpt lat="42.9074" lon="1.37044">
        <ele>828</ele>
        <time>2020-07-27T13:34:14Z</time>
      </trkpt>
      <trkpt lat="42.90701" lon="1.37031">
        <ele>824</ele>
        <time>2020-07-27T13:34:21Z</time>
      </trkpt>
      <trkpt lat="42.90671" lon="1.37034">
        <ele>818</ele>
        <time>2020-07-27T13:34:26Z</time>
      </trkpt>
      <trkpt lat="42.90657" lon="1.37031">
        <ele>816</ele>
        <time>2020-07-27T13:34:29Z</time>
      </trkpt>
      <trkpt lat="42.90598" lon="1.3701">
        <ele>807</ele>
        <time>2020-07-27T13:34:39Z</time>
      </trkpt>
      <trkpt lat="42.90576" lon="1.36993">
        <ele>804</ele>
        <time>2020-07-27T13:34:44Z</time>
      </trkpt>
      <trkpt lat="42.90544" lon="1.36956">
        <ele>803</ele>
        <time>2020-07-27T13:34:51Z</time>
      </trkpt>
      <trkpt lat="42.90533" lon="1.36936">
        <ele>803</ele>
        <time>2020-07-27T13:34:55Z</time>
      </trkpt>
      <trkpt lat="42.9052" lon="1.36888">
        <ele>806</ele>
        <time>2020-07-27T13:35:01Z</time>
      </trkpt>
      <trkpt lat="42.90511" lon="1.36879">
        <ele>806</ele>
        <time>2020-07-27T13:35:03Z</time>
      </trkpt>
      <trkpt lat="42.905" lon="1.3688">
        <ele>805</ele>
        <time>2020-07-27T13:35:05Z</time>
      </trkpt>
      <trkpt lat="42.90471" lon="1.36898">
        <ele>801</ele>
        <time>2020-07-27T13:35:11Z</time>
      </trkpt>
      <trkpt lat="42.90438" lon="1.36903">
        <ele>799</ele>
        <time>2020-07-27T13:35:17Z</time>
      </trkpt>
      <trkpt lat="42.90415" lon="1.36903">
        <ele>798</ele>
        <time>2020-07-27T13:35:21Z</time>
      </trkpt>
      <trkpt lat="42.904" lon="1.36898">
        <ele>799</ele>
        <time>2020-07-27T13:35:24Z</time>
      </trkpt>
      <trkpt lat="42.90387" lon="1.36889">
        <ele>799</ele>
        <time>2020-07-27T13:35:26Z</time>
      </trkpt>
      <trkpt lat="42.90374" lon="1.36874">
        <ele>798</ele>
        <time>2020-07-27T13:35:29Z</time>
      </trkpt>
      <trkpt lat="42.90368" lon="1.36815">
        <ele>798</ele>
        <time>2020-07-27T13:35:37Z</time>
      </trkpt>
      <trkpt lat="42.9036" lon="1.36786">
        <ele>796</ele>
        <time>2020-07-27T13:35:41Z</time>
      </trkpt>
      <trkpt lat="42.90353" lon="1.36767">
        <ele>795</ele>
        <time>2020-07-27T13:35:44Z</time>
      </trkpt>
      <trkpt lat="42.90334" lon="1.36738">
        <ele>789</ele>
        <time>2020-07-27T13:35:49Z</time>
      </trkpt>
      <trkpt lat="42.90322" lon="1.3671">
        <ele>787</ele>
        <time>2020-07-27T13:35:53Z</time>
      </trkpt>
      <trkpt lat="42.90322" lon="1.36685">
        <ele>786</ele>
        <time>2020-07-27T13:35:56Z</time>
      </trkpt>
      <trkpt lat="42.90331" lon="1.36624">
        <ele>784</ele>
        <time>2020-07-27T13:36:05Z</time>
      </trkpt>
      <trkpt lat="42.9034" lon="1.366">
        <ele>785</ele>
        <time>2020-07-27T13:36:08Z</time>
      </trkpt>
      <trkpt lat="42.90355" lon="1.36566">
        <ele>787</ele>
        <time>2020-07-27T13:36:13Z</time>
      </trkpt>
      <trkpt lat="42.90356" lon="1.36554">
        <ele>788</ele>
        <time>2020-07-27T13:36:15Z</time>
      </trkpt>
      <trkpt lat="42.90351" lon="1.36542">
        <ele>787</ele>
        <time>2020-07-27T13:36:17Z</time>
      </trkpt>
      <trkpt lat="42.9034" lon="1.36539">
        <ele>785</ele>
        <time>2020-07-27T13:36:19Z</time>
      </trkpt>
      <trkpt lat="42.90313" lon="1.36536">
        <ele>781</ele>
        <time>2020-07-27T13:36:23Z</time>
      </trkpt>
      <trkpt lat="42.90283" lon="1.36523">
        <ele>776</ele>
        <time>2020-07-27T13:36:29Z</time>
      </trkpt>
      <trkpt lat="42.90276" lon="1.36516">
        <ele>775</ele>
        <time>2020-07-27T13:36:31Z</time>
      </trkpt>
      <trkpt lat="42.90271" lon="1.36501">
        <ele>774</ele>
        <time>2020-07-27T13:36:33Z</time>
      </trkpt>
      <trkpt lat="42.90266" lon="1.36458">
        <ele>776</ele>
        <time>2020-07-27T13:36:38Z</time>
      </trkpt>
      <trkpt lat="42.90258" lon="1.36432">
        <ele>776</ele>
        <time>2020-07-27T13:36:42Z</time>
      </trkpt>
      <trkpt lat="42.90246" lon="1.36418">
        <ele>775</ele>
        <time>2020-07-27T13:36:45Z</time>
      </trkpt>
      <trkpt lat="42.90229" lon="1.36411">
        <ele>772</ele>
        <time>2020-07-27T13:36:48Z</time>
      </trkpt>
      <trkpt lat="42.90208" lon="1.36407">
        <ele>768</ele>
        <time>2020-07-27T13:36:52Z</time>
      </trkpt>
      <trkpt lat="42.90189" lon="1.36398">
        <ele>765</ele>
        <time>2020-07-27T13:36:55Z</time>
      </trkpt>
      <trkpt lat="42.90185" lon="1.36388">
        <ele>764</ele>
        <time>2020-07-27T13:36:57Z</time>
      </trkpt>
      <trkpt lat="42.90185" lon="1.36377">
        <ele>764</ele>
        <time>2020-07-27T13:36:58Z</time>
      </trkpt>
      <trkpt lat="42.90205" lon="1.363">
        <ele>769</ele>
        <time>2020-07-27T13:37:09Z</time>
      </trkpt>
      <trkpt lat="42.90202" lon="1.36287">
        <ele>769</ele>
        <time>2020-07-27T13:37:11Z</time>
      </trkpt>
      <trkpt lat="42.90197" lon="1.36281">
        <ele>769</ele>
        <time>2020-07-27T13:37:12Z</time>
      </trkpt>
      <trkpt lat="42.9019" lon="1.36281">
        <ele>768</ele>
        <time>2020-07-27T13:37:13Z</time>
      </trkpt>
      <trkpt lat="42.90156" lon="1.36299">
        <ele>764</ele>
        <time>2020-07-27T13:37:20Z</time>
      </trkpt>
      <trkpt lat="42.90087" lon="1.36309">
        <ele>759</ele>
        <time>2020-07-27T13:37:32Z</time>
      </trkpt>
      <trkpt lat="42.90069" lon="1.36307">
        <ele>757</ele>
        <time>2020-07-27T13:37:35Z</time>
      </trkpt>
      <trkpt lat="42.90052" lon="1.36302">
        <ele>755</ele>
        <time>2020-07-27T13:37:38Z</time>
      </trkpt>
      <trkpt lat="42.90011" lon="1.36267">
        <ele>752</ele>
        <time>2020-07-27T13:37:47Z</time>
      </trkpt>
      <trkpt lat="42.89964" lon="1.36238">
        <ele>748</ele>
        <time>2020-07-27T13:37:56Z</time>
      </trkpt>
      <trkpt lat="42.89925" lon="1.36218">
        <ele>743</ele>
        <time>2020-07-27T13:38:04Z</time>
      </trkpt>
      <trkpt lat="42.8992" lon="1.36208">
        <ele>743</ele>
        <time>2020-07-27T13:38:05Z</time>
      </trkpt>
      <trkpt lat="42.89918" lon="1.36194">
        <ele>743</ele>
        <time>2020-07-27T13:38:07Z</time>
      </trkpt>
      <trkpt lat="42.89923" lon="1.36179">
        <ele>744</ele>
        <time>2020-07-27T13:38:09Z</time>
      </trkpt>
      <trkpt lat="42.8993" lon="1.36167">
        <ele>745</ele>
        <time>2020-07-27T13:38:11Z</time>
      </trkpt>
      <trkpt lat="42.89971" lon="1.36116">
        <ele>750</ele>
        <time>2020-07-27T13:38:21Z</time>
      </trkpt>
      <trkpt lat="42.89975" lon="1.36088">
        <ele>750</ele>
        <time>2020-07-27T13:38:25Z</time>
      </trkpt>
      <trkpt lat="42.89973" lon="1.36071">
        <ele>750</ele>
        <time>2020-07-27T13:38:27Z</time>
      </trkpt>
      <trkpt lat="42.89969" lon="1.36063">
        <ele>751</ele>
        <time>2020-07-27T13:38:28Z</time>
      </trkpt>
      <trkpt lat="42.8996" lon="1.36059">
        <ele>751</ele>
        <time>2020-07-27T13:38:30Z</time>
      </trkpt>
      <trkpt lat="42.89951" lon="1.36067">
        <ele>750</ele>
        <time>2020-07-27T13:38:32Z</time>
      </trkpt>
      <trkpt lat="42.8994" lon="1.36089">
        <ele>747</ele>
        <time>2020-07-27T13:38:35Z</time>
      </trkpt>
      <trkpt lat="42.89927" lon="1.36102">
        <ele>746</ele>
        <time>2020-07-27T13:38:38Z</time>
      </trkpt>
      <trkpt lat="42.89872" lon="1.36135">
        <ele>740</ele>
        <time>2020-07-27T13:38:49Z</time>
      </trkpt>
      <trkpt lat="42.89852" lon="1.36142">
        <ele>737</ele>
        <time>2020-07-27T13:38:52Z</time>
      </trkpt>
      <trkpt lat="42.89816" lon="1.36139">
        <ele>734</ele>
        <time>2020-07-27T13:38:59Z</time>
      </trkpt>
      <trkpt lat="42.89803" lon="1.36136">
        <ele>734</ele>
        <time>2020-07-27T13:39:01Z</time>
      </trkpt>
      <trkpt lat="42.89793" lon="1.36124">
        <ele>734</ele>
        <time>2020-07-27T13:39:04Z</time>
      </trkpt>
      <trkpt lat="42.89764" lon="1.36083">
        <ele>734</ele>
        <time>2020-07-27T13:39:11Z</time>
      </trkpt>
      <trkpt lat="42.89737" lon="1.36065">
        <ele>734</ele>
        <time>2020-07-27T13:39:16Z</time>
      </trkpt>
      <trkpt lat="42.89714" lon="1.36037">
        <ele>735</ele>
        <time>2020-07-27T13:39:22Z</time>
      </trkpt>
      <trkpt lat="42.89694" lon="1.36024">
        <ele>734</ele>
        <time>2020-07-27T13:39:26Z</time>
      </trkpt>
      <trkpt lat="42.89671" lon="1.36017">
        <ele>730</ele>
        <time>2020-07-27T13:39:30Z</time>
      </trkpt>
      <trkpt lat="42.89647" lon="1.36019">
        <ele>724</ele>
        <time>2020-07-27T13:39:34Z</time>
      </trkpt>
      <trkpt lat="42.89576" lon="1.36037">
        <ele>709</ele>
        <time>2020-07-27T13:39:47Z</time>
      </trkpt>
      <trkpt lat="42.89563" lon="1.36035">
        <ele>707</ele>
        <time>2020-07-27T13:39:49Z</time>
      </trkpt>
      <trkpt lat="42.8955" lon="1.3602">
        <ele>705</ele>
        <time>2020-07-27T13:39:52Z</time>
      </trkpt>
      <trkpt lat="42.89541" lon="1.36003">
        <ele>704</ele>
        <time>2020-07-27T13:39:55Z</time>
      </trkpt>
      <trkpt lat="42.89539" lon="1.35983">
        <ele>704</ele>
        <time>2020-07-27T13:39:58Z</time>
      </trkpt>
      <trkpt lat="42.89544" lon="1.35952">
        <ele>706</ele>
        <time>2020-07-27T13:40:02Z</time>
      </trkpt>
      <trkpt lat="42.89557" lon="1.35903">
        <ele>710</ele>
        <time>2020-07-27T13:40:09Z</time>
      </trkpt>
      <trkpt lat="42.89558" lon="1.35869">
        <ele>709</ele>
        <time>2020-07-27T13:40:13Z</time>
      </trkpt>
      <trkpt lat="42.89554" lon="1.35842">
        <ele>706</ele>
        <time>2020-07-27T13:40:17Z</time>
      </trkpt>
      <trkpt lat="42.89552" lon="1.35793">
        <ele>704</ele>
        <time>2020-07-27T13:40:23Z</time>
      </trkpt>
      <trkpt lat="42.89557" lon="1.35704">
        <ele>703</ele>
        <time>2020-07-27T13:40:35Z</time>
      </trkpt>
      <trkpt lat="42.89552" lon="1.35578">
        <ele>691</ele>
        <time>2020-07-27T13:40:51Z</time>
      </trkpt>
      <trkpt lat="42.89549" lon="1.35541">
        <ele>687</ele>
        <time>2020-07-27T13:40:56Z</time>
      </trkpt>
      <trkpt lat="42.89543" lon="1.35508">
        <ele>682</ele>
        <time>2020-07-27T13:41:01Z</time>
      </trkpt>
      <trkpt lat="42.89531" lon="1.35478">
        <ele>678</ele>
        <time>2020-07-27T13:41:05Z</time>
      </trkpt>
      <trkpt lat="42.89514" lon="1.35442">
        <ele>674</ele>
        <time>2020-07-27T13:41:11Z</time>
      </trkpt>
      <trkpt lat="42.89508" lon="1.35413">
        <ele>674</ele>
        <time>2020-07-27T13:41:15Z</time>
      </trkpt>
      <trkpt lat="42.89495" lon="1.35371">
        <ele>674</ele>
        <time>2020-07-27T13:41:20Z</time>
      </trkpt>
      <trkpt lat="42.89456" lon="1.35323">
        <ele>669</ele>
        <time>2020-07-27T13:41:30Z</time>
      </trkpt>
      <trkpt lat="42.89433" lon="1.35248">
        <ele>663</ele>
        <time>2020-07-27T13:41:40Z</time>
      </trkpt>
      <trkpt lat="42.89392" lon="1.35209">
        <ele>658</ele>
        <time>2020-07-27T13:41:49Z</time>
      </trkpt>
      <trkpt lat="42.89383" lon="1.35195">
        <ele>657</ele>
        <time>2020-07-27T13:41:52Z</time>
      </trkpt>
      <trkpt lat="42.89381" lon="1.35179">
        <ele>656</ele>
        <time>2020-07-27T13:41:54Z</time>
      </trkpt>
      <trkpt lat="42.89389" lon="1.35167">
        <ele>656</ele>
        <time>2020-07-27T13:41:56Z</time>
      </trkpt>
      <trkpt lat="42.89403" lon="1.35164">
        <ele>657</ele>
        <time>2020-07-27T13:41:59Z</time>
      </trkpt>
      <trkpt lat="42.89417" lon="1.35164">
        <ele>658</ele>
        <time>2020-07-27T13:42:01Z</time>
      </trkpt>
      <trkpt lat="42.8943" lon="1.35173">
        <ele>659</ele>
        <time>2020-07-27T13:42:04Z</time>
      </trkpt>
      <trkpt lat="42.89447" lon="1.3521">
        <ele>662</ele>
        <time>2020-07-27T13:42:09Z</time>
      </trkpt>
      <trkpt lat="42.89455" lon="1.35219">
        <ele>664</ele>
        <time>2020-07-27T13:42:11Z</time>
      </trkpt>
      <trkpt lat="42.89464" lon="1.35218">
        <ele>664</ele>
        <time>2020-07-27T13:42:13Z</time>
      </trkpt>
      <trkpt lat="42.89471" lon="1.35212">
        <ele>664</ele>
        <time>2020-07-27T13:42:14Z</time>
      </trkpt>
      <trkpt lat="42.89474" lon="1.35204">
        <ele>664</ele>
        <time>2020-07-27T13:42:15Z</time>
      </trkpt>
      <trkpt lat="42.89473" lon="1.35141">
        <ele>661</ele>
        <time>2020-07-27T13:42:24Z</time>
      </trkpt>
      <trkpt lat="42.89466" lon="1.35129">
        <ele>661</ele>
        <time>2020-07-27T13:42:26Z</time>
      </trkpt>
      <trkpt lat="42.89416" lon="1.35121">
        <ele>657</ele>
        <time>2020-07-27T13:42:35Z</time>
      </trkpt>
      <trkpt lat="42.89378" lon="1.35108">
        <ele>651</ele>
        <time>2020-07-27T13:42:42Z</time>
      </trkpt>
      <trkpt lat="42.89358" lon="1.35094">
        <ele>647</ele>
        <time>2020-07-27T13:42:46Z</time>
      </trkpt>
      <trkpt lat="42.8934" lon="1.35077">
        <ele>643</ele>
        <time>2020-07-27T13:42:49Z</time>
      </trkpt>
      <trkpt lat="42.89322" lon="1.35053">
        <ele>641</ele>
        <time>2020-07-27T13:42:54Z</time>
      </trkpt>
      <trkpt lat="42.89317" lon="1.35039">
        <ele>640</ele>
        <time>2020-07-27T13:42:56Z</time>
      </trkpt>
      <trkpt lat="42.89318" lon="1.34998">
        <ele>640</ele>
        <time>2020-07-27T13:43:01Z</time>
      </trkpt>
      <trkpt lat="42.89312" lon="1.34985">
        <ele>638</ele>
        <time>2020-07-27T13:43:03Z</time>
      </trkpt>
      <trkpt lat="42.89294" lon="1.34969">
        <ele>635</ele>
        <time>2020-07-27T13:43:07Z</time>
      </trkpt>
      <trkpt lat="42.89201" lon="1.34912">
        <ele>629</ele>
        <time>2020-07-27T13:43:25Z</time>
      </trkpt>
      <trkpt lat="42.88992" lon="1.34778">
        <ele>649</ele>
        <time>2020-07-27T13:44:06Z</time>
      </trkpt>
      <trkpt lat="42.88955" lon="1.34757">
        <ele>652</ele>
        <time>2020-07-27T13:44:13Z</time>
      </trkpt>
      <trkpt lat="42.8894" lon="1.34745">
        <ele>654</ele>
        <time>2020-07-27T13:44:17Z</time>
      </trkpt>
      <trkpt lat="42.88938" lon="1.3474">
        <ele>654</ele>
        <time>2020-07-27T13:44:17Z</time>
      </trkpt>
      <trkpt lat="42.88938" lon="1.34693">
        <ele>654</ele>
        <time>2020-07-27T13:44:23Z</time>
      </trkpt>
      <trkpt lat="42.88953" lon="1.34601">
        <ele>652</ele>
        <time>2020-07-27T13:44:36Z</time>
      </trkpt>
      <trkpt lat="42.88959" lon="1.34567">
        <ele>651</ele>
        <time>2020-07-27T13:44:40Z</time>
      </trkpt>
      <trkpt lat="42.88986" lon="1.34492">
        <ele>648</ele>
        <time>2020-07-27T13:44:51Z</time>
      </trkpt>
      <trkpt lat="42.88974" lon="1.34485">
        <ele>649</ele>
        <time>2020-07-27T13:44:53Z</time>
      </trkpt>
      <trkpt lat="42.89004" lon="1.34331">
        <ele>650</ele>
        <time>2020-07-27T13:45:14Z</time>
      </trkpt>
      <trkpt lat="42.89002" lon="1.3432">
        <ele>651</ele>
        <time>2020-07-27T13:45:16Z</time>
      </trkpt>
      <trkpt lat="42.88985" lon="1.34278">
        <ele>654</ele>
        <time>2020-07-27T13:45:22Z</time>
      </trkpt>
      <trkpt lat="42.88987" lon="1.34259">
        <ele>654</ele>
        <time>2020-07-27T13:45:24Z</time>
      </trkpt>
      <trkpt lat="42.88985" lon="1.34248">
        <ele>655</ele>
        <time>2020-07-27T13:45:26Z</time>
      </trkpt>
      <trkpt lat="42.88976" lon="1.34221">
        <ele>656</ele>
        <time>2020-07-27T13:45:30Z</time>
      </trkpt>
      <trkpt lat="42.88968" lon="1.34171">
        <ele>659</ele>
        <time>2020-07-27T13:45:36Z</time>
      </trkpt>
      <trkpt lat="42.8897" lon="1.34131">
        <ele>661</ele>
        <time>2020-07-27T13:45:42Z</time>
      </trkpt>
      <trkpt lat="42.88979" lon="1.34069">
        <ele>661</ele>
        <time>2020-07-27T13:45:50Z</time>
      </trkpt>
      <trkpt lat="42.88979" lon="1.34051">
        <ele>662</ele>
        <time>2020-07-27T13:45:52Z</time>
      </trkpt>
      <trkpt lat="42.88973" lon="1.34001">
        <ele>666</ele>
        <time>2020-07-27T13:45:59Z</time>
      </trkpt>
      <trkpt lat="42.88965" lon="1.3396">
        <ele>669</ele>
        <time>2020-07-27T13:46:04Z</time>
      </trkpt>
      <trkpt lat="42.88935" lon="1.33868">
        <ele>673</ele>
        <time>2020-07-27T13:46:18Z</time>
      </trkpt>
      <trkpt lat="42.8892" lon="1.33804">
        <ele>675</ele>
        <time>2020-07-27T13:46:26Z</time>
      </trkpt>
      <trkpt lat="42.88907" lon="1.33762">
        <ele>677</ele>
        <time>2020-07-27T13:46:32Z</time>
      </trkpt>
      <trkpt lat="42.88887" lon="1.33712">
        <ele>682</ele>
        <time>2020-07-27T13:46:40Z</time>
      </trkpt>
      <trkpt lat="42.88876" lon="1.3369">
        <ele>684</ele>
        <time>2020-07-27T13:46:43Z</time>
      </trkpt>
      <trkpt lat="42.88854" lon="1.33658">
        <ele>687</ele>
        <time>2020-07-27T13:46:49Z</time>
      </trkpt>
      <trkpt lat="42.88837" lon="1.33637">
        <ele>691</ele>
        <time>2020-07-27T13:46:53Z</time>
      </trkpt>
      <trkpt lat="42.88833" lon="1.33627">
        <ele>692</ele>
        <time>2020-07-27T13:46:54Z</time>
      </trkpt>
      <trkpt lat="42.88833" lon="1.33616">
        <ele>692</ele>
        <time>2020-07-27T13:46:56Z</time>
      </trkpt>
      <trkpt lat="42.88835" lon="1.33609">
        <ele>693</ele>
        <time>2020-07-27T13:46:57Z</time>
      </trkpt>
      <trkpt lat="42.88839" lon="1.33604">
        <ele>693</ele>
        <time>2020-07-27T13:46:58Z</time>
      </trkpt>
      <trkpt lat="42.88845" lon="1.33601">
        <ele>693</ele>
        <time>2020-07-27T13:46:59Z</time>
      </trkpt>
      <trkpt lat="42.8891" lon="1.33599">
        <ele>690</ele>
        <time>2020-07-27T13:47:11Z</time>
      </trkpt>
      <trkpt lat="42.88976" lon="1.33618">
        <ele>689</ele>
        <time>2020-07-27T13:47:23Z</time>
      </trkpt>
      <trkpt lat="42.88981" lon="1.33616">
        <ele>690</ele>
        <time>2020-07-27T13:47:23Z</time>
      </trkpt>
      <trkpt lat="42.88985" lon="1.3361">
        <ele>691</ele>
        <time>2020-07-27T13:47:25Z</time>
      </trkpt>
      <trkpt lat="42.88986" lon="1.33604">
        <ele>692</ele>
        <time>2020-07-27T13:47:25Z</time>
      </trkpt>
      <trkpt lat="42.88985" lon="1.33595">
        <ele>693</ele>
        <time>2020-07-27T13:47:27Z</time>
      </trkpt>
      <trkpt lat="42.88964" lon="1.33535">
        <ele>697</ele>
        <time>2020-07-27T13:47:35Z</time>
      </trkpt>
      <trkpt lat="42.88893" lon="1.33452">
        <ele>709</ele>
        <time>2020-07-27T13:47:52Z</time>
      </trkpt>
      <trkpt lat="42.88885" lon="1.33433">
        <ele>712</ele>
        <time>2020-07-27T13:47:55Z</time>
      </trkpt>
      <trkpt lat="42.88875" lon="1.33342">
        <ele>714</ele>
        <time>2020-07-27T13:48:07Z</time>
      </trkpt>
      <trkpt lat="42.8882" lon="1.33109">
        <ele>721</ele>
        <time>2020-07-27T13:48:39Z</time>
      </trkpt>
      <trkpt lat="42.88735" lon="1.32981">
        <ele>724</ele>
        <time>2020-07-27T13:49:01Z</time>
      </trkpt>
      <trkpt lat="42.88704" lon="1.32954">
        <ele>728</ele>
        <time>2020-07-27T13:49:08Z</time>
      </trkpt>
      <trkpt lat="42.88693" lon="1.32937">
        <ele>728</ele>
        <time>2020-07-27T13:49:11Z</time>
      </trkpt>
      <trkpt lat="42.88689" lon="1.32925">
        <ele>728</ele>
        <time>2020-07-27T13:49:12Z</time>
      </trkpt>
      <trkpt lat="42.88688" lon="1.32913">
        <ele>727</ele>
        <time>2020-07-27T13:49:14Z</time>
      </trkpt>
      <trkpt lat="42.88693" lon="1.32846">
        <ele>725</ele>
        <time>2020-07-27T13:49:23Z</time>
      </trkpt>
      <trkpt lat="42.88693" lon="1.32824">
        <ele>724</ele>
        <time>2020-07-27T13:49:26Z</time>
      </trkpt>
      <trkpt lat="42.88689" lon="1.32808">
        <ele>722</ele>
        <time>2020-07-27T13:49:28Z</time>
      </trkpt>
      <trkpt lat="42.88682" lon="1.32793">
        <ele>722</ele>
        <time>2020-07-27T13:49:30Z</time>
      </trkpt>
      <trkpt lat="42.88668" lon="1.32777">
        <ele>722</ele>
        <time>2020-07-27T13:49:33Z</time>
      </trkpt>
      <trkpt lat="42.88616" lon="1.32746">
        <ele>726</ele>
        <time>2020-07-27T13:49:43Z</time>
      </trkpt>
      <trkpt lat="42.88584" lon="1.32749">
        <ele>732</ele>
        <time>2020-07-27T13:49:49Z</time>
      </trkpt>
      <trkpt lat="42.88521" lon="1.32718">
        <ele>739</ele>
        <time>2020-07-27T13:50:01Z</time>
      </trkpt>
      <trkpt lat="42.88514" lon="1.32707">
        <ele>739</ele>
        <time>2020-07-27T13:50:03Z</time>
      </trkpt>
      <trkpt lat="42.88509" lon="1.32695">
        <ele>738</ele>
        <time>2020-07-27T13:50:05Z</time>
      </trkpt>
      <trkpt lat="42.88504" lon="1.3266">
        <ele>736</ele>
        <time>2020-07-27T13:50:09Z</time>
      </trkpt>
      <trkpt lat="42.88484" lon="1.32611">
        <ele>736</ele>
        <time>2020-07-27T13:50:17Z</time>
      </trkpt>
      <trkpt lat="42.88474" lon="1.32595">
        <ele>736</ele>
        <time>2020-07-27T13:50:19Z</time>
      </trkpt>
      <trkpt lat="42.88463" lon="1.32585">
        <ele>737</ele>
        <time>2020-07-27T13:50:22Z</time>
      </trkpt>
      <trkpt lat="42.88425" lon="1.32562">
        <ele>743</ele>
        <time>2020-07-27T13:50:29Z</time>
      </trkpt>
      <trkpt lat="42.8842" lon="1.32558">
        <ele>744</ele>
        <time>2020-07-27T13:50:30Z</time>
      </trkpt>
      <trkpt lat="42.88417" lon="1.32549">
        <ele>744</ele>
        <time>2020-07-27T13:50:32Z</time>
      </trkpt>
      <trkpt lat="42.88416" lon="1.3254">
        <ele>745</ele>
        <time>2020-07-27T13:50:33Z</time>
      </trkpt>
      <trkpt lat="42.88431" lon="1.32489">
        <ele>745</ele>
        <time>2020-07-27T13:50:40Z</time>
      </trkpt>
      <trkpt lat="42.88441" lon="1.32429">
        <ele>752</ele>
        <time>2020-07-27T13:50:48Z</time>
      </trkpt>
      <trkpt lat="42.88443" lon="1.32401">
        <ele>754</ele>
        <time>2020-07-27T13:50:52Z</time>
      </trkpt>
      <trkpt lat="42.88442" lon="1.32379">
        <ele>754</ele>
        <time>2020-07-27T13:50:54Z</time>
      </trkpt>
      <trkpt lat="42.88437" lon="1.32364">
        <ele>754</ele>
        <time>2020-07-27T13:50:57Z</time>
      </trkpt>
      <trkpt lat="42.88421" lon="1.3234">
        <ele>752</ele>
        <time>2020-07-27T13:51:01Z</time>
      </trkpt>
      <trkpt lat="42.88411" lon="1.32332">
        <ele>751</ele>
        <time>2020-07-27T13:51:03Z</time>
      </trkpt>
      <trkpt lat="42.88354" lon="1.32302">
        <ele>751</ele>
        <time>2020-07-27T13:51:14Z</time>
      </trkpt>
      <trkpt lat="42.88336" lon="1.32291">
        <ele>750</ele>
        <time>2020-07-27T13:51:17Z</time>
      </trkpt>
      <trkpt lat="42.88323" lon="1.32278">
        <ele>749</ele>
        <time>2020-07-27T13:51:20Z</time>
      </trkpt>
      <trkpt lat="42.883" lon="1.32245">
        <ele>744</ele>
        <time>2020-07-27T13:51:26Z</time>
      </trkpt>
      <trkpt lat="42.88294" lon="1.32239">
        <ele>743</ele>
        <time>2020-07-27T13:51:27Z</time>
      </trkpt>
      <trkpt lat="42.88288" lon="1.32237">
        <ele>743</ele>
        <time>2020-07-27T13:51:28Z</time>
      </trkpt>
      <trkpt lat="42.88275" lon="1.3224">
        <ele>743</ele>
        <time>2020-07-27T13:51:31Z</time>
      </trkpt>
      <trkpt lat="42.88243" lon="1.32269">
        <ele>749</ele>
        <time>2020-07-27T13:51:38Z</time>
      </trkpt>
      <trkpt lat="42.88215" lon="1.32308">
        <ele>756</ele>
        <time>2020-07-27T13:51:45Z</time>
      </trkpt>
      <trkpt lat="42.88189" lon="1.32349">
        <ele>761</ele>
        <time>2020-07-27T13:51:52Z</time>
      </trkpt>
      <trkpt lat="42.88184" lon="1.32353">
        <ele>762</ele>
        <time>2020-07-27T13:51:53Z</time>
      </trkpt>
      <trkpt lat="42.88177" lon="1.32355">
        <ele>762</ele>
        <time>2020-07-27T13:51:54Z</time>
      </trkpt>
      <trkpt lat="42.88171" lon="1.32353">
        <ele>762</ele>
        <time>2020-07-27T13:51:55Z</time>
      </trkpt>
      <trkpt lat="42.88166" lon="1.32348">
        <ele>762</ele>
        <time>2020-07-27T13:51:56Z</time>
      </trkpt>
      <trkpt lat="42.88162" lon="1.32339">
        <ele>762</ele>
        <time>2020-07-27T13:51:58Z</time>
      </trkpt>
      <trkpt lat="42.88156" lon="1.3224">
        <ele>754</ele>
        <time>2020-07-27T13:52:11Z</time>
      </trkpt>
      <trkpt lat="42.88147" lon="1.32212">
        <ele>751</ele>
        <time>2020-07-27T13:52:15Z</time>
      </trkpt>
      <trkpt lat="42.88121" lon="1.32209">
        <ele>760</ele>
        <time>2020-07-27T13:52:19Z</time>
      </trkpt>
      <trkpt lat="42.8809" lon="1.32209">
        <ele>770</ele>
        <time>2020-07-27T13:52:25Z</time>
      </trkpt>
      <trkpt lat="42.88075" lon="1.32197">
        <ele>775</ele>
        <time>2020-07-27T13:52:28Z</time>
      </trkpt>
      <trkpt lat="42.88065" lon="1.32171">
        <ele>776</ele>
        <time>2020-07-27T13:52:32Z</time>
      </trkpt>
      <trkpt lat="42.88054" lon="1.3205">
        <ele>773</ele>
        <time>2020-07-27T13:52:48Z</time>
      </trkpt>
      <trkpt lat="42.88066" lon="1.32007">
        <ele>766</ele>
        <time>2020-07-27T13:52:54Z</time>
      </trkpt>
      <trkpt lat="42.88064" lon="1.31976">
        <ele>765</ele>
        <time>2020-07-27T13:52:58Z</time>
      </trkpt>
      <trkpt lat="42.87997" lon="1.31863">
        <ele>757</ele>
        <time>2020-07-27T13:53:17Z</time>
      </trkpt>
      <trkpt lat="42.87987" lon="1.31853">
        <ele>755</ele>
        <time>2020-07-27T13:53:19Z</time>
      </trkpt>
      <trkpt lat="42.87967" lon="1.31841">
        <ele>753</ele>
        <time>2020-07-27T13:53:23Z</time>
      </trkpt>
      <trkpt lat="42.87955" lon="1.31839">
        <ele>753</ele>
        <time>2020-07-27T13:53:25Z</time>
      </trkpt>
      <trkpt lat="42.87929" lon="1.31844">
        <ele>757</ele>
        <time>2020-07-27T13:53:30Z</time>
      </trkpt>
      <trkpt lat="42.87911" lon="1.31858">
        <ele>763</ele>
        <time>2020-07-27T13:53:33Z</time>
      </trkpt>
      <trkpt lat="42.87885" lon="1.31898">
        <ele>778</ele>
        <time>2020-07-27T13:53:40Z</time>
      </trkpt>
      <trkpt lat="42.87881" lon="1.31902">
        <ele>780</ele>
        <time>2020-07-27T13:53:41Z</time>
      </trkpt>
      <trkpt lat="42.87876" lon="1.31902">
        <ele>781</ele>
        <time>2020-07-27T13:53:42Z</time>
      </trkpt>
      <trkpt lat="42.87861" lon="1.31881">
        <ele>778</ele>
        <time>2020-07-27T13:53:46Z</time>
      </trkpt>
      <trkpt lat="42.87826" lon="1.31823">
        <ele>772</ele>
        <time>2020-07-27T13:53:56Z</time>
      </trkpt>
      <trkpt lat="42.87753" lon="1.31789">
        <ele>784</ele>
        <time>2020-07-27T13:54:09Z</time>
      </trkpt>
      <trkpt lat="42.87732" lon="1.31766">
        <ele>789</ele>
        <time>2020-07-27T13:54:14Z</time>
      </trkpt>
      <trkpt lat="42.87722" lon="1.31728">
        <ele>796</ele>
        <time>2020-07-27T13:54:19Z</time>
      </trkpt>
      <trkpt lat="42.87731" lon="1.31684">
        <ele>798</ele>
        <time>2020-07-27T13:54:25Z</time>
      </trkpt>
      <trkpt lat="42.87779" lon="1.31636">
        <ele>790</ele>
        <time>2020-07-27T13:54:36Z</time>
      </trkpt>
      <trkpt lat="42.87814" lon="1.31577">
        <ele>791</ele>
        <time>2020-07-27T13:54:46Z</time>
      </trkpt>
      <trkpt lat="42.87818" lon="1.31517">
        <ele>798</ele>
        <time>2020-07-27T13:54:54Z</time>
      </trkpt>
      <trkpt lat="42.87835" lon="1.31483">
        <ele>796</ele>
        <time>2020-07-27T13:54:59Z</time>
      </trkpt>
      <trkpt lat="42.87836" lon="1.31471">
        <ele>796</ele>
        <time>2020-07-27T13:55:01Z</time>
      </trkpt>
      <trkpt lat="42.87834" lon="1.31454">
        <ele>799</ele>
        <time>2020-07-27T13:55:03Z</time>
      </trkpt>
      <trkpt lat="42.87828" lon="1.31433">
        <ele>802</ele>
        <time>2020-07-27T13:55:06Z</time>
      </trkpt>
      <trkpt lat="42.87804" lon="1.31384">
        <ele>806</ele>
        <time>2020-07-27T13:55:13Z</time>
      </trkpt>
      <trkpt lat="42.878" lon="1.31371">
        <ele>806</ele>
        <time>2020-07-27T13:55:15Z</time>
      </trkpt>
      <trkpt lat="42.87799" lon="1.31338">
        <ele>803</ele>
        <time>2020-07-27T13:55:20Z</time>
      </trkpt>
      <trkpt lat="42.87796" lon="1.31325">
        <ele>802</ele>
        <time>2020-07-27T13:55:21Z</time>
      </trkpt>
      <trkpt lat="42.87789" lon="1.31315">
        <ele>802</ele>
        <time>2020-07-27T13:55:23Z</time>
      </trkpt>
      <trkpt lat="42.87778" lon="1.31304">
        <ele>802</ele>
        <time>2020-07-27T13:55:26Z</time>
      </trkpt>
      <trkpt lat="42.87769" lon="1.31297">
        <ele>803</ele>
        <time>2020-07-27T13:55:27Z</time>
      </trkpt>
      <trkpt lat="42.87759" lon="1.31295">
        <ele>804</ele>
        <time>2020-07-27T13:55:29Z</time>
      </trkpt>
      <trkpt lat="42.8775" lon="1.31295">
        <ele>805</ele>
        <time>2020-07-27T13:55:31Z</time>
      </trkpt>
      <trkpt lat="42.87735" lon="1.31298">
        <ele>806</ele>
        <time>2020-07-27T13:55:34Z</time>
      </trkpt>
      <trkpt lat="42.87713" lon="1.3131">
        <ele>807</ele>
        <time>2020-07-27T13:55:38Z</time>
      </trkpt>
      <trkpt lat="42.87685" lon="1.31321">
        <ele>808</ele>
        <time>2020-07-27T13:55:43Z</time>
      </trkpt>
      <trkpt lat="42.87673" lon="1.31322">
        <ele>808</ele>
        <time>2020-07-27T13:55:45Z</time>
      </trkpt>
      <trkpt lat="42.87664" lon="1.3132">
        <ele>808</ele>
        <time>2020-07-27T13:55:47Z</time>
      </trkpt>
      <trkpt lat="42.87656" lon="1.31314">
        <ele>808</ele>
        <time>2020-07-27T13:55:48Z</time>
      </trkpt>
      <trkpt lat="42.87642" lon="1.31299">
        <ele>806</ele>
        <time>2020-07-27T13:55:52Z</time>
      </trkpt>
      <trkpt lat="42.87636" lon="1.31296">
        <ele>806</ele>
        <time>2020-07-27T13:55:53Z</time>
      </trkpt>
      <trkpt lat="42.87621" lon="1.31294">
        <ele>807</ele>
        <time>2020-07-27T13:55:55Z</time>
      </trkpt>
      <trkpt lat="42.87611" lon="1.3129">
        <ele>807</ele>
        <time>2020-07-27T13:55:57Z</time>
      </trkpt>
      <trkpt lat="42.87604" lon="1.31285">
        <ele>807</ele>
        <time>2020-07-27T13:55:59Z</time>
      </trkpt>
      <trkpt lat="42.87593" lon="1.31272">
        <ele>805</ele>
        <time>2020-07-27T13:56:01Z</time>
      </trkpt>
      <trkpt lat="42.87567" lon="1.31232">
        <ele>797</ele>
        <time>2020-07-27T13:56:08Z</time>
      </trkpt>
      <trkpt lat="42.87561" lon="1.31228">
        <ele>797</ele>
        <time>2020-07-27T13:56:09Z</time>
      </trkpt>
      <trkpt lat="42.87554" lon="1.31226">
        <ele>796</ele>
        <time>2020-07-27T13:56:11Z</time>
      </trkpt>
      <trkpt lat="42.87543" lon="1.31229">
        <ele>796</ele>
        <time>2020-07-27T13:56:13Z</time>
      </trkpt>
      <trkpt lat="42.87489" lon="1.31259">
        <ele>797</ele>
        <time>2020-07-27T13:56:23Z</time>
      </trkpt>
      <trkpt lat="42.87471" lon="1.31279">
        <ele>799</ele>
        <time>2020-07-27T13:56:27Z</time>
      </trkpt>
      <trkpt lat="42.87457" lon="1.3132">
        <ele>805</ele>
        <time>2020-07-27T13:56:33Z</time>
      </trkpt>
      <trkpt lat="42.87433" lon="1.31351">
        <ele>808</ele>
        <time>2020-07-27T13:56:39Z</time>
      </trkpt>
      <trkpt lat="42.87422" lon="1.31348">
        <ele>807</ele>
        <time>2020-07-27T13:56:41Z</time>
      </trkpt>
      <trkpt lat="42.87412" lon="1.31337">
        <ele>805</ele>
        <time>2020-07-27T13:56:43Z</time>
      </trkpt>
      <trkpt lat="42.87378" lon="1.31283">
        <ele>805</ele>
        <time>2020-07-27T13:56:52Z</time>
      </trkpt>
      <trkpt lat="42.87334" lon="1.31277">
        <ele>815</ele>
        <time>2020-07-27T13:57:00Z</time>
      </trkpt>
      <trkpt lat="42.87326" lon="1.31274">
        <ele>816</ele>
        <time>2020-07-27T13:57:02Z</time>
      </trkpt>
      <trkpt lat="42.87321" lon="1.31266">
        <ele>816</ele>
        <time>2020-07-27T13:57:03Z</time>
      </trkpt>
      <trkpt lat="42.87312" lon="1.31228">
        <ele>811</ele>
        <time>2020-07-27T13:57:08Z</time>
      </trkpt>
      <trkpt lat="42.87306" lon="1.3118">
        <ele>806</ele>
        <time>2020-07-27T13:57:15Z</time>
      </trkpt>
      <trkpt lat="42.87296" lon="1.31144">
        <ele>805</ele>
        <time>2020-07-27T13:57:20Z</time>
      </trkpt>
      <trkpt lat="42.8727" lon="1.31105">
        <ele>808</ele>
        <time>2020-07-27T13:57:27Z</time>
      </trkpt>
      <trkpt lat="42.87213" lon="1.31059">
        <ele>807</ele>
        <time>2020-07-27T13:57:38Z</time>
      </trkpt>
      <trkpt lat="42.87201" lon="1.31059">
        <ele>807</ele>
        <time>2020-07-27T13:57:41Z</time>
      </trkpt>
      <trkpt lat="42.87196" lon="1.31067">
        <ele>808</ele>
        <time>2020-07-27T13:57:42Z</time>
      </trkpt>
      <trkpt lat="42.87194" lon="1.31126">
        <ele>816</ele>
        <time>2020-07-27T13:57:50Z</time>
      </trkpt>
      <trkpt lat="42.8719" lon="1.31152">
        <ele>820</ele>
        <time>2020-07-27T13:57:53Z</time>
      </trkpt>
      <trkpt lat="42.87176" lon="1.31191">
        <ele>826</ele>
        <time>2020-07-27T13:57:59Z</time>
      </trkpt>
      <trkpt lat="42.87171" lon="1.31202">
        <ele>828</ele>
        <time>2020-07-27T13:58:00Z</time>
      </trkpt>
      <trkpt lat="42.87165" lon="1.31208">
        <ele>829</ele>
        <time>2020-07-27T13:58:02Z</time>
      </trkpt>
      <trkpt lat="42.87157" lon="1.31209">
        <ele>831</ele>
        <time>2020-07-27T13:58:03Z</time>
      </trkpt>
      <trkpt lat="42.8715" lon="1.31205">
        <ele>832</ele>
        <time>2020-07-27T13:58:05Z</time>
      </trkpt>
      <trkpt lat="42.87141" lon="1.31161">
        <ele>827</ele>
        <time>2020-07-27T13:58:11Z</time>
      </trkpt>
      <trkpt lat="42.87126" lon="1.31133">
        <ele>824</ele>
        <time>2020-07-27T13:58:15Z</time>
      </trkpt>
      <trkpt lat="42.87115" lon="1.31126">
        <ele>824</ele>
        <time>2020-07-27T13:58:17Z</time>
      </trkpt>
      <trkpt lat="42.871" lon="1.3112">
        <ele>824</ele>
        <time>2020-07-27T13:58:20Z</time>
      </trkpt>
      <trkpt lat="42.8707" lon="1.31133">
        <ele>831</ele>
        <time>2020-07-27T13:58:26Z</time>
      </trkpt>
      <trkpt lat="42.87061" lon="1.31134">
        <ele>832</ele>
        <time>2020-07-27T13:58:27Z</time>
      </trkpt>
      <trkpt lat="42.87055" lon="1.31129">
        <ele>831</ele>
        <time>2020-07-27T13:58:28Z</time>
      </trkpt>
      <trkpt lat="42.87036" lon="1.31101">
        <ele>825</ele>
        <time>2020-07-27T13:58:33Z</time>
      </trkpt>
      <trkpt lat="42.87018" lon="1.31085">
        <ele>822</ele>
        <time>2020-07-27T13:58:37Z</time>
      </trkpt>
      <trkpt lat="42.86991" lon="1.31078">
        <ele>822</ele>
        <time>2020-07-27T13:58:42Z</time>
      </trkpt>
      <trkpt lat="42.86933" lon="1.31102">
        <ele>827</ele>
        <time>2020-07-27T13:58:53Z</time>
      </trkpt>
      <trkpt lat="42.86914" lon="1.31108">
        <ele>828</ele>
        <time>2020-07-27T13:58:56Z</time>
      </trkpt>
      <trkpt lat="42.86903" lon="1.31108">
        <ele>829</ele>
        <time>2020-07-27T13:58:58Z</time>
      </trkpt>
      <trkpt lat="42.86884" lon="1.31099">
        <ele>828</ele>
        <time>2020-07-27T13:59:02Z</time>
      </trkpt>
      <trkpt lat="42.86872" lon="1.31098">
        <ele>828</ele>
        <time>2020-07-27T13:59:04Z</time>
      </trkpt>
      <trkpt lat="42.86846" lon="1.31101">
        <ele>831</ele>
        <time>2020-07-27T13:59:09Z</time>
      </trkpt>
      <trkpt lat="42.86824" lon="1.31101">
        <ele>832</ele>
        <time>2020-07-27T13:59:13Z</time>
      </trkpt>
      <trkpt lat="42.86795" lon="1.31104">
        <ele>834</ele>
        <time>2020-07-27T13:59:18Z</time>
      </trkpt>
      <trkpt lat="42.8679" lon="1.31101">
        <ele>834</ele>
        <time>2020-07-27T13:59:19Z</time>
      </trkpt>
      <trkpt lat="42.86786" lon="1.31092">
        <ele>833</ele>
        <time>2020-07-27T13:59:20Z</time>
      </trkpt>
      <trkpt lat="42.86783" lon="1.31083">
        <ele>832</ele>
        <time>2020-07-27T13:59:21Z</time>
      </trkpt>
      <trkpt lat="42.86785" lon="1.31073">
        <ele>833</ele>
        <time>2020-07-27T13:59:23Z</time>
      </trkpt>
      <trkpt lat="42.8679" lon="1.31068">
        <ele>832</ele>
        <time>2020-07-27T13:59:24Z</time>
      </trkpt>
      <trkpt lat="42.86832" lon="1.31036">
        <ele>829</ele>
        <time>2020-07-27T13:59:32Z</time>
      </trkpt>
      <trkpt lat="42.86838" lon="1.31029">
        <ele>829</ele>
        <time>2020-07-27T13:59:34Z</time>
      </trkpt>
      <trkpt lat="42.86842" lon="1.31021">
        <ele>828</ele>
        <time>2020-07-27T13:59:35Z</time>
      </trkpt>
      <trkpt lat="42.86846" lon="1.30999">
        <ele>828</ele>
        <time>2020-07-27T13:59:38Z</time>
      </trkpt>
      <trkpt lat="42.86849" lon="1.30992">
        <ele>829</ele>
        <time>2020-07-27T13:59:39Z</time>
      </trkpt>
      <trkpt lat="42.86854" lon="1.30985">
        <ele>830</ele>
        <time>2020-07-27T13:59:40Z</time>
      </trkpt>
      <trkpt lat="42.86878" lon="1.30969">
        <ele>829</ele>
        <time>2020-07-27T13:59:45Z</time>
      </trkpt>
      <trkpt lat="42.869" lon="1.30914">
        <ele>835</ele>
        <time>2020-07-27T13:59:53Z</time>
      </trkpt>
      <trkpt lat="42.86947" lon="1.30868">
        <ele>835</ele>
        <time>2020-07-27T14:00:04Z</time>
      </trkpt>
      <trkpt lat="42.86977" lon="1.30795">
        <ele>838</ele>
        <time>2020-07-27T14:00:15Z</time>
      </trkpt>
      <trkpt lat="42.87003" lon="1.30759">
        <ele>835</ele>
        <time>2020-07-27T14:00:21Z</time>
      </trkpt>
      <trkpt lat="42.87012" lon="1.30744">
        <ele>836</ele>
        <time>2020-07-27T14:00:24Z</time>
      </trkpt>
      <trkpt lat="42.87016" lon="1.30708">
        <ele>842</ele>
        <time>2020-07-27T14:00:28Z</time>
      </trkpt>
      <trkpt lat="42.87019" lon="1.30703">
        <ele>843</ele>
        <time>2020-07-27T14:00:29Z</time>
      </trkpt>
      <trkpt lat="42.87023" lon="1.307">
        <ele>843</ele>
        <time>2020-07-27T14:00:30Z</time>
      </trkpt>
      <trkpt lat="42.87082" lon="1.30718">
        <ele>835</ele>
        <time>2020-07-27T14:00:41Z</time>
      </trkpt>
      <trkpt lat="42.87125" lon="1.30721">
        <ele>835</ele>
        <time>2020-07-27T14:00:48Z</time>
      </trkpt>
      <trkpt lat="42.87181" lon="1.30714">
        <ele>839</ele>
        <time>2020-07-27T14:00:58Z</time>
      </trkpt>
      <trkpt lat="42.87193" lon="1.30715">
        <ele>840</ele>
        <time>2020-07-27T14:01:01Z</time>
      </trkpt>
      <trkpt lat="42.872" lon="1.30719">
        <ele>839</ele>
        <time>2020-07-27T14:01:02Z</time>
      </trkpt>
      <trkpt lat="42.8723" lon="1.30744">
        <ele>833</ele>
        <time>2020-07-27T14:01:08Z</time>
      </trkpt>
      <trkpt lat="42.87244" lon="1.30747">
        <ele>833</ele>
        <time>2020-07-27T14:01:11Z</time>
      </trkpt>
      <trkpt lat="42.87258" lon="1.30741">
        <ele>833</ele>
        <time>2020-07-27T14:01:13Z</time>
      </trkpt>
      <trkpt lat="42.87284" lon="1.30681">
        <ele>847</ele>
        <time>2020-07-27T14:01:22Z</time>
      </trkpt>
      <trkpt lat="42.87301" lon="1.30667">
        <ele>849</ele>
        <time>2020-07-27T14:01:26Z</time>
      </trkpt>
      <trkpt lat="42.87321" lon="1.30667">
        <ele>847</ele>
        <time>2020-07-27T14:01:30Z</time>
      </trkpt>
      <trkpt lat="42.87356" lon="1.30686">
        <ele>836</ele>
        <time>2020-07-27T14:01:36Z</time>
      </trkpt>
      <trkpt lat="42.87414" lon="1.30674">
        <ele>835</ele>
        <time>2020-07-27T14:01:47Z</time>
      </trkpt>
      <trkpt lat="42.87447" lon="1.30636">
        <ele>836</ele>
        <time>2020-07-27T14:01:54Z</time>
      </trkpt>
      <trkpt lat="42.8748" lon="1.30569">
        <ele>842</ele>
        <time>2020-07-27T14:02:05Z</time>
      </trkpt>
      <trkpt lat="42.87526" lon="1.30518">
        <ele>837</ele>
        <time>2020-07-27T14:02:15Z</time>
      </trkpt>
      <trkpt lat="42.87533" lon="1.30504">
        <ele>837</ele>
        <time>2020-07-27T14:02:18Z</time>
      </trkpt>
      <trkpt lat="42.87535" lon="1.30485">
        <ele>838</ele>
        <time>2020-07-27T14:02:20Z</time>
      </trkpt>
      <trkpt lat="42.87531" lon="1.3043">
        <ele>842</ele>
        <time>2020-07-27T14:02:27Z</time>
      </trkpt>
      <trkpt lat="42.8751" lon="1.30345">
        <ele>855</ele>
        <time>2020-07-27T14:02:39Z</time>
      </trkpt>
      <trkpt lat="42.87535" lon="1.30236">
        <ele>845</ele>
        <time>2020-07-27T14:02:54Z</time>
      </trkpt>
      <trkpt lat="42.87526" lon="1.30188">
        <ele>845</ele>
        <time>2020-07-27T14:03:00Z</time>
      </trkpt>
      <trkpt lat="42.87504" lon="1.30131">
        <ele>845</ele>
        <time>2020-07-27T14:03:09Z</time>
      </trkpt>
      <trkpt lat="42.87493" lon="1.30098">
        <ele>842</ele>
        <time>2020-07-27T14:03:14Z</time>
      </trkpt>
      <trkpt lat="42.87461" lon="1.30101">
        <ele>853</ele>
        <time>2020-07-27T14:03:19Z</time>
      </trkpt>
      <trkpt lat="42.87432" lon="1.30095">
        <ele>862</ele>
        <time>2020-07-27T14:03:24Z</time>
      </trkpt>
      <trkpt lat="42.87426" lon="1.30068">
        <ele>862</ele>
        <time>2020-07-27T14:03:28Z</time>
      </trkpt>
      <trkpt lat="42.87428" lon="1.30033">
        <ele>863</ele>
        <time>2020-07-27T14:03:33Z</time>
      </trkpt>
      <trkpt lat="42.87417" lon="1.29969">
        <ele>870</ele>
        <time>2020-07-27T14:03:41Z</time>
      </trkpt>
      <trkpt lat="42.87416" lon="1.29943">
        <ele>873</ele>
        <time>2020-07-27T14:03:45Z</time>
      </trkpt>
      <trkpt lat="42.87431" lon="1.29929">
        <ele>870</ele>
        <time>2020-07-27T14:03:48Z</time>
      </trkpt>
      <trkpt lat="42.87463" lon="1.29925">
        <ele>863</ele>
        <time>2020-07-27T14:03:54Z</time>
      </trkpt>
      <trkpt lat="42.87448" lon="1.29852">
        <ele>873</ele>
        <time>2020-07-27T14:04:03Z</time>
      </trkpt>
      <trkpt lat="42.87451" lon="1.29841">
        <ele>874</ele>
        <time>2020-07-27T14:04:05Z</time>
      </trkpt>
      <trkpt lat="42.87459" lon="1.29835">
        <ele>874</ele>
        <time>2020-07-27T14:04:07Z</time>
      </trkpt>
      <trkpt lat="42.8747" lon="1.29832">
        <ele>873</ele>
        <time>2020-07-27T14:04:09Z</time>
      </trkpt>
      <trkpt lat="42.87481" lon="1.29832">
        <ele>873</ele>
        <time>2020-07-27T14:04:11Z</time>
      </trkpt>
      <trkpt lat="42.87492" lon="1.29835">
        <ele>871</ele>
        <time>2020-07-27T14:04:13Z</time>
      </trkpt>
      <trkpt lat="42.87502" lon="1.29845">
        <ele>869</ele>
        <time>2020-07-27T14:04:15Z</time>
      </trkpt>
      <trkpt lat="42.87511" lon="1.29863">
        <ele>866</ele>
        <time>2020-07-27T14:04:18Z</time>
      </trkpt>
      <trkpt lat="42.8752" lon="1.29887">
        <ele>862</ele>
        <time>2020-07-27T14:04:21Z</time>
      </trkpt>
      <trkpt lat="42.87529" lon="1.29894">
        <ele>861</ele>
        <time>2020-07-27T14:04:23Z</time>
      </trkpt>
      <trkpt lat="42.87568" lon="1.299">
        <ele>862</ele>
        <time>2020-07-27T14:04:30Z</time>
      </trkpt>
      <trkpt lat="42.87585" lon="1.29907">
        <ele>861</ele>
        <time>2020-07-27T14:04:33Z</time>
      </trkpt>
      <trkpt lat="42.87599" lon="1.29919">
        <ele>859</ele>
        <time>2020-07-27T14:04:36Z</time>
      </trkpt>
      <trkpt lat="42.87606" lon="1.29936">
        <ele>856</ele>
        <time>2020-07-27T14:04:39Z</time>
      </trkpt>
      <trkpt lat="42.87614" lon="1.29941">
        <ele>856</ele>
        <time>2020-07-27T14:04:40Z</time>
      </trkpt>
      <trkpt lat="42.87653" lon="1.29933">
        <ele>862</ele>
        <time>2020-07-27T14:04:47Z</time>
      </trkpt>
      <trkpt lat="42.87668" lon="1.29926">
        <ele>865</ele>
        <time>2020-07-27T14:04:50Z</time>
      </trkpt>
      <trkpt lat="42.87701" lon="1.29922">
        <ele>865</ele>
        <time>2020-07-27T14:04:56Z</time>
      </trkpt>
      <trkpt lat="42.87712" lon="1.29917">
        <ele>865</ele>
        <time>2020-07-27T14:04:58Z</time>
      </trkpt>
      <trkpt lat="42.8775" lon="1.29813">
        <ele>889</ele>
        <time>2020-07-27T14:05:13Z</time>
      </trkpt>
      <trkpt lat="42.87791" lon="1.29783">
        <ele>887</ele>
        <time>2020-07-27T14:05:21Z</time>
      </trkpt>
      <trkpt lat="42.87806" lon="1.29764">
        <ele>888</ele>
        <time>2020-07-27T14:05:25Z</time>
      </trkpt>
      <trkpt lat="42.87809" lon="1.29722">
        <ele>897</ele>
        <time>2020-07-27T14:05:31Z</time>
      </trkpt>
      <trkpt lat="42.87813" lon="1.29712">
        <ele>898</ele>
        <time>2020-07-27T14:05:32Z</time>
      </trkpt>
      <trkpt lat="42.87828" lon="1.29708">
        <ele>895</ele>
        <time>2020-07-27T14:05:35Z</time>
      </trkpt>
      <trkpt lat="42.87852" lon="1.29711">
        <ele>889</ele>
        <time>2020-07-27T14:05:39Z</time>
      </trkpt>
      <trkpt lat="42.8786" lon="1.29708">
        <ele>887</ele>
        <time>2020-07-27T14:05:41Z</time>
      </trkpt>
      <trkpt lat="42.87866" lon="1.29702">
        <ele>886</ele>
        <time>2020-07-27T14:05:42Z</time>
      </trkpt>
      <trkpt lat="42.87868" lon="1.29692">
        <ele>887</ele>
        <time>2020-07-27T14:05:43Z</time>
      </trkpt>
      <trkpt lat="42.87869" lon="1.29642">
        <ele>893</ele>
        <time>2020-07-27T14:05:50Z</time>
      </trkpt>
      <trkpt lat="42.8786" lon="1.296">
        <ele>899</ele>
        <time>2020-07-27T14:05:55Z</time>
      </trkpt>
      <trkpt lat="42.87832" lon="1.29573">
        <ele>909</ele>
        <time>2020-07-27T14:06:02Z</time>
      </trkpt>
      <trkpt lat="42.87811" lon="1.2955">
        <ele>917</ele>
        <time>2020-07-27T14:06:06Z</time>
      </trkpt>
      <trkpt lat="42.87816" lon="1.29527">
        <ele>917</ele>
        <time>2020-07-27T14:06:09Z</time>
      </trkpt>
      <trkpt lat="42.87832" lon="1.29475">
        <ele>917</ele>
        <time>2020-07-27T14:06:17Z</time>
      </trkpt>
      <trkpt lat="42.87864" lon="1.29462">
        <ele>914</ele>
        <time>2020-07-27T14:06:23Z</time>
      </trkpt>
      <trkpt lat="42.87885" lon="1.29432">
        <ele>917</ele>
        <time>2020-07-27T14:06:28Z</time>
      </trkpt>
      <trkpt lat="42.87913" lon="1.29387">
        <ele>928</ele>
        <time>2020-07-27T14:06:36Z</time>
      </trkpt>
      <trkpt lat="42.87928" lon="1.29383">
        <ele>928</ele>
        <time>2020-07-27T14:06:39Z</time>
      </trkpt>
      <trkpt lat="42.87944" lon="1.29417">
        <ele>918</ele>
        <time>2020-07-27T14:06:44Z</time>
      </trkpt>
      <trkpt lat="42.87962" lon="1.29452">
        <ele>912</ele>
        <time>2020-07-27T14:06:49Z</time>
      </trkpt>
      <trkpt lat="42.87973" lon="1.29464">
        <ele>910</ele>
        <time>2020-07-27T14:06:52Z</time>
      </trkpt>
      <trkpt lat="42.8799" lon="1.2947">
        <ele>911</ele>
        <time>2020-07-27T14:06:55Z</time>
      </trkpt>
      <trkpt lat="42.88" lon="1.29463">
        <ele>913</ele>
        <time>2020-07-27T14:06:57Z</time>
      </trkpt>
      <trkpt lat="42.88003" lon="1.29446">
        <ele>915</ele>
        <time>2020-07-27T14:06:59Z</time>
      </trkpt>
      <trkpt lat="42.88" lon="1.29416">
        <ele>919</ele>
        <time>2020-07-27T14:07:03Z</time>
      </trkpt>
      <trkpt lat="42.88001" lon="1.29374">
        <ele>928</ele>
        <time>2020-07-27T14:07:09Z</time>
      </trkpt>
      <trkpt lat="42.88013" lon="1.29308">
        <ele>940</ele>
        <time>2020-07-27T14:07:18Z</time>
      </trkpt>
      <trkpt lat="42.88034" lon="1.29255">
        <ele>947</ele>
        <time>2020-07-27T14:07:25Z</time>
      </trkpt>
      <trkpt lat="42.88081" lon="1.29191">
        <ele>946</ele>
        <time>2020-07-27T14:07:37Z</time>
      </trkpt>
      <trkpt lat="42.88094" lon="1.29119">
        <ele>949</ele>
        <time>2020-07-27T14:07:47Z</time>
      </trkpt>
      <trkpt lat="42.88111" lon="1.29086">
        <ele>949</ele>
        <time>2020-07-27T14:07:52Z</time>
      </trkpt>
      <trkpt lat="42.88115" lon="1.29072">
        <ele>949</ele>
        <time>2020-07-27T14:07:54Z</time>
      </trkpt>
      <trkpt lat="42.88114" lon="1.29055">
        <ele>949</ele>
        <time>2020-07-27T14:07:56Z</time>
      </trkpt>
      <trkpt lat="42.88109" lon="1.29046">
        <ele>949</ele>
        <time>2020-07-27T14:07:58Z</time>
      </trkpt>
      <trkpt lat="42.8806" lon="1.29016">
        <ele>949</ele>
        <time>2020-07-27T14:08:07Z</time>
      </trkpt>
      <trkpt lat="42.87993" lon="1.28991">
        <ele>954</ele>
        <time>2020-07-27T14:08:20Z</time>
      </trkpt>
      <trkpt lat="42.87966" lon="1.28963">
        <ele>955</ele>
        <time>2020-07-27T14:08:26Z</time>
      </trkpt>
      <trkpt lat="42.87925" lon="1.2887">
        <ele>951</ele>
        <time>2020-07-27T14:08:40Z</time>
      </trkpt>
      <trkpt lat="42.87904" lon="1.28855">
        <ele>949</ele>
        <time>2020-07-27T14:08:44Z</time>
      </trkpt>
      <trkpt lat="42.87864" lon="1.28909">
        <ele>951</ele>
        <time>2020-07-27T14:08:54Z</time>
      </trkpt>
      <trkpt lat="42.87848" lon="1.2896">
        <ele>952</ele>
        <time>2020-07-27T14:09:01Z</time>
      </trkpt>
      <trkpt lat="42.87841" lon="1.28989">
        <ele>952</ele>
        <time>2020-07-27T14:09:05Z</time>
      </trkpt>
      <trkpt lat="42.87825" lon="1.28995">
        <ele>954</ele>
        <time>2020-07-27T14:09:08Z</time>
      </trkpt>
      <trkpt lat="42.87801" lon="1.28981">
        <ele>958</ele>
        <time>2020-07-27T14:09:13Z</time>
      </trkpt>
      <trkpt lat="42.87786" lon="1.28934">
        <ele>958</ele>
        <time>2020-07-27T14:09:20Z</time>
      </trkpt>
      <trkpt lat="42.8778" lon="1.28826">
        <ele>948</ele>
        <time>2020-07-27T14:09:34Z</time>
      </trkpt>
      <trkpt lat="42.87754" lon="1.28813">
        <ele>949</ele>
        <time>2020-07-27T14:09:39Z</time>
      </trkpt>
      <trkpt lat="42.87737" lon="1.28826">
        <ele>952</ele>
        <time>2020-07-27T14:09:42Z</time>
      </trkpt>
      <trkpt lat="42.87688" lon="1.28856">
        <ele>958</ele>
        <time>2020-07-27T14:09:52Z</time>
      </trkpt>
      <trkpt lat="42.87648" lon="1.28843">
        <ele>963</ele>
        <time>2020-07-27T14:09:59Z</time>
      </trkpt>
      <trkpt lat="42.87629" lon="1.28826">
        <ele>969</ele>
        <time>2020-07-27T14:10:03Z</time>
      </trkpt>
      <trkpt lat="42.87665" lon="1.28716">
        <ele>951</ele>
        <time>2020-07-27T14:10:19Z</time>
      </trkpt>
      <trkpt lat="42.87668" lon="1.2868">
        <ele>948</ele>
        <time>2020-07-27T14:10:24Z</time>
      </trkpt>
      <trkpt lat="42.87661" lon="1.2866">
        <ele>950</ele>
        <time>2020-07-27T14:10:26Z</time>
      </trkpt>
      <trkpt lat="42.87631" lon="1.2861">
        <ele>958</ele>
        <time>2020-07-27T14:10:35Z</time>
      </trkpt>
      <trkpt lat="42.87631" lon="1.28516">
        <ele>953</ele>
        <time>2020-07-27T14:10:47Z</time>
      </trkpt>
      <trkpt lat="42.87626" lon="1.2844">
        <ele>948</ele>
        <time>2020-07-27T14:10:57Z</time>
      </trkpt>
      <trkpt lat="42.87601" lon="1.28374">
        <ele>951</ele>
        <time>2020-07-27T14:11:07Z</time>
      </trkpt>
      <trkpt lat="42.87598" lon="1.28313">
        <ele>945</ele>
        <time>2020-07-27T14:11:15Z</time>
      </trkpt>
      <trkpt lat="42.87586" lon="1.28285">
        <ele>944</ele>
        <time>2020-07-27T14:11:19Z</time>
      </trkpt>
      <trkpt lat="42.87568" lon="1.28265">
        <ele>944</ele>
        <time>2020-07-27T14:11:23Z</time>
      </trkpt>
      <trkpt lat="42.87532" lon="1.2826">
        <ele>950</ele>
        <time>2020-07-27T14:11:30Z</time>
      </trkpt>
      <trkpt lat="42.87488" lon="1.28245">
        <ele>957</ele>
        <time>2020-07-27T14:11:38Z</time>
      </trkpt>
      <trkpt lat="42.87441" lon="1.28194">
        <ele>967</ele>
        <time>2020-07-27T14:11:48Z</time>
      </trkpt>
      <trkpt lat="42.87443" lon="1.28167">
        <ele>964</ele>
        <time>2020-07-27T14:11:52Z</time>
      </trkpt>
      <trkpt lat="42.87448" lon="1.28137">
        <ele>961</ele>
        <time>2020-07-27T14:11:56Z</time>
      </trkpt>
      <trkpt lat="42.87463" lon="1.28122">
        <ele>956</ele>
        <time>2020-07-27T14:11:59Z</time>
      </trkpt>
      <trkpt lat="42.87468" lon="1.28114">
        <ele>955</ele>
        <time>2020-07-27T14:12:01Z</time>
      </trkpt>
      <trkpt lat="42.87481" lon="1.28082">
        <ele>952</ele>
        <time>2020-07-27T14:12:05Z</time>
      </trkpt>
      <trkpt lat="42.87504" lon="1.2806">
        <ele>948</ele>
        <time>2020-07-27T14:12:10Z</time>
      </trkpt>
      <trkpt lat="42.87524" lon="1.28047">
        <ele>945</ele>
        <time>2020-07-27T14:12:14Z</time>
      </trkpt>
      <trkpt lat="42.87535" lon="1.28031">
        <ele>944</ele>
        <time>2020-07-27T14:12:17Z</time>
      </trkpt>
      <trkpt lat="42.87535" lon="1.28013">
        <ele>946</ele>
        <time>2020-07-27T14:12:19Z</time>
      </trkpt>
      <trkpt lat="42.87506" lon="1.27949">
        <ele>948</ele>
        <time>2020-07-27T14:12:29Z</time>
      </trkpt>
      <trkpt lat="42.87498" lon="1.27913">
        <ele>946</ele>
        <time>2020-07-27T14:12:34Z</time>
      </trkpt>
      <trkpt lat="42.8748" lon="1.27872">
        <ele>948</ele>
        <time>2020-07-27T14:12:40Z</time>
      </trkpt>
      <trkpt lat="42.87451" lon="1.27837">
        <ele>952</ele>
        <time>2020-07-27T14:12:47Z</time>
      </trkpt>
      <trkpt lat="42.87437" lon="1.27813">
        <ele>954</ele>
        <time>2020-07-27T14:12:51Z</time>
      </trkpt>
      <trkpt lat="42.87433" lon="1.27785">
        <ele>952</ele>
        <time>2020-07-27T14:12:55Z</time>
      </trkpt>
      <trkpt lat="42.87438" lon="1.27753">
        <ele>946</ele>
        <time>2020-07-27T14:12:59Z</time>
      </trkpt>
      <trkpt lat="42.87489" lon="1.27676">
        <ele>935</ele>
        <time>2020-07-27T14:13:13Z</time>
      </trkpt>
      <trkpt lat="42.87501" lon="1.27636">
        <ele>929</ele>
        <time>2020-07-27T14:13:18Z</time>
      </trkpt>
      <trkpt lat="42.875" lon="1.2762">
        <ele>927</ele>
        <time>2020-07-27T14:13:21Z</time>
      </trkpt>
      <trkpt lat="42.87487" lon="1.27609">
        <ele>928</ele>
        <time>2020-07-27T14:13:23Z</time>
      </trkpt>
      <trkpt lat="42.87456" lon="1.27591">
        <ele>931</ele>
        <time>2020-07-27T14:13:29Z</time>
      </trkpt>
      <trkpt lat="42.87419" lon="1.27564">
        <ele>934</ele>
        <time>2020-07-27T14:13:37Z</time>
      </trkpt>
      <trkpt lat="42.87413" lon="1.27539">
        <ele>933</ele>
        <time>2020-07-27T14:13:40Z</time>
      </trkpt>
      <trkpt lat="42.87414" lon="1.275">
        <ele>928</ele>
        <time>2020-07-27T14:13:45Z</time>
      </trkpt>
      <trkpt lat="42.87418" lon="1.27457">
        <ele>922</ele>
        <time>2020-07-27T14:13:51Z</time>
      </trkpt>
      <trkpt lat="42.87404" lon="1.27402">
        <ele>917</ele>
        <time>2020-07-27T14:13:58Z</time>
      </trkpt>
      <trkpt lat="42.87347" lon="1.27351">
        <ele>916</ele>
        <time>2020-07-27T14:14:11Z</time>
      </trkpt>
      <trkpt lat="42.87312" lon="1.27326">
        <ele>912</ele>
        <time>2020-07-27T14:14:18Z</time>
      </trkpt>
      <trkpt lat="42.87292" lon="1.273">
        <ele>909</ele>
        <time>2020-07-27T14:14:23Z</time>
      </trkpt>
      <trkpt lat="42.87285" lon="1.27287">
        <ele>907</ele>
        <time>2020-07-27T14:14:25Z</time>
      </trkpt>
      <trkpt lat="42.87282" lon="1.27273">
        <ele>905</ele>
        <time>2020-07-27T14:14:27Z</time>
      </trkpt>
      <trkpt lat="42.87284" lon="1.2726">
        <ele>903</ele>
        <time>2020-07-27T14:14:28Z</time>
      </trkpt>
      <trkpt lat="42.87292" lon="1.2724">
        <ele>900</ele>
        <time>2020-07-27T14:14:31Z</time>
      </trkpt>
      <trkpt lat="42.87296" lon="1.27225">
        <ele>898</ele>
        <time>2020-07-27T14:14:33Z</time>
      </trkpt>
      <trkpt lat="42.87295" lon="1.27209">
        <ele>897</ele>
        <time>2020-07-27T14:14:35Z</time>
      </trkpt>
      <trkpt lat="42.87288" lon="1.27191">
        <ele>895</ele>
        <time>2020-07-27T14:14:38Z</time>
      </trkpt>
      <trkpt lat="42.87278" lon="1.2718">
        <ele>895</ele>
        <time>2020-07-27T14:14:40Z</time>
      </trkpt>
      <trkpt lat="42.87247" lon="1.2717">
        <ele>894</ele>
        <time>2020-07-27T14:14:46Z</time>
      </trkpt>
      <trkpt lat="42.87236" lon="1.27161">
        <ele>892</ele>
        <time>2020-07-27T14:14:48Z</time>
      </trkpt>
      <trkpt lat="42.8723" lon="1.27152">
        <ele>891</ele>
        <time>2020-07-27T14:14:50Z</time>
      </trkpt>
      <trkpt lat="42.87223" lon="1.27134">
        <ele>890</ele>
        <time>2020-07-27T14:14:53Z</time>
      </trkpt>
      <trkpt lat="42.87219" lon="1.27114">
        <ele>889</ele>
        <time>2020-07-27T14:14:55Z</time>
      </trkpt>
      <trkpt lat="42.87218" lon="1.27098">
        <ele>889</ele>
        <time>2020-07-27T14:14:57Z</time>
      </trkpt>
      <trkpt lat="42.87221" lon="1.27085">
        <ele>889</ele>
        <time>2020-07-27T14:14:59Z</time>
      </trkpt>
      <trkpt lat="42.87225" lon="1.27076">
        <ele>888</ele>
        <time>2020-07-27T14:15:01Z</time>
      </trkpt>
      <trkpt lat="42.87232" lon="1.27067">
        <ele>888</ele>
        <time>2020-07-27T14:15:02Z</time>
      </trkpt>
      <trkpt lat="42.87261" lon="1.27041">
        <ele>888</ele>
        <time>2020-07-27T14:15:08Z</time>
      </trkpt>
      <trkpt lat="42.87266" lon="1.27033">
        <ele>888</ele>
        <time>2020-07-27T14:15:10Z</time>
      </trkpt>
      <trkpt lat="42.8727" lon="1.2702">
        <ele>888</ele>
        <time>2020-07-27T14:15:12Z</time>
      </trkpt>
      <trkpt lat="42.87277" lon="1.26981">
        <ele>887</ele>
        <time>2020-07-27T14:15:17Z</time>
      </trkpt>
      <trkpt lat="42.87277" lon="1.26962">
        <ele>886</ele>
        <time>2020-07-27T14:15:19Z</time>
      </trkpt>
      <trkpt lat="42.87276" lon="1.26951">
        <ele>886</ele>
        <time>2020-07-27T14:15:21Z</time>
      </trkpt>
      <trkpt lat="42.87272" lon="1.2694">
        <ele>885</ele>
        <time>2020-07-27T14:15:22Z</time>
      </trkpt>
      <trkpt lat="42.87257" lon="1.26908">
        <ele>883</ele>
        <time>2020-07-27T14:15:27Z</time>
      </trkpt>
      <trkpt lat="42.87254" lon="1.26896">
        <ele>882</ele>
        <time>2020-07-27T14:15:29Z</time>
      </trkpt>
      <trkpt lat="42.87254" lon="1.26885">
        <ele>881</ele>
        <time>2020-07-27T14:15:30Z</time>
      </trkpt>
      <trkpt lat="42.87255" lon="1.26874">
        <ele>880</ele>
        <time>2020-07-27T14:15:32Z</time>
      </trkpt>
      <trkpt lat="42.87259" lon="1.26865">
        <ele>879</ele>
        <time>2020-07-27T14:15:33Z</time>
      </trkpt>
      <trkpt lat="42.87265" lon="1.26857">
        <ele>879</ele>
        <time>2020-07-27T14:15:35Z</time>
      </trkpt>
      <trkpt lat="42.873" lon="1.26831">
        <ele>879</ele>
        <time>2020-07-27T14:15:42Z</time>
      </trkpt>
      <trkpt lat="42.87303" lon="1.26825">
        <ele>879</ele>
        <time>2020-07-27T14:15:43Z</time>
      </trkpt>
      <trkpt lat="42.87301" lon="1.26813">
        <ele>878</ele>
        <time>2020-07-27T14:15:44Z</time>
      </trkpt>
      <trkpt lat="42.87297" lon="1.2681">
        <ele>878</ele>
        <time>2020-07-27T14:15:45Z</time>
      </trkpt>
      <trkpt lat="42.87291" lon="1.26809">
        <ele>877</ele>
        <time>2020-07-27T14:15:46Z</time>
      </trkpt>
      <trkpt lat="42.87267" lon="1.26823">
        <ele>877</ele>
        <time>2020-07-27T14:15:51Z</time>
      </trkpt>
      <trkpt lat="42.87237" lon="1.26857">
        <ele>876</ele>
        <time>2020-07-27T14:15:58Z</time>
      </trkpt>
      <trkpt lat="42.8723" lon="1.2687">
        <ele>875</ele>
        <time>2020-07-27T14:16:00Z</time>
      </trkpt>
      <trkpt lat="42.8722" lon="1.26893">
        <ele>876</ele>
        <time>2020-07-27T14:16:03Z</time>
      </trkpt>
      <trkpt lat="42.87215" lon="1.26901">
        <ele>875</ele>
        <time>2020-07-27T14:16:05Z</time>
      </trkpt>
      <trkpt lat="42.87209" lon="1.26905">
        <ele>875</ele>
        <time>2020-07-27T14:16:06Z</time>
      </trkpt>
      <trkpt lat="42.87202" lon="1.26908">
        <ele>874</ele>
        <time>2020-07-27T14:16:07Z</time>
      </trkpt>
      <trkpt lat="42.87184" lon="1.26911">
        <ele>871</ele>
        <time>2020-07-27T14:16:11Z</time>
      </trkpt>
      <trkpt lat="42.87175" lon="1.26915">
        <ele>869</ele>
        <time>2020-07-27T14:16:12Z</time>
      </trkpt>
      <trkpt lat="42.87091" lon="1.27">
        <ele>870</ele>
        <time>2020-07-27T14:16:31Z</time>
      </trkpt>
      <trkpt lat="42.87079" lon="1.27011">
        <ele>869</ele>
        <time>2020-07-27T14:16:33Z</time>
      </trkpt>
      <trkpt lat="42.87055" lon="1.27026">
        <ele>867</ele>
        <time>2020-07-27T14:16:38Z</time>
      </trkpt>
      <trkpt lat="42.87041" lon="1.27029">
        <ele>865</ele>
        <time>2020-07-27T14:16:41Z</time>
      </trkpt>
      <trkpt lat="42.87004" lon="1.27033">
        <ele>859</ele>
        <time>2020-07-27T14:16:47Z</time>
      </trkpt>
      <trkpt lat="42.8694" lon="1.27074">
        <ele>855</ele>
        <time>2020-07-27T14:17:00Z</time>
      </trkpt>
      <trkpt lat="42.86907" lon="1.27059">
        <ele>849</ele>
        <time>2020-07-27T14:17:06Z</time>
      </trkpt>
      <trkpt lat="42.86899" lon="1.27059">
        <ele>848</ele>
        <time>2020-07-27T14:17:07Z</time>
      </trkpt>
      <trkpt lat="42.86883" lon="1.27069">
        <ele>848</ele>
        <time>2020-07-27T14:17:11Z</time>
      </trkpt>
      <trkpt lat="42.86861" lon="1.27071">
        <ele>846</ele>
        <time>2020-07-27T14:17:14Z</time>
      </trkpt>
      <trkpt lat="42.86847" lon="1.27067">
        <ele>844</ele>
        <time>2020-07-27T14:17:17Z</time>
      </trkpt>
      <trkpt lat="42.86836" lon="1.27067">
        <ele>843</ele>
        <time>2020-07-27T14:17:19Z</time>
      </trkpt>
      <trkpt lat="42.86795" lon="1.27086">
        <ele>842</ele>
        <time>2020-07-27T14:17:27Z</time>
      </trkpt>
      <trkpt lat="42.86769" lon="1.27089">
        <ele>840</ele>
        <time>2020-07-27T14:17:31Z</time>
      </trkpt>
      <trkpt lat="42.8675" lon="1.27096">
        <ele>840</ele>
        <time>2020-07-27T14:17:35Z</time>
      </trkpt>
      <trkpt lat="42.86722" lon="1.27099">
        <ele>838</ele>
        <time>2020-07-27T14:17:40Z</time>
      </trkpt>
      <trkpt lat="42.86699" lon="1.27112">
        <ele>839</ele>
        <time>2020-07-27T14:17:44Z</time>
      </trkpt>
      <trkpt lat="42.86692" lon="1.27112">
        <ele>839</ele>
        <time>2020-07-27T14:17:45Z</time>
      </trkpt>
      <trkpt lat="42.86686" lon="1.27105">
        <ele>837</ele>
        <time>2020-07-27T14:17:47Z</time>
      </trkpt>
      <trkpt lat="42.86687" lon="1.27096">
        <ele>835</ele>
        <time>2020-07-27T14:17:48Z</time>
      </trkpt>
      <trkpt lat="42.86694" lon="1.27085">
        <ele>833</ele>
        <time>2020-07-27T14:17:50Z</time>
      </trkpt>
      <trkpt lat="42.86714" lon="1.27068">
        <ele>832</ele>
        <time>2020-07-27T14:17:54Z</time>
      </trkpt>
      <trkpt lat="42.86737" lon="1.2704">
        <ele>831</ele>
        <time>2020-07-27T14:18:00Z</time>
      </trkpt>
      <trkpt lat="42.86759" lon="1.27006">
        <ele>828</ele>
        <time>2020-07-27T14:18:06Z</time>
      </trkpt>
      <trkpt lat="42.86768" lon="1.26987">
        <ele>827</ele>
        <time>2020-07-27T14:18:09Z</time>
      </trkpt>
      <trkpt lat="42.86797" lon="1.26936">
        <ele>823</ele>
        <time>2020-07-27T14:18:17Z</time>
      </trkpt>
      <trkpt lat="42.86799" lon="1.26917">
        <ele>822</ele>
        <time>2020-07-27T14:18:19Z</time>
      </trkpt>
      <trkpt lat="42.86788" lon="1.26885">
        <ele>819</ele>
        <time>2020-07-27T14:18:24Z</time>
      </trkpt>
      <trkpt lat="42.86785" lon="1.26868">
        <ele>818</ele>
        <time>2020-07-27T14:18:26Z</time>
      </trkpt>
      <trkpt lat="42.86785" lon="1.26835">
        <ele>817</ele>
        <time>2020-07-27T14:18:31Z</time>
      </trkpt>
      <trkpt lat="42.86799" lon="1.26804">
        <ele>817</ele>
        <time>2020-07-27T14:18:35Z</time>
      </trkpt>
      <trkpt lat="42.86812" lon="1.26736">
        <ele>816</ele>
        <time>2020-07-27T14:18:45Z</time>
      </trkpt>
      <trkpt lat="42.86812" lon="1.26702">
        <ele>814</ele>
        <time>2020-07-27T14:18:49Z</time>
      </trkpt>
      <trkpt lat="42.86814" lon="1.26687">
        <ele>812</ele>
        <time>2020-07-27T14:18:51Z</time>
      </trkpt>
      <trkpt lat="42.86826" lon="1.26653">
        <ele>812</ele>
        <time>2020-07-27T14:18:56Z</time>
      </trkpt>
      <trkpt lat="42.86828" lon="1.26638">
        <ele>812</ele>
        <time>2020-07-27T14:18:58Z</time>
      </trkpt>
      <trkpt lat="42.86827" lon="1.26624">
        <ele>812</ele>
        <time>2020-07-27T14:19:00Z</time>
      </trkpt>
      <trkpt lat="42.86823" lon="1.26615">
        <ele>812</ele>
        <time>2020-07-27T14:19:01Z</time>
      </trkpt>
      <trkpt lat="42.86816" lon="1.26608">
        <ele>811</ele>
        <time>2020-07-27T14:19:03Z</time>
      </trkpt>
      <trkpt lat="42.86776" lon="1.26595">
        <ele>807</ele>
        <time>2020-07-27T14:19:10Z</time>
      </trkpt>
      <trkpt lat="42.86734" lon="1.26587">
        <ele>802</ele>
        <time>2020-07-27T14:19:17Z</time>
      </trkpt>
      <trkpt lat="42.86728" lon="1.26584">
        <ele>801</ele>
        <time>2020-07-27T14:19:19Z</time>
      </trkpt>
      <trkpt lat="42.86698" lon="1.26534">
        <ele>800</ele>
        <time>2020-07-27T14:19:27Z</time>
      </trkpt>
      <trkpt lat="42.86662" lon="1.26495">
        <ele>796</ele>
        <time>2020-07-27T14:19:35Z</time>
      </trkpt>
      <trkpt lat="42.86652" lon="1.2648">
        <ele>795</ele>
        <time>2020-07-27T14:19:38Z</time>
      </trkpt>
      <trkpt lat="42.86647" lon="1.26464">
        <ele>794</ele>
        <time>2020-07-27T14:19:40Z</time>
      </trkpt>
      <trkpt lat="42.86646" lon="1.26448">
        <ele>793</ele>
        <time>2020-07-27T14:19:42Z</time>
      </trkpt>
      <trkpt lat="42.86647" lon="1.26417">
        <ele>793</ele>
        <time>2020-07-27T14:19:46Z</time>
      </trkpt>
      <trkpt lat="42.86652" lon="1.26397">
        <ele>792</ele>
        <time>2020-07-27T14:19:49Z</time>
      </trkpt>
      <trkpt lat="42.86687" lon="1.26304">
        <ele>790</ele>
        <time>2020-07-27T14:20:03Z</time>
      </trkpt>
      <trkpt lat="42.86688" lon="1.26295">
        <ele>791</ele>
        <time>2020-07-27T14:20:04Z</time>
      </trkpt>
      <trkpt lat="42.86687" lon="1.26283">
        <ele>790</ele>
        <time>2020-07-27T14:20:05Z</time>
      </trkpt>
      <trkpt lat="42.86683" lon="1.26264">
        <ele>789</ele>
        <time>2020-07-27T14:20:08Z</time>
      </trkpt>
      <trkpt lat="42.86684" lon="1.26253">
        <ele>789</ele>
        <time>2020-07-27T14:20:09Z</time>
      </trkpt>
      <trkpt lat="42.86688" lon="1.26236">
        <ele>790</ele>
        <time>2020-07-27T14:20:12Z</time>
      </trkpt>
      <trkpt lat="42.86689" lon="1.26218">
        <ele>791</ele>
        <time>2020-07-27T14:20:14Z</time>
      </trkpt>
      <trkpt lat="42.86685" lon="1.26196">
        <ele>790</ele>
        <time>2020-07-27T14:20:17Z</time>
      </trkpt>
      <trkpt lat="42.86677" lon="1.26173">
        <ele>788</ele>
        <time>2020-07-27T14:20:20Z</time>
      </trkpt>
      <trkpt lat="42.86673" lon="1.26153">
        <ele>787</ele>
        <time>2020-07-27T14:20:23Z</time>
      </trkpt>
      <trkpt lat="42.86669" lon="1.26139">
        <ele>785</ele>
        <time>2020-07-27T14:20:25Z</time>
      </trkpt>
      <trkpt lat="42.86664" lon="1.2613">
        <ele>784</ele>
        <time>2020-07-27T14:20:27Z</time>
      </trkpt>
      <trkpt lat="42.86659" lon="1.26128">
        <ele>783</ele>
        <time>2020-07-27T14:20:27Z</time>
      </trkpt>
      <trkpt lat="42.86658" lon="1.26115">
        <ele>782</ele>
        <time>2020-07-27T14:20:29Z</time>
      </trkpt>
      <trkpt lat="42.86658" lon="1.26105">
        <ele>782</ele>
        <time>2020-07-27T14:20:30Z</time>
      </trkpt>
      <trkpt lat="42.86661" lon="1.26094">
        <ele>783</ele>
        <time>2020-07-27T14:20:32Z</time>
      </trkpt>
      <trkpt lat="42.86671" lon="1.2607">
        <ele>786</ele>
        <time>2020-07-27T14:20:36Z</time>
      </trkpt>
      <trkpt lat="42.86722" lon="1.25861">
        <ele>788</ele>
        <time>2020-07-27T14:21:04Z</time>
      </trkpt>
      <trkpt lat="42.86751" lon="1.25733">
        <ele>793</ele>
        <time>2020-07-27T14:21:22Z</time>
      </trkpt>
      <trkpt lat="42.86749" lon="1.25676">
        <ele>792</ele>
        <time>2020-07-27T14:21:29Z</time>
      </trkpt>
      <trkpt lat="42.86757" lon="1.25636">
        <ele>794</ele>
        <time>2020-07-27T14:21:35Z</time>
      </trkpt>
      <trkpt lat="42.86759" lon="1.25591">
        <ele>794</ele>
        <time>2020-07-27T14:21:41Z</time>
      </trkpt>
      <trkpt lat="42.86757" lon="1.25549">
        <ele>795</ele>
        <time>2020-07-27T14:21:46Z</time>
      </trkpt>
      <trkpt lat="42.86719" lon="1.25486">
        <ele>788</ele>
        <time>2020-07-27T14:21:57Z</time>
      </trkpt>
      <trkpt lat="42.86707" lon="1.25447">
        <ele>789</ele>
        <time>2020-07-27T14:22:02Z</time>
      </trkpt>
      <trkpt lat="42.86683" lon="1.25402">
        <ele>791</ele>
        <time>2020-07-27T14:22:09Z</time>
      </trkpt>
      <trkpt lat="42.86682" lon="1.2538">
        <ele>792</ele>
        <time>2020-07-27T14:22:12Z</time>
      </trkpt>
      <trkpt lat="42.8669" lon="1.25347">
        <ele>796</ele>
        <time>2020-07-27T14:22:17Z</time>
      </trkpt>
      <trkpt lat="42.86703" lon="1.25321">
        <ele>797</ele>
        <time>2020-07-27T14:22:21Z</time>
      </trkpt>
      <trkpt lat="42.86716" lon="1.25305">
        <ele>797</ele>
        <time>2020-07-27T14:22:24Z</time>
      </trkpt>
      <trkpt lat="42.8677" lon="1.25251">
        <ele>792</ele>
        <time>2020-07-27T14:22:36Z</time>
      </trkpt>
      <trkpt lat="42.86802" lon="1.25234">
        <ele>788</ele>
        <time>2020-07-27T14:22:42Z</time>
      </trkpt>
      <trkpt lat="42.86829" lon="1.25236">
        <ele>786</ele>
        <time>2020-07-27T14:22:47Z</time>
      </trkpt>
      <trkpt lat="42.86861" lon="1.25232">
        <ele>785</ele>
        <time>2020-07-27T14:22:53Z</time>
      </trkpt>
      <trkpt lat="42.86874" lon="1.25238">
        <ele>786</ele>
        <time>2020-07-27T14:22:55Z</time>
      </trkpt>
      <trkpt lat="42.86882" lon="1.25233">
        <ele>786</ele>
        <time>2020-07-27T14:22:57Z</time>
      </trkpt>
      <trkpt lat="42.8689" lon="1.25222">
        <ele>784</ele>
        <time>2020-07-27T14:22:59Z</time>
      </trkpt>
      <trkpt lat="42.86899" lon="1.25199">
        <ele>781</ele>
        <time>2020-07-27T14:23:02Z</time>
      </trkpt>
      <trkpt lat="42.86903" lon="1.25182">
        <ele>779</ele>
        <time>2020-07-27T14:23:04Z</time>
      </trkpt>
      <trkpt lat="42.86907" lon="1.25155">
        <ele>775</ele>
        <time>2020-07-27T14:23:08Z</time>
      </trkpt>
      <trkpt lat="42.8691" lon="1.25122">
        <ele>773</ele>
        <time>2020-07-27T14:23:12Z</time>
      </trkpt>
      <trkpt lat="42.86906" lon="1.25081">
        <ele>769</ele>
        <time>2020-07-27T14:23:18Z</time>
      </trkpt>
      <trkpt lat="42.8688" lon="1.25003">
        <ele>764</ele>
        <time>2020-07-27T14:23:29Z</time>
      </trkpt>
      <trkpt lat="42.86815" lon="1.24894">
        <ele>756</ele>
        <time>2020-07-27T14:23:47Z</time>
      </trkpt>
      <trkpt lat="42.86812" lon="1.24867">
        <ele>755</ele>
        <time>2020-07-27T14:23:51Z</time>
      </trkpt>
      <trkpt lat="42.86815" lon="1.24852">
        <ele>754</ele>
        <time>2020-07-27T14:23:53Z</time>
      </trkpt>
      <trkpt lat="42.8682" lon="1.24841">
        <ele>755</ele>
        <time>2020-07-27T14:23:54Z</time>
      </trkpt>
      <trkpt lat="42.86832" lon="1.24831">
        <ele>756</ele>
        <time>2020-07-27T14:23:57Z</time>
      </trkpt>
      <trkpt lat="42.86958" lon="1.24776">
        <ele>748</ele>
        <time>2020-07-27T14:24:21Z</time>
      </trkpt>
      <trkpt lat="42.86992" lon="1.24766">
        <ele>745</ele>
        <time>2020-07-27T14:24:27Z</time>
      </trkpt>
      <trkpt lat="42.87014" lon="1.24768">
        <ele>745</ele>
        <time>2020-07-27T14:24:31Z</time>
      </trkpt>
      <trkpt lat="42.87034" lon="1.24782">
        <ele>747</ele>
        <time>2020-07-27T14:24:35Z</time>
      </trkpt>
      <trkpt lat="42.87048" lon="1.24806">
        <ele>750</ele>
        <time>2020-07-27T14:24:39Z</time>
      </trkpt>
      <trkpt lat="42.87064" lon="1.24845">
        <ele>753</ele>
        <time>2020-07-27T14:24:44Z</time>
      </trkpt>
      <trkpt lat="42.8707" lon="1.24867">
        <ele>754</ele>
        <time>2020-07-27T14:24:48Z</time>
      </trkpt>
      <trkpt lat="42.87079" lon="1.24882">
        <ele>755</ele>
        <time>2020-07-27T14:24:50Z</time>
      </trkpt>
      <trkpt lat="42.87089" lon="1.24886">
        <ele>756</ele>
        <time>2020-07-27T14:24:52Z</time>
      </trkpt>
      <trkpt lat="42.87095" lon="1.24885">
        <ele>756</ele>
        <time>2020-07-27T14:24:53Z</time>
      </trkpt>
      <trkpt lat="42.87103" lon="1.24874">
        <ele>756</ele>
        <time>2020-07-27T14:24:55Z</time>
      </trkpt>
      <trkpt lat="42.87104" lon="1.24863">
        <ele>755</ele>
        <time>2020-07-27T14:24:56Z</time>
      </trkpt>
      <trkpt lat="42.87092" lon="1.24814">
        <ele>749</ele>
        <time>2020-07-27T14:25:03Z</time>
      </trkpt>
      <trkpt lat="42.87093" lon="1.2478">
        <ele>746</ele>
        <time>2020-07-27T14:25:08Z</time>
      </trkpt>
      <trkpt lat="42.87096" lon="1.24759">
        <ele>744</ele>
        <time>2020-07-27T14:25:10Z</time>
      </trkpt>
      <trkpt lat="42.871" lon="1.24748">
        <ele>744</ele>
        <time>2020-07-27T14:25:12Z</time>
      </trkpt>
      <trkpt lat="42.87104" lon="1.24742">
        <ele>744</ele>
        <time>2020-07-27T14:25:13Z</time>
      </trkpt>
      <trkpt lat="42.8711" lon="1.24738">
        <ele>745</ele>
        <time>2020-07-27T14:25:14Z</time>
      </trkpt>
      <trkpt lat="42.87132" lon="1.24736">
        <ele>748</ele>
        <time>2020-07-27T14:25:18Z</time>
      </trkpt>
      <trkpt lat="42.87137" lon="1.24734">
        <ele>748</ele>
        <time>2020-07-27T14:25:19Z</time>
      </trkpt>
      <trkpt lat="42.87139" lon="1.24729">
        <ele>749</ele>
        <time>2020-07-27T14:25:20Z</time>
      </trkpt>
      <trkpt lat="42.8714" lon="1.24723">
        <ele>749</ele>
        <time>2020-07-27T14:25:21Z</time>
      </trkpt>
      <trkpt lat="42.87136" lon="1.24714">
        <ele>749</ele>
        <time>2020-07-27T14:25:22Z</time>
      </trkpt>
      <trkpt lat="42.87115" lon="1.24695">
        <ele>747</ele>
        <time>2020-07-27T14:25:27Z</time>
      </trkpt>
      <trkpt lat="42.87078" lon="1.2467">
        <ele>740</ele>
        <time>2020-07-27T14:25:34Z</time>
      </trkpt>
      <trkpt lat="42.87069" lon="1.24659">
        <ele>739</ele>
        <time>2020-07-27T14:25:36Z</time>
      </trkpt>
      <trkpt lat="42.8706" lon="1.24634">
        <ele>738</ele>
        <time>2020-07-27T14:25:40Z</time>
      </trkpt>
      <trkpt lat="42.87045" lon="1.24603">
        <ele>735</ele>
        <time>2020-07-27T14:25:44Z</time>
      </trkpt>
      <trkpt lat="42.8698" lon="1.24514">
        <ele>723</ele>
        <time>2020-07-27T14:26:01Z</time>
      </trkpt>
      <trkpt lat="42.8697" lon="1.24492">
        <ele>721</ele>
        <time>2020-07-27T14:26:04Z</time>
      </trkpt>
      <trkpt lat="42.8696" lon="1.24435">
        <ele>715</ele>
        <time>2020-07-27T14:26:12Z</time>
      </trkpt>
      <trkpt lat="42.86946" lon="1.24383">
        <ele>710</ele>
        <time>2020-07-27T14:26:19Z</time>
      </trkpt>
      <trkpt lat="42.86939" lon="1.24362">
        <ele>709</ele>
        <time>2020-07-27T14:26:22Z</time>
      </trkpt>
      <trkpt lat="42.86913" lon="1.24314">
        <ele>705</ele>
        <time>2020-07-27T14:26:30Z</time>
      </trkpt>
      <trkpt lat="42.86909" lon="1.24288">
        <ele>702</ele>
        <time>2020-07-27T14:26:33Z</time>
      </trkpt>
      <trkpt lat="42.86911" lon="1.24269">
        <ele>700</ele>
        <time>2020-07-27T14:26:36Z</time>
      </trkpt>
      <trkpt lat="42.86918" lon="1.24253">
        <ele>699</ele>
        <time>2020-07-27T14:26:38Z</time>
      </trkpt>
      <trkpt lat="42.86941" lon="1.2423">
        <ele>694</ele>
        <time>2020-07-27T14:26:43Z</time>
      </trkpt>
      <trkpt lat="42.86956" lon="1.24221">
        <ele>692</ele>
        <time>2020-07-27T14:26:46Z</time>
      </trkpt>
      <trkpt lat="42.86984" lon="1.24216">
        <ele>691</ele>
        <time>2020-07-27T14:26:51Z</time>
      </trkpt>
      <trkpt lat="42.86997" lon="1.24219">
        <ele>691</ele>
        <time>2020-07-27T14:26:54Z</time>
      </trkpt>
      <trkpt lat="42.87012" lon="1.24236">
        <ele>693</ele>
        <time>2020-07-27T14:26:57Z</time>
      </trkpt>
      <trkpt lat="42.87028" lon="1.24264">
        <ele>695</ele>
        <time>2020-07-27T14:27:02Z</time>
      </trkpt>
      <trkpt lat="42.87043" lon="1.24277">
        <ele>695</ele>
        <time>2020-07-27T14:27:05Z</time>
      </trkpt>
      <trkpt lat="42.87072" lon="1.24283">
        <ele>690</ele>
        <time>2020-07-27T14:27:10Z</time>
      </trkpt>
      <trkpt lat="42.87095" lon="1.24306">
        <ele>692</ele>
        <time>2020-07-27T14:27:15Z</time>
      </trkpt>
      <trkpt lat="42.8711" lon="1.24313">
        <ele>693</ele>
        <time>2020-07-27T14:27:18Z</time>
      </trkpt>
      <trkpt lat="42.87121" lon="1.2431">
        <ele>693</ele>
        <time>2020-07-27T14:27:20Z</time>
      </trkpt>
      <trkpt lat="42.8714" lon="1.24289">
        <ele>689</ele>
        <time>2020-07-27T14:27:24Z</time>
      </trkpt>
      <trkpt lat="42.87168" lon="1.24286">
        <ele>688</ele>
        <time>2020-07-27T14:27:29Z</time>
      </trkpt>
      <trkpt lat="42.87198" lon="1.24287">
        <ele>691</ele>
        <time>2020-07-27T14:27:35Z</time>
      </trkpt>
      <trkpt lat="42.87211" lon="1.24282">
        <ele>691</ele>
        <time>2020-07-27T14:27:37Z</time>
      </trkpt>
      <trkpt lat="42.87218" lon="1.24273">
        <ele>691</ele>
        <time>2020-07-27T14:27:39Z</time>
      </trkpt>
      <trkpt lat="42.87219" lon="1.24261">
        <ele>690</ele>
        <time>2020-07-27T14:27:40Z</time>
      </trkpt>
      <trkpt lat="42.87213" lon="1.24249">
        <ele>688</ele>
        <time>2020-07-27T14:27:42Z</time>
      </trkpt>
      <trkpt lat="42.8718" lon="1.24226">
        <ele>682</ele>
        <time>2020-07-27T14:27:49Z</time>
      </trkpt>
      <trkpt lat="42.8717" lon="1.24213">
        <ele>680</ele>
        <time>2020-07-27T14:27:51Z</time>
      </trkpt>
      <trkpt lat="42.87147" lon="1.24127">
        <ele>676</ele>
        <time>2020-07-27T14:28:03Z</time>
      </trkpt>
      <trkpt lat="42.87137" lon="1.24105">
        <ele>673</ele>
        <time>2020-07-27T14:28:07Z</time>
      </trkpt>
      <trkpt lat="42.871" lon="1.24042">
        <ele>667</ele>
        <time>2020-07-27T14:28:17Z</time>
      </trkpt>
      <trkpt lat="42.87083" lon="1.2402">
        <ele>663</ele>
        <time>2020-07-27T14:28:21Z</time>
      </trkpt>
      <trkpt lat="42.87043" lon="1.23983">
        <ele>658</ele>
        <time>2020-07-27T14:28:30Z</time>
      </trkpt>
      <trkpt lat="42.86983" lon="1.23947">
        <ele>649</ele>
        <time>2020-07-27T14:28:42Z</time>
      </trkpt>
      <trkpt lat="42.86976" lon="1.23936">
        <ele>649</ele>
        <time>2020-07-27T14:28:44Z</time>
      </trkpt>
      <trkpt lat="42.86963" lon="1.23894">
        <ele>649</ele>
        <time>2020-07-27T14:28:49Z</time>
      </trkpt>
      <trkpt lat="42.86953" lon="1.23875">
        <ele>648</ele>
        <time>2020-07-27T14:28:53Z</time>
      </trkpt>
      <trkpt lat="42.86844" lon="1.23741">
        <ele>628</ele>
        <time>2020-07-27T14:29:19Z</time>
      </trkpt>
      <trkpt lat="42.8681" lon="1.23709">
        <ele>629</ele>
        <time>2020-07-27T14:29:26Z</time>
      </trkpt>
      <trkpt lat="42.86754" lon="1.23668">
        <ele>625</ele>
        <time>2020-07-27T14:29:37Z</time>
      </trkpt>
      <trkpt lat="42.86733" lon="1.23659">
        <ele>623</ele>
        <time>2020-07-27T14:29:41Z</time>
      </trkpt>
      <trkpt lat="42.86685" lon="1.23651">
        <ele>616</ele>
        <time>2020-07-27T14:29:50Z</time>
      </trkpt>
      <trkpt lat="42.86662" lon="1.23638">
        <ele>612</ele>
        <time>2020-07-27T14:29:54Z</time>
      </trkpt>
      <trkpt lat="42.8665" lon="1.23628">
        <ele>609</ele>
        <time>2020-07-27T14:29:57Z</time>
      </trkpt>
      <trkpt lat="42.86642" lon="1.2361">
        <ele>606</ele>
        <time>2020-07-27T14:29:59Z</time>
      </trkpt>
      <trkpt lat="42.86635" lon="1.23556">
        <ele>599</ele>
        <time>2020-07-27T14:30:07Z</time>
      </trkpt>
      <trkpt lat="42.86637" lon="1.23535">
        <ele>598</ele>
        <time>2020-07-27T14:30:09Z</time>
      </trkpt>
      <trkpt lat="42.86644" lon="1.23499">
        <ele>598</ele>
        <time>2020-07-27T14:30:14Z</time>
      </trkpt>
      <trkpt lat="42.86644" lon="1.23476">
        <ele>596</ele>
        <time>2020-07-27T14:30:17Z</time>
      </trkpt>
      <trkpt lat="42.86628" lon="1.23423">
        <ele>587</ele>
        <time>2020-07-27T14:30:25Z</time>
      </trkpt>
      <trkpt lat="42.86625" lon="1.2341">
        <ele>584</ele>
        <time>2020-07-27T14:30:26Z</time>
      </trkpt>
      <trkpt lat="42.86626" lon="1.23395">
        <ele>582</ele>
        <time>2020-07-27T14:30:28Z</time>
      </trkpt>
      <trkpt lat="42.86645" lon="1.23359">
        <ele>582</ele>
        <time>2020-07-27T14:30:34Z</time>
      </trkpt>
      <trkpt lat="42.8666" lon="1.23316">
        <ele>579</ele>
        <time>2020-07-27T14:30:40Z</time>
      </trkpt>
      <trkpt lat="42.86668" lon="1.233">
        <ele>577</ele>
        <time>2020-07-27T14:30:43Z</time>
      </trkpt>
      <trkpt lat="42.86681" lon="1.23288">
        <ele>575</ele>
        <time>2020-07-27T14:30:46Z</time>
      </trkpt>
      <trkpt lat="42.86712" lon="1.23275">
        <ele>575</ele>
        <time>2020-07-27T14:30:52Z</time>
      </trkpt>
      <trkpt lat="42.86744" lon="1.23249">
        <ele>571</ele>
        <time>2020-07-27T14:30:58Z</time>
      </trkpt>
      <trkpt lat="42.86756" lon="1.23246">
        <ele>571</ele>
        <time>2020-07-27T14:31:00Z</time>
      </trkpt>
      <trkpt lat="42.86767" lon="1.23251">
        <ele>572</ele>
        <time>2020-07-27T14:31:02Z</time>
      </trkpt>
      <trkpt lat="42.86805" lon="1.23278">
        <ele>577</ele>
        <time>2020-07-27T14:31:10Z</time>
      </trkpt>
      <trkpt lat="42.86847" lon="1.23287">
        <ele>578</ele>
        <time>2020-07-27T14:31:18Z</time>
      </trkpt>
      <trkpt lat="42.86879" lon="1.23304">
        <ele>582</ele>
        <time>2020-07-27T14:31:24Z</time>
      </trkpt>
      <trkpt lat="42.86887" lon="1.23305">
        <ele>582</ele>
        <time>2020-07-27T14:31:25Z</time>
      </trkpt>
      <trkpt lat="42.86893" lon="1.233">
        <ele>582</ele>
        <time>2020-07-27T14:31:26Z</time>
      </trkpt>
      <trkpt lat="42.86895" lon="1.2329">
        <ele>583</ele>
        <time>2020-07-27T14:31:28Z</time>
      </trkpt>
      <trkpt lat="42.8689" lon="1.2328">
        <ele>582</ele>
        <time>2020-07-27T14:31:29Z</time>
      </trkpt>
      <trkpt lat="42.86836" lon="1.23214">
        <ele>572</ele>
        <time>2020-07-27T14:31:42Z</time>
      </trkpt>
      <trkpt lat="42.86776" lon="1.23127">
        <ele>561</ele>
        <time>2020-07-27T14:31:58Z</time>
      </trkpt>
      <trkpt lat="42.86678" lon="1.22973">
        <ele>531</ele>
        <time>2020-07-27T14:32:24Z</time>
      </trkpt>
      <trkpt lat="42.86773" lon="1.22805">
        <ele>529</ele>
        <time>2020-07-27T14:32:52Z</time>
      </trkpt>
      <trkpt lat="42.86804" lon="1.22758">
        <ele>527</ele>
        <time>2020-07-27T14:33:00Z</time>
      </trkpt>
      <trkpt lat="42.87134" lon="1.22195">
        <ele>515</ele>
        <time>2020-07-27T14:34:34Z</time>
      </trkpt>
      <trkpt lat="42.8719" lon="1.22135">
        <ele>515</ele>
        <time>2020-07-27T14:34:47Z</time>
      </trkpt>
      <trkpt lat="42.87242" lon="1.22067">
        <ele>513</ele>
        <time>2020-07-27T14:35:00Z</time>
      </trkpt>
      <trkpt lat="42.87345" lon="1.2194">
        <ele>508</ele>
        <time>2020-07-27T14:35:24Z</time>
      </trkpt>
      <trkpt lat="42.87467" lon="1.21779">
        <ele>503</ele>
        <time>2020-07-27T14:35:55Z</time>
      </trkpt>
      <trkpt lat="42.87572" lon="1.2174">
        <ele>502</ele>
        <time>2020-07-27T14:36:14Z</time>
      </trkpt>
      <trkpt lat="42.87778" lon="1.21668">
        <ele>499</ele>
        <time>2020-07-27T14:36:52Z</time>
      </trkpt>
      <trkpt lat="42.87792" lon="1.21665">
        <ele>499</ele>
        <time>2020-07-27T14:36:54Z</time>
      </trkpt>
      <trkpt lat="42.8784" lon="1.21662">
        <ele>500</ele>
        <time>2020-07-27T14:37:03Z</time>
      </trkpt>
      <trkpt lat="42.8785" lon="1.21659">
        <ele>500</ele>
        <time>2020-07-27T14:37:05Z</time>
      </trkpt>
      <trkpt lat="42.87861" lon="1.2165">
        <ele>499</ele>
        <time>2020-07-27T14:37:07Z</time>
      </trkpt>
      <trkpt lat="42.87923" lon="1.21591">
        <ele>496</ele>
        <time>2020-07-27T14:37:21Z</time>
      </trkpt>
      <trkpt lat="42.87943" lon="1.21576">
        <ele>496</ele>
        <time>2020-07-27T14:37:25Z</time>
      </trkpt>
      <trkpt lat="42.87962" lon="1.21568">
        <ele>496</ele>
        <time>2020-07-27T14:37:28Z</time>
      </trkpt>
      <trkpt lat="42.87984" lon="1.21562">
        <ele>496</ele>
        <time>2020-07-27T14:37:32Z</time>
      </trkpt>
      <trkpt lat="42.87998" lon="1.2156">
        <ele>497</ele>
        <time>2020-07-27T14:37:35Z</time>
      </trkpt>
      <trkpt lat="42.88004" lon="1.21569">
        <ele>497</ele>
        <time>2020-07-27T14:37:36Z</time>
      </trkpt>
      <trkpt lat="42.88012" lon="1.2157">
        <ele>497</ele>
        <time>2020-07-27T14:37:38Z</time>
      </trkpt>
      <trkpt lat="42.88018" lon="1.21567">
        <ele>497</ele>
        <time>2020-07-27T14:37:39Z</time>
      </trkpt>
      <trkpt lat="42.88022" lon="1.21561">
        <ele>497</ele>
        <time>2020-07-27T14:37:40Z</time>
      </trkpt>
      <trkpt lat="42.88024" lon="1.21555">
        <ele>497</ele>
        <time>2020-07-27T14:37:41Z</time>
      </trkpt>
      <trkpt lat="42.88023" lon="1.21544">
        <ele>496</ele>
        <time>2020-07-27T14:37:42Z</time>
      </trkpt>
      <trkpt lat="42.8802" lon="1.21538">
        <ele>496</ele>
        <time>2020-07-27T14:37:43Z</time>
      </trkpt>
      <trkpt lat="42.88015" lon="1.21534">
        <ele>495</ele>
        <time>2020-07-27T14:37:44Z</time>
      </trkpt>
      <trkpt lat="42.88008" lon="1.21533">
        <ele>495</ele>
        <time>2020-07-27T14:37:45Z</time>
      </trkpt>
      <trkpt lat="42.88001" lon="1.21537">
        <ele>495</ele>
        <time>2020-07-27T14:37:47Z</time>
      </trkpt>
      <trkpt lat="42.87998" lon="1.21542">
        <ele>495</ele>
        <time>2020-07-27T14:37:48Z</time>
      </trkpt>
      <trkpt lat="42.87953" lon="1.21513">
        <ele>494</ele>
        <time>2020-07-27T14:37:56Z</time>
      </trkpt>
      <trkpt lat="42.87318" lon="1.21138">
        <ele>501</ele>
        <time>2020-07-27T14:40:00Z</time>
      </trkpt>
      <trkpt lat="42.87287" lon="1.21133">
        <ele>502</ele>
        <time>2020-07-27T14:40:05Z</time>
      </trkpt>
      <trkpt lat="42.87222" lon="1.21133">
        <ele>506</ele>
        <time>2020-07-27T14:40:17Z</time>
      </trkpt>
      <trkpt lat="42.871" lon="1.21076">
        <ele>505</ele>
        <time>2020-07-27T14:40:40Z</time>
      </trkpt>
      <trkpt lat="42.87025" lon="1.21033">
        <ele>509</ele>
        <time>2020-07-27T14:40:54Z</time>
      </trkpt>
      <trkpt lat="42.87003" lon="1.21016">
        <ele>510</ele>
        <time>2020-07-27T14:40:59Z</time>
      </trkpt>
      <trkpt lat="42.8697" lon="1.20979">
        <ele>510</ele>
        <time>2020-07-27T14:41:06Z</time>
      </trkpt>
      <trkpt lat="42.8694" lon="1.20937">
        <ele>508</ele>
        <time>2020-07-27T14:41:14Z</time>
      </trkpt>
      <trkpt lat="42.86901" lon="1.20905">
        <ele>508</ele>
        <time>2020-07-27T14:41:22Z</time>
      </trkpt>
      <trkpt lat="42.86858" lon="1.20878">
        <ele>511</ele>
        <time>2020-07-27T14:41:30Z</time>
      </trkpt>
      <trkpt lat="42.86831" lon="1.2085">
        <ele>511</ele>
        <time>2020-07-27T14:41:36Z</time>
      </trkpt>
      <trkpt lat="42.86834" lon="1.20844">
        <ele>510</ele>
        <time>2020-07-27T14:41:37Z</time>
      </trkpt>
      <trkpt lat="42.86834" lon="1.20837">
        <ele>509</ele>
        <time>2020-07-27T14:41:38Z</time>
      </trkpt>
      <trkpt lat="42.8683" lon="1.20828">
        <ele>509</ele>
        <time>2020-07-27T14:41:40Z</time>
      </trkpt>
      <trkpt lat="42.86834" lon="1.20815">
        <ele>508</ele>
        <time>2020-07-27T14:41:41Z</time>
      </trkpt>
      <trkpt lat="42.86951" lon="1.20549">
        <ele>506</ele>
        <time>2020-07-27T14:42:22Z</time>
      </trkpt>
    </trkseg>
  </trk>
</gpx>